<?xml version='1.0' encoding='UTF-8'?><gpx version="1.1" creator="JPX - https://github.com/jenetics/jpx" xmlns="http://www.topografix.com/GPX/1/1"><trk><trkseg><trkpt lat="37.8071167" lon="12.4663533"><ele>20.0</ele><time>2026-04-29T07:49:29.837Z</time></trkpt><trkpt lat="37.8071367" lon="12.46645"><ele>20.0</ele><time>2026-04-29T07:49:30.844Z</time></trkpt><trkpt lat="37.80715" lon="12.46655"><ele>20.0</ele><time>2026-04-29T07:49:31.836Z</time></trkpt><trkpt lat="37.80716" lon="12.46668"><ele>20.0</ele><time>2026-04-29T07:49:32.836Z</time></trkpt><trkpt lat="37.8071817" lon="12.4668117"><ele>20.0</ele><time>2026-04-29T07:49:33.836Z</time></trkpt><trkpt lat="37.807215" lon="12.4669467"><ele>20.0</ele><time>2026-04-29T07:49:34.837Z</time></trkpt><trkpt lat="37.8072533" lon="12.46709"><ele>20.0</ele><time>2026-04-29T07:49:35.841Z</time></trkpt><trkpt lat="37.8072983" lon="12.46724"><ele>20.0</ele><time>2026-04-29T07:49:36.836Z</time></trkpt><trkpt lat="37.8073467" lon="12.4674017"><ele>20.0</ele><time>2026-04-29T07:49:37.837Z</time></trkpt><trkpt lat="37.8073967" lon="12.46757"><ele>20.333333333333336</ele><time>2026-04-29T07:49:38.836Z</time></trkpt><trkpt lat="37.80745" lon="12.4677467"><ele>20.666666666666668</ele><time>2026-04-29T07:49:39.838Z</time></trkpt><trkpt lat="37.8075067" lon="12.4679283"><ele>21.0</ele><time>2026-04-29T07:49:40.84Z</time></trkpt><trkpt lat="37.8075633" lon="12.468115"><ele>21.0</ele><time>2026-04-29T07:49:41.838Z</time></trkpt><trkpt lat="37.8076217" lon="12.4682933"><ele>21.0</ele><time>2026-04-29T07:49:42.841Z</time></trkpt><trkpt lat="37.80768" lon="12.468465"><ele>21.0</ele><time>2026-04-29T07:49:43.836Z</time></trkpt><trkpt lat="37.8077367" lon="12.4686283"><ele>21.0</ele><time>2026-04-29T07:49:44.837Z</time></trkpt><trkpt lat="37.8077917" lon="12.4687883"><ele>21.0</ele><time>2026-04-29T07:49:45.837Z</time></trkpt><trkpt lat="37.8078483" lon="12.4689383"><ele>21.0</ele><time>2026-04-29T07:49:46.839Z</time></trkpt><trkpt lat="37.8079017" lon="12.4690767"><ele>21.0</ele><time>2026-04-29T07:49:47.839Z</time></trkpt><trkpt lat="37.8079617" lon="12.469205"><ele>21.0</ele><time>2026-04-29T07:49:48.838Z</time></trkpt><trkpt lat="37.80802" lon="12.4693217"><ele>21.0</ele><time>2026-04-29T07:49:49.837Z</time></trkpt><trkpt lat="37.808065" lon="12.4694217"><ele>21.0</ele><time>2026-04-29T07:49:50.838Z</time></trkpt><trkpt lat="37.8080933" lon="12.4695017"><ele>21.0</ele><time>2026-04-29T07:49:51.837Z</time></trkpt><trkpt lat="37.80816" lon="12.4695767"><ele>21.0</ele><time>2026-04-29T07:49:53.836Z</time></trkpt><trkpt lat="37.808255" lon="12.4694867"><ele>21.0</ele><time>2026-04-29T07:49:55.837Z</time></trkpt><trkpt lat="37.8083517" lon="12.469395"><ele>21.0</ele><time>2026-04-29T07:49:57.842Z</time></trkpt><trkpt lat="37.8084733" lon="12.4694117"><ele>21.0</ele><time>2026-04-29T07:49:59.837Z</time></trkpt><trkpt lat="37.8085483" lon="12.469455"><ele>21.0</ele><time>2026-04-29T07:50:00.838Z</time></trkpt><trkpt lat="37.808635" lon="12.4695133"><ele>21.0</ele><time>2026-04-29T07:50:01.837Z</time></trkpt><trkpt lat="37.8087333" lon="12.4695783"><ele>21.0</ele><time>2026-04-29T07:50:02.842Z</time></trkpt><trkpt lat="37.80883" lon="12.4696383"><ele>19.8</ele><time>2026-04-29T07:50:03.841Z</time></trkpt><trkpt lat="37.8089217" lon="12.469695"><ele>18.6</ele><time>2026-04-29T07:50:04.84Z</time></trkpt><trkpt lat="37.8090117" lon="12.4697433"><ele>17.4</ele><time>2026-04-29T07:50:05.836Z</time></trkpt><trkpt lat="37.8090933" lon="12.4697883"><ele>16.2</ele><time>2026-04-29T07:50:06.839Z</time></trkpt><trkpt lat="37.8091583" lon="12.4698267"><ele>15.0</ele><time>2026-04-29T07:50:07.839Z</time></trkpt><trkpt lat="37.8092467" lon="12.4698683"><ele>15.0</ele><time>2026-04-29T07:50:09.838Z</time></trkpt><trkpt lat="37.80932" lon="12.4699283"><ele>15.0</ele><time>2026-04-29T07:50:13.836Z</time></trkpt><trkpt lat="37.8093533" lon="12.4699967"><ele>15.0</ele><time>2026-04-29T07:50:14.838Z</time></trkpt><trkpt lat="37.8093967" lon="12.4700967"><ele>15.0</ele><time>2026-04-29T07:50:15.837Z</time></trkpt><trkpt lat="37.8094567" lon="12.4702283"><ele>15.0</ele><time>2026-04-29T07:50:16.837Z</time></trkpt><trkpt lat="37.8095283" lon="12.4703817"><ele>13.666666666666666</ele><time>2026-04-29T07:50:17.837Z</time></trkpt><trkpt lat="37.80961" lon="12.4705483"><ele>12.333333333333332</ele><time>2026-04-29T07:50:18.839Z</time></trkpt><trkpt lat="37.8096983" lon="12.4707283"><ele>11.0</ele><time>2026-04-29T07:50:19.837Z</time></trkpt><trkpt lat="37.8097933" lon="12.4709183"><ele>11.0</ele><time>2026-04-29T07:50:20.84Z</time></trkpt><trkpt lat="37.809895" lon="12.4711117"><ele>11.0</ele><time>2026-04-29T07:50:21.839Z</time></trkpt><trkpt lat="37.8100017" lon="12.4713083"><ele>11.0</ele><time>2026-04-29T07:50:22.838Z</time></trkpt><trkpt lat="37.81011" lon="12.4714983"><ele>10.666666666666666</ele><time>2026-04-29T07:50:23.838Z</time></trkpt><trkpt lat="37.810215" lon="12.4716717"><ele>10.333333333333334</ele><time>2026-04-29T07:50:24.841Z</time></trkpt><trkpt lat="37.8103117" lon="12.4718283"><ele>10.0</ele><time>2026-04-29T07:50:25.84Z</time></trkpt><trkpt lat="37.8104017" lon="12.471975"><ele>10.25</ele><time>2026-04-29T07:50:26.838Z</time></trkpt><trkpt lat="37.810485" lon="12.4721117"><ele>10.5</ele><time>2026-04-29T07:50:27.839Z</time></trkpt><trkpt lat="37.810565" lon="12.4722383"><ele>10.75</ele><time>2026-04-29T07:50:28.839Z</time></trkpt><trkpt lat="37.8106367" lon="12.4723517"><ele>11.0</ele><time>2026-04-29T07:50:29.846Z</time></trkpt><trkpt lat="37.8107117" lon="12.4724667"><ele>11.0</ele><time>2026-04-29T07:50:30.863Z</time></trkpt><trkpt lat="37.8107983" lon="12.4725917"><ele>11.0</ele><time>2026-04-29T07:50:31.844Z</time></trkpt><trkpt lat="37.8108933" lon="12.4727333"><ele>11.0</ele><time>2026-04-29T07:50:32.846Z</time></trkpt><trkpt lat="37.81099" lon="12.47289"><ele>11.0</ele><time>2026-04-29T07:50:33.843Z</time></trkpt><trkpt lat="37.8110933" lon="12.47306"><ele>11.333333333333332</ele><time>2026-04-29T07:50:34.84Z</time></trkpt><trkpt lat="37.81121" lon="12.4732317"><ele>11.666666666666666</ele><time>2026-04-29T07:50:35.846Z</time></trkpt><trkpt lat="37.8113367" lon="12.473405"><ele>12.0</ele><time>2026-04-29T07:50:36.842Z</time></trkpt><trkpt lat="37.8114733" lon="12.473575"><ele>12.0</ele><time>2026-04-29T07:50:37.844Z</time></trkpt><trkpt lat="37.811615" lon="12.4737467"><ele>12.0</ele><time>2026-04-29T07:50:38.844Z</time></trkpt><trkpt lat="37.8117583" lon="12.47392"><ele>12.0</ele><time>2026-04-29T07:50:39.845Z</time></trkpt><trkpt lat="37.8119067" lon="12.4740967"><ele>12.333333333333332</ele><time>2026-04-29T07:50:40.837Z</time></trkpt><trkpt lat="37.8120583" lon="12.4742767"><ele>12.666666666666666</ele><time>2026-04-29T07:50:41.84Z</time></trkpt><trkpt lat="37.8122117" lon="12.4744583"><ele>13.0</ele><time>2026-04-29T07:50:42.837Z</time></trkpt><trkpt lat="37.8123717" lon="12.4746383"><ele>12.333333333333332</ele><time>2026-04-29T07:50:43.837Z</time></trkpt><trkpt lat="37.8125333" lon="12.474815"><ele>11.666666666666666</ele><time>2026-04-29T07:50:44.841Z</time></trkpt><trkpt lat="37.8127033" lon="12.47499"><ele>11.0</ele><time>2026-04-29T07:50:45.837Z</time></trkpt><trkpt lat="37.812875" lon="12.4751633"><ele>10.666666666666666</ele><time>2026-04-29T07:50:46.839Z</time></trkpt><trkpt lat="37.81305" lon="12.4753367"><ele>10.333333333333334</ele><time>2026-04-29T07:50:47.841Z</time></trkpt><trkpt lat="37.8132267" lon="12.47551"><ele>10.0</ele><time>2026-04-29T07:50:48.84Z</time></trkpt><trkpt lat="37.8134033" lon="12.475685"><ele>10.0</ele><time>2026-04-29T07:50:49.837Z</time></trkpt><trkpt lat="37.8135833" lon="12.4758617"><ele>10.0</ele><time>2026-04-29T07:50:50.838Z</time></trkpt><trkpt lat="37.8137617" lon="12.4760383"><ele>10.0</ele><time>2026-04-29T07:50:51.848Z</time></trkpt><trkpt lat="37.8139417" lon="12.4762133"><ele>10.0</ele><time>2026-04-29T07:50:52.839Z</time></trkpt><trkpt lat="37.8141217" lon="12.4763867"><ele>10.666666666666668</ele><time>2026-04-29T07:50:53.846Z</time></trkpt><trkpt lat="37.8142983" lon="12.4765633"><ele>11.333333333333334</ele><time>2026-04-29T07:50:54.848Z</time></trkpt><trkpt lat="37.814475" lon="12.4767367"><ele>12.0</ele><time>2026-04-29T07:50:55.842Z</time></trkpt><trkpt lat="37.81465" lon="12.4769083"><ele>12.333333333333332</ele><time>2026-04-29T07:50:56.839Z</time></trkpt><trkpt lat="37.81482" lon="12.4770733"><ele>12.666666666666666</ele><time>2026-04-29T07:50:57.838Z</time></trkpt><trkpt lat="37.8149883" lon="12.4772317"><ele>13.0</ele><time>2026-04-29T07:50:58.841Z</time></trkpt><trkpt lat="37.815145" lon="12.4773783"><ele>13.0</ele><time>2026-04-29T07:50:59.837Z</time></trkpt><trkpt lat="37.8152917" lon="12.4775267"><ele>13.0</ele><time>2026-04-29T07:51:00.838Z</time></trkpt><trkpt lat="37.81544" lon="12.477675"><ele>13.0</ele><time>2026-04-29T07:51:01.839Z</time></trkpt><trkpt lat="37.815595" lon="12.477825"><ele>13.0</ele><time>2026-04-29T07:51:02.842Z</time></trkpt><trkpt lat="37.8157517" lon="12.477975"><ele>13.0</ele><time>2026-04-29T07:51:03.846Z</time></trkpt><trkpt lat="37.815905" lon="12.4781217"><ele>13.0</ele><time>2026-04-29T07:51:04.837Z</time></trkpt><trkpt lat="37.8160567" lon="12.478265"><ele>13.0</ele><time>2026-04-29T07:51:05.836Z</time></trkpt><trkpt lat="37.8162067" lon="12.4784033"><ele>13.0</ele><time>2026-04-29T07:51:06.837Z</time></trkpt><trkpt lat="37.81635" lon="12.478535"><ele>13.0</ele><time>2026-04-29T07:51:07.841Z</time></trkpt><trkpt lat="37.81649" lon="12.4786783"><ele>13.333333333333332</ele><time>2026-04-29T07:51:08.838Z</time></trkpt><trkpt lat="37.81663" lon="12.4788183"><ele>13.666666666666668</ele><time>2026-04-29T07:51:09.842Z</time></trkpt><trkpt lat="37.8167717" lon="12.4789583"><ele>14.0</ele><time>2026-04-29T07:51:10.839Z</time></trkpt><trkpt lat="37.816915" lon="12.4790967"><ele>14.0</ele><time>2026-04-29T07:51:11.839Z</time></trkpt><trkpt lat="37.8170633" lon="12.4792417"><ele>14.0</ele><time>2026-04-29T07:51:12.839Z</time></trkpt><trkpt lat="37.817215" lon="12.4793883"><ele>14.0</ele><time>2026-04-29T07:51:13.845Z</time></trkpt><trkpt lat="37.8173683" lon="12.479535"><ele>14.0</ele><time>2026-04-29T07:51:14.838Z</time></trkpt><trkpt lat="37.81752" lon="12.479685"><ele>14.0</ele><time>2026-04-29T07:51:15.84Z</time></trkpt><trkpt lat="37.8176733" lon="12.4798367"><ele>14.0</ele><time>2026-04-29T07:51:16.837Z</time></trkpt><trkpt lat="37.8178283" lon="12.47999"><ele>13.666666666666668</ele><time>2026-04-29T07:51:17.838Z</time></trkpt><trkpt lat="37.817985" lon="12.4801433"><ele>13.333333333333332</ele><time>2026-04-29T07:51:18.836Z</time></trkpt><trkpt lat="37.8181467" lon="12.4802983"><ele>13.0</ele><time>2026-04-29T07:51:19.838Z</time></trkpt><trkpt lat="37.81831" lon="12.4804533"><ele>13.333333333333332</ele><time>2026-04-29T07:51:20.84Z</time></trkpt><trkpt lat="37.8184717" lon="12.4806083"><ele>13.666666666666668</ele><time>2026-04-29T07:51:21.841Z</time></trkpt><trkpt lat="37.81863" lon="12.4807617"><ele>14.0</ele><time>2026-04-29T07:51:22.837Z</time></trkpt><trkpt lat="37.8187867" lon="12.4809133"><ele>14.0</ele><time>2026-04-29T07:51:23.838Z</time></trkpt><trkpt lat="37.8189417" lon="12.4810617"><ele>14.0</ele><time>2026-04-29T07:51:24.837Z</time></trkpt><trkpt lat="37.8190967" lon="12.4812083"><ele>14.0</ele><time>2026-04-29T07:51:25.839Z</time></trkpt><trkpt lat="37.819245" lon="12.4813483"><ele>14.333333333333334</ele><time>2026-04-29T07:51:26.837Z</time></trkpt><trkpt lat="37.819385" lon="12.4814833"><ele>14.666666666666668</ele><time>2026-04-29T07:51:27.839Z</time></trkpt><trkpt lat="37.819525" lon="12.481615"><ele>15.0</ele><time>2026-04-29T07:51:28.837Z</time></trkpt><trkpt lat="37.8196667" lon="12.4817417"><ele>15.0</ele><time>2026-04-29T07:51:29.837Z</time></trkpt><trkpt lat="37.8198" lon="12.4818633"><ele>15.0</ele><time>2026-04-29T07:51:30.84Z</time></trkpt><trkpt lat="37.8199283" lon="12.4819767"><ele>15.0</ele><time>2026-04-29T07:51:31.839Z</time></trkpt><trkpt lat="37.8200517" lon="12.482085"><ele>15.75</ele><time>2026-04-29T07:51:32.843Z</time></trkpt><trkpt lat="37.820175" lon="12.4821933"><ele>16.5</ele><time>2026-04-29T07:51:33.84Z</time></trkpt><trkpt lat="37.8202933" lon="12.482305"><ele>17.25</ele><time>2026-04-29T07:51:34.837Z</time></trkpt><trkpt lat="37.82041" lon="12.4824217"><ele>18.0</ele><time>2026-04-29T07:51:35.838Z</time></trkpt><trkpt lat="37.8205283" lon="12.4825433"><ele>18.0</ele><time>2026-04-29T07:51:36.841Z</time></trkpt><trkpt lat="37.8206533" lon="12.4826633"><ele>18.0</ele><time>2026-04-29T07:51:37.839Z</time></trkpt><trkpt lat="37.82078" lon="12.4827867"><ele>18.0</ele><time>2026-04-29T07:51:38.84Z</time></trkpt><trkpt lat="37.82091" lon="12.4829083"><ele>17.666666666666668</ele><time>2026-04-29T07:51:39.836Z</time></trkpt><trkpt lat="37.821045" lon="12.483035"><ele>17.333333333333336</ele><time>2026-04-29T07:51:40.838Z</time></trkpt><trkpt lat="37.8211817" lon="12.483165"><ele>17.0</ele><time>2026-04-29T07:51:41.837Z</time></trkpt><trkpt lat="37.8213217" lon="12.4833"><ele>17.0</ele><time>2026-04-29T07:51:42.846Z</time></trkpt><trkpt lat="37.821465" lon="12.483435"><ele>17.0</ele><time>2026-04-29T07:51:43.837Z</time></trkpt><trkpt lat="37.8216133" lon="12.483575"><ele>17.0</ele><time>2026-04-29T07:51:44.839Z</time></trkpt><trkpt lat="37.8217633" lon="12.4837183"><ele>17.0</ele><time>2026-04-29T07:51:45.845Z</time></trkpt><trkpt lat="37.821915" lon="12.483865"><ele>17.0</ele><time>2026-04-29T07:51:46.839Z</time></trkpt><trkpt lat="37.82207" lon="12.4840133"><ele>17.0</ele><time>2026-04-29T07:51:47.841Z</time></trkpt><trkpt lat="37.8222267" lon="12.4841633"><ele>17.0</ele><time>2026-04-29T07:51:48.842Z</time></trkpt><trkpt lat="37.8223833" lon="12.48431"><ele>17.0</ele><time>2026-04-29T07:51:49.841Z</time></trkpt><trkpt lat="37.82254" lon="12.4844517"><ele>17.0</ele><time>2026-04-29T07:51:50.844Z</time></trkpt><trkpt lat="37.822695" lon="12.484595"><ele>17.666666666666668</ele><time>2026-04-29T07:51:51.842Z</time></trkpt><trkpt lat="37.822845" lon="12.4847367"><ele>18.333333333333332</ele><time>2026-04-29T07:51:52.841Z</time></trkpt><trkpt lat="37.8229883" lon="12.48487"><ele>19.0</ele><time>2026-04-29T07:51:53.842Z</time></trkpt><trkpt lat="37.8231233" lon="12.4849967"><ele>19.0</ele><time>2026-04-29T07:51:54.843Z</time></trkpt><trkpt lat="37.8232517" lon="12.4851183"><ele>19.0</ele><time>2026-04-29T07:51:55.84Z</time></trkpt><trkpt lat="37.8233733" lon="12.4852333"><ele>19.0</ele><time>2026-04-29T07:51:56.84Z</time></trkpt><trkpt lat="37.8234867" lon="12.4853433"><ele>18.75</ele><time>2026-04-29T07:51:57.843Z</time></trkpt><trkpt lat="37.8235933" lon="12.485445"><ele>18.5</ele><time>2026-04-29T07:51:58.841Z</time></trkpt><trkpt lat="37.8236933" lon="12.48554"><ele>18.25</ele><time>2026-04-29T07:51:59.839Z</time></trkpt><trkpt lat="37.8237883" lon="12.4856317"><ele>18.0</ele><time>2026-04-29T07:52:00.84Z</time></trkpt><trkpt lat="37.8238817" lon="12.4857183"><ele>18.0</ele><time>2026-04-29T07:52:01.837Z</time></trkpt><trkpt lat="37.8239733" lon="12.4858"><ele>18.0</ele><time>2026-04-29T07:52:02.837Z</time></trkpt><trkpt lat="37.8240617" lon="12.4858783"><ele>18.0</ele><time>2026-04-29T07:52:03.843Z</time></trkpt><trkpt lat="37.82415" lon="12.4859583"><ele>18.0</ele><time>2026-04-29T07:52:04.837Z</time></trkpt><trkpt lat="37.82424" lon="12.48604"><ele>18.0</ele><time>2026-04-29T07:52:05.837Z</time></trkpt><trkpt lat="37.82433" lon="12.4861233"><ele>17.8</ele><time>2026-04-29T07:52:06.844Z</time></trkpt><trkpt lat="37.8244217" lon="12.4862083"><ele>17.6</ele><time>2026-04-29T07:52:07.846Z</time></trkpt><trkpt lat="37.824515" lon="12.4862933"><ele>17.4</ele><time>2026-04-29T07:52:08.84Z</time></trkpt><trkpt lat="37.8246033" lon="12.486375"><ele>17.2</ele><time>2026-04-29T07:52:09.844Z</time></trkpt><trkpt lat="37.8246883" lon="12.4864533"><ele>17.0</ele><time>2026-04-29T07:52:10.845Z</time></trkpt><trkpt lat="37.8247717" lon="12.4865317"><ele>17.2</ele><time>2026-04-29T07:52:11.848Z</time></trkpt><trkpt lat="37.8248533" lon="12.4866083"><ele>17.4</ele><time>2026-04-29T07:52:12.84Z</time></trkpt><trkpt lat="37.8249333" lon="12.4866883"><ele>17.6</ele><time>2026-04-29T07:52:13.845Z</time></trkpt><trkpt lat="37.825015" lon="12.48677"><ele>17.8</ele><time>2026-04-29T07:52:14.837Z</time></trkpt><trkpt lat="37.8250967" lon="12.4868467"><ele>18.0</ele><time>2026-04-29T07:52:15.841Z</time></trkpt><trkpt lat="37.8251767" lon="12.4869233"><ele>18.0</ele><time>2026-04-29T07:52:16.839Z</time></trkpt><trkpt lat="37.8252567" lon="12.4870033"><ele>18.0</ele><time>2026-04-29T07:52:17.838Z</time></trkpt><trkpt lat="37.82534" lon="12.4870817"><ele>18.0</ele><time>2026-04-29T07:52:18.839Z</time></trkpt><trkpt lat="37.8254283" lon="12.4871667"><ele>18.0</ele><time>2026-04-29T07:52:19.843Z</time></trkpt><trkpt lat="37.825525" lon="12.4872583"><ele>18.0</ele><time>2026-04-29T07:52:20.839Z</time></trkpt><trkpt lat="37.825625" lon="12.4873533"><ele>18.25</ele><time>2026-04-29T07:52:21.839Z</time></trkpt><trkpt lat="37.8257283" lon="12.48745"><ele>18.5</ele><time>2026-04-29T07:52:22.837Z</time></trkpt><trkpt lat="37.8258317" lon="12.487545"><ele>18.75</ele><time>2026-04-29T07:52:23.839Z</time></trkpt><trkpt lat="37.825935" lon="12.4876417"><ele>19.0</ele><time>2026-04-29T07:52:24.839Z</time></trkpt><trkpt lat="37.8260333" lon="12.4877333"><ele>19.25</ele><time>2026-04-29T07:52:25.839Z</time></trkpt><trkpt lat="37.8261283" lon="12.487825"><ele>19.5</ele><time>2026-04-29T07:52:26.844Z</time></trkpt><trkpt lat="37.826225" lon="12.4879167"><ele>19.75</ele><time>2026-04-29T07:52:27.841Z</time></trkpt><trkpt lat="37.8263233" lon="12.48801"><ele>20.0</ele><time>2026-04-29T07:52:28.839Z</time></trkpt><trkpt lat="37.8264217" lon="12.488105"><ele>20.0</ele><time>2026-04-29T07:52:29.84Z</time></trkpt><trkpt lat="37.8265233" lon="12.4882017"><ele>20.0</ele><time>2026-04-29T07:52:30.839Z</time></trkpt><trkpt lat="37.826625" lon="12.4882983"><ele>20.0</ele><time>2026-04-29T07:52:31.836Z</time></trkpt><trkpt lat="37.8267267" lon="12.4883917"><ele>20.0</ele><time>2026-04-29T07:52:32.837Z</time></trkpt><trkpt lat="37.8268283" lon="12.4884833"><ele>20.0</ele><time>2026-04-29T07:52:33.837Z</time></trkpt><trkpt lat="37.82693" lon="12.4885783"><ele>20.0</ele><time>2026-04-29T07:52:34.836Z</time></trkpt><trkpt lat="37.8270283" lon="12.48867"><ele>20.0</ele><time>2026-04-29T07:52:35.841Z</time></trkpt><trkpt lat="37.827125" lon="12.4887583"><ele>20.0</ele><time>2026-04-29T07:52:36.837Z</time></trkpt><trkpt lat="37.8272183" lon="12.4888467"><ele>20.0</ele><time>2026-04-29T07:52:37.838Z</time></trkpt><trkpt lat="37.8273133" lon="12.4889367"><ele>20.0</ele><time>2026-04-29T07:52:38.847Z</time></trkpt><trkpt lat="37.8274133" lon="12.48903"><ele>20.0</ele><time>2026-04-29T07:52:39.837Z</time></trkpt><trkpt lat="37.8275183" lon="12.4891233"><ele>20.0</ele><time>2026-04-29T07:52:40.84Z</time></trkpt><trkpt lat="37.8276217" lon="12.48922"><ele>19.75</ele><time>2026-04-29T07:52:41.838Z</time></trkpt><trkpt lat="37.8277267" lon="12.4893183"><ele>19.5</ele><time>2026-04-29T07:52:42.841Z</time></trkpt><trkpt lat="37.82783" lon="12.489415"><ele>19.25</ele><time>2026-04-29T07:52:43.838Z</time></trkpt><trkpt lat="37.827935" lon="12.4895117"><ele>19.0</ele><time>2026-04-29T07:52:44.838Z</time></trkpt><trkpt lat="37.8280383" lon="12.48961"><ele>19.5</ele><time>2026-04-29T07:52:45.837Z</time></trkpt><trkpt lat="37.8281433" lon="12.48971"><ele>20.0</ele><time>2026-04-29T07:52:46.847Z</time></trkpt><trkpt lat="37.8282483" lon="12.4898067"><ele>20.5</ele><time>2026-04-29T07:52:47.838Z</time></trkpt><trkpt lat="37.82835" lon="12.4899017"><ele>21.0</ele><time>2026-04-29T07:52:48.835Z</time></trkpt><trkpt lat="37.828445" lon="12.48999"><ele>21.0</ele><time>2026-04-29T07:52:49.836Z</time></trkpt><trkpt lat="37.8285383" lon="12.4900783"><ele>21.0</ele><time>2026-04-29T07:52:50.837Z</time></trkpt><trkpt lat="37.828635" lon="12.49017"><ele>21.0</ele><time>2026-04-29T07:52:51.839Z</time></trkpt><trkpt lat="37.8287383" lon="12.4902667"><ele>21.0</ele><time>2026-04-29T07:52:52.838Z</time></trkpt><trkpt lat="37.8288433" lon="12.490365"><ele>21.25</ele><time>2026-04-29T07:52:53.84Z</time></trkpt><trkpt lat="37.828945" lon="12.49046"><ele>21.5</ele><time>2026-04-29T07:52:54.84Z</time></trkpt><trkpt lat="37.8290467" lon="12.4905533"><ele>21.75</ele><time>2026-04-29T07:52:55.841Z</time></trkpt><trkpt lat="37.8291483" lon="12.4906483"><ele>22.0</ele><time>2026-04-29T07:52:56.836Z</time></trkpt><trkpt lat="37.82925" lon="12.4907433"><ele>22.0</ele><time>2026-04-29T07:52:57.838Z</time></trkpt><trkpt lat="37.8293533" lon="12.4908367"><ele>22.0</ele><time>2026-04-29T07:52:58.845Z</time></trkpt><trkpt lat="37.829455" lon="12.4909317"><ele>22.0</ele><time>2026-04-29T07:52:59.837Z</time></trkpt><trkpt lat="37.8295567" lon="12.4910267"><ele>22.0</ele><time>2026-04-29T07:53:00.838Z</time></trkpt><trkpt lat="37.8296567" lon="12.49112"><ele>22.0</ele><time>2026-04-29T07:53:01.841Z</time></trkpt><trkpt lat="37.8297517" lon="12.49121"><ele>22.0</ele><time>2026-04-29T07:53:02.843Z</time></trkpt><trkpt lat="37.8298467" lon="12.4913"><ele>22.0</ele><time>2026-04-29T07:53:03.84Z</time></trkpt><trkpt lat="37.8299433" lon="12.4913917"><ele>22.0</ele><time>2026-04-29T07:53:04.844Z</time></trkpt><trkpt lat="37.8300417" lon="12.4914833"><ele>22.25</ele><time>2026-04-29T07:53:05.839Z</time></trkpt><trkpt lat="37.83014" lon="12.4915733"><ele>22.5</ele><time>2026-04-29T07:53:06.84Z</time></trkpt><trkpt lat="37.83024" lon="12.491665"><ele>22.75</ele><time>2026-04-29T07:53:07.838Z</time></trkpt><trkpt lat="37.8303433" lon="12.49176"><ele>23.0</ele><time>2026-04-29T07:53:08.841Z</time></trkpt><trkpt lat="37.83045" lon="12.49186"><ele>23.0</ele><time>2026-04-29T07:53:09.844Z</time></trkpt><trkpt lat="37.83056" lon="12.4919617"><ele>23.0</ele><time>2026-04-29T07:53:10.841Z</time></trkpt><trkpt lat="37.8306683" lon="12.4920633"><ele>23.0</ele><time>2026-04-29T07:53:11.841Z</time></trkpt><trkpt lat="37.8308733" lon="12.4922583"><ele>23.75</ele><time>2026-04-29T07:53:13.854Z</time></trkpt><trkpt lat="37.83097" lon="12.4923517"><ele>24.5</ele><time>2026-04-29T07:53:14.844Z</time></trkpt><trkpt lat="37.831065" lon="12.4924433"><ele>25.25</ele><time>2026-04-29T07:53:15.845Z</time></trkpt><trkpt lat="37.83116" lon="12.4925317"><ele>26.0</ele><time>2026-04-29T07:53:16.845Z</time></trkpt><trkpt lat="37.8312483" lon="12.492615"><ele>25.999999999999996</ele><time>2026-04-29T07:53:17.845Z</time></trkpt><trkpt lat="37.8313267" lon="12.4926917"><ele>26.0</ele><time>2026-04-29T07:53:18.842Z</time></trkpt><trkpt lat="37.8313917" lon="12.4927533"><ele>26.0</ele><time>2026-04-29T07:53:19.837Z</time></trkpt><trkpt lat="37.8314433" lon="12.4928067"><ele>26.0</ele><time>2026-04-29T07:53:20.839Z</time></trkpt><trkpt lat="37.8315417" lon="12.4929067"><ele>25.999999999999996</ele><time>2026-04-29T07:53:22.837Z</time></trkpt><trkpt lat="37.8316" lon="12.492965"><ele>26.0</ele><time>2026-04-29T07:53:23.842Z</time></trkpt><trkpt lat="37.8316683" lon="12.4930317"><ele>26.0</ele><time>2026-04-29T07:53:24.841Z</time></trkpt><trkpt lat="37.831755" lon="12.49311"><ele>26.0</ele><time>2026-04-29T07:53:25.837Z</time></trkpt><trkpt lat="37.8318567" lon="12.4932"><ele>26.0</ele><time>2026-04-29T07:53:26.837Z</time></trkpt><trkpt lat="37.8319683" lon="12.4933083"><ele>26.0</ele><time>2026-04-29T07:53:27.837Z</time></trkpt><trkpt lat="37.8320917" lon="12.4934367"><ele>25.666666666666664</ele><time>2026-04-29T07:53:28.839Z</time></trkpt><trkpt lat="37.8322233" lon="12.4935733"><ele>25.333333333333336</ele><time>2026-04-29T07:53:29.839Z</time></trkpt><trkpt lat="37.8323667" lon="12.4937167"><ele>25.0</ele><time>2026-04-29T07:53:30.842Z</time></trkpt><trkpt lat="37.83252" lon="12.4938633"><ele>26.0</ele><time>2026-04-29T07:53:31.846Z</time></trkpt><trkpt lat="37.8326783" lon="12.4940117"><ele>27.0</ele><time>2026-04-29T07:53:32.842Z</time></trkpt><trkpt lat="37.8328417" lon="12.4941633"><ele>28.0</ele><time>2026-04-29T07:53:33.842Z</time></trkpt><trkpt lat="37.833005" lon="12.494315"><ele>28.0</ele><time>2026-04-29T07:53:34.84Z</time></trkpt><trkpt lat="37.8331683" lon="12.49447"><ele>28.0</ele><time>2026-04-29T07:53:35.844Z</time></trkpt><trkpt lat="37.8333283" lon="12.4946233"><ele>28.0</ele><time>2026-04-29T07:53:36.84Z</time></trkpt><trkpt lat="37.8334867" lon="12.494775"><ele>28.333333333333336</ele><time>2026-04-29T07:53:37.839Z</time></trkpt><trkpt lat="37.8336433" lon="12.4949283"><ele>28.666666666666664</ele><time>2026-04-29T07:53:38.839Z</time></trkpt><trkpt lat="37.8337983" lon="12.4950867"><ele>29.0</ele><time>2026-04-29T07:53:39.839Z</time></trkpt><trkpt lat="37.833955" lon="12.495245"><ele>29.0</ele><time>2026-04-29T07:53:40.841Z</time></trkpt><trkpt lat="37.8341117" lon="12.4953983"><ele>29.0</ele><time>2026-04-29T07:53:41.836Z</time></trkpt><trkpt lat="37.83427" lon="12.4955467"><ele>29.0</ele><time>2026-04-29T07:53:42.839Z</time></trkpt><trkpt lat="37.8344217" lon="12.4956867"><ele>30.666666666666664</ele><time>2026-04-29T07:53:43.839Z</time></trkpt><trkpt lat="37.8345617" lon="12.49582"><ele>32.333333333333336</ele><time>2026-04-29T07:53:44.84Z</time></trkpt><trkpt lat="37.8346917" lon="12.4959467"><ele>34.0</ele><time>2026-04-29T07:53:45.837Z</time></trkpt><trkpt lat="37.8348133" lon="12.4960633"><ele>34.0</ele><time>2026-04-29T07:53:46.837Z</time></trkpt><trkpt lat="37.834925" lon="12.4961717"><ele>34.0</ele><time>2026-04-29T07:53:47.837Z</time></trkpt><trkpt lat="37.8350267" lon="12.4962683"><ele>34.0</ele><time>2026-04-29T07:53:48.837Z</time></trkpt><trkpt lat="37.8351167" lon="12.496355"><ele>34.0</ele><time>2026-04-29T07:53:49.837Z</time></trkpt><trkpt lat="37.8351967" lon="12.4964317"><ele>34.0</ele><time>2026-04-29T07:53:50.838Z</time></trkpt><trkpt lat="37.83527" lon="12.4965"><ele>34.0</ele><time>2026-04-29T07:53:51.837Z</time></trkpt><trkpt lat="37.8353383" lon="12.4965633"><ele>34.0</ele><time>2026-04-29T07:53:52.837Z</time></trkpt><trkpt lat="37.8354" lon="12.4966233"><ele>34.0</ele><time>2026-04-29T07:53:53.842Z</time></trkpt><trkpt lat="37.835455" lon="12.4966783"><ele>34.0</ele><time>2026-04-29T07:53:54.837Z</time></trkpt><trkpt lat="37.83551" lon="12.49673"><ele>34.0</ele><time>2026-04-29T07:53:55.841Z</time></trkpt><trkpt lat="37.8355667" lon="12.496785"><ele>34.0</ele><time>2026-04-29T07:53:56.837Z</time></trkpt><trkpt lat="37.835625" lon="12.496845"><ele>34.0</ele><time>2026-04-29T07:53:57.842Z</time></trkpt><trkpt lat="37.8356867" lon="12.4969067"><ele>34.0</ele><time>2026-04-29T07:53:58.839Z</time></trkpt><trkpt lat="37.8357567" lon="12.4969717"><ele>34.0</ele><time>2026-04-29T07:53:59.839Z</time></trkpt><trkpt lat="37.8358267" lon="12.4970417"><ele>34.0</ele><time>2026-04-29T07:54:00.84Z</time></trkpt><trkpt lat="37.835895" lon="12.4971067"><ele>34.0</ele><time>2026-04-29T07:54:01.836Z</time></trkpt><trkpt lat="37.83596" lon="12.4971717"><ele>34.0</ele><time>2026-04-29T07:54:02.837Z</time></trkpt><trkpt lat="37.8360283" lon="12.4972383"><ele>34.0</ele><time>2026-04-29T07:54:03.838Z</time></trkpt><trkpt lat="37.8360933" lon="12.4973017"><ele>34.0</ele><time>2026-04-29T07:54:04.836Z</time></trkpt><trkpt lat="37.8361583" lon="12.4973633"><ele>34.0</ele><time>2026-04-29T07:54:05.838Z</time></trkpt><trkpt lat="37.8362217" lon="12.4974267"><ele>34.0</ele><time>2026-04-29T07:54:06.838Z</time></trkpt><trkpt lat="37.836285" lon="12.4974883"><ele>34.0</ele><time>2026-04-29T07:54:07.837Z</time></trkpt><trkpt lat="37.8363467" lon="12.49755"><ele>34.0</ele><time>2026-04-29T07:54:08.838Z</time></trkpt><trkpt lat="37.836405" lon="12.4976083"><ele>34.0</ele><time>2026-04-29T07:54:09.839Z</time></trkpt><trkpt lat="37.8364617" lon="12.497665"><ele>34.0</ele><time>2026-04-29T07:54:10.84Z</time></trkpt><trkpt lat="37.83652" lon="12.49772"><ele>34.0</ele><time>2026-04-29T07:54:11.838Z</time></trkpt><trkpt lat="37.836585" lon="12.49778"><ele>34.0</ele><time>2026-04-29T07:54:12.837Z</time></trkpt><trkpt lat="37.8366583" lon="12.4978483"><ele>34.0</ele><time>2026-04-29T07:54:13.837Z</time></trkpt><trkpt lat="37.8367367" lon="12.497925"><ele>34.0</ele><time>2026-04-29T07:54:14.841Z</time></trkpt><trkpt lat="37.8368233" lon="12.49801"><ele>34.0</ele><time>2026-04-29T07:54:15.84Z</time></trkpt><trkpt lat="37.8369233" lon="12.4981017"><ele>34.0</ele><time>2026-04-29T07:54:16.845Z</time></trkpt><trkpt lat="37.8370367" lon="12.4982033"><ele>34.0</ele><time>2026-04-29T07:54:17.836Z</time></trkpt><trkpt lat="37.83716" lon="12.4983167"><ele>34.0</ele><time>2026-04-29T07:54:18.837Z</time></trkpt><trkpt lat="37.8372933" lon="12.4984517"><ele>34.0</ele><time>2026-04-29T07:54:19.837Z</time></trkpt><trkpt lat="37.8374383" lon="12.4986"><ele>34.0</ele><time>2026-04-29T07:54:20.837Z</time></trkpt><trkpt lat="37.8375917" lon="12.498755"><ele>34.333333333333336</ele><time>2026-04-29T07:54:21.839Z</time></trkpt><trkpt lat="37.8377517" lon="12.498915"><ele>34.666666666666664</ele><time>2026-04-29T07:54:22.836Z</time></trkpt><trkpt lat="37.8379117" lon="12.4990717"><ele>35.0</ele><time>2026-04-29T07:54:23.841Z</time></trkpt><trkpt lat="37.8380617" lon="12.4992183"><ele>35.0</ele><time>2026-04-29T07:54:24.842Z</time></trkpt><trkpt lat="37.8382017" lon="12.499355"><ele>35.0</ele><time>2026-04-29T07:54:25.841Z</time></trkpt><trkpt lat="37.8383317" lon="12.4994817"><ele>35.0</ele><time>2026-04-29T07:54:26.845Z</time></trkpt><trkpt lat="37.838455" lon="12.4996017"><ele>35.33333333333333</ele><time>2026-04-29T07:54:27.84Z</time></trkpt><trkpt lat="37.8385833" lon="12.4997233"><ele>35.666666666666664</ele><time>2026-04-29T07:54:28.841Z</time></trkpt><trkpt lat="37.8387183" lon="12.4998517"><ele>36.0</ele><time>2026-04-29T07:54:29.841Z</time></trkpt><trkpt lat="37.8388633" lon="12.4999933"><ele>36.0</ele><time>2026-04-29T07:54:30.841Z</time></trkpt><trkpt lat="37.839015" lon="12.5001433"><ele>36.0</ele><time>2026-04-29T07:54:31.84Z</time></trkpt><trkpt lat="37.8391667" lon="12.50029"><ele>36.0</ele><time>2026-04-29T07:54:32.84Z</time></trkpt><trkpt lat="37.8393133" lon="12.5004317"><ele>36.333333333333336</ele><time>2026-04-29T07:54:33.841Z</time></trkpt><trkpt lat="37.8394517" lon="12.5005617"><ele>36.66666666666667</ele><time>2026-04-29T07:54:34.84Z</time></trkpt><trkpt lat="37.8395817" lon="12.500685"><ele>37.0</ele><time>2026-04-29T07:54:35.846Z</time></trkpt><trkpt lat="37.8397" lon="12.5007983"><ele>37.0</ele><time>2026-04-29T07:54:36.843Z</time></trkpt><trkpt lat="37.8398083" lon="12.5009"><ele>37.0</ele><time>2026-04-29T07:54:37.843Z</time></trkpt><trkpt lat="37.839905" lon="12.50099"><ele>37.0</ele><time>2026-04-29T07:54:38.854Z</time></trkpt><trkpt lat="37.83998" lon="12.5010683"><ele>37.0</ele><time>2026-04-29T07:54:39.84Z</time></trkpt><trkpt lat="37.8400367" lon="12.50114"><ele>37.0</ele><time>2026-04-29T07:54:40.839Z</time></trkpt><trkpt lat="37.8400883" lon="12.5012"><ele>37.0</ele><time>2026-04-29T07:54:41.844Z</time></trkpt><trkpt lat="37.8401817" lon="12.5012933"><ele>37.0</ele><time>2026-04-29T07:54:43.84Z</time></trkpt><trkpt lat="37.8402683" lon="12.5013667"><ele>37.0</ele><time>2026-04-29T07:54:45.836Z</time></trkpt><trkpt lat="37.84035" lon="12.501435"><ele>37.0</ele><time>2026-04-29T07:54:47.844Z</time></trkpt><trkpt lat="37.8404417" lon="12.501515"><ele>37.0</ele><time>2026-04-29T07:54:49.841Z</time></trkpt><trkpt lat="37.8405383" lon="12.5016167"><ele>37.0</ele><time>2026-04-29T07:54:51.837Z</time></trkpt><trkpt lat="37.84059" lon="12.50167"><ele>37.0</ele><time>2026-04-29T07:54:52.84Z</time></trkpt><trkpt lat="37.840645" lon="12.5017233"><ele>37.0</ele><time>2026-04-29T07:54:53.842Z</time></trkpt><trkpt lat="37.8407017" lon="12.5017767"><ele>37.0</ele><time>2026-04-29T07:54:54.84Z</time></trkpt><trkpt lat="37.8407617" lon="12.501835"><ele>37.0</ele><time>2026-04-29T07:54:55.841Z</time></trkpt><trkpt lat="37.8408317" lon="12.5019017"><ele>37.0</ele><time>2026-04-29T07:54:56.841Z</time></trkpt><trkpt lat="37.840915" lon="12.5019767"><ele>37.333333333333336</ele><time>2026-04-29T07:54:57.846Z</time></trkpt><trkpt lat="37.841025" lon="12.5020733"><ele>37.666666666666664</ele><time>2026-04-29T07:54:58.841Z</time></trkpt><trkpt lat="37.8411567" lon="12.502195"><ele>38.0</ele><time>2026-04-29T07:54:59.836Z</time></trkpt><trkpt lat="37.8413033" lon="12.5023317"><ele>37.0</ele><time>2026-04-29T07:55:00.839Z</time></trkpt><trkpt lat="37.841465" lon="12.502485"><ele>36.0</ele><time>2026-04-29T07:55:01.838Z</time></trkpt><trkpt lat="37.8416283" lon="12.5026483"><ele>35.0</ele><time>2026-04-29T07:55:02.838Z</time></trkpt><trkpt lat="37.8417967" lon="12.5028217"><ele>36.0</ele><time>2026-04-29T07:55:03.837Z</time></trkpt><trkpt lat="37.8419683" lon="12.5030033"><ele>37.0</ele><time>2026-04-29T07:55:04.838Z</time></trkpt><trkpt lat="37.842145" lon="12.503185"><ele>37.0</ele><time>2026-04-29T07:55:05.837Z</time></trkpt><trkpt lat="37.8423233" lon="12.5033667"><ele>37.0</ele><time>2026-04-29T07:55:06.839Z</time></trkpt><trkpt lat="37.8425" lon="12.503545"><ele>37.0</ele><time>2026-04-29T07:55:07.838Z</time></trkpt><trkpt lat="37.84268" lon="12.5037233"><ele>37.0</ele><time>2026-04-29T07:55:08.839Z</time></trkpt><trkpt lat="37.8428567" lon="12.5039033"><ele>37.0</ele><time>2026-04-29T07:55:09.837Z</time></trkpt><trkpt lat="37.843035" lon="12.5040783"><ele>37.0</ele><time>2026-04-29T07:55:10.837Z</time></trkpt><trkpt lat="37.8432067" lon="12.5042483"><ele>37.0</ele><time>2026-04-29T07:55:11.838Z</time></trkpt><trkpt lat="37.843375" lon="12.5044133"><ele>37.66666666666667</ele><time>2026-04-29T07:55:12.84Z</time></trkpt><trkpt lat="37.843545" lon="12.5045783"><ele>38.333333333333336</ele><time>2026-04-29T07:55:13.84Z</time></trkpt><trkpt lat="37.8437117" lon="12.5047417"><ele>39.0</ele><time>2026-04-29T07:55:14.841Z</time></trkpt><trkpt lat="37.8438717" lon="12.5049017"><ele>39.0</ele><time>2026-04-29T07:55:15.837Z</time></trkpt><trkpt lat="37.8440317" lon="12.5050567"><ele>39.0</ele><time>2026-04-29T07:55:16.836Z</time></trkpt><trkpt lat="37.84419" lon="12.5052083"><ele>39.0</ele><time>2026-04-29T07:55:17.836Z</time></trkpt><trkpt lat="37.844345" lon="12.50536"><ele>40.0</ele><time>2026-04-29T07:55:18.837Z</time></trkpt><trkpt lat="37.8446467" lon="12.50566"><ele>41.0</ele><time>2026-04-29T07:55:20.837Z</time></trkpt><trkpt lat="37.8447967" lon="12.5058067"><ele>41.0</ele><time>2026-04-29T07:55:21.84Z</time></trkpt><trkpt lat="37.844945" lon="12.50595"><ele>41.0</ele><time>2026-04-29T07:55:22.836Z</time></trkpt><trkpt lat="37.845095" lon="12.5060967"><ele>41.0</ele><time>2026-04-29T07:55:23.842Z</time></trkpt><trkpt lat="37.8452517" lon="12.5062433"><ele>40.33333333333333</ele><time>2026-04-29T07:55:24.839Z</time></trkpt><trkpt lat="37.8454083" lon="12.5063933"><ele>39.666666666666664</ele><time>2026-04-29T07:55:25.837Z</time></trkpt><trkpt lat="37.8455667" lon="12.5065433"><ele>39.0</ele><time>2026-04-29T07:55:26.839Z</time></trkpt><trkpt lat="37.8457217" lon="12.5066917"><ele>39.0</ele><time>2026-04-29T07:55:27.843Z</time></trkpt><trkpt lat="37.84587" lon="12.5068367"><ele>39.0</ele><time>2026-04-29T07:55:28.841Z</time></trkpt><trkpt lat="37.846015" lon="12.506975"><ele>39.0</ele><time>2026-04-29T07:55:29.838Z</time></trkpt><trkpt lat="37.846155" lon="12.5071083"><ele>39.0</ele><time>2026-04-29T07:55:30.838Z</time></trkpt><trkpt lat="37.8462917" lon="12.5072367"><ele>39.0</ele><time>2026-04-29T07:55:31.837Z</time></trkpt><trkpt lat="37.8464233" lon="12.50736"><ele>39.0</ele><time>2026-04-29T07:55:32.838Z</time></trkpt><trkpt lat="37.8465517" lon="12.50748"><ele>39.0</ele><time>2026-04-29T07:55:33.841Z</time></trkpt><trkpt lat="37.8466767" lon="12.5075983"><ele>39.0</ele><time>2026-04-29T07:55:34.838Z</time></trkpt><trkpt lat="37.8467983" lon="12.507715"><ele>39.0</ele><time>2026-04-29T07:55:35.839Z</time></trkpt><trkpt lat="37.8469133" lon="12.507825"><ele>39.75</ele><time>2026-04-29T07:55:36.837Z</time></trkpt><trkpt lat="37.8470267" lon="12.5079333"><ele>40.5</ele><time>2026-04-29T07:55:37.837Z</time></trkpt><trkpt lat="37.8471367" lon="12.50804"><ele>41.25</ele><time>2026-04-29T07:55:38.837Z</time></trkpt><trkpt lat="37.8472417" lon="12.508145"><ele>42.0</ele><time>2026-04-29T07:55:39.838Z</time></trkpt><trkpt lat="37.847345" lon="12.5082433"><ele>42.0</ele><time>2026-04-29T07:55:40.837Z</time></trkpt><trkpt lat="37.8474433" lon="12.508335"><ele>42.0</ele><time>2026-04-29T07:55:41.841Z</time></trkpt><trkpt lat="37.847535" lon="12.50842"><ele>42.0</ele><time>2026-04-29T07:55:42.837Z</time></trkpt><trkpt lat="37.8476167" lon="12.5085"><ele>42.0</ele><time>2026-04-29T07:55:43.838Z</time></trkpt><trkpt lat="37.84769" lon="12.5085717"><ele>42.0</ele><time>2026-04-29T07:55:44.842Z</time></trkpt><trkpt lat="37.8477583" lon="12.5086383"><ele>41.6</ele><time>2026-04-29T07:55:45.842Z</time></trkpt><trkpt lat="37.847825" lon="12.5087067"><ele>41.2</ele><time>2026-04-29T07:55:46.844Z</time></trkpt><trkpt lat="37.847895" lon="12.5087767"><ele>40.8</ele><time>2026-04-29T07:55:47.845Z</time></trkpt><trkpt lat="37.8479633" lon="12.5088483"><ele>40.4</ele><time>2026-04-29T07:55:48.84Z</time></trkpt><trkpt lat="37.848035" lon="12.5089183"><ele>40.0</ele><time>2026-04-29T07:55:49.84Z</time></trkpt><trkpt lat="37.848115" lon="12.50899"><ele>40.0</ele><time>2026-04-29T07:55:50.84Z</time></trkpt><trkpt lat="37.8481967" lon="12.509065"><ele>40.0</ele><time>2026-04-29T07:55:51.839Z</time></trkpt><trkpt lat="37.8482733" lon="12.5091433"><ele>40.0</ele><time>2026-04-29T07:55:52.839Z</time></trkpt><trkpt lat="37.8483533" lon="12.5092217"><ele>40.0</ele><time>2026-04-29T07:55:53.84Z</time></trkpt><trkpt lat="37.8484333" lon="12.5092983"><ele>40.0</ele><time>2026-04-29T07:55:54.837Z</time></trkpt><trkpt lat="37.848515" lon="12.509375"><ele>40.0</ele><time>2026-04-29T07:55:55.837Z</time></trkpt><trkpt lat="37.8485983" lon="12.5094517"><ele>40.0</ele><time>2026-04-29T07:55:56.842Z</time></trkpt><trkpt lat="37.848685" lon="12.5095317"><ele>40.0</ele><time>2026-04-29T07:55:57.84Z</time></trkpt><trkpt lat="37.84877" lon="12.5096117"><ele>40.0</ele><time>2026-04-29T07:55:58.841Z</time></trkpt><trkpt lat="37.848855" lon="12.5096933"><ele>40.0</ele><time>2026-04-29T07:55:59.838Z</time></trkpt><trkpt lat="37.8489467" lon="12.5097817"><ele>40.25</ele><time>2026-04-29T07:56:00.84Z</time></trkpt><trkpt lat="37.8490433" lon="12.50988"><ele>40.5</ele><time>2026-04-29T07:56:01.841Z</time></trkpt><trkpt lat="37.8491417" lon="12.5099817"><ele>40.75</ele><time>2026-04-29T07:56:02.853Z</time></trkpt><trkpt lat="37.8492417" lon="12.5100817"><ele>41.0</ele><time>2026-04-29T07:56:03.842Z</time></trkpt><trkpt lat="37.84934" lon="12.51018"><ele>41.25</ele><time>2026-04-29T07:56:04.838Z</time></trkpt><trkpt lat="37.8494417" lon="12.51028"><ele>41.5</ele><time>2026-04-29T07:56:05.843Z</time></trkpt><trkpt lat="37.8495417" lon="12.5103767"><ele>41.75</ele><time>2026-04-29T07:56:06.839Z</time></trkpt><trkpt lat="37.8496367" lon="12.5104683"><ele>42.0</ele><time>2026-04-29T07:56:07.848Z</time></trkpt><trkpt lat="37.849725" lon="12.510555"><ele>42.2</ele><time>2026-04-29T07:56:08.842Z</time></trkpt><trkpt lat="37.84981" lon="12.5106367"><ele>42.400000000000006</ele><time>2026-04-29T07:56:09.843Z</time></trkpt><trkpt lat="37.8498967" lon="12.51072"><ele>42.599999999999994</ele><time>2026-04-29T07:56:10.845Z</time></trkpt><trkpt lat="37.8499833" lon="12.510805"><ele>42.8</ele><time>2026-04-29T07:56:11.842Z</time></trkpt><trkpt lat="37.85007" lon="12.5108917"><ele>43.0</ele><time>2026-04-29T07:56:12.84Z</time></trkpt><trkpt lat="37.8501583" lon="12.5109783"><ele>43.0</ele><time>2026-04-29T07:56:13.84Z</time></trkpt><trkpt lat="37.8502467" lon="12.511065"><ele>43.0</ele><time>2026-04-29T07:56:14.841Z</time></trkpt><trkpt lat="37.850335" lon="12.5111517"><ele>43.0</ele><time>2026-04-29T07:56:15.845Z</time></trkpt><trkpt lat="37.8504217" lon="12.5112333"><ele>43.0</ele><time>2026-04-29T07:56:16.839Z</time></trkpt><trkpt lat="37.8505" lon="12.511305"><ele>43.0</ele><time>2026-04-29T07:56:17.844Z</time></trkpt><trkpt lat="37.8505683" lon="12.51137"><ele>43.333333333333336</ele><time>2026-04-29T07:56:18.845Z</time></trkpt><trkpt lat="37.8506267" lon="12.5114283"><ele>43.66666666666667</ele><time>2026-04-29T07:56:19.84Z</time></trkpt><trkpt lat="37.85069" lon="12.5114817"><ele>44.0</ele><time>2026-04-29T07:56:20.84Z</time></trkpt><trkpt lat="37.850755" lon="12.5115417"><ele>44.333333333333336</ele><time>2026-04-29T07:56:21.841Z</time></trkpt><trkpt lat="37.85081" lon="12.5116067"><ele>44.666666666666664</ele><time>2026-04-29T07:56:22.837Z</time></trkpt><trkpt lat="37.85086" lon="12.5116667"><ele>45.0</ele><time>2026-04-29T07:56:23.842Z</time></trkpt><trkpt lat="37.85093" lon="12.5117367"><ele>44.8</ele><time>2026-04-29T07:56:25.842Z</time></trkpt><trkpt lat="37.850995" lon="12.51178"><ele>44.6</ele><time>2026-04-29T07:56:47.841Z</time></trkpt><trkpt lat="37.8511017" lon="12.5119017"><ele>44.400000000000006</ele><time>2026-04-29T07:56:49.839Z</time></trkpt><trkpt lat="37.851175" lon="12.5119833"><ele>44.2</ele><time>2026-04-29T07:56:50.843Z</time></trkpt><trkpt lat="37.8512583" lon="12.51207"><ele>44.0</ele><time>2026-04-29T07:56:51.844Z</time></trkpt><trkpt lat="37.8513517" lon="12.5121633"><ele>44.0</ele><time>2026-04-29T07:56:52.845Z</time></trkpt><trkpt lat="37.851455" lon="12.5122683"><ele>44.0</ele><time>2026-04-29T07:56:53.848Z</time></trkpt><trkpt lat="37.8515717" lon="12.5123833"><ele>44.0</ele><time>2026-04-29T07:56:54.841Z</time></trkpt><trkpt lat="37.8517" lon="12.512505"><ele>44.0</ele><time>2026-04-29T07:56:55.836Z</time></trkpt><trkpt lat="37.85184" lon="12.51263"><ele>43.666666666666664</ele><time>2026-04-29T07:56:56.842Z</time></trkpt><trkpt lat="37.8519867" lon="12.51276"><ele>43.333333333333336</ele><time>2026-04-29T07:56:57.842Z</time></trkpt><trkpt lat="37.85214" lon="12.512895"><ele>43.0</ele><time>2026-04-29T07:56:58.84Z</time></trkpt><trkpt lat="37.8523033" lon="12.5130317"><ele>43.66666666666667</ele><time>2026-04-29T07:56:59.839Z</time></trkpt><trkpt lat="37.8524717" lon="12.513165"><ele>44.333333333333336</ele><time>2026-04-29T07:57:00.844Z</time></trkpt><trkpt lat="37.8526533" lon="12.5132833"><ele>45.0</ele><time>2026-04-29T07:57:01.84Z</time></trkpt><trkpt lat="37.8528467" lon="12.5133917"><ele>45.0</ele><time>2026-04-29T07:57:02.839Z</time></trkpt><trkpt lat="37.85305" lon="12.5134933"><ele>45.0</ele><time>2026-04-29T07:57:03.84Z</time></trkpt><trkpt lat="37.8532633" lon="12.5135833"><ele>45.0</ele><time>2026-04-29T07:57:04.842Z</time></trkpt><trkpt lat="37.853485" lon="12.5136633"><ele>44.5</ele><time>2026-04-29T07:57:05.84Z</time></trkpt><trkpt lat="37.8537083" lon="12.5137383"><ele>44.0</ele><time>2026-04-29T07:57:06.846Z</time></trkpt><trkpt lat="37.8539417" lon="12.51381"><ele>45.0</ele><time>2026-04-29T07:57:07.845Z</time></trkpt><trkpt lat="37.8541833" lon="12.5138783"><ele>46.0</ele><time>2026-04-29T07:57:08.842Z</time></trkpt><trkpt lat="37.8544267" lon="12.5139467"><ele>46.0</ele><time>2026-04-29T07:57:09.842Z</time></trkpt><trkpt lat="37.8546767" lon="12.514015"><ele>46.0</ele><time>2026-04-29T07:57:10.84Z</time></trkpt><trkpt lat="37.8549267" lon="12.5140833"><ele>46.0</ele><time>2026-04-29T07:57:11.839Z</time></trkpt><trkpt lat="37.8551767" lon="12.51415"><ele>46.0</ele><time>2026-04-29T07:57:12.841Z</time></trkpt><trkpt lat="37.85543" lon="12.51422"><ele>46.0</ele><time>2026-04-29T07:57:13.839Z</time></trkpt><trkpt lat="37.8556817" lon="12.5142867"><ele>46.0</ele><time>2026-04-29T07:57:14.841Z</time></trkpt><trkpt lat="37.8559333" lon="12.5143567"><ele>46.5</ele><time>2026-04-29T07:57:15.841Z</time></trkpt><trkpt lat="37.8561833" lon="12.5144267"><ele>47.0</ele><time>2026-04-29T07:57:16.844Z</time></trkpt><trkpt lat="37.856425" lon="12.5144933"><ele>47.0</ele><time>2026-04-29T07:57:17.838Z</time></trkpt><trkpt lat="37.8566617" lon="12.51456"><ele>47.0</ele><time>2026-04-29T07:57:18.837Z</time></trkpt><trkpt lat="37.8569" lon="12.5146233"><ele>47.5</ele><time>2026-04-29T07:57:19.84Z</time></trkpt><trkpt lat="37.8571383" lon="12.514685"><ele>48.0</ele><time>2026-04-29T07:57:20.839Z</time></trkpt><trkpt lat="37.8573783" lon="12.5147483"><ele>49.0</ele><time>2026-04-29T07:57:21.841Z</time></trkpt><trkpt lat="37.85762" lon="12.5148133"><ele>50.0</ele><time>2026-04-29T07:57:22.839Z</time></trkpt><trkpt lat="37.85786" lon="12.5148833"><ele>50.0</ele><time>2026-04-29T07:57:23.841Z</time></trkpt><trkpt lat="37.8581017" lon="12.5149517"><ele>50.0</ele><time>2026-04-29T07:57:24.839Z</time></trkpt><trkpt lat="37.8583317" lon="12.5150183"><ele>49.0</ele><time>2026-04-29T07:57:25.839Z</time></trkpt><trkpt lat="37.8585467" lon="12.5150783"><ele>48.0</ele><time>2026-04-29T07:57:26.838Z</time></trkpt><trkpt lat="37.8587583" lon="12.5151383"><ele>47.0</ele><time>2026-04-29T07:57:27.844Z</time></trkpt><trkpt lat="37.85897" lon="12.5151967"><ele>47.0</ele><time>2026-04-29T07:57:28.84Z</time></trkpt><trkpt lat="37.85918" lon="12.5152567"><ele>47.0</ele><time>2026-04-29T07:57:29.838Z</time></trkpt><trkpt lat="37.859385" lon="12.5153117"><ele>47.0</ele><time>2026-04-29T07:57:30.842Z</time></trkpt><trkpt lat="37.8595817" lon="12.5153667"><ele>47.33333333333333</ele><time>2026-04-29T07:57:31.838Z</time></trkpt><trkpt lat="37.8597767" lon="12.5154233"><ele>47.666666666666664</ele><time>2026-04-29T07:57:32.844Z</time></trkpt><trkpt lat="37.8599667" lon="12.515475"><ele>48.0</ele><time>2026-04-29T07:57:33.84Z</time></trkpt><trkpt lat="37.8601567" lon="12.515525"><ele>48.0</ele><time>2026-04-29T07:57:34.842Z</time></trkpt><trkpt lat="37.86034" lon="12.5155767"><ele>48.0</ele><time>2026-04-29T07:57:35.843Z</time></trkpt><trkpt lat="37.86052" lon="12.5156267"><ele>48.0</ele><time>2026-04-29T07:57:36.856Z</time></trkpt><trkpt lat="37.860695" lon="12.5156783"><ele>48.0</ele><time>2026-04-29T07:57:37.842Z</time></trkpt><trkpt lat="37.860875" lon="12.515725"><ele>48.0</ele><time>2026-04-29T07:57:38.842Z</time></trkpt><trkpt lat="37.8610517" lon="12.5157683"><ele>48.0</ele><time>2026-04-29T07:57:39.841Z</time></trkpt><trkpt lat="37.8612283" lon="12.5158167"><ele>47.333333333333336</ele><time>2026-04-29T07:57:40.843Z</time></trkpt><trkpt lat="37.861405" lon="12.5158667"><ele>46.66666666666667</ele><time>2026-04-29T07:57:41.84Z</time></trkpt><trkpt lat="37.861585" lon="12.515915"><ele>46.0</ele><time>2026-04-29T07:57:42.842Z</time></trkpt><trkpt lat="37.861775" lon="12.5159617"><ele>45.66666666666667</ele><time>2026-04-29T07:57:43.841Z</time></trkpt><trkpt lat="37.8619833" lon="12.5160067"><ele>45.333333333333336</ele><time>2026-04-29T07:57:44.846Z</time></trkpt><trkpt lat="37.8622033" lon="12.51606"><ele>45.0</ele><time>2026-04-29T07:57:45.839Z</time></trkpt><trkpt lat="37.86243" lon="12.516125"><ele>44.5</ele><time>2026-04-29T07:57:46.84Z</time></trkpt><trkpt lat="37.8626633" lon="12.5161933"><ele>44.0</ele><time>2026-04-29T07:57:47.84Z</time></trkpt><trkpt lat="37.8628933" lon="12.51626"><ele>46.5</ele><time>2026-04-29T07:57:48.841Z</time></trkpt><trkpt lat="37.8631183" lon="12.5163217"><ele>49.0</ele><time>2026-04-29T07:57:49.845Z</time></trkpt><trkpt lat="37.8633333" lon="12.51638"><ele>48.666666666666664</ele><time>2026-04-29T07:57:50.854Z</time></trkpt><trkpt lat="37.8635367" lon="12.516435"><ele>48.33333333333333</ele><time>2026-04-29T07:57:51.841Z</time></trkpt><trkpt lat="37.8637317" lon="12.51649"><ele>48.0</ele><time>2026-04-29T07:57:52.84Z</time></trkpt><trkpt lat="37.8639267" lon="12.5165433"><ele>48.0</ele><time>2026-04-29T07:57:53.841Z</time></trkpt><trkpt lat="37.86412" lon="12.5165967"><ele>48.0</ele><time>2026-04-29T07:57:54.839Z</time></trkpt><trkpt lat="37.8643083" lon="12.5166483"><ele>48.0</ele><time>2026-04-29T07:57:55.837Z</time></trkpt><trkpt lat="37.8644967" lon="12.5166983"><ele>47.666666666666664</ele><time>2026-04-29T07:57:56.841Z</time></trkpt><trkpt lat="37.8646833" lon="12.51675"><ele>47.33333333333333</ele><time>2026-04-29T07:57:57.842Z</time></trkpt><trkpt lat="37.8648683" lon="12.5168017"><ele>47.0</ele><time>2026-04-29T07:57:58.838Z</time></trkpt><trkpt lat="37.8650583" lon="12.51685"><ele>46.33333333333333</ele><time>2026-04-29T07:57:59.839Z</time></trkpt><trkpt lat="37.86525" lon="12.5168983"><ele>45.666666666666664</ele><time>2026-04-29T07:58:00.84Z</time></trkpt><trkpt lat="37.8654417" lon="12.5169483"><ele>45.0</ele><time>2026-04-29T07:58:01.84Z</time></trkpt><trkpt lat="37.8656333" lon="12.5169933"><ele>45.0</ele><time>2026-04-29T07:58:02.84Z</time></trkpt><trkpt lat="37.8658233" lon="12.5170417"><ele>45.0</ele><time>2026-04-29T07:58:03.843Z</time></trkpt><trkpt lat="37.8660067" lon="12.5170867"><ele>45.0</ele><time>2026-04-29T07:58:04.841Z</time></trkpt><trkpt lat="37.866185" lon="12.51713"><ele>45.666666666666664</ele><time>2026-04-29T07:58:05.841Z</time></trkpt><trkpt lat="37.8663683" lon="12.51718"><ele>46.33333333333333</ele><time>2026-04-29T07:58:06.842Z</time></trkpt><trkpt lat="37.8665567" lon="12.517225"><ele>47.0</ele><time>2026-04-29T07:58:07.839Z</time></trkpt><trkpt lat="37.8667567" lon="12.5172717"><ele>46.666666666666664</ele><time>2026-04-29T07:58:08.838Z</time></trkpt><trkpt lat="37.8669583" lon="12.5173267"><ele>46.333333333333336</ele><time>2026-04-29T07:58:09.837Z</time></trkpt><trkpt lat="37.8671483" lon="12.5173833"><ele>46.0</ele><time>2026-04-29T07:58:10.839Z</time></trkpt><trkpt lat="37.8673267" lon="12.51744"><ele>46.0</ele><time>2026-04-29T07:58:11.841Z</time></trkpt><trkpt lat="37.86749" lon="12.5174967"><ele>46.0</ele><time>2026-04-29T07:58:12.844Z</time></trkpt><trkpt lat="37.867645" lon="12.5175517"><ele>46.0</ele><time>2026-04-29T07:58:13.843Z</time></trkpt><trkpt lat="37.8678033" lon="12.5176083"><ele>46.0</ele><time>2026-04-29T07:58:14.842Z</time></trkpt><trkpt lat="37.8679767" lon="12.5176617"><ele>46.0</ele><time>2026-04-29T07:58:15.837Z</time></trkpt><trkpt lat="37.8681733" lon="12.5177217"><ele>46.0</ele><time>2026-04-29T07:58:16.837Z</time></trkpt><trkpt lat="37.8683917" lon="12.5177967"><ele>46.5</ele><time>2026-04-29T07:58:17.842Z</time></trkpt><trkpt lat="37.8686267" lon="12.5178867"><ele>47.0</ele><time>2026-04-29T07:58:18.844Z</time></trkpt><trkpt lat="37.8688817" lon="12.5179883"><ele>47.0</ele><time>2026-04-29T07:58:19.841Z</time></trkpt><trkpt lat="37.8691467" lon="12.5180917"><ele>47.0</ele><time>2026-04-29T07:58:20.839Z</time></trkpt><trkpt lat="37.869425" lon="12.5181933"><ele>46.0</ele><time>2026-04-29T07:58:21.841Z</time></trkpt><trkpt lat="37.869705" lon="12.5182917"><ele>45.0</ele><time>2026-04-29T07:58:22.841Z</time></trkpt><trkpt lat="37.8699783" lon="12.51839"><ele>45.0</ele><time>2026-04-29T07:58:23.841Z</time></trkpt><trkpt lat="37.8702433" lon="12.5184833"><ele>45.0</ele><time>2026-04-29T07:58:24.837Z</time></trkpt><trkpt lat="37.8704933" lon="12.5185733"><ele>45.0</ele><time>2026-04-29T07:58:25.84Z</time></trkpt><trkpt lat="37.8707367" lon="12.5186583"><ele>45.0</ele><time>2026-04-29T07:58:26.844Z</time></trkpt><trkpt lat="37.8709733" lon="12.5187433"><ele>45.0</ele><time>2026-04-29T07:58:27.842Z</time></trkpt><trkpt lat="37.8712033" lon="12.5188267"><ele>45.0</ele><time>2026-04-29T07:58:28.841Z</time></trkpt><trkpt lat="37.871415" lon="12.5189133"><ele>45.0</ele><time>2026-04-29T07:58:29.836Z</time></trkpt><trkpt lat="37.8716133" lon="12.5190017"><ele>45.0</ele><time>2026-04-29T07:58:30.838Z</time></trkpt><trkpt lat="37.8717933" lon="12.5190883"><ele>45.0</ele><time>2026-04-29T07:58:31.837Z</time></trkpt><trkpt lat="37.871955" lon="12.5191717"><ele>45.25</ele><time>2026-04-29T07:58:32.835Z</time></trkpt><trkpt lat="37.8720933" lon="12.5192467"><ele>45.5</ele><time>2026-04-29T07:58:33.841Z</time></trkpt><trkpt lat="37.8722017" lon="12.5193083"><ele>45.75</ele><time>2026-04-29T07:58:34.841Z</time></trkpt><trkpt lat="37.8722967" lon="12.5193667"><ele>46.0</ele><time>2026-04-29T07:58:35.844Z</time></trkpt><trkpt lat="37.8724017" lon="12.51943"><ele>46.0</ele><time>2026-04-29T07:58:36.839Z</time></trkpt><trkpt lat="37.8725217" lon="12.5195033"><ele>46.0</ele><time>2026-04-29T07:58:37.838Z</time></trkpt><trkpt lat="37.8726567" lon="12.5195833"><ele>46.0</ele><time>2026-04-29T07:58:38.841Z</time></trkpt><trkpt lat="37.8728133" lon="12.5196767"><ele>46.66666666666667</ele><time>2026-04-29T07:58:39.842Z</time></trkpt><trkpt lat="37.8729783" lon="12.5197783"><ele>47.333333333333336</ele><time>2026-04-29T07:58:40.841Z</time></trkpt><trkpt lat="37.8731567" lon="12.519895"><ele>48.0</ele><time>2026-04-29T07:58:41.842Z</time></trkpt><trkpt lat="37.8733383" lon="12.52002"><ele>46.0</ele><time>2026-04-29T07:58:42.84Z</time></trkpt><trkpt lat="37.8735383" lon="12.5201617"><ele>44.0</ele><time>2026-04-29T07:58:43.843Z</time></trkpt><trkpt lat="37.8737367" lon="12.5203017"><ele>45.33333333333333</ele><time>2026-04-29T07:58:44.84Z</time></trkpt><trkpt lat="37.8739317" lon="12.5204367"><ele>46.666666666666664</ele><time>2026-04-29T07:58:45.837Z</time></trkpt><trkpt lat="37.8741183" lon="12.5205767"><ele>48.0</ele><time>2026-04-29T07:58:46.842Z</time></trkpt><trkpt lat="37.8742983" lon="12.5207317"><ele>45.333333333333336</ele><time>2026-04-29T07:58:47.841Z</time></trkpt><trkpt lat="37.8744717" lon="12.5209033"><ele>42.66666666666667</ele><time>2026-04-29T07:58:48.844Z</time></trkpt><trkpt lat="37.874635" lon="12.5210867"><ele>40.0</ele><time>2026-04-29T07:58:49.842Z</time></trkpt><trkpt lat="37.874795" lon="12.5212767"><ele>39.66666666666667</ele><time>2026-04-29T07:58:50.842Z</time></trkpt><trkpt lat="37.8749533" lon="12.5214617"><ele>39.333333333333336</ele><time>2026-04-29T07:58:51.844Z</time></trkpt><trkpt lat="37.8751067" lon="12.5216367"><ele>39.0</ele><time>2026-04-29T07:58:52.84Z</time></trkpt><trkpt lat="37.8752567" lon="12.5217933"><ele>38.666666666666664</ele><time>2026-04-29T07:58:53.842Z</time></trkpt><trkpt lat="37.8754167" lon="12.521925"><ele>38.33333333333333</ele><time>2026-04-29T07:58:54.842Z</time></trkpt><trkpt lat="37.8755933" lon="12.5220267"><ele>38.0</ele><time>2026-04-29T07:58:55.842Z</time></trkpt><trkpt lat="37.8757883" lon="12.5221083"><ele>40.33333333333333</ele><time>2026-04-29T07:58:56.842Z</time></trkpt><trkpt lat="37.875995" lon="12.52217"><ele>42.666666666666664</ele><time>2026-04-29T07:58:57.839Z</time></trkpt><trkpt lat="37.87621" lon="12.5222133"><ele>45.0</ele><time>2026-04-29T07:58:58.851Z</time></trkpt><trkpt lat="37.876425" lon="12.5222433"><ele>45.0</ele><time>2026-04-29T07:58:59.848Z</time></trkpt><trkpt lat="37.8766367" lon="12.5222667"><ele>45.0</ele><time>2026-04-29T07:59:00.837Z</time></trkpt><trkpt lat="37.8768533" lon="12.5222867"><ele>45.0</ele><time>2026-04-29T07:59:01.84Z</time></trkpt><trkpt lat="37.877075" lon="12.5223083"><ele>46.5</ele><time>2026-04-29T07:59:02.84Z</time></trkpt><trkpt lat="37.8773067" lon="12.522335"><ele>48.0</ele><time>2026-04-29T07:59:03.842Z</time></trkpt><trkpt lat="37.877545" lon="12.5223633"><ele>48.0</ele><time>2026-04-29T07:59:04.841Z</time></trkpt><trkpt lat="37.8777817" lon="12.52239"><ele>48.0</ele><time>2026-04-29T07:59:05.841Z</time></trkpt><trkpt lat="37.878005" lon="12.522415"><ele>48.0</ele><time>2026-04-29T07:59:06.84Z</time></trkpt><trkpt lat="37.878215" lon="12.522435"><ele>48.0</ele><time>2026-04-29T07:59:07.844Z</time></trkpt><trkpt lat="37.8784083" lon="12.522455"><ele>48.0</ele><time>2026-04-29T07:59:08.841Z</time></trkpt><trkpt lat="37.8785867" lon="12.5224783"><ele>46.333333333333336</ele><time>2026-04-29T07:59:09.844Z</time></trkpt><trkpt lat="37.8787533" lon="12.5225133"><ele>44.66666666666667</ele><time>2026-04-29T07:59:10.843Z</time></trkpt><trkpt lat="37.8789183" lon="12.5225783"><ele>43.0</ele><time>2026-04-29T07:59:11.84Z</time></trkpt><trkpt lat="37.8790783" lon="12.522675"><ele>43.0</ele><time>2026-04-29T07:59:12.839Z</time></trkpt><trkpt lat="37.8792467" lon="12.5228017"><ele>43.0</ele><time>2026-04-29T07:59:13.838Z</time></trkpt><trkpt lat="37.87943" lon="12.5229467"><ele>43.0</ele><time>2026-04-29T07:59:14.841Z</time></trkpt><trkpt lat="37.8796233" lon="12.5231017"><ele>40.5</ele><time>2026-04-29T07:59:15.843Z</time></trkpt><trkpt lat="37.8798267" lon="12.5232683"><ele>38.0</ele><time>2026-04-29T07:59:16.844Z</time></trkpt><trkpt lat="37.88004" lon="12.5234383"><ele>37.0</ele><time>2026-04-29T07:59:17.844Z</time></trkpt><trkpt lat="37.880255" lon="12.5236117"><ele>36.0</ele><time>2026-04-29T07:59:18.839Z</time></trkpt><trkpt lat="37.8804767" lon="12.5237933"><ele>36.0</ele><time>2026-04-29T07:59:19.843Z</time></trkpt><trkpt lat="37.8807017" lon="12.52398"><ele>36.0</ele><time>2026-04-29T07:59:20.844Z</time></trkpt><trkpt lat="37.880925" lon="12.52417"><ele>29.0</ele><time>2026-04-29T07:59:21.84Z</time></trkpt><trkpt lat="37.88115" lon="12.524355"><ele>22.0</ele><time>2026-04-29T07:59:22.843Z</time></trkpt><trkpt lat="37.8813733" lon="12.5245383"><ele>22.5</ele><time>2026-04-29T07:59:23.844Z</time></trkpt><trkpt lat="37.88159" lon="12.5247183"><ele>23.0</ele><time>2026-04-29T07:59:24.845Z</time></trkpt><trkpt lat="37.881805" lon="12.5248867"><ele>21.5</ele><time>2026-04-29T07:59:25.841Z</time></trkpt><trkpt lat="37.882015" lon="12.5250333"><ele>20.0</ele><time>2026-04-29T07:59:26.841Z</time></trkpt><trkpt lat="37.882225" lon="12.5251567"><ele>20.0</ele><time>2026-04-29T07:59:27.836Z</time></trkpt><trkpt lat="37.8824483" lon="12.525245"><ele>20.0</ele><time>2026-04-29T07:59:28.839Z</time></trkpt><trkpt lat="37.8826867" lon="12.5253117"><ele>19.5</ele><time>2026-04-29T07:59:29.844Z</time></trkpt><trkpt lat="37.882935" lon="12.5253617"><ele>19.0</ele><time>2026-04-29T07:59:30.837Z</time></trkpt><trkpt lat="37.88319" lon="12.525405"><ele>19.5</ele><time>2026-04-29T07:59:31.84Z</time></trkpt><trkpt lat="37.883445" lon="12.525445"><ele>20.0</ele><time>2026-04-29T07:59:32.84Z</time></trkpt><trkpt lat="37.8837" lon="12.5254817"><ele>20.0</ele><time>2026-04-29T07:59:33.844Z</time></trkpt><trkpt lat="37.88395" lon="12.5255167"><ele>20.0</ele><time>2026-04-29T07:59:34.84Z</time></trkpt><trkpt lat="37.884185" lon="12.5255517"><ele>21.666666666666668</ele><time>2026-04-29T07:59:35.837Z</time></trkpt><trkpt lat="37.884405" lon="12.5255817"><ele>23.333333333333336</ele><time>2026-04-29T07:59:36.838Z</time></trkpt><trkpt lat="37.8846133" lon="12.52561"><ele>25.0</ele><time>2026-04-29T07:59:37.841Z</time></trkpt><trkpt lat="37.8848" lon="12.5256367"><ele>25.0</ele><time>2026-04-29T07:59:38.84Z</time></trkpt><trkpt lat="37.8849583" lon="12.5256617"><ele>25.0</ele><time>2026-04-29T07:59:39.841Z</time></trkpt><trkpt lat="37.885085" lon="12.5256883"><ele>25.0</ele><time>2026-04-29T07:59:40.842Z</time></trkpt><trkpt lat="37.8851817" lon="12.5257233"><ele>25.0</ele><time>2026-04-29T07:59:41.842Z</time></trkpt><trkpt lat="37.885255" lon="12.5257717"><ele>26.6</ele><time>2026-04-29T07:59:42.84Z</time></trkpt><trkpt lat="37.8853183" lon="12.5258417"><ele>28.2</ele><time>2026-04-29T07:59:43.839Z</time></trkpt><trkpt lat="37.8853733" lon="12.5259317"><ele>29.799999999999997</ele><time>2026-04-29T07:59:44.844Z</time></trkpt><trkpt lat="37.8854167" lon="12.5260417"><ele>31.4</ele><time>2026-04-29T07:59:45.844Z</time></trkpt><trkpt lat="37.8854367" lon="12.5261717"><ele>33.0</ele><time>2026-04-29T07:59:46.84Z</time></trkpt><trkpt lat="37.88544" lon="12.5263217"><ele>33.75</ele><time>2026-04-29T07:59:47.84Z</time></trkpt><trkpt lat="37.8854333" lon="12.5264933"><ele>34.5</ele><time>2026-04-29T07:59:48.843Z</time></trkpt><trkpt lat="37.8854133" lon="12.5266567"><ele>35.25</ele><time>2026-04-29T07:59:49.839Z</time></trkpt><trkpt lat="37.885375" lon="12.526805"><ele>36.0</ele><time>2026-04-29T07:59:50.841Z</time></trkpt><trkpt lat="37.8853133" lon="12.5269333"><ele>36.0</ele><time>2026-04-29T07:59:51.839Z</time></trkpt><trkpt lat="37.8852267" lon="12.52705"><ele>36.0</ele><time>2026-04-29T07:59:52.837Z</time></trkpt><trkpt lat="37.8851117" lon="12.527165"><ele>36.0</ele><time>2026-04-29T07:59:53.842Z</time></trkpt><trkpt lat="37.8849667" lon="12.5272817"><ele>36.0</ele><time>2026-04-29T07:59:54.84Z</time></trkpt><trkpt lat="37.8848067" lon="12.527405"><ele>34.666666666666664</ele><time>2026-04-29T07:59:55.84Z</time></trkpt><trkpt lat="37.884645" lon="12.5275317"><ele>33.33333333333333</ele><time>2026-04-29T07:59:56.846Z</time></trkpt><trkpt lat="37.8845083" lon="12.5276367"><ele>32.0</ele><time>2026-04-29T07:59:57.846Z</time></trkpt><trkpt lat="37.884385" lon="12.5277267"><ele>32.0</ele><time>2026-04-29T07:59:58.847Z</time></trkpt><trkpt lat="37.8842733" lon="12.5278067"><ele>32.0</ele><time>2026-04-29T07:59:59.845Z</time></trkpt><trkpt lat="37.8841783" lon="12.5278733"><ele>32.0</ele><time>2026-04-29T08:00:00.843Z</time></trkpt><trkpt lat="37.8841017" lon="12.527935"><ele>32.0</ele><time>2026-04-29T08:00:01.841Z</time></trkpt><trkpt lat="37.8840417" lon="12.5280033"><ele>32.0</ele><time>2026-04-29T08:00:02.841Z</time></trkpt><trkpt lat="37.884" lon="12.528085"><ele>30.25</ele><time>2026-04-29T08:00:03.848Z</time></trkpt><trkpt lat="37.883965" lon="12.5281983"><ele>28.5</ele><time>2026-04-29T08:00:04.845Z</time></trkpt><trkpt lat="37.8839433" lon="12.5283333"><ele>26.75</ele><time>2026-04-29T08:00:05.841Z</time></trkpt><trkpt lat="37.8839317" lon="12.5285017"><ele>25.0</ele><time>2026-04-29T08:00:06.845Z</time></trkpt><trkpt lat="37.8839317" lon="12.5287133"><ele>26.0</ele><time>2026-04-29T08:00:07.843Z</time></trkpt><trkpt lat="37.8839367" lon="12.528945"><ele>27.0</ele><time>2026-04-29T08:00:08.841Z</time></trkpt><trkpt lat="37.8839483" lon="12.52921"><ele>28.0</ele><time>2026-04-29T08:00:09.839Z</time></trkpt><trkpt lat="37.8839617" lon="12.529485"><ele>29.333333333333336</ele><time>2026-04-29T08:00:10.838Z</time></trkpt><trkpt lat="37.8839767" lon="12.5297683"><ele>30.666666666666664</ele><time>2026-04-29T08:00:11.841Z</time></trkpt><trkpt lat="37.88399" lon="12.5300433"><ele>32.0</ele><time>2026-04-29T08:00:12.84Z</time></trkpt><trkpt lat="37.8840017" lon="12.53031"><ele>31.333333333333332</ele><time>2026-04-29T08:00:13.843Z</time></trkpt><trkpt lat="37.8840167" lon="12.53055"><ele>30.666666666666664</ele><time>2026-04-29T08:00:14.842Z</time></trkpt><trkpt lat="37.8840317" lon="12.53078"><ele>30.0</ele><time>2026-04-29T08:00:15.84Z</time></trkpt><trkpt lat="37.8840567" lon="12.5310133"><ele>29.333333333333336</ele><time>2026-04-29T08:00:16.841Z</time></trkpt><trkpt lat="37.8840983" lon="12.531255"><ele>28.666666666666668</ele><time>2026-04-29T08:00:17.84Z</time></trkpt><trkpt lat="37.884155" lon="12.531505"><ele>28.0</ele><time>2026-04-29T08:00:18.837Z</time></trkpt><trkpt lat="37.8842183" lon="12.5317567"><ele>30.0</ele><time>2026-04-29T08:00:19.839Z</time></trkpt><trkpt lat="37.884275" lon="12.5319783"><ele>32.0</ele><time>2026-04-29T08:00:20.841Z</time></trkpt><trkpt lat="37.884325" lon="12.5321833"><ele>34.0</ele><time>2026-04-29T08:00:21.843Z</time></trkpt><trkpt lat="37.8843617" lon="12.53236"><ele>34.0</ele><time>2026-04-29T08:00:22.841Z</time></trkpt><trkpt lat="37.8843833" lon="12.5325133"><ele>34.0</ele><time>2026-04-29T08:00:23.842Z</time></trkpt><trkpt lat="37.8843883" lon="12.5326567"><ele>34.0</ele><time>2026-04-29T08:00:24.841Z</time></trkpt><trkpt lat="37.8843733" lon="12.5328133"><ele>34.0</ele><time>2026-04-29T08:00:25.838Z</time></trkpt><trkpt lat="37.8843317" lon="12.5329967"><ele>32.0</ele><time>2026-04-29T08:00:26.844Z</time></trkpt><trkpt lat="37.88427" lon="12.5332183"><ele>30.0</ele><time>2026-04-29T08:00:27.842Z</time></trkpt><trkpt lat="37.8842017" lon="12.5334533"><ele>28.0</ele><time>2026-04-29T08:00:28.842Z</time></trkpt><trkpt lat="37.88413" lon="12.5336967"><ele>30.0</ele><time>2026-04-29T08:00:29.842Z</time></trkpt><trkpt lat="37.8840517" lon="12.5339483"><ele>32.0</ele><time>2026-04-29T08:00:30.842Z</time></trkpt><trkpt lat="37.8839733" lon="12.5341967"><ele>34.0</ele><time>2026-04-29T08:00:31.838Z</time></trkpt><trkpt lat="37.8838967" lon="12.5344467"><ele>34.66666666666667</ele><time>2026-04-29T08:00:32.839Z</time></trkpt><trkpt lat="37.8838217" lon="12.5346917"><ele>35.333333333333336</ele><time>2026-04-29T08:00:33.841Z</time></trkpt><trkpt lat="37.88375" lon="12.5349333"><ele>36.0</ele><time>2026-04-29T08:00:34.84Z</time></trkpt><trkpt lat="37.8836783" lon="12.5351717"><ele>37.333333333333336</ele><time>2026-04-29T08:00:35.841Z</time></trkpt><trkpt lat="37.8836067" lon="12.5354083"><ele>38.66666666666667</ele><time>2026-04-29T08:00:36.842Z</time></trkpt><trkpt lat="37.88354" lon="12.5356533"><ele>40.0</ele><time>2026-04-29T08:00:37.841Z</time></trkpt><trkpt lat="37.8834833" lon="12.5359133"><ele>40.0</ele><time>2026-04-29T08:00:38.838Z</time></trkpt><trkpt lat="37.8834317" lon="12.536185"><ele>40.0</ele><time>2026-04-29T08:00:39.841Z</time></trkpt><trkpt lat="37.88338" lon="12.5364683"><ele>34.0</ele><time>2026-04-29T08:00:40.837Z</time></trkpt><trkpt lat="37.88333" lon="12.5367517"><ele>28.0</ele><time>2026-04-29T08:00:41.842Z</time></trkpt><trkpt lat="37.88328" lon="12.53704"><ele>27.5</ele><time>2026-04-29T08:00:42.839Z</time></trkpt><trkpt lat="37.8832283" lon="12.53733"><ele>27.0</ele><time>2026-04-29T08:00:43.84Z</time></trkpt><trkpt lat="37.8831767" lon="12.5376217"><ele>29.5</ele><time>2026-04-29T08:00:44.841Z</time></trkpt><trkpt lat="37.8831267" lon="12.5379083"><ele>32.0</ele><time>2026-04-29T08:00:45.841Z</time></trkpt><trkpt lat="37.883075" lon="12.538195"><ele>32.0</ele><time>2026-04-29T08:00:46.84Z</time></trkpt><trkpt lat="37.883025" lon="12.5384783"><ele>32.0</ele><time>2026-04-29T08:00:47.837Z</time></trkpt><trkpt lat="37.8829767" lon="12.5387617"><ele>35.0</ele><time>2026-04-29T08:00:48.84Z</time></trkpt><trkpt lat="37.8829317" lon="12.5390417"><ele>38.0</ele><time>2026-04-29T08:00:49.841Z</time></trkpt><trkpt lat="37.8828883" lon="12.53932"><ele>41.0</ele><time>2026-04-29T08:00:50.843Z</time></trkpt><trkpt lat="37.8828467" lon="12.5395967"><ele>42.33333333333333</ele><time>2026-04-29T08:00:51.842Z</time></trkpt><trkpt lat="37.8828033" lon="12.5398683"><ele>43.666666666666664</ele><time>2026-04-29T08:00:52.841Z</time></trkpt><trkpt lat="37.8827583" lon="12.5401367"><ele>45.0</ele><time>2026-04-29T08:00:53.845Z</time></trkpt><trkpt lat="37.8827167" lon="12.54039"><ele>45.0</ele><time>2026-04-29T08:00:54.844Z</time></trkpt><trkpt lat="37.88268" lon="12.5406333"><ele>45.0</ele><time>2026-04-29T08:00:55.841Z</time></trkpt><trkpt lat="37.8826417" lon="12.54086"><ele>45.0</ele><time>2026-04-29T08:00:56.841Z</time></trkpt><trkpt lat="37.88261" lon="12.5410817"><ele>39.0</ele><time>2026-04-29T08:00:57.84Z</time></trkpt><trkpt lat="37.88259" lon="12.541305"><ele>33.0</ele><time>2026-04-29T08:00:58.844Z</time></trkpt><trkpt lat="37.8825867" lon="12.5415383"><ele>27.0</ele><time>2026-04-29T08:00:59.844Z</time></trkpt><trkpt lat="37.8825917" lon="12.54178"><ele>30.0</ele><time>2026-04-29T08:01:00.838Z</time></trkpt><trkpt lat="37.8825983" lon="12.54203"><ele>33.0</ele><time>2026-04-29T08:01:01.839Z</time></trkpt><trkpt lat="37.8826067" lon="12.5422867"><ele>36.0</ele><time>2026-04-29T08:01:02.839Z</time></trkpt><trkpt lat="37.882615" lon="12.5425483"><ele>36.0</ele><time>2026-04-29T08:01:03.841Z</time></trkpt><trkpt lat="37.882625" lon="12.5428167"><ele>36.0</ele><time>2026-04-29T08:01:04.841Z</time></trkpt><trkpt lat="37.8826367" lon="12.543085"><ele>36.0</ele><time>2026-04-29T08:01:05.842Z</time></trkpt><trkpt lat="37.8826467" lon="12.5433567"><ele>36.333333333333336</ele><time>2026-04-29T08:01:06.842Z</time></trkpt><trkpt lat="37.8826583" lon="12.54363"><ele>36.66666666666667</ele><time>2026-04-29T08:01:07.841Z</time></trkpt><trkpt lat="37.8826683" lon="12.5439"><ele>37.0</ele><time>2026-04-29T08:01:08.84Z</time></trkpt><trkpt lat="37.88268" lon="12.5441717"><ele>37.0</ele><time>2026-04-29T08:01:09.84Z</time></trkpt><trkpt lat="37.8826917" lon="12.5444383"><ele>37.0</ele><time>2026-04-29T08:01:10.839Z</time></trkpt><trkpt lat="37.8827033" lon="12.5446867"><ele>37.0</ele><time>2026-04-29T08:01:11.841Z</time></trkpt><trkpt lat="37.8827133" lon="12.5449167"><ele>37.0</ele><time>2026-04-29T08:01:12.842Z</time></trkpt><trkpt lat="37.8827233" lon="12.5451333"><ele>37.0</ele><time>2026-04-29T08:01:13.842Z</time></trkpt><trkpt lat="37.882735" lon="12.5453467"><ele>37.0</ele><time>2026-04-29T08:01:14.839Z</time></trkpt><trkpt lat="37.8827417" lon="12.5455533"><ele>36.66666666666667</ele><time>2026-04-29T08:01:15.841Z</time></trkpt><trkpt lat="37.8827383" lon="12.545755"><ele>36.333333333333336</ele><time>2026-04-29T08:01:16.84Z</time></trkpt><trkpt lat="37.8827217" lon="12.5459517"><ele>36.0</ele><time>2026-04-29T08:01:17.839Z</time></trkpt><trkpt lat="37.8826817" lon="12.5461483"><ele>36.333333333333336</ele><time>2026-04-29T08:01:18.844Z</time></trkpt><trkpt lat="37.8826233" lon="12.546345"><ele>36.66666666666667</ele><time>2026-04-29T08:01:19.841Z</time></trkpt><trkpt lat="37.8825483" lon="12.5465467"><ele>37.0</ele><time>2026-04-29T08:01:20.85Z</time></trkpt><trkpt lat="37.8824667" lon="12.5467617"><ele>35.0</ele><time>2026-04-29T08:01:21.841Z</time></trkpt><trkpt lat="37.8823817" lon="12.5469867"><ele>33.0</ele><time>2026-04-29T08:01:22.838Z</time></trkpt><trkpt lat="37.8822933" lon="12.5472167"><ele>31.0</ele><time>2026-04-29T08:01:23.842Z</time></trkpt><trkpt lat="37.8822067" lon="12.547455"><ele>31.0</ele><time>2026-04-29T08:01:24.84Z</time></trkpt><trkpt lat="37.8821183" lon="12.5477017"><ele>31.0</ele><time>2026-04-29T08:01:25.846Z</time></trkpt><trkpt lat="37.8820267" lon="12.5479533"><ele>31.0</ele><time>2026-04-29T08:01:26.843Z</time></trkpt><trkpt lat="37.88193" lon="12.5482083"><ele>31.0</ele><time>2026-04-29T08:01:27.843Z</time></trkpt><trkpt lat="37.881835" lon="12.5484683"><ele>31.0</ele><time>2026-04-29T08:01:28.843Z</time></trkpt><trkpt lat="37.8817383" lon="12.5487283"><ele>28.666666666666668</ele><time>2026-04-29T08:01:29.839Z</time></trkpt><trkpt lat="37.8816417" lon="12.5489867"><ele>26.333333333333336</ele><time>2026-04-29T08:01:30.846Z</time></trkpt><trkpt lat="37.8815483" lon="12.5492367"><ele>24.0</ele><time>2026-04-29T08:01:31.841Z</time></trkpt><trkpt lat="37.8814567" lon="12.5494767"><ele>24.666666666666664</ele><time>2026-04-29T08:01:32.844Z</time></trkpt><trkpt lat="37.8813667" lon="12.549715"><ele>25.333333333333332</ele><time>2026-04-29T08:01:33.842Z</time></trkpt><trkpt lat="37.8812783" lon="12.5499467"><ele>26.0</ele><time>2026-04-29T08:01:34.84Z</time></trkpt><trkpt lat="37.8811933" lon="12.5501733"><ele>26.0</ele><time>2026-04-29T08:01:35.841Z</time></trkpt><trkpt lat="37.8811067" lon="12.5503967"><ele>26.0</ele><time>2026-04-29T08:01:36.841Z</time></trkpt><trkpt lat="37.88102" lon="12.55062"><ele>26.0</ele><time>2026-04-29T08:01:37.869Z</time></trkpt><trkpt lat="37.8809367" lon="12.55084"><ele>25.666666666666664</ele><time>2026-04-29T08:01:38.842Z</time></trkpt><trkpt lat="37.88085" lon="12.55106"><ele>25.333333333333336</ele><time>2026-04-29T08:01:39.839Z</time></trkpt><trkpt lat="37.8807633" lon="12.5512817"><ele>25.0</ele><time>2026-04-29T08:01:40.844Z</time></trkpt><trkpt lat="37.880675" lon="12.5515083"><ele>25.0</ele><time>2026-04-29T08:01:41.84Z</time></trkpt><trkpt lat="37.8805867" lon="12.5517367"><ele>25.0</ele><time>2026-04-29T08:01:42.841Z</time></trkpt><trkpt lat="37.8804967" lon="12.551975"><ele>25.0</ele><time>2026-04-29T08:01:43.839Z</time></trkpt><trkpt lat="37.8804083" lon="12.5522183"><ele>24.666666666666668</ele><time>2026-04-29T08:01:44.838Z</time></trkpt><trkpt lat="37.8803133" lon="12.5524617"><ele>24.333333333333336</ele><time>2026-04-29T08:01:45.838Z</time></trkpt><trkpt lat="37.8802217" lon="12.55271"><ele>24.0</ele><time>2026-04-29T08:01:46.839Z</time></trkpt><trkpt lat="37.8801267" lon="12.5529617"><ele>24.333333333333336</ele><time>2026-04-29T08:01:47.841Z</time></trkpt><trkpt lat="37.8800333" lon="12.5532117"><ele>24.666666666666668</ele><time>2026-04-29T08:01:48.842Z</time></trkpt><trkpt lat="37.87994" lon="12.5534583"><ele>25.0</ele><time>2026-04-29T08:01:49.842Z</time></trkpt><trkpt lat="37.8798467" lon="12.5537033"><ele>25.333333333333336</ele><time>2026-04-29T08:01:50.841Z</time></trkpt><trkpt lat="37.8797583" lon="12.5539417"><ele>25.666666666666664</ele><time>2026-04-29T08:01:51.839Z</time></trkpt><trkpt lat="37.87967" lon="12.5541733"><ele>26.0</ele><time>2026-04-29T08:01:52.839Z</time></trkpt><trkpt lat="37.8795883" lon="12.55439"><ele>26.0</ele><time>2026-04-29T08:01:53.839Z</time></trkpt><trkpt lat="37.8795117" lon="12.5545967"><ele>26.0</ele><time>2026-04-29T08:01:54.839Z</time></trkpt><trkpt lat="37.8793717" lon="12.5549733"><ele>26.0</ele><time>2026-04-29T08:01:56.842Z</time></trkpt><trkpt lat="37.8793017" lon="12.5551483"><ele>26.0</ele><time>2026-04-29T08:01:57.841Z</time></trkpt><trkpt lat="37.8792317" lon="12.55533"><ele>26.0</ele><time>2026-04-29T08:01:58.841Z</time></trkpt><trkpt lat="37.8791617" lon="12.5555283"><ele>26.0</ele><time>2026-04-29T08:01:59.84Z</time></trkpt><trkpt lat="37.879085" lon="12.5557367"><ele>26.0</ele><time>2026-04-29T08:02:00.839Z</time></trkpt><trkpt lat="37.8790017" lon="12.5559567"><ele>26.0</ele><time>2026-04-29T08:02:01.841Z</time></trkpt><trkpt lat="37.8789133" lon="12.55619"><ele>26.333333333333332</ele><time>2026-04-29T08:02:02.844Z</time></trkpt><trkpt lat="37.8788233" lon="12.5564367"><ele>26.666666666666664</ele><time>2026-04-29T08:02:03.842Z</time></trkpt><trkpt lat="37.87873" lon="12.5566917"><ele>27.0</ele><time>2026-04-29T08:02:04.843Z</time></trkpt><trkpt lat="37.8786383" lon="12.55695"><ele>27.5</ele><time>2026-04-29T08:02:05.841Z</time></trkpt><trkpt lat="37.878545" lon="12.5572133"><ele>28.0</ele><time>2026-04-29T08:02:06.839Z</time></trkpt><trkpt lat="37.87845" lon="12.5574767"><ele>28.0</ele><time>2026-04-29T08:02:07.838Z</time></trkpt><trkpt lat="37.87836" lon="12.5577283"><ele>28.0</ele><time>2026-04-29T08:02:08.843Z</time></trkpt><trkpt lat="37.878275" lon="12.55796"><ele>28.0</ele><time>2026-04-29T08:02:09.84Z</time></trkpt><trkpt lat="37.878195" lon="12.5581767"><ele>28.0</ele><time>2026-04-29T08:02:10.844Z</time></trkpt><trkpt lat="37.8781217" lon="12.5583783"><ele>28.0</ele><time>2026-04-29T08:02:11.841Z</time></trkpt><trkpt lat="37.8780517" lon="12.5585667"><ele>28.0</ele><time>2026-04-29T08:02:12.84Z</time></trkpt><trkpt lat="37.877985" lon="12.5587467"><ele>29.5</ele><time>2026-04-29T08:02:13.842Z</time></trkpt><trkpt lat="37.8779183" lon="12.5589133"><ele>31.0</ele><time>2026-04-29T08:02:14.841Z</time></trkpt><trkpt lat="37.8778617" lon="12.5590683"><ele>32.5</ele><time>2026-04-29T08:02:15.836Z</time></trkpt><trkpt lat="37.877805" lon="12.5592283"><ele>34.0</ele><time>2026-04-29T08:02:16.838Z</time></trkpt><trkpt lat="37.8777417" lon="12.55939"><ele>34.333333333333336</ele><time>2026-04-29T08:02:17.841Z</time></trkpt><trkpt lat="37.8776783" lon="12.5595717"><ele>34.666666666666664</ele><time>2026-04-29T08:02:18.841Z</time></trkpt><trkpt lat="37.8776033" lon="12.5597817"><ele>35.0</ele><time>2026-04-29T08:02:19.837Z</time></trkpt><trkpt lat="37.8775133" lon="12.5600067"><ele>34.33333333333333</ele><time>2026-04-29T08:02:20.853Z</time></trkpt><trkpt lat="37.8774183" lon="12.5602333"><ele>33.666666666666664</ele><time>2026-04-29T08:02:21.839Z</time></trkpt><trkpt lat="37.8773217" lon="12.5604667"><ele>33.0</ele><time>2026-04-29T08:02:22.844Z</time></trkpt><trkpt lat="37.8772333" lon="12.5607033"><ele>33.0</ele><time>2026-04-29T08:02:23.84Z</time></trkpt><trkpt lat="37.8771467" lon="12.560945"><ele>33.0</ele><time>2026-04-29T08:02:24.836Z</time></trkpt><trkpt lat="37.87706" lon="12.5611883"><ele>33.0</ele><time>2026-04-29T08:02:25.844Z</time></trkpt><trkpt lat="37.87697" lon="12.56143"><ele>33.666666666666664</ele><time>2026-04-29T08:02:26.841Z</time></trkpt><trkpt lat="37.876875" lon="12.5616733"><ele>34.33333333333333</ele><time>2026-04-29T08:02:27.838Z</time></trkpt><trkpt lat="37.87678" lon="12.5619133"><ele>35.0</ele><time>2026-04-29T08:02:28.862Z</time></trkpt><trkpt lat="37.87669" lon="12.5621583"><ele>35.33333333333333</ele><time>2026-04-29T08:02:29.84Z</time></trkpt><trkpt lat="37.8765967" lon="12.562405"><ele>35.666666666666664</ele><time>2026-04-29T08:02:30.844Z</time></trkpt><trkpt lat="37.8765033" lon="12.5626533"><ele>36.0</ele><time>2026-04-29T08:02:31.844Z</time></trkpt><trkpt lat="37.87641" lon="12.5629"><ele>37.0</ele><time>2026-04-29T08:02:32.842Z</time></trkpt><trkpt lat="37.8763183" lon="12.56315"><ele>38.0</ele><time>2026-04-29T08:02:33.84Z</time></trkpt><trkpt lat="37.876225" lon="12.5634"><ele>39.0</ele><time>2026-04-29T08:02:34.841Z</time></trkpt><trkpt lat="37.8761317" lon="12.56365"><ele>38.666666666666664</ele><time>2026-04-29T08:02:35.839Z</time></trkpt><trkpt lat="37.8760383" lon="12.5639033"><ele>38.33333333333333</ele><time>2026-04-29T08:02:36.843Z</time></trkpt><trkpt lat="37.8759433" lon="12.564155"><ele>38.0</ele><time>2026-04-29T08:02:37.843Z</time></trkpt><trkpt lat="37.87585" lon="12.5644067"><ele>37.0</ele><time>2026-04-29T08:02:38.843Z</time></trkpt><trkpt lat="37.875755" lon="12.5646583"><ele>36.0</ele><time>2026-04-29T08:02:39.843Z</time></trkpt><trkpt lat="37.87566" lon="12.5649083"><ele>35.0</ele><time>2026-04-29T08:02:40.841Z</time></trkpt><trkpt lat="37.8755667" lon="12.5651583"><ele>35.666666666666664</ele><time>2026-04-29T08:02:41.846Z</time></trkpt><trkpt lat="37.8754783" lon="12.5653983"><ele>36.333333333333336</ele><time>2026-04-29T08:02:42.84Z</time></trkpt><trkpt lat="37.87539" lon="12.5656333"><ele>37.0</ele><time>2026-04-29T08:02:43.848Z</time></trkpt><trkpt lat="37.8752983" lon="12.5658733"><ele>37.0</ele><time>2026-04-29T08:02:44.841Z</time></trkpt><trkpt lat="37.8752083" lon="12.5661117"><ele>37.0</ele><time>2026-04-29T08:02:45.841Z</time></trkpt><trkpt lat="37.8751217" lon="12.566345"><ele>37.0</ele><time>2026-04-29T08:02:46.842Z</time></trkpt><trkpt lat="37.8750317" lon="12.566575"><ele>37.0</ele><time>2026-04-29T08:02:47.842Z</time></trkpt><trkpt lat="37.8749417" lon="12.5668083"><ele>37.0</ele><time>2026-04-29T08:02:48.839Z</time></trkpt><trkpt lat="37.8748517" lon="12.5670483"><ele>37.0</ele><time>2026-04-29T08:02:49.837Z</time></trkpt><trkpt lat="37.8747633" lon="12.5672917"><ele>37.66666666666667</ele><time>2026-04-29T08:02:50.839Z</time></trkpt><trkpt lat="37.8746733" lon="12.567535"><ele>38.333333333333336</ele><time>2026-04-29T08:02:51.843Z</time></trkpt><trkpt lat="37.87458" lon="12.56778"><ele>39.0</ele><time>2026-04-29T08:02:52.841Z</time></trkpt><trkpt lat="37.8744867" lon="12.5680233"><ele>39.0</ele><time>2026-04-29T08:02:53.843Z</time></trkpt><trkpt lat="37.8743967" lon="12.56827"><ele>39.0</ele><time>2026-04-29T08:02:54.843Z</time></trkpt><trkpt lat="37.8743067" lon="12.56851"><ele>39.0</ele><time>2026-04-29T08:02:55.841Z</time></trkpt><trkpt lat="37.874215" lon="12.5687533"><ele>38.0</ele><time>2026-04-29T08:02:56.837Z</time></trkpt><trkpt lat="37.8741217" lon="12.5689983"><ele>37.0</ele><time>2026-04-29T08:02:57.838Z</time></trkpt><trkpt lat="37.874025" lon="12.5692517"><ele>36.0</ele><time>2026-04-29T08:02:58.843Z</time></trkpt><trkpt lat="37.87393" lon="12.5695083"><ele>38.0</ele><time>2026-04-29T08:02:59.842Z</time></trkpt><trkpt lat="37.8738317" lon="12.569765"><ele>40.0</ele><time>2026-04-29T08:03:00.846Z</time></trkpt><trkpt lat="37.8737333" lon="12.570025"><ele>40.0</ele><time>2026-04-29T08:03:01.841Z</time></trkpt><trkpt lat="37.873635" lon="12.5702917"><ele>40.0</ele><time>2026-04-29T08:03:02.849Z</time></trkpt><trkpt lat="37.873535" lon="12.5705567"><ele>41.0</ele><time>2026-04-29T08:03:03.843Z</time></trkpt><trkpt lat="37.8734283" lon="12.5708233"><ele>42.0</ele><time>2026-04-29T08:03:04.845Z</time></trkpt><trkpt lat="37.8733233" lon="12.5710917"><ele>43.0</ele><time>2026-04-29T08:03:05.842Z</time></trkpt><trkpt lat="37.8732217" lon="12.5713633"><ele>44.0</ele><time>2026-04-29T08:03:06.839Z</time></trkpt><trkpt lat="37.87312" lon="12.571635"><ele>44.0</ele><time>2026-04-29T08:03:07.842Z</time></trkpt><trkpt lat="37.8730167" lon="12.571905"><ele>44.0</ele><time>2026-04-29T08:03:08.841Z</time></trkpt><trkpt lat="37.8729133" lon="12.5721767"><ele>44.5</ele><time>2026-04-29T08:03:09.845Z</time></trkpt><trkpt lat="37.87281" lon="12.5724483"><ele>45.0</ele><time>2026-04-29T08:03:10.841Z</time></trkpt><trkpt lat="37.8727083" lon="12.57272"><ele>44.0</ele><time>2026-04-29T08:03:11.851Z</time></trkpt><trkpt lat="37.8726083" lon="12.5729917"><ele>43.0</ele><time>2026-04-29T08:03:12.844Z</time></trkpt><trkpt lat="37.8725083" lon="12.57326"><ele>42.66666666666667</ele><time>2026-04-29T08:03:13.842Z</time></trkpt><trkpt lat="37.87241" lon="12.573515"><ele>42.333333333333336</ele><time>2026-04-29T08:03:14.842Z</time></trkpt><trkpt lat="37.8723183" lon="12.573755"><ele>42.0</ele><time>2026-04-29T08:03:15.842Z</time></trkpt><trkpt lat="37.8722317" lon="12.5739767"><ele>42.666666666666664</ele><time>2026-04-29T08:03:16.839Z</time></trkpt><trkpt lat="37.8721517" lon="12.5741883"><ele>43.33333333333333</ele><time>2026-04-29T08:03:17.839Z</time></trkpt><trkpt lat="37.8720783" lon="12.57439"><ele>44.0</ele><time>2026-04-29T08:03:18.838Z</time></trkpt><trkpt lat="37.87201" lon="12.5745767"><ele>44.0</ele><time>2026-04-29T08:03:19.841Z</time></trkpt><trkpt lat="37.8719433" lon="12.574755"><ele>44.0</ele><time>2026-04-29T08:03:20.839Z</time></trkpt><trkpt lat="37.871885" lon="12.57492"><ele>44.0</ele><time>2026-04-29T08:03:21.842Z</time></trkpt><trkpt lat="37.8718233" lon="12.5750767"><ele>44.0</ele><time>2026-04-29T08:03:22.849Z</time></trkpt><trkpt lat="37.87176" lon="12.5752333"><ele>44.25</ele><time>2026-04-29T08:03:23.841Z</time></trkpt><trkpt lat="37.8716983" lon="12.57539"><ele>44.5</ele><time>2026-04-29T08:03:24.844Z</time></trkpt><trkpt lat="37.8716417" lon="12.5755283"><ele>44.75</ele><time>2026-04-29T08:03:25.846Z</time></trkpt><trkpt lat="37.8715933" lon="12.5756567"><ele>45.0</ele><time>2026-04-29T08:03:26.846Z</time></trkpt><trkpt lat="37.87156" lon="12.5757817"><ele>45.0</ele><time>2026-04-29T08:03:27.843Z</time></trkpt><trkpt lat="37.8715483" lon="12.575905"><ele>45.0</ele><time>2026-04-29T08:03:28.843Z</time></trkpt><trkpt lat="37.87156" lon="12.57603"><ele>45.0</ele><time>2026-04-29T08:03:29.842Z</time></trkpt><trkpt lat="37.8715917" lon="12.576155"><ele>45.0</ele><time>2026-04-29T08:03:30.842Z</time></trkpt><trkpt lat="37.87164" lon="12.57628"><ele>45.0</ele><time>2026-04-29T08:03:31.84Z</time></trkpt><trkpt lat="37.8716917" lon="12.5764083"><ele>45.25</ele><time>2026-04-29T08:03:32.845Z</time></trkpt><trkpt lat="37.8717433" lon="12.5765533"><ele>45.5</ele><time>2026-04-29T08:03:33.837Z</time></trkpt><trkpt lat="37.8717983" lon="12.57671"><ele>45.75</ele><time>2026-04-29T08:03:34.841Z</time></trkpt><trkpt lat="37.8718533" lon="12.5768817"><ele>46.0</ele><time>2026-04-29T08:03:35.843Z</time></trkpt><trkpt lat="37.8719017" lon="12.5770617"><ele>46.0</ele><time>2026-04-29T08:03:36.843Z</time></trkpt><trkpt lat="37.871945" lon="12.5772583"><ele>46.0</ele><time>2026-04-29T08:03:37.837Z</time></trkpt><trkpt lat="37.87199" lon="12.5774717"><ele>46.0</ele><time>2026-04-29T08:03:38.836Z</time></trkpt><trkpt lat="37.8720333" lon="12.5776967"><ele>46.333333333333336</ele><time>2026-04-29T08:03:39.855Z</time></trkpt><trkpt lat="37.8720783" lon="12.5779217"><ele>46.666666666666664</ele><time>2026-04-29T08:03:40.839Z</time></trkpt><trkpt lat="37.872125" lon="12.5781583"><ele>47.0</ele><time>2026-04-29T08:03:41.837Z</time></trkpt><trkpt lat="37.8721717" lon="12.578405"><ele>47.0</ele><time>2026-04-29T08:03:42.839Z</time></trkpt><trkpt lat="37.8722217" lon="12.5786583"><ele>47.0</ele><time>2026-04-29T08:03:43.842Z</time></trkpt><trkpt lat="37.872275" lon="12.5789117"><ele>47.0</ele><time>2026-04-29T08:03:44.842Z</time></trkpt><trkpt lat="37.8723267" lon="12.57916"><ele>47.0</ele><time>2026-04-29T08:03:45.84Z</time></trkpt><trkpt lat="37.8723733" lon="12.5794"><ele>47.0</ele><time>2026-04-29T08:03:46.839Z</time></trkpt><trkpt lat="37.8724217" lon="12.579635"><ele>47.0</ele><time>2026-04-29T08:03:47.838Z</time></trkpt><trkpt lat="37.8724683" lon="12.5798667"><ele>47.666666666666664</ele><time>2026-04-29T08:03:48.84Z</time></trkpt><trkpt lat="37.8725133" lon="12.5800933"><ele>48.33333333333333</ele><time>2026-04-29T08:03:49.842Z</time></trkpt><trkpt lat="37.8725567" lon="12.580315"><ele>49.0</ele><time>2026-04-29T08:03:50.845Z</time></trkpt><trkpt lat="37.8725983" lon="12.5805267"><ele>49.666666666666664</ele><time>2026-04-29T08:03:51.842Z</time></trkpt><trkpt lat="37.8726367" lon="12.580725"><ele>50.33333333333333</ele><time>2026-04-29T08:03:52.84Z</time></trkpt><trkpt lat="37.8726717" lon="12.5809217"><ele>51.0</ele><time>2026-04-29T08:03:53.844Z</time></trkpt><trkpt lat="37.87271" lon="12.5811183"><ele>50.0</ele><time>2026-04-29T08:03:54.843Z</time></trkpt><trkpt lat="37.8727533" lon="12.5813183"><ele>49.0</ele><time>2026-04-29T08:03:55.841Z</time></trkpt><trkpt lat="37.8728067" lon="12.5815183"><ele>48.0</ele><time>2026-04-29T08:03:56.843Z</time></trkpt><trkpt lat="37.87287" lon="12.5817167"><ele>48.0</ele><time>2026-04-29T08:03:57.841Z</time></trkpt><trkpt lat="37.8729367" lon="12.5819133"><ele>48.0</ele><time>2026-04-29T08:03:58.846Z</time></trkpt><trkpt lat="37.8729967" lon="12.5820967"><ele>48.0</ele><time>2026-04-29T08:03:59.849Z</time></trkpt><trkpt lat="37.8730567" lon="12.5822717"><ele>48.0</ele><time>2026-04-29T08:04:00.84Z</time></trkpt><trkpt lat="37.8731117" lon="12.5824383"><ele>48.0</ele><time>2026-04-29T08:04:01.839Z</time></trkpt><trkpt lat="37.8731633" lon="12.5825983"><ele>48.0</ele><time>2026-04-29T08:04:02.843Z</time></trkpt><trkpt lat="37.873215" lon="12.5827567"><ele>48.0</ele><time>2026-04-29T08:04:03.841Z</time></trkpt><trkpt lat="37.8732667" lon="12.582915"><ele>48.0</ele><time>2026-04-29T08:04:04.841Z</time></trkpt><trkpt lat="37.8733183" lon="12.5830717"><ele>48.0</ele><time>2026-04-29T08:04:05.842Z</time></trkpt><trkpt lat="37.8733717" lon="12.5832283"><ele>48.0</ele><time>2026-04-29T08:04:06.843Z</time></trkpt><trkpt lat="37.873425" lon="12.583385"><ele>48.0</ele><time>2026-04-29T08:04:07.841Z</time></trkpt><trkpt lat="37.8734733" lon="12.58354"><ele>48.25</ele><time>2026-04-29T08:04:08.841Z</time></trkpt><trkpt lat="37.8735217" lon="12.5836883"><ele>48.5</ele><time>2026-04-29T08:04:09.839Z</time></trkpt><trkpt lat="37.8735717" lon="12.583835"><ele>48.75</ele><time>2026-04-29T08:04:10.84Z</time></trkpt><trkpt lat="37.8736267" lon="12.5839683"><ele>49.0</ele><time>2026-04-29T08:04:11.844Z</time></trkpt><trkpt lat="37.873695" lon="12.5840917"><ele>49.0</ele><time>2026-04-29T08:04:12.841Z</time></trkpt><trkpt lat="37.87377" lon="12.5841983"><ele>49.0</ele><time>2026-04-29T08:04:13.841Z</time></trkpt><trkpt lat="37.8738633" lon="12.5842833"><ele>49.0</ele><time>2026-04-29T08:04:14.841Z</time></trkpt><trkpt lat="37.8739767" lon="12.58435"><ele>49.0</ele><time>2026-04-29T08:04:15.942Z</time></trkpt><trkpt lat="37.8740983" lon="12.5844"><ele>49.0</ele><time>2026-04-29T08:04:16.846Z</time></trkpt><trkpt lat="37.8742167" lon="12.5844483"><ele>49.0</ele><time>2026-04-29T08:04:17.84Z</time></trkpt><trkpt lat="37.8743367" lon="12.5845017"><ele>49.0</ele><time>2026-04-29T08:04:18.842Z</time></trkpt><trkpt lat="37.8744583" lon="12.5845517"><ele>49.0</ele><time>2026-04-29T08:04:19.852Z</time></trkpt><trkpt lat="37.87458" lon="12.584605"><ele>49.5</ele><time>2026-04-29T08:04:20.842Z</time></trkpt><trkpt lat="37.8747017" lon="12.5846717"><ele>50.0</ele><time>2026-04-29T08:04:21.84Z</time></trkpt><trkpt lat="37.87482" lon="12.584755"><ele>50.5</ele><time>2026-04-29T08:04:22.839Z</time></trkpt><trkpt lat="37.8749317" lon="12.5848533"><ele>51.0</ele><time>2026-04-29T08:04:23.841Z</time></trkpt><trkpt lat="37.8750483" lon="12.5849667"><ele>51.0</ele><time>2026-04-29T08:04:24.843Z</time></trkpt><trkpt lat="37.8751717" lon="12.585095"><ele>51.0</ele><time>2026-04-29T08:04:25.842Z</time></trkpt><trkpt lat="37.8752933" lon="12.5852367"><ele>51.0</ele><time>2026-04-29T08:04:26.844Z</time></trkpt><trkpt lat="37.8754217" lon="12.5853883"><ele>51.33333333333333</ele><time>2026-04-29T08:04:27.841Z</time></trkpt><trkpt lat="37.8755517" lon="12.5855533"><ele>51.666666666666664</ele><time>2026-04-29T08:04:28.841Z</time></trkpt><trkpt lat="37.875685" lon="12.585725"><ele>52.0</ele><time>2026-04-29T08:04:29.842Z</time></trkpt><trkpt lat="37.87582" lon="12.5858983"><ele>52.0</ele><time>2026-04-29T08:04:30.839Z</time></trkpt><trkpt lat="37.87596" lon="12.5860733"><ele>52.0</ele><time>2026-04-29T08:04:31.843Z</time></trkpt><trkpt lat="37.8761017" lon="12.58625"><ele>52.0</ele><time>2026-04-29T08:04:32.843Z</time></trkpt><trkpt lat="37.87625" lon="12.58643"><ele>52.33333333333333</ele><time>2026-04-29T08:04:33.841Z</time></trkpt><trkpt lat="37.8764" lon="12.5866117"><ele>52.66666666666667</ele><time>2026-04-29T08:04:34.843Z</time></trkpt><trkpt lat="37.8765583" lon="12.58679"><ele>53.0</ele><time>2026-04-29T08:04:35.841Z</time></trkpt><trkpt lat="37.8767217" lon="12.5869633"><ele>53.66666666666667</ele><time>2026-04-29T08:04:36.852Z</time></trkpt><trkpt lat="37.8768917" lon="12.5871317"><ele>54.33333333333333</ele><time>2026-04-29T08:04:37.841Z</time></trkpt><trkpt lat="37.877065" lon="12.587295"><ele>55.0</ele><time>2026-04-29T08:04:38.843Z</time></trkpt><trkpt lat="37.8772417" lon="12.5874583"><ele>55.0</ele><time>2026-04-29T08:04:39.841Z</time></trkpt><trkpt lat="37.877415" lon="12.587635"><ele>55.0</ele><time>2026-04-29T08:04:40.846Z</time></trkpt><trkpt lat="37.8775833" lon="12.58782"><ele>55.0</ele><time>2026-04-29T08:04:41.841Z</time></trkpt><trkpt lat="37.87775" lon="12.588015"><ele>55.0</ele><time>2026-04-29T08:04:42.841Z</time></trkpt><trkpt lat="37.8779117" lon="12.58822"><ele>55.0</ele><time>2026-04-29T08:04:43.839Z</time></trkpt><trkpt lat="37.8780683" lon="12.5884267"><ele>55.0</ele><time>2026-04-29T08:04:44.839Z</time></trkpt><trkpt lat="37.87822" lon="12.5886233"><ele>55.0</ele><time>2026-04-29T08:04:45.839Z</time></trkpt><trkpt lat="37.8783633" lon="12.5888083"><ele>55.0</ele><time>2026-04-29T08:04:46.843Z</time></trkpt><trkpt lat="37.8785017" lon="12.58899"><ele>55.0</ele><time>2026-04-29T08:04:47.843Z</time></trkpt><trkpt lat="37.8786317" lon="12.5891567"><ele>55.0</ele><time>2026-04-29T08:04:48.843Z</time></trkpt><trkpt lat="37.878755" lon="12.5893317"><ele>55.0</ele><time>2026-04-29T08:04:49.841Z</time></trkpt><trkpt lat="37.8788767" lon="12.58953"><ele>54.33333333333333</ele><time>2026-04-29T08:04:50.844Z</time></trkpt><trkpt lat="37.8789917" lon="12.5897467"><ele>53.66666666666667</ele><time>2026-04-29T08:04:51.843Z</time></trkpt><trkpt lat="37.8791" lon="12.5899717"><ele>53.0</ele><time>2026-04-29T08:04:52.838Z</time></trkpt><trkpt lat="37.8792017" lon="12.59019"><ele>54.66666666666667</ele><time>2026-04-29T08:04:53.846Z</time></trkpt><trkpt lat="37.8793" lon="12.590395"><ele>56.33333333333333</ele><time>2026-04-29T08:04:54.844Z</time></trkpt><trkpt lat="37.8793967" lon="12.5905867"><ele>58.0</ele><time>2026-04-29T08:04:55.843Z</time></trkpt><trkpt lat="37.8795" lon="12.5907733"><ele>58.0</ele><time>2026-04-29T08:04:56.856Z</time></trkpt><trkpt lat="37.8796233" lon="12.5909533"><ele>58.0</ele><time>2026-04-29T08:04:57.84Z</time></trkpt><trkpt lat="37.8797683" lon="12.5911267"><ele>58.0</ele><time>2026-04-29T08:04:58.842Z</time></trkpt><trkpt lat="37.8799267" lon="12.5912983"><ele>58.0</ele><time>2026-04-29T08:04:59.84Z</time></trkpt><trkpt lat="37.880095" lon="12.591465"><ele>58.0</ele><time>2026-04-29T08:05:00.84Z</time></trkpt><trkpt lat="37.8802717" lon="12.5916317"><ele>58.0</ele><time>2026-04-29T08:05:01.837Z</time></trkpt><trkpt lat="37.8804517" lon="12.5918017"><ele>58.5</ele><time>2026-04-29T08:05:02.841Z</time></trkpt><trkpt lat="37.8806317" lon="12.5919717"><ele>59.0</ele><time>2026-04-29T08:05:03.842Z</time></trkpt><trkpt lat="37.880815" lon="12.5921417"><ele>59.0</ele><time>2026-04-29T08:05:04.842Z</time></trkpt><trkpt lat="37.8809967" lon="12.59231"><ele>59.0</ele><time>2026-04-29T08:05:05.842Z</time></trkpt><trkpt lat="37.88118" lon="12.59248"><ele>59.0</ele><time>2026-04-29T08:05:06.839Z</time></trkpt><trkpt lat="37.8813617" lon="12.5926583"><ele>59.0</ele><time>2026-04-29T08:05:07.841Z</time></trkpt><trkpt lat="37.8815467" lon="12.5928367"><ele>59.5</ele><time>2026-04-29T08:05:08.843Z</time></trkpt><trkpt lat="37.8817333" lon="12.593015"><ele>60.0</ele><time>2026-04-29T08:05:09.843Z</time></trkpt><trkpt lat="37.8819217" lon="12.5931933"><ele>60.5</ele><time>2026-04-29T08:05:10.842Z</time></trkpt><trkpt lat="37.8821117" lon="12.5933717"><ele>61.0</ele><time>2026-04-29T08:05:11.84Z</time></trkpt><trkpt lat="37.882305" lon="12.5935483"><ele>61.0</ele><time>2026-04-29T08:05:12.842Z</time></trkpt><trkpt lat="37.8824983" lon="12.5937267"><ele>61.0</ele><time>2026-04-29T08:05:13.845Z</time></trkpt><trkpt lat="37.8826917" lon="12.593905"><ele>61.5</ele><time>2026-04-29T08:05:14.842Z</time></trkpt><trkpt lat="37.882885" lon="12.5940833"><ele>62.0</ele><time>2026-04-29T08:05:15.843Z</time></trkpt><trkpt lat="37.8830733" lon="12.5942567"><ele>62.0</ele><time>2026-04-29T08:05:16.843Z</time></trkpt><trkpt lat="37.88325" lon="12.5944217"><ele>62.0</ele><time>2026-04-29T08:05:17.848Z</time></trkpt><trkpt lat="37.8834167" lon="12.5945733"><ele>62.0</ele><time>2026-04-29T08:05:18.843Z</time></trkpt><trkpt lat="37.8835767" lon="12.5947267"><ele>62.66666666666667</ele><time>2026-04-29T08:05:19.841Z</time></trkpt><trkpt lat="37.883735" lon="12.5948867"><ele>63.33333333333333</ele><time>2026-04-29T08:05:20.841Z</time></trkpt><trkpt lat="37.88389" lon="12.59506"><ele>64.0</ele><time>2026-04-29T08:05:21.841Z</time></trkpt><trkpt lat="37.884045" lon="12.595245"><ele>64.33333333333333</ele><time>2026-04-29T08:05:22.842Z</time></trkpt><trkpt lat="37.884205" lon="12.595435"><ele>64.66666666666667</ele><time>2026-04-29T08:05:23.842Z</time></trkpt><trkpt lat="37.884365" lon="12.59563"><ele>65.0</ele><time>2026-04-29T08:05:24.843Z</time></trkpt><trkpt lat="37.8845267" lon="12.5958283"><ele>65.0</ele><time>2026-04-29T08:05:25.846Z</time></trkpt><trkpt lat="37.8846933" lon="12.5960267"><ele>65.0</ele><time>2026-04-29T08:05:26.841Z</time></trkpt><trkpt lat="37.8848617" lon="12.5962233"><ele>65.0</ele><time>2026-04-29T08:05:27.84Z</time></trkpt><trkpt lat="37.8850317" lon="12.5964233"><ele>65.0</ele><time>2026-04-29T08:05:28.837Z</time></trkpt><trkpt lat="37.8852017" lon="12.596625"><ele>65.5</ele><time>2026-04-29T08:05:29.839Z</time></trkpt><trkpt lat="37.88537" lon="12.5968317"><ele>66.0</ele><time>2026-04-29T08:05:30.843Z</time></trkpt><trkpt lat="37.8855367" lon="12.59704"><ele>66.0</ele><time>2026-04-29T08:05:31.842Z</time></trkpt><trkpt lat="37.885705" lon="12.59725"><ele>66.0</ele><time>2026-04-29T08:05:32.841Z</time></trkpt><trkpt lat="37.885875" lon="12.59746"><ele>67.0</ele><time>2026-04-29T08:05:33.851Z</time></trkpt><trkpt lat="37.8860517" lon="12.5976667"><ele>68.0</ele><time>2026-04-29T08:05:34.839Z</time></trkpt><trkpt lat="37.88623" lon="12.5978767"><ele>68.0</ele><time>2026-04-29T08:05:35.841Z</time></trkpt><trkpt lat="37.88641" lon="12.5980867"><ele>68.0</ele><time>2026-04-29T08:05:36.839Z</time></trkpt><trkpt lat="37.8865917" lon="12.598295"><ele>68.0</ele><time>2026-04-29T08:05:37.844Z</time></trkpt><trkpt lat="37.8867733" lon="12.5985067"><ele>68.0</ele><time>2026-04-29T08:05:38.844Z</time></trkpt><trkpt lat="37.886955" lon="12.5987183"><ele>69.0</ele><time>2026-04-29T08:05:39.841Z</time></trkpt><trkpt lat="37.887135" lon="12.5989317"><ele>70.0</ele><time>2026-04-29T08:05:40.839Z</time></trkpt><trkpt lat="37.8873067" lon="12.599135"><ele>70.0</ele><time>2026-04-29T08:05:41.839Z</time></trkpt><trkpt lat="37.88747" lon="12.5993267"><ele>70.0</ele><time>2026-04-29T08:05:42.837Z</time></trkpt><trkpt lat="37.8876317" lon="12.59952"><ele>70.0</ele><time>2026-04-29T08:05:43.84Z</time></trkpt><trkpt lat="37.88779" lon="12.5997267"><ele>70.66666666666666</ele><time>2026-04-29T08:05:44.842Z</time></trkpt><trkpt lat="37.8879367" lon="12.5999367"><ele>71.33333333333333</ele><time>2026-04-29T08:05:45.841Z</time></trkpt><trkpt lat="37.8880783" lon="12.6001467"><ele>72.0</ele><time>2026-04-29T08:05:46.842Z</time></trkpt><trkpt lat="37.8882183" lon="12.6003633"><ele>72.0</ele><time>2026-04-29T08:05:47.842Z</time></trkpt><trkpt lat="37.8883633" lon="12.6005867"><ele>72.0</ele><time>2026-04-29T08:05:48.841Z</time></trkpt><trkpt lat="37.8885133" lon="12.6008133"><ele>73.0</ele><time>2026-04-29T08:05:49.839Z</time></trkpt><trkpt lat="37.8886667" lon="12.6010433"><ele>74.0</ele><time>2026-04-29T08:05:50.852Z</time></trkpt><trkpt lat="37.8888217" lon="12.60128"><ele>74.0</ele><time>2026-04-29T08:05:51.843Z</time></trkpt><trkpt lat="37.88897" lon="12.6015117"><ele>74.0</ele><time>2026-04-29T08:05:52.842Z</time></trkpt><trkpt lat="37.8891067" lon="12.6017317"><ele>74.0</ele><time>2026-04-29T08:05:53.843Z</time></trkpt><trkpt lat="37.8892333" lon="12.60194"><ele>74.0</ele><time>2026-04-29T08:05:54.845Z</time></trkpt><trkpt lat="37.8893483" lon="12.602135"><ele>74.0</ele><time>2026-04-29T08:05:55.839Z</time></trkpt><trkpt lat="37.8894567" lon="12.602315"><ele>74.0</ele><time>2026-04-29T08:05:56.839Z</time></trkpt><trkpt lat="37.8895583" lon="12.6024817"><ele>74.0</ele><time>2026-04-29T08:05:57.841Z</time></trkpt><trkpt lat="37.8896517" lon="12.602635"><ele>74.0</ele><time>2026-04-29T08:05:58.84Z</time></trkpt><trkpt lat="37.889735" lon="12.6027733"><ele>74.0</ele><time>2026-04-29T08:05:59.843Z</time></trkpt><trkpt lat="37.8898117" lon="12.6029017"><ele>74.0</ele><time>2026-04-29T08:06:00.842Z</time></trkpt><trkpt lat="37.8898767" lon="12.6030117"><ele>74.0</ele><time>2026-04-29T08:06:01.84Z</time></trkpt><trkpt lat="37.8899267" lon="12.6030967"><ele>74.0</ele><time>2026-04-29T08:06:02.837Z</time></trkpt><trkpt lat="37.8899667" lon="12.6031617"><ele>74.0</ele><time>2026-04-29T08:06:03.838Z</time></trkpt><trkpt lat="37.8900667" lon="12.603295"><ele>74.25</ele><time>2026-04-29T08:06:05.836Z</time></trkpt><trkpt lat="37.8901467" lon="12.6034"><ele>74.5</ele><time>2026-04-29T08:06:06.837Z</time></trkpt><trkpt lat="37.8902417" lon="12.60352"><ele>74.75</ele><time>2026-04-29T08:06:07.837Z</time></trkpt><trkpt lat="37.89036" lon="12.6036583"><ele>75.0</ele><time>2026-04-29T08:06:08.838Z</time></trkpt><trkpt lat="37.8904833" lon="12.6038017"><ele>75.0</ele><time>2026-04-29T08:06:09.837Z</time></trkpt><trkpt lat="37.8906067" lon="12.603945"><ele>75.0</ele><time>2026-04-29T08:06:10.836Z</time></trkpt><trkpt lat="37.8907383" lon="12.6040967"><ele>75.0</ele><time>2026-04-29T08:06:11.836Z</time></trkpt><trkpt lat="37.89087" lon="12.6042467"><ele>75.0</ele><time>2026-04-29T08:06:12.837Z</time></trkpt><trkpt lat="37.890995" lon="12.60438"><ele>75.0</ele><time>2026-04-29T08:06:13.94Z</time></trkpt><trkpt lat="37.8912833" lon="12.60459"><ele>75.0</ele><time>2026-04-29T08:06:15.842Z</time></trkpt><trkpt lat="37.8914533" lon="12.6046567"><ele>75.0</ele><time>2026-04-29T08:06:16.836Z</time></trkpt><trkpt lat="37.8916317" lon="12.604705"><ele>75.0</ele><time>2026-04-29T08:06:17.837Z</time></trkpt><trkpt lat="37.8918217" lon="12.604735"><ele>75.33333333333333</ele><time>2026-04-29T08:06:18.837Z</time></trkpt><trkpt lat="37.89202" lon="12.6047533"><ele>75.66666666666666</ele><time>2026-04-29T08:06:19.837Z</time></trkpt><trkpt lat="37.892235" lon="12.6047717"><ele>76.0</ele><time>2026-04-29T08:06:20.838Z</time></trkpt><trkpt lat="37.8924633" lon="12.6047917"><ele>78.0</ele><time>2026-04-29T08:06:21.837Z</time></trkpt><trkpt lat="37.8926983" lon="12.6048117"><ele>80.0</ele><time>2026-04-29T08:06:22.836Z</time></trkpt><trkpt lat="37.8929383" lon="12.6048283"><ele>80.0</ele><time>2026-04-29T08:06:23.836Z</time></trkpt><trkpt lat="37.89318" lon="12.604845"><ele>80.0</ele><time>2026-04-29T08:06:24.837Z</time></trkpt><trkpt lat="37.8934183" lon="12.604865"><ele>79.0</ele><time>2026-04-29T08:06:25.838Z</time></trkpt><trkpt lat="37.89366" lon="12.604885"><ele>78.0</ele><time>2026-04-29T08:06:26.837Z</time></trkpt><trkpt lat="37.8939033" lon="12.604905"><ele>78.0</ele><time>2026-04-29T08:06:27.836Z</time></trkpt><trkpt lat="37.8941483" lon="12.6049267"><ele>78.0</ele><time>2026-04-29T08:06:28.836Z</time></trkpt><trkpt lat="37.894395" lon="12.6049467"><ele>79.0</ele><time>2026-04-29T08:06:29.836Z</time></trkpt><trkpt lat="37.8946417" lon="12.6049667"><ele>80.0</ele><time>2026-04-29T08:06:30.836Z</time></trkpt><trkpt lat="37.8948867" lon="12.6049883"><ele>81.5</ele><time>2026-04-29T08:06:31.836Z</time></trkpt><trkpt lat="37.8951333" lon="12.6050083"><ele>83.0</ele><time>2026-04-29T08:06:32.837Z</time></trkpt><trkpt lat="37.89538" lon="12.6050283"><ele>83.0</ele><time>2026-04-29T08:06:33.835Z</time></trkpt><trkpt lat="37.895625" lon="12.6050483"><ele>83.0</ele><time>2026-04-29T08:06:34.836Z</time></trkpt><trkpt lat="37.8958567" lon="12.6050667"><ele>83.33333333333334</ele><time>2026-04-29T08:06:35.837Z</time></trkpt><trkpt lat="37.8960683" lon="12.605085"><ele>83.66666666666667</ele><time>2026-04-29T08:06:36.843Z</time></trkpt><trkpt lat="37.8962683" lon="12.6051017"><ele>84.0</ele><time>2026-04-29T08:06:37.84Z</time></trkpt><trkpt lat="37.8964567" lon="12.605115"><ele>84.0</ele><time>2026-04-29T08:06:38.848Z</time></trkpt><trkpt lat="37.896635" lon="12.6051317"><ele>84.0</ele><time>2026-04-29T08:06:39.846Z</time></trkpt><trkpt lat="37.8968067" lon="12.6051633"><ele>84.0</ele><time>2026-04-29T08:06:40.841Z</time></trkpt><trkpt lat="37.8969867" lon="12.6052133"><ele>84.33333333333333</ele><time>2026-04-29T08:06:41.867Z</time></trkpt><trkpt lat="37.8971733" lon="12.6052767"><ele>84.66666666666666</ele><time>2026-04-29T08:06:42.836Z</time></trkpt><trkpt lat="37.8973617" lon="12.605345"><ele>85.0</ele><time>2026-04-29T08:06:43.842Z</time></trkpt><trkpt lat="37.897535" lon="12.6054133"><ele>84.33333333333333</ele><time>2026-04-29T08:06:44.846Z</time></trkpt><trkpt lat="37.8977067" lon="12.605485"><ele>83.66666666666667</ele><time>2026-04-29T08:06:45.841Z</time></trkpt><trkpt lat="37.8978783" lon="12.6055667"><ele>83.0</ele><time>2026-04-29T08:06:46.839Z</time></trkpt><trkpt lat="37.8980533" lon="12.6056633"><ele>83.0</ele><time>2026-04-29T08:06:47.839Z</time></trkpt><trkpt lat="37.8982333" lon="12.605775"><ele>83.0</ele><time>2026-04-29T08:06:48.842Z</time></trkpt><trkpt lat="37.8984183" lon="12.60589"><ele>83.0</ele><time>2026-04-29T08:06:49.842Z</time></trkpt><trkpt lat="37.8986" lon="12.606"><ele>83.0</ele><time>2026-04-29T08:06:50.845Z</time></trkpt><trkpt lat="37.89877" lon="12.6061033"><ele>83.0</ele><time>2026-04-29T08:06:51.841Z</time></trkpt><trkpt lat="37.8989383" lon="12.606205"><ele>83.0</ele><time>2026-04-29T08:06:52.84Z</time></trkpt><trkpt lat="37.8991083" lon="12.6063083"><ele>81.0</ele><time>2026-04-29T08:06:53.939Z</time></trkpt><trkpt lat="37.89944" lon="12.6065617"><ele>79.0</ele><time>2026-04-29T08:06:55.843Z</time></trkpt><trkpt lat="37.8995983" lon="12.606725"><ele>79.0</ele><time>2026-04-29T08:06:56.841Z</time></trkpt><trkpt lat="37.8997517" lon="12.606905"><ele>79.0</ele><time>2026-04-29T08:06:57.843Z</time></trkpt><trkpt lat="37.89991" lon="12.6070967"><ele>79.0</ele><time>2026-04-29T08:06:58.842Z</time></trkpt><trkpt lat="37.9000733" lon="12.60729"><ele>78.5</ele><time>2026-04-29T08:06:59.84Z</time></trkpt><trkpt lat="37.9002433" lon="12.6074867"><ele>78.0</ele><time>2026-04-29T08:07:00.838Z</time></trkpt><trkpt lat="37.9004133" lon="12.607685"><ele>78.0</ele><time>2026-04-29T08:07:01.839Z</time></trkpt><trkpt lat="37.9005817" lon="12.6078817"><ele>78.0</ele><time>2026-04-29T08:07:02.841Z</time></trkpt><trkpt lat="37.900745" lon="12.6080883"><ele>78.0</ele><time>2026-04-29T08:07:03.959Z</time></trkpt><trkpt lat="37.9010567" lon="12.608545"><ele>77.5</ele><time>2026-04-29T08:07:05.841Z</time></trkpt><trkpt lat="37.90121" lon="12.6087867"><ele>77.0</ele><time>2026-04-29T08:07:06.841Z</time></trkpt><trkpt lat="37.9013633" lon="12.6090333"><ele>77.0</ele><time>2026-04-29T08:07:07.839Z</time></trkpt><trkpt lat="37.9015183" lon="12.6092817"><ele>77.0</ele><time>2026-04-29T08:07:08.84Z</time></trkpt><trkpt lat="37.9016733" lon="12.6095283"><ele>77.5</ele><time>2026-04-29T08:07:09.84Z</time></trkpt><trkpt lat="37.90183" lon="12.6097783"><ele>78.0</ele><time>2026-04-29T08:07:10.843Z</time></trkpt><trkpt lat="37.9019867" lon="12.6100283"><ele>78.0</ele><time>2026-04-29T08:07:11.846Z</time></trkpt><trkpt lat="37.9021417" lon="12.6102733"><ele>78.0</ele><time>2026-04-29T08:07:12.844Z</time></trkpt><trkpt lat="37.90229" lon="12.6105117"><ele>77.0</ele><time>2026-04-29T08:07:13.843Z</time></trkpt><trkpt lat="37.90243" lon="12.6107367"><ele>76.0</ele><time>2026-04-29T08:07:14.839Z</time></trkpt><trkpt lat="37.9025633" lon="12.6109517"><ele>75.0</ele><time>2026-04-29T08:07:15.84Z</time></trkpt><trkpt lat="37.90269" lon="12.6111533"><ele>75.66666666666667</ele><time>2026-04-29T08:07:16.838Z</time></trkpt><trkpt lat="37.9028117" lon="12.6113483"><ele>76.33333333333334</ele><time>2026-04-29T08:07:17.84Z</time></trkpt><trkpt lat="37.9029333" lon="12.611545"><ele>77.0</ele><time>2026-04-29T08:07:18.842Z</time></trkpt><trkpt lat="37.90306" lon="12.6117467"><ele>77.0</ele><time>2026-04-29T08:07:19.84Z</time></trkpt><trkpt lat="37.9031883" lon="12.611955"><ele>77.0</ele><time>2026-04-29T08:07:20.846Z</time></trkpt><trkpt lat="37.9033167" lon="12.61217"><ele>77.0</ele><time>2026-04-29T08:07:21.845Z</time></trkpt><trkpt lat="37.903435" lon="12.6123817"><ele>76.0</ele><time>2026-04-29T08:07:22.838Z</time></trkpt><trkpt lat="37.903535" lon="12.6125867"><ele>75.0</ele><time>2026-04-29T08:07:23.839Z</time></trkpt><trkpt lat="37.9036183" lon="12.6127733"><ele>74.0</ele><time>2026-04-29T08:07:24.841Z</time></trkpt><trkpt lat="37.903685" lon="12.6129333"><ele>74.0</ele><time>2026-04-29T08:07:25.842Z</time></trkpt><trkpt lat="37.9037383" lon="12.6130633"><ele>74.0</ele><time>2026-04-29T08:07:26.842Z</time></trkpt><trkpt lat="37.9037783" lon="12.613165"><ele>74.0</ele><time>2026-04-29T08:07:27.844Z</time></trkpt><trkpt lat="37.9038067" lon="12.61324"><ele>74.0</ele><time>2026-04-29T08:07:28.839Z</time></trkpt><trkpt lat="37.9038533" lon="12.613365"><ele>74.0</ele><time>2026-04-29T08:07:30.839Z</time></trkpt><trkpt lat="37.9038967" lon="12.6134917"><ele>74.66666666666667</ele><time>2026-04-29T08:07:31.841Z</time></trkpt><trkpt lat="37.9039483" lon="12.6136617"><ele>75.33333333333333</ele><time>2026-04-29T08:07:32.841Z</time></trkpt><trkpt lat="37.9040067" lon="12.613845"><ele>76.0</ele><time>2026-04-29T08:07:33.845Z</time></trkpt><trkpt lat="37.9040733" lon="12.6140567"><ele>76.0</ele><time>2026-04-29T08:07:34.843Z</time></trkpt><trkpt lat="37.9041417" lon="12.6142783"><ele>76.0</ele><time>2026-04-29T08:07:35.838Z</time></trkpt><trkpt lat="37.90421" lon="12.61452"><ele>76.0</ele><time>2026-04-29T08:07:36.84Z</time></trkpt><trkpt lat="37.9042833" lon="12.614775"><ele>75.5</ele><time>2026-04-29T08:07:37.847Z</time></trkpt><trkpt lat="37.90436" lon="12.615035"><ele>75.0</ele><time>2026-04-29T08:07:38.843Z</time></trkpt><trkpt lat="37.9044417" lon="12.6153133"><ele>75.0</ele><time>2026-04-29T08:07:39.841Z</time></trkpt><trkpt lat="37.9045267" lon="12.6155967"><ele>75.0</ele><time>2026-04-29T08:07:40.841Z</time></trkpt><trkpt lat="37.9046117" lon="12.6158783"><ele>75.0</ele><time>2026-04-29T08:07:41.841Z</time></trkpt><trkpt lat="37.9046983" lon="12.61617"><ele>75.0</ele><time>2026-04-29T08:07:42.84Z</time></trkpt><trkpt lat="37.9047883" lon="12.6164583"><ele>75.0</ele><time>2026-04-29T08:07:43.84Z</time></trkpt><trkpt lat="37.9048867" lon="12.61675"><ele>75.0</ele><time>2026-04-29T08:07:44.841Z</time></trkpt><trkpt lat="37.9049933" lon="12.6170383"><ele>76.0</ele><time>2026-04-29T08:07:45.842Z</time></trkpt><trkpt lat="37.905105" lon="12.6173233"><ele>77.0</ele><time>2026-04-29T08:07:46.841Z</time></trkpt><trkpt lat="37.9052183" lon="12.6176067"><ele>77.0</ele><time>2026-04-29T08:07:47.842Z</time></trkpt><trkpt lat="37.9053217" lon="12.6178933"><ele>77.0</ele><time>2026-04-29T08:07:48.843Z</time></trkpt><trkpt lat="37.9054117" lon="12.6181833"><ele>77.0</ele><time>2026-04-29T08:07:49.84Z</time></trkpt><trkpt lat="37.9054933" lon="12.6184833"><ele>77.0</ele><time>2026-04-29T08:07:50.839Z</time></trkpt><trkpt lat="37.905565" lon="12.618785"><ele>77.0</ele><time>2026-04-29T08:07:51.84Z</time></trkpt><trkpt lat="37.905635" lon="12.6190883"><ele>77.0</ele><time>2026-04-29T08:07:52.84Z</time></trkpt><trkpt lat="37.90571" lon="12.6193933"><ele>75.5</ele><time>2026-04-29T08:07:53.84Z</time></trkpt><trkpt lat="37.9057933" lon="12.6196967"><ele>74.0</ele><time>2026-04-29T08:07:54.84Z</time></trkpt><trkpt lat="37.90588" lon="12.6199983"><ele>74.5</ele><time>2026-04-29T08:07:55.843Z</time></trkpt><trkpt lat="37.9059717" lon="12.6202983"><ele>75.0</ele><time>2026-04-29T08:07:56.848Z</time></trkpt><trkpt lat="37.906065" lon="12.6205983"><ele>75.5</ele><time>2026-04-29T08:07:57.842Z</time></trkpt><trkpt lat="37.906155" lon="12.6208983"><ele>76.0</ele><time>2026-04-29T08:07:58.837Z</time></trkpt><trkpt lat="37.9062433" lon="12.621195"><ele>76.0</ele><time>2026-04-29T08:07:59.838Z</time></trkpt><trkpt lat="37.906335" lon="12.6214917"><ele>76.0</ele><time>2026-04-29T08:08:00.839Z</time></trkpt><trkpt lat="37.906425" lon="12.62179"><ele>75.5</ele><time>2026-04-29T08:08:01.839Z</time></trkpt><trkpt lat="37.9065133" lon="12.6220867"><ele>75.0</ele><time>2026-04-29T08:08:02.847Z</time></trkpt><trkpt lat="37.9066017" lon="12.622385"><ele>75.0</ele><time>2026-04-29T08:08:03.841Z</time></trkpt><trkpt lat="37.90669" lon="12.6226833"><ele>75.0</ele><time>2026-04-29T08:08:04.839Z</time></trkpt><trkpt lat="37.9067817" lon="12.6229817"><ele>75.5</ele><time>2026-04-29T08:08:05.848Z</time></trkpt><trkpt lat="37.9068733" lon="12.62328"><ele>76.0</ele><time>2026-04-29T08:08:06.841Z</time></trkpt><trkpt lat="37.9069633" lon="12.62358"><ele>76.0</ele><time>2026-04-29T08:08:07.842Z</time></trkpt><trkpt lat="37.9070533" lon="12.6238817"><ele>76.0</ele><time>2026-04-29T08:08:08.842Z</time></trkpt><trkpt lat="37.907145" lon="12.6241833"><ele>76.5</ele><time>2026-04-29T08:08:09.844Z</time></trkpt><trkpt lat="37.9072367" lon="12.624485"><ele>77.0</ele><time>2026-04-29T08:08:10.841Z</time></trkpt><trkpt lat="37.9073267" lon="12.6247867"><ele>77.0</ele><time>2026-04-29T08:08:11.84Z</time></trkpt><trkpt lat="37.9074167" lon="12.6250867"><ele>77.0</ele><time>2026-04-29T08:08:12.839Z</time></trkpt><trkpt lat="37.9075067" lon="12.6253883"><ele>78.0</ele><time>2026-04-29T08:08:13.839Z</time></trkpt><trkpt lat="37.9076883" lon="12.6259767"><ele>78.5</ele><time>2026-04-29T08:08:15.841Z</time></trkpt><trkpt lat="37.90779" lon="12.6262633"><ele>79.0</ele><time>2026-04-29T08:08:16.84Z</time></trkpt><trkpt lat="37.9078983" lon="12.6265467"><ele>79.0</ele><time>2026-04-29T08:08:17.84Z</time></trkpt><trkpt lat="37.9080083" lon="12.6268283"><ele>79.0</ele><time>2026-04-29T08:08:18.848Z</time></trkpt><trkpt lat="37.9081217" lon="12.62711"><ele>78.5</ele><time>2026-04-29T08:08:19.84Z</time></trkpt><trkpt lat="37.908235" lon="12.6273917"><ele>78.0</ele><time>2026-04-29T08:08:20.839Z</time></trkpt><trkpt lat="37.9083517" lon="12.6276733"><ele>80.0</ele><time>2026-04-29T08:08:21.838Z</time></trkpt><trkpt lat="37.908465" lon="12.6279567"><ele>82.0</ele><time>2026-04-29T08:08:22.841Z</time></trkpt><trkpt lat="37.9085817" lon="12.62824"><ele>82.0</ele><time>2026-04-29T08:08:23.842Z</time></trkpt><trkpt lat="37.9086967" lon="12.6285233"><ele>82.0</ele><time>2026-04-29T08:08:24.849Z</time></trkpt><trkpt lat="37.9088083" lon="12.6287983"><ele>82.0</ele><time>2026-04-29T08:08:25.84Z</time></trkpt><trkpt lat="37.9089183" lon="12.6290683"><ele>82.0</ele><time>2026-04-29T08:08:26.846Z</time></trkpt><trkpt lat="37.90903" lon="12.6293283"><ele>82.0</ele><time>2026-04-29T08:08:27.855Z</time></trkpt><trkpt lat="37.9091533" lon="12.6295833"><ele>82.0</ele><time>2026-04-29T08:08:28.839Z</time></trkpt><trkpt lat="37.9092833" lon="12.6298267"><ele>82.0</ele><time>2026-04-29T08:08:29.842Z</time></trkpt><trkpt lat="37.9094183" lon="12.6300617"><ele>82.0</ele><time>2026-04-29T08:08:30.84Z</time></trkpt><trkpt lat="37.9095583" lon="12.6302917"><ele>81.66666666666666</ele><time>2026-04-29T08:08:31.843Z</time></trkpt><trkpt lat="37.9096967" lon="12.63052"><ele>81.33333333333333</ele><time>2026-04-29T08:08:32.842Z</time></trkpt><trkpt lat="37.90983" lon="12.6307367"><ele>81.0</ele><time>2026-04-29T08:08:33.84Z</time></trkpt><trkpt lat="37.9099617" lon="12.6309467"><ele>81.66666666666667</ele><time>2026-04-29T08:08:34.839Z</time></trkpt><trkpt lat="37.910085" lon="12.63117"><ele>82.33333333333334</ele><time>2026-04-29T08:08:35.839Z</time></trkpt><trkpt lat="37.910195" lon="12.6314133"><ele>83.0</ele><time>2026-04-29T08:08:36.84Z</time></trkpt><trkpt lat="37.910295" lon="12.6316733"><ele>83.0</ele><time>2026-04-29T08:08:37.842Z</time></trkpt><trkpt lat="37.91039" lon="12.63194"><ele>83.0</ele><time>2026-04-29T08:08:38.844Z</time></trkpt><trkpt lat="37.9104867" lon="12.632205"><ele>83.0</ele><time>2026-04-29T08:08:39.842Z</time></trkpt><trkpt lat="37.9105833" lon="12.6324667"><ele>83.0</ele><time>2026-04-29T08:08:40.84Z</time></trkpt><trkpt lat="37.9106833" lon="12.6327283"><ele>83.5</ele><time>2026-04-29T08:08:41.844Z</time></trkpt><trkpt lat="37.9107917" lon="12.6329867"><ele>84.0</ele><time>2026-04-29T08:08:42.836Z</time></trkpt><trkpt lat="37.9109133" lon="12.6332383"><ele>84.0</ele><time>2026-04-29T08:08:43.842Z</time></trkpt><trkpt lat="37.911045" lon="12.6334817"><ele>84.0</ele><time>2026-04-29T08:08:44.851Z</time></trkpt><trkpt lat="37.9111833" lon="12.6337267"><ele>83.0</ele><time>2026-04-29T08:08:45.838Z</time></trkpt><trkpt lat="37.9113217" lon="12.6339733"><ele>82.0</ele><time>2026-04-29T08:08:46.843Z</time></trkpt><trkpt lat="37.911455" lon="12.6342217"><ele>82.5</ele><time>2026-04-29T08:08:47.837Z</time></trkpt><trkpt lat="37.9115783" lon="12.63448"><ele>83.0</ele><time>2026-04-29T08:08:48.842Z</time></trkpt><trkpt lat="37.9116817" lon="12.6347517"><ele>83.0</ele><time>2026-04-29T08:08:49.847Z</time></trkpt><trkpt lat="37.9117717" lon="12.6350317"><ele>83.0</ele><time>2026-04-29T08:08:50.839Z</time></trkpt><trkpt lat="37.9118633" lon="12.6353133"><ele>83.0</ele><time>2026-04-29T08:08:51.842Z</time></trkpt><trkpt lat="37.911955" lon="12.6355967"><ele>83.0</ele><time>2026-04-29T08:08:52.841Z</time></trkpt><trkpt lat="37.9120483" lon="12.635885"><ele>82.5</ele><time>2026-04-29T08:08:53.84Z</time></trkpt><trkpt lat="37.91214" lon="12.63617"><ele>82.0</ele><time>2026-04-29T08:08:54.84Z</time></trkpt><trkpt lat="37.9122317" lon="12.6364567"><ele>82.0</ele><time>2026-04-29T08:08:55.84Z</time></trkpt><trkpt lat="37.9123233" lon="12.636745"><ele>82.0</ele><time>2026-04-29T08:08:56.84Z</time></trkpt><trkpt lat="37.9124133" lon="12.6370333"><ele>81.5</ele><time>2026-04-29T08:08:57.841Z</time></trkpt><trkpt lat="37.9125017" lon="12.6373167"><ele>81.0</ele><time>2026-04-29T08:08:58.839Z</time></trkpt><trkpt lat="37.9125867" lon="12.6375967"><ele>81.5</ele><time>2026-04-29T08:08:59.841Z</time></trkpt><trkpt lat="37.912675" lon="12.6378717"><ele>82.0</ele><time>2026-04-29T08:09:00.843Z</time></trkpt><trkpt lat="37.9127717" lon="12.6381383"><ele>82.0</ele><time>2026-04-29T08:09:01.842Z</time></trkpt><trkpt lat="37.912875" lon="12.6384"><ele>82.0</ele><time>2026-04-29T08:09:02.838Z</time></trkpt><trkpt lat="37.9129867" lon="12.6386533"><ele>82.5</ele><time>2026-04-29T08:09:03.838Z</time></trkpt><trkpt lat="37.9131033" lon="12.6389017"><ele>83.0</ele><time>2026-04-29T08:09:04.843Z</time></trkpt><trkpt lat="37.91322" lon="12.6391467"><ele>83.0</ele><time>2026-04-29T08:09:05.843Z</time></trkpt><trkpt lat="37.91333" lon="12.63938"><ele>83.0</ele><time>2026-04-29T08:09:06.841Z</time></trkpt><trkpt lat="37.9134367" lon="12.6396067"><ele>83.0</ele><time>2026-04-29T08:09:07.845Z</time></trkpt><trkpt lat="37.91355" lon="12.639835"><ele>83.66666666666667</ele><time>2026-04-29T08:09:08.841Z</time></trkpt><trkpt lat="37.913675" lon="12.640065"><ele>84.33333333333333</ele><time>2026-04-29T08:09:09.841Z</time></trkpt><trkpt lat="37.9138117" lon="12.640295"><ele>85.0</ele><time>2026-04-29T08:09:10.842Z</time></trkpt><trkpt lat="37.9139517" lon="12.6405283"><ele>85.5</ele><time>2026-04-29T08:09:11.842Z</time></trkpt><trkpt lat="37.9140883" lon="12.6407683"><ele>86.0</ele><time>2026-04-29T08:09:12.84Z</time></trkpt><trkpt lat="37.9142183" lon="12.641015"><ele>86.5</ele><time>2026-04-29T08:09:13.84Z</time></trkpt><trkpt lat="37.9143433" lon="12.6412683"><ele>87.0</ele><time>2026-04-29T08:09:14.845Z</time></trkpt><trkpt lat="37.9144667" lon="12.6415283"><ele>87.0</ele><time>2026-04-29T08:09:15.839Z</time></trkpt><trkpt lat="37.91459" lon="12.6417883"><ele>87.0</ele><time>2026-04-29T08:09:16.838Z</time></trkpt><trkpt lat="37.9147133" lon="12.642045"><ele>86.66666666666667</ele><time>2026-04-29T08:09:17.839Z</time></trkpt><trkpt lat="37.9148317" lon="12.6422917"><ele>86.33333333333334</ele><time>2026-04-29T08:09:18.839Z</time></trkpt><trkpt lat="37.914945" lon="12.64253"><ele>86.0</ele><time>2026-04-29T08:09:19.84Z</time></trkpt><trkpt lat="37.9150533" lon="12.6427617"><ele>86.66666666666667</ele><time>2026-04-29T08:09:20.843Z</time></trkpt><trkpt lat="37.9151533" lon="12.6429867"><ele>87.33333333333333</ele><time>2026-04-29T08:09:21.84Z</time></trkpt><trkpt lat="37.9152433" lon="12.6432"><ele>88.0</ele><time>2026-04-29T08:09:22.841Z</time></trkpt><trkpt lat="37.9153283" lon="12.6434017"><ele>88.0</ele><time>2026-04-29T08:09:23.84Z</time></trkpt><trkpt lat="37.91541" lon="12.64359"><ele>88.0</ele><time>2026-04-29T08:09:24.84Z</time></trkpt><trkpt lat="37.9154883" lon="12.6437667"><ele>88.0</ele><time>2026-04-29T08:09:25.839Z</time></trkpt><trkpt lat="37.9155633" lon="12.6439333"><ele>88.0</ele><time>2026-04-29T08:09:26.839Z</time></trkpt><trkpt lat="37.9156433" lon="12.6441033"><ele>88.0</ele><time>2026-04-29T08:09:27.839Z</time></trkpt><trkpt lat="37.9157217" lon="12.644285"><ele>88.0</ele><time>2026-04-29T08:09:28.843Z</time></trkpt><trkpt lat="37.915795" lon="12.6444833"><ele>88.33333333333333</ele><time>2026-04-29T08:09:29.843Z</time></trkpt><trkpt lat="37.91586" lon="12.6447"><ele>88.66666666666667</ele><time>2026-04-29T08:09:30.837Z</time></trkpt><trkpt lat="37.915925" lon="12.6449267"><ele>89.0</ele><time>2026-04-29T08:09:31.844Z</time></trkpt><trkpt lat="37.9159983" lon="12.6451717"><ele>90.0</ele><time>2026-04-29T08:09:32.841Z</time></trkpt><trkpt lat="37.916085" lon="12.645435"><ele>91.0</ele><time>2026-04-29T08:09:33.838Z</time></trkpt><trkpt lat="37.9161833" lon="12.6457133"><ele>91.0</ele><time>2026-04-29T08:09:34.841Z</time></trkpt><trkpt lat="37.9162867" lon="12.646"><ele>91.0</ele><time>2026-04-29T08:09:35.836Z</time></trkpt><trkpt lat="37.916395" lon="12.6462883"><ele>91.5</ele><time>2026-04-29T08:09:36.837Z</time></trkpt><trkpt lat="37.9165067" lon="12.6465817"><ele>92.0</ele><time>2026-04-29T08:09:37.84Z</time></trkpt><trkpt lat="37.9166217" lon="12.6468883"><ele>92.0</ele><time>2026-04-29T08:09:38.837Z</time></trkpt><trkpt lat="37.9167417" lon="12.64721"><ele>92.0</ele><time>2026-04-29T08:09:39.845Z</time></trkpt><trkpt lat="37.9168667" lon="12.64754"><ele>92.0</ele><time>2026-04-29T08:09:40.849Z</time></trkpt><trkpt lat="37.9169883" lon="12.6478583"><ele>92.0</ele><time>2026-04-29T08:09:41.842Z</time></trkpt><trkpt lat="37.9171" lon="12.6481633"><ele>92.0</ele><time>2026-04-29T08:09:42.843Z</time></trkpt><trkpt lat="37.9172067" lon="12.6484533"><ele>92.0</ele><time>2026-04-29T08:09:43.842Z</time></trkpt><trkpt lat="37.91731" lon="12.64873"><ele>91.0</ele><time>2026-04-29T08:09:44.844Z</time></trkpt><trkpt lat="37.917405" lon="12.6489933"><ele>90.0</ele><time>2026-04-29T08:09:45.84Z</time></trkpt><trkpt lat="37.917495" lon="12.6492533"><ele>91.0</ele><time>2026-04-29T08:09:46.843Z</time></trkpt><trkpt lat="37.9175817" lon="12.6495133"><ele>92.0</ele><time>2026-04-29T08:09:47.84Z</time></trkpt><trkpt lat="37.9176683" lon="12.6497683"><ele>93.0</ele><time>2026-04-29T08:09:48.841Z</time></trkpt><trkpt lat="37.917745" lon="12.6500083"><ele>93.0</ele><time>2026-04-29T08:09:49.842Z</time></trkpt><trkpt lat="37.9178183" lon="12.65023"><ele>93.0</ele><time>2026-04-29T08:09:50.842Z</time></trkpt><trkpt lat="37.917885" lon="12.6504383"><ele>93.0</ele><time>2026-04-29T08:09:51.842Z</time></trkpt><trkpt lat="37.917945" lon="12.6506367"><ele>93.33333333333333</ele><time>2026-04-29T08:09:52.852Z</time></trkpt><trkpt lat="37.9180117" lon="12.6508317"><ele>93.66666666666666</ele><time>2026-04-29T08:09:53.843Z</time></trkpt><trkpt lat="37.9180817" lon="12.6510367"><ele>94.0</ele><time>2026-04-29T08:09:54.845Z</time></trkpt><trkpt lat="37.9181517" lon="12.6512567"><ele>94.0</ele><time>2026-04-29T08:09:55.843Z</time></trkpt><trkpt lat="37.9182183" lon="12.651495"><ele>94.0</ele><time>2026-04-29T08:09:56.844Z</time></trkpt><trkpt lat="37.9182883" lon="12.65175"><ele>94.0</ele><time>2026-04-29T08:09:57.847Z</time></trkpt><trkpt lat="37.9183667" lon="12.652015"><ele>95.5</ele><time>2026-04-29T08:09:58.846Z</time></trkpt><trkpt lat="37.9184483" lon="12.6522883"><ele>97.0</ele><time>2026-04-29T08:09:59.842Z</time></trkpt><trkpt lat="37.9185317" lon="12.652565"><ele>97.0</ele><time>2026-04-29T08:10:00.838Z</time></trkpt><trkpt lat="37.9186167" lon="12.6528417"><ele>97.0</ele><time>2026-04-29T08:10:01.843Z</time></trkpt><trkpt lat="37.9187033" lon="12.65312"><ele>97.0</ele><time>2026-04-29T08:10:02.844Z</time></trkpt><trkpt lat="37.91879" lon="12.653395"><ele>97.0</ele><time>2026-04-29T08:10:03.84Z</time></trkpt><trkpt lat="37.9188783" lon="12.6536583"><ele>96.66666666666667</ele><time>2026-04-29T08:10:04.841Z</time></trkpt><trkpt lat="37.9189667" lon="12.6539033"><ele>96.33333333333334</ele><time>2026-04-29T08:10:05.841Z</time></trkpt><trkpt lat="37.9190517" lon="12.654135"><ele>96.0</ele><time>2026-04-29T08:10:06.844Z</time></trkpt><trkpt lat="37.919135" lon="12.6543567"><ele>95.66666666666667</ele><time>2026-04-29T08:10:07.839Z</time></trkpt><trkpt lat="37.919215" lon="12.6545667"><ele>95.33333333333334</ele><time>2026-04-29T08:10:08.839Z</time></trkpt><trkpt lat="37.9192983" lon="12.6547717"><ele>95.0</ele><time>2026-04-29T08:10:09.847Z</time></trkpt><trkpt lat="37.9193967" lon="12.654975"><ele>96.33333333333334</ele><time>2026-04-29T08:10:10.841Z</time></trkpt><trkpt lat="37.9195133" lon="12.6551767"><ele>97.66666666666667</ele><time>2026-04-29T08:10:11.842Z</time></trkpt><trkpt lat="37.9196467" lon="12.6553767"><ele>99.0</ele><time>2026-04-29T08:10:12.842Z</time></trkpt><trkpt lat="37.919795" lon="12.6555767"><ele>99.0</ele><time>2026-04-29T08:10:13.84Z</time></trkpt><trkpt lat="37.9199567" lon="12.6557783"><ele>99.0</ele><time>2026-04-29T08:10:14.843Z</time></trkpt><trkpt lat="37.920125" lon="12.6559883"><ele>100.0</ele><time>2026-04-29T08:10:15.837Z</time></trkpt><trkpt lat="37.9202967" lon="12.6562067"><ele>101.0</ele><time>2026-04-29T08:10:16.838Z</time></trkpt><trkpt lat="37.9204717" lon="12.6564283"><ele>101.0</ele><time>2026-04-29T08:10:17.842Z</time></trkpt><trkpt lat="37.920645" lon="12.6566517"><ele>101.0</ele><time>2026-04-29T08:10:18.842Z</time></trkpt><trkpt lat="37.9208117" lon="12.6568633"><ele>101.66666666666666</ele><time>2026-04-29T08:10:19.839Z</time></trkpt><trkpt lat="37.920965" lon="12.65706"><ele>102.33333333333334</ele><time>2026-04-29T08:10:20.842Z</time></trkpt><trkpt lat="37.9211033" lon="12.6572367"><ele>103.0</ele><time>2026-04-29T08:10:21.844Z</time></trkpt><trkpt lat="37.9212267" lon="12.6573917"><ele>103.0</ele><time>2026-04-29T08:10:22.839Z</time></trkpt><trkpt lat="37.9214367" lon="12.65766"><ele>103.0</ele><time>2026-04-29T08:10:24.85Z</time></trkpt><trkpt lat="37.92152" lon="12.65777"><ele>103.0</ele><time>2026-04-29T08:10:25.843Z</time></trkpt><trkpt lat="37.92159" lon="12.6578633"><ele>103.33333333333334</ele><time>2026-04-29T08:10:26.837Z</time></trkpt><trkpt lat="37.9216483" lon="12.65794"><ele>103.66666666666667</ele><time>2026-04-29T08:10:27.841Z</time></trkpt><trkpt lat="37.9216967" lon="12.658"><ele>104.0</ele><time>2026-04-29T08:10:28.839Z</time></trkpt><trkpt lat="37.9217683" lon="12.6580833"><ele>104.33333333333334</ele><time>2026-04-29T08:10:30.84Z</time></trkpt><trkpt lat="37.9218133" lon="12.6581417"><ele>104.66666666666667</ele><time>2026-04-29T08:10:31.839Z</time></trkpt><trkpt lat="37.9218717" lon="12.65822"><ele>105.0</ele><time>2026-04-29T08:10:32.842Z</time></trkpt><trkpt lat="37.9219467" lon="12.6583167"><ele>105.66666666666666</ele><time>2026-04-29T08:10:33.84Z</time></trkpt><trkpt lat="37.9220467" lon="12.6584433"><ele>106.33333333333333</ele><time>2026-04-29T08:10:34.841Z</time></trkpt><trkpt lat="37.9221733" lon="12.6586"><ele>107.0</ele><time>2026-04-29T08:10:35.84Z</time></trkpt><trkpt lat="37.9223117" lon="12.658775"><ele>107.0</ele><time>2026-04-29T08:10:36.838Z</time></trkpt><trkpt lat="37.9224767" lon="12.658985"><ele>107.0</ele><time>2026-04-29T08:10:37.839Z</time></trkpt><trkpt lat="37.9226617" lon="12.6592183"><ele>110.0</ele><time>2026-04-29T08:10:38.839Z</time></trkpt><trkpt lat="37.9228667" lon="12.6594783"><ele>113.0</ele><time>2026-04-29T08:10:39.843Z</time></trkpt><trkpt lat="37.9230583" lon="12.6597233"><ele>113.0</ele><time>2026-04-29T08:10:40.84Z</time></trkpt><trkpt lat="37.9232433" lon="12.6599617"><ele>113.0</ele><time>2026-04-29T08:10:41.842Z</time></trkpt><trkpt lat="37.92342" lon="12.66019"><ele>114.0</ele><time>2026-04-29T08:10:42.845Z</time></trkpt><trkpt lat="37.9235783" lon="12.6603967"><ele>115.0</ele><time>2026-04-29T08:10:43.845Z</time></trkpt><trkpt lat="37.9237267" lon="12.66059"><ele>116.0</ele><time>2026-04-29T08:10:44.841Z</time></trkpt><trkpt lat="37.9238717" lon="12.6607733"><ele>116.0</ele><time>2026-04-29T08:10:45.838Z</time></trkpt><trkpt lat="37.9240083" lon="12.6609417"><ele>116.0</ele><time>2026-04-29T08:10:46.842Z</time></trkpt><trkpt lat="37.9241483" lon="12.6610933"><ele>116.0</ele><time>2026-04-29T08:10:47.841Z</time></trkpt><trkpt lat="37.924305" lon="12.6612333"><ele>116.66666666666666</ele><time>2026-04-29T08:10:48.843Z</time></trkpt><trkpt lat="37.9244867" lon="12.6613667"><ele>117.33333333333334</ele><time>2026-04-29T08:10:49.841Z</time></trkpt><trkpt lat="37.9246983" lon="12.6615"><ele>118.0</ele><time>2026-04-29T08:10:50.839Z</time></trkpt><trkpt lat="37.924935" lon="12.6616417"><ele>119.0</ele><time>2026-04-29T08:10:51.848Z</time></trkpt><trkpt lat="37.9251967" lon="12.661795"><ele>120.0</ele><time>2026-04-29T08:10:52.839Z</time></trkpt><trkpt lat="37.9254833" lon="12.6619583"><ele>121.0</ele><time>2026-04-29T08:10:53.84Z</time></trkpt><trkpt lat="37.9257933" lon="12.6621367"><ele>122.0</ele><time>2026-04-29T08:10:54.844Z</time></trkpt><trkpt lat="37.9261167" lon="12.6623217"><ele>122.5</ele><time>2026-04-29T08:10:55.841Z</time></trkpt><trkpt lat="37.92642" lon="12.6624967"><ele>123.0</ele><time>2026-04-29T08:10:56.844Z</time></trkpt><trkpt lat="37.9267067" lon="12.6626583"><ele>126.0</ele><time>2026-04-29T08:10:57.85Z</time></trkpt><trkpt lat="37.9269667" lon="12.6628067"><ele>129.0</ele><time>2026-04-29T08:10:58.839Z</time></trkpt><trkpt lat="37.927205" lon="12.6629467"><ele>129.0</ele><time>2026-04-29T08:10:59.842Z</time></trkpt><trkpt lat="37.9274267" lon="12.6630733"><ele>129.0</ele><time>2026-04-29T08:11:00.854Z</time></trkpt><trkpt lat="37.9276317" lon="12.66319"><ele>130.0</ele><time>2026-04-29T08:11:01.841Z</time></trkpt><trkpt lat="37.9278233" lon="12.6633017"><ele>131.0</ele><time>2026-04-29T08:11:02.842Z</time></trkpt><trkpt lat="37.928" lon="12.6634083"><ele>132.0</ele><time>2026-04-29T08:11:03.84Z</time></trkpt><trkpt lat="37.9281617" lon="12.663515"><ele>133.33333333333334</ele><time>2026-04-29T08:11:04.839Z</time></trkpt><trkpt lat="37.9283233" lon="12.663645"><ele>134.66666666666669</ele><time>2026-04-29T08:11:05.843Z</time></trkpt><trkpt lat="37.9284833" lon="12.663805"><ele>136.0</ele><time>2026-04-29T08:11:06.841Z</time></trkpt><trkpt lat="37.9286433" lon="12.6639817"><ele>136.33333333333334</ele><time>2026-04-29T08:11:07.839Z</time></trkpt><trkpt lat="37.928805" lon="12.6641683"><ele>136.66666666666666</ele><time>2026-04-29T08:11:08.842Z</time></trkpt><trkpt lat="37.9289567" lon="12.6643467"><ele>137.0</ele><time>2026-04-29T08:11:09.843Z</time></trkpt><trkpt lat="37.9290933" lon="12.6645117"><ele>137.33333333333331</ele><time>2026-04-29T08:11:10.842Z</time></trkpt><trkpt lat="37.9292133" lon="12.664665"><ele>137.66666666666666</ele><time>2026-04-29T08:11:11.841Z</time></trkpt><trkpt lat="37.9293283" lon="12.6648133"><ele>138.0</ele><time>2026-04-29T08:11:12.84Z</time></trkpt><trkpt lat="37.9294483" lon="12.6649617"><ele>138.66666666666666</ele><time>2026-04-29T08:11:13.839Z</time></trkpt><trkpt lat="37.9295833" lon="12.665105"><ele>139.33333333333331</ele><time>2026-04-29T08:11:14.842Z</time></trkpt><trkpt lat="37.9297383" lon="12.665245"><ele>140.0</ele><time>2026-04-29T08:11:15.841Z</time></trkpt><trkpt lat="37.9299133" lon="12.6653867"><ele>138.33333333333331</ele><time>2026-04-29T08:11:16.841Z</time></trkpt><trkpt lat="37.9300983" lon="12.665525"><ele>136.66666666666666</ele><time>2026-04-29T08:11:17.848Z</time></trkpt><trkpt lat="37.9302917" lon="12.6656517"><ele>135.0</ele><time>2026-04-29T08:11:18.84Z</time></trkpt><trkpt lat="37.9304967" lon="12.6657667"><ele>135.0</ele><time>2026-04-29T08:11:19.846Z</time></trkpt><trkpt lat="37.930715" lon="12.66586"><ele>135.0</ele><time>2026-04-29T08:11:20.837Z</time></trkpt><trkpt lat="37.9309467" lon="12.6659433"><ele>134.0</ele><time>2026-04-29T08:11:21.841Z</time></trkpt><trkpt lat="37.9311883" lon="12.6660233"><ele>133.0</ele><time>2026-04-29T08:11:22.838Z</time></trkpt><trkpt lat="37.9314367" lon="12.6661033"><ele>132.5</ele><time>2026-04-29T08:11:23.842Z</time></trkpt><trkpt lat="37.9316883" lon="12.6661817"><ele>132.0</ele><time>2026-04-29T08:11:24.841Z</time></trkpt><trkpt lat="37.931945" lon="12.6662583"><ele>133.0</ele><time>2026-04-29T08:11:25.84Z</time></trkpt><trkpt lat="37.9322033" lon="12.6663333"><ele>134.0</ele><time>2026-04-29T08:11:26.84Z</time></trkpt><trkpt lat="37.9324617" lon="12.66641"><ele>135.0</ele><time>2026-04-29T08:11:27.839Z</time></trkpt><trkpt lat="37.9327183" lon="12.6664883"><ele>136.0</ele><time>2026-04-29T08:11:28.839Z</time></trkpt><trkpt lat="37.9329767" lon="12.666565"><ele>136.0</ele><time>2026-04-29T08:11:29.842Z</time></trkpt><trkpt lat="37.9332233" lon="12.6666367"><ele>136.0</ele><time>2026-04-29T08:11:30.845Z</time></trkpt><trkpt lat="37.93345" lon="12.6667083"><ele>139.0</ele><time>2026-04-29T08:11:31.842Z</time></trkpt><trkpt lat="37.9336583" lon="12.6667733"><ele>142.0</ele><time>2026-04-29T08:11:32.844Z</time></trkpt><trkpt lat="37.933855" lon="12.666835"><ele>145.0</ele><time>2026-04-29T08:11:33.841Z</time></trkpt><trkpt lat="37.9340367" lon="12.6668917"><ele>146.66666666666669</ele><time>2026-04-29T08:11:34.843Z</time></trkpt><trkpt lat="37.9342017" lon="12.666945"><ele>148.33333333333334</ele><time>2026-04-29T08:11:35.841Z</time></trkpt><trkpt lat="37.9343517" lon="12.6669917"><ele>150.0</ele><time>2026-04-29T08:11:36.85Z</time></trkpt><trkpt lat="37.934485" lon="12.66704"><ele>150.75</ele><time>2026-04-29T08:11:37.843Z</time></trkpt><trkpt lat="37.934605" lon="12.66709"><ele>151.5</ele><time>2026-04-29T08:11:38.843Z</time></trkpt><trkpt lat="37.9347117" lon="12.6671533"><ele>152.25</ele><time>2026-04-29T08:11:39.838Z</time></trkpt><trkpt lat="37.9348067" lon="12.6672417"><ele>153.0</ele><time>2026-04-29T08:11:40.841Z</time></trkpt><trkpt lat="37.9348967" lon="12.6673533"><ele>153.0</ele><time>2026-04-29T08:11:41.838Z</time></trkpt><trkpt lat="37.9349867" lon="12.66751"><ele>153.0</ele><time>2026-04-29T08:11:42.838Z</time></trkpt><trkpt lat="37.9350767" lon="12.66771"><ele>153.0</ele><time>2026-04-29T08:11:43.84Z</time></trkpt><trkpt lat="37.9351633" lon="12.66791"><ele>154.0</ele><time>2026-04-29T08:11:44.844Z</time></trkpt><trkpt lat="37.9352483" lon="12.6680917"><ele>155.0</ele><time>2026-04-29T08:11:45.844Z</time></trkpt><trkpt lat="37.9353217" lon="12.668275"><ele>156.0</ele><time>2026-04-29T08:11:46.846Z</time></trkpt><trkpt lat="37.935385" lon="12.6684667"><ele>155.75</ele><time>2026-04-29T08:11:47.841Z</time></trkpt><trkpt lat="37.935435" lon="12.6686467"><ele>155.5</ele><time>2026-04-29T08:11:48.841Z</time></trkpt><trkpt lat="37.935475" lon="12.6688167"><ele>155.25</ele><time>2026-04-29T08:11:49.84Z</time></trkpt><trkpt lat="37.9355167" lon="12.668985"><ele>155.0</ele><time>2026-04-29T08:11:50.848Z</time></trkpt><trkpt lat="37.935575" lon="12.6691633"><ele>155.0</ele><time>2026-04-29T08:11:51.849Z</time></trkpt><trkpt lat="37.9356433" lon="12.6693433"><ele>155.0</ele><time>2026-04-29T08:11:52.84Z</time></trkpt><trkpt lat="37.93573" lon="12.6695317"><ele>155.0</ele><time>2026-04-29T08:11:53.84Z</time></trkpt><trkpt lat="37.9358383" lon="12.669725"><ele>152.66666666666666</ele><time>2026-04-29T08:11:54.843Z</time></trkpt><trkpt lat="37.93597" lon="12.6699267"><ele>150.33333333333334</ele><time>2026-04-29T08:11:55.839Z</time></trkpt><trkpt lat="37.9361267" lon="12.6701383"><ele>148.0</ele><time>2026-04-29T08:11:56.841Z</time></trkpt><trkpt lat="37.936295" lon="12.6703483"><ele>145.0</ele><time>2026-04-29T08:11:57.839Z</time></trkpt><trkpt lat="37.9364833" lon="12.67057"><ele>142.0</ele><time>2026-04-29T08:11:58.847Z</time></trkpt><trkpt lat="37.9366783" lon="12.6707933"><ele>142.0</ele><time>2026-04-29T08:11:59.843Z</time></trkpt><trkpt lat="37.9368633" lon="12.67101"><ele>142.0</ele><time>2026-04-29T08:12:00.842Z</time></trkpt><trkpt lat="37.9370383" lon="12.6712133"><ele>140.0</ele><time>2026-04-29T08:12:01.843Z</time></trkpt><trkpt lat="37.93721" lon="12.6714067"><ele>138.0</ele><time>2026-04-29T08:12:02.841Z</time></trkpt><trkpt lat="37.9373833" lon="12.67159"><ele>137.5</ele><time>2026-04-29T08:12:03.846Z</time></trkpt><trkpt lat="37.937565" lon="12.67177"><ele>137.0</ele><time>2026-04-29T08:12:04.838Z</time></trkpt><trkpt lat="37.93775" lon="12.671945"><ele>137.0</ele><time>2026-04-29T08:12:05.842Z</time></trkpt><trkpt lat="37.9379367" lon="12.6721167"><ele>137.0</ele><time>2026-04-29T08:12:06.843Z</time></trkpt><trkpt lat="37.9381217" lon="12.6722867"><ele>137.0</ele><time>2026-04-29T08:12:07.844Z</time></trkpt><trkpt lat="37.9382967" lon="12.67245"><ele>137.0</ele><time>2026-04-29T08:12:08.852Z</time></trkpt><trkpt lat="37.9384617" lon="12.6726033"><ele>137.0</ele><time>2026-04-29T08:12:09.839Z</time></trkpt><trkpt lat="37.938615" lon="12.6727483"><ele>136.66666666666666</ele><time>2026-04-29T08:12:10.839Z</time></trkpt><trkpt lat="37.9387717" lon="12.67289"><ele>136.33333333333334</ele><time>2026-04-29T08:12:11.84Z</time></trkpt><trkpt lat="37.9389317" lon="12.6730267"><ele>136.0</ele><time>2026-04-29T08:12:12.844Z</time></trkpt><trkpt lat="37.9390667" lon="12.6731467"><ele>136.0</ele><time>2026-04-29T08:12:13.845Z</time></trkpt><trkpt lat="37.9391667" lon="12.6732417"><ele>136.0</ele><time>2026-04-29T08:12:14.845Z</time></trkpt><trkpt lat="37.9392367" lon="12.6733133"><ele>136.0</ele><time>2026-04-29T08:12:15.842Z</time></trkpt><trkpt lat="37.9392867" lon="12.673375"><ele>136.0</ele><time>2026-04-29T08:12:16.839Z</time></trkpt><trkpt lat="37.9393683" lon="12.673465"><ele>136.0</ele><time>2026-04-29T08:12:18.839Z</time></trkpt><trkpt lat="37.93946" lon="12.6735467"><ele>136.16666666666669</ele><time>2026-04-29T08:12:20.843Z</time></trkpt><trkpt lat="37.9395117" lon="12.6735933"><ele>136.33333333333334</ele><time>2026-04-29T08:12:21.842Z</time></trkpt><trkpt lat="37.9395717" lon="12.6736483"><ele>136.5</ele><time>2026-04-29T08:12:22.841Z</time></trkpt><trkpt lat="37.9396417" lon="12.6737117"><ele>136.66666666666666</ele><time>2026-04-29T08:12:23.84Z</time></trkpt><trkpt lat="37.9397117" lon="12.6737767"><ele>136.83333333333331</ele><time>2026-04-29T08:12:24.839Z</time></trkpt><trkpt lat="37.939795" lon="12.6738483"><ele>137.0</ele><time>2026-04-29T08:12:25.836Z</time></trkpt><trkpt lat="37.939885" lon="12.6739283"><ele>136.5</ele><time>2026-04-29T08:12:26.837Z</time></trkpt><trkpt lat="37.9399833" lon="12.674015"><ele>136.0</ele><time>2026-04-29T08:12:27.836Z</time></trkpt><trkpt lat="37.9400817" lon="12.674105"><ele>135.5</ele><time>2026-04-29T08:12:28.837Z</time></trkpt><trkpt lat="37.9401817" lon="12.6742"><ele>135.0</ele><time>2026-04-29T08:12:29.842Z</time></trkpt><trkpt lat="37.9402817" lon="12.6742933"><ele>135.0</ele><time>2026-04-29T08:12:30.842Z</time></trkpt><trkpt lat="37.9403833" lon="12.6743883"><ele>135.0</ele><time>2026-04-29T08:12:31.839Z</time></trkpt><trkpt lat="37.9404883" lon="12.6744867"><ele>135.0</ele><time>2026-04-29T08:12:32.836Z</time></trkpt><trkpt lat="37.9405933" lon="12.6745967"><ele>135.0</ele><time>2026-04-29T08:12:33.836Z</time></trkpt><trkpt lat="37.9406983" lon="12.6747317"><ele>135.0</ele><time>2026-04-29T08:12:34.837Z</time></trkpt><trkpt lat="37.9408" lon="12.6748933"><ele>135.0</ele><time>2026-04-29T08:12:35.843Z</time></trkpt><trkpt lat="37.9408967" lon="12.675085"><ele>135.0</ele><time>2026-04-29T08:12:36.841Z</time></trkpt><trkpt lat="37.94099" lon="12.6753067"><ele>135.0</ele><time>2026-04-29T08:12:37.845Z</time></trkpt><trkpt lat="37.9410833" lon="12.6755483"><ele>135.0</ele><time>2026-04-29T08:12:38.841Z</time></trkpt><trkpt lat="37.9411817" lon="12.675805"><ele>135.0</ele><time>2026-04-29T08:12:39.844Z</time></trkpt><trkpt lat="37.9412917" lon="12.6760867"><ele>134.0</ele><time>2026-04-29T08:12:40.84Z</time></trkpt><trkpt lat="37.9414017" lon="12.67637"><ele>133.0</ele><time>2026-04-29T08:12:41.842Z</time></trkpt><trkpt lat="37.941515" lon="12.6766583"><ele>134.0</ele><time>2026-04-29T08:12:42.841Z</time></trkpt><trkpt lat="37.9416317" lon="12.67696"><ele>135.0</ele><time>2026-04-29T08:12:43.846Z</time></trkpt><trkpt lat="37.9417517" lon="12.677275"><ele>135.0</ele><time>2026-04-29T08:12:44.839Z</time></trkpt><trkpt lat="37.94187" lon="12.677585"><ele>135.0</ele><time>2026-04-29T08:12:45.841Z</time></trkpt><trkpt lat="37.941985" lon="12.6778867"><ele>136.0</ele><time>2026-04-29T08:12:46.838Z</time></trkpt><trkpt lat="37.9420983" lon="12.6781783"><ele>137.0</ele><time>2026-04-29T08:12:47.841Z</time></trkpt><trkpt lat="37.94221" lon="12.67846"><ele>139.0</ele><time>2026-04-29T08:12:48.842Z</time></trkpt><trkpt lat="37.9423217" lon="12.678725"><ele>141.0</ele><time>2026-04-29T08:12:49.841Z</time></trkpt><trkpt lat="37.9424317" lon="12.678985"><ele>141.0</ele><time>2026-04-29T08:12:50.849Z</time></trkpt><trkpt lat="37.9425417" lon="12.6792383"><ele>141.0</ele><time>2026-04-29T08:12:51.84Z</time></trkpt><trkpt lat="37.942645" lon="12.6794733"><ele>141.0</ele><time>2026-04-29T08:12:52.841Z</time></trkpt><trkpt lat="37.9427433" lon="12.67969"><ele>141.0</ele><time>2026-04-29T08:12:53.84Z</time></trkpt><trkpt lat="37.9428317" lon="12.6798917"><ele>141.0</ele><time>2026-04-29T08:12:54.84Z</time></trkpt><trkpt lat="37.9429117" lon="12.68008"><ele>141.0</ele><time>2026-04-29T08:12:55.839Z</time></trkpt><trkpt lat="37.9429733" lon="12.6802617"><ele>142.33333333333334</ele><time>2026-04-29T08:12:56.845Z</time></trkpt><trkpt lat="37.9430133" lon="12.680445"><ele>143.66666666666669</ele><time>2026-04-29T08:12:57.843Z</time></trkpt><trkpt lat="37.943035" lon="12.6806483"><ele>145.0</ele><time>2026-04-29T08:12:58.842Z</time></trkpt><trkpt lat="37.9430483" lon="12.68088"><ele>145.0</ele><time>2026-04-29T08:12:59.842Z</time></trkpt><trkpt lat="37.94306" lon="12.681125"><ele>145.0</ele><time>2026-04-29T08:13:00.84Z</time></trkpt><trkpt lat="37.9430717" lon="12.681385"><ele>145.0</ele><time>2026-04-29T08:13:01.836Z</time></trkpt><trkpt lat="37.9430867" lon="12.6816467"><ele>145.0</ele><time>2026-04-29T08:13:02.84Z</time></trkpt><trkpt lat="37.9431" lon="12.681875"><ele>145.0</ele><time>2026-04-29T08:13:03.84Z</time></trkpt><trkpt lat="37.9431133" lon="12.68207"><ele>145.0</ele><time>2026-04-29T08:13:04.841Z</time></trkpt><trkpt lat="37.9431183" lon="12.6822383"><ele>145.75</ele><time>2026-04-29T08:13:05.842Z</time></trkpt><trkpt lat="37.943105" lon="12.6823983"><ele>146.5</ele><time>2026-04-29T08:13:06.841Z</time></trkpt><trkpt lat="37.94307" lon="12.682565"><ele>147.25</ele><time>2026-04-29T08:13:07.838Z</time></trkpt><trkpt lat="37.943015" lon="12.6827417"><ele>148.0</ele><time>2026-04-29T08:13:08.849Z</time></trkpt><trkpt lat="37.9429367" lon="12.682915"><ele>149.0</ele><time>2026-04-29T08:13:09.841Z</time></trkpt><trkpt lat="37.94283" lon="12.6830817"><ele>150.0</ele><time>2026-04-29T08:13:10.84Z</time></trkpt><trkpt lat="37.942705" lon="12.6832433"><ele>151.0</ele><time>2026-04-29T08:13:11.841Z</time></trkpt><trkpt lat="37.94259" lon="12.6833783"><ele>151.75</ele><time>2026-04-29T08:13:12.84Z</time></trkpt><trkpt lat="37.94249" lon="12.6835067"><ele>152.5</ele><time>2026-04-29T08:13:13.839Z</time></trkpt><trkpt lat="37.9424133" lon="12.6836467"><ele>153.25</ele><time>2026-04-29T08:13:14.84Z</time></trkpt><trkpt lat="37.9423517" lon="12.683805"><ele>154.0</ele><time>2026-04-29T08:13:15.842Z</time></trkpt><trkpt lat="37.9423067" lon="12.683975"><ele>155.66666666666669</ele><time>2026-04-29T08:13:16.838Z</time></trkpt><trkpt lat="37.9422767" lon="12.6841583"><ele>157.33333333333334</ele><time>2026-04-29T08:13:17.841Z</time></trkpt><trkpt lat="37.9422633" lon="12.6843667"><ele>159.0</ele><time>2026-04-29T08:13:18.843Z</time></trkpt><trkpt lat="37.942255" lon="12.684595"><ele>160.0</ele><time>2026-04-29T08:13:19.843Z</time></trkpt><trkpt lat="37.9422483" lon="12.68485"><ele>161.0</ele><time>2026-04-29T08:13:20.84Z</time></trkpt><trkpt lat="37.9422417" lon="12.6851267"><ele>162.0</ele><time>2026-04-29T08:13:21.84Z</time></trkpt><trkpt lat="37.9422317" lon="12.6854117"><ele>162.0</ele><time>2026-04-29T08:13:22.846Z</time></trkpt><trkpt lat="37.9422233" lon="12.6857083"><ele>162.0</ele><time>2026-04-29T08:13:23.845Z</time></trkpt><trkpt lat="37.942215" lon="12.6860217"><ele>161.5</ele><time>2026-04-29T08:13:24.841Z</time></trkpt><trkpt lat="37.9422033" lon="12.6863433"><ele>161.0</ele><time>2026-04-29T08:13:25.845Z</time></trkpt><trkpt lat="37.9421933" lon="12.686665"><ele>160.5</ele><time>2026-04-29T08:13:26.843Z</time></trkpt><trkpt lat="37.9421867" lon="12.6869817"><ele>160.0</ele><time>2026-04-29T08:13:27.84Z</time></trkpt><trkpt lat="37.9421783" lon="12.68728"><ele>160.0</ele><time>2026-04-29T08:13:28.842Z</time></trkpt><trkpt lat="37.94217" lon="12.6875617"><ele>160.0</ele><time>2026-04-29T08:13:29.837Z</time></trkpt><trkpt lat="37.9421617" lon="12.6878283"><ele>160.0</ele><time>2026-04-29T08:13:30.837Z</time></trkpt><trkpt lat="37.9421533" lon="12.68808"><ele>160.33333333333334</ele><time>2026-04-29T08:13:31.837Z</time></trkpt><trkpt lat="37.942145" lon="12.6883233"><ele>160.66666666666666</ele><time>2026-04-29T08:13:32.844Z</time></trkpt><trkpt lat="37.94214" lon="12.6885667"><ele>161.0</ele><time>2026-04-29T08:13:33.839Z</time></trkpt><trkpt lat="37.9421333" lon="12.688805"><ele>161.0</ele><time>2026-04-29T08:13:34.838Z</time></trkpt><trkpt lat="37.9421167" lon="12.689035"><ele>161.0</ele><time>2026-04-29T08:13:35.842Z</time></trkpt><trkpt lat="37.9420833" lon="12.689255"><ele>161.0</ele><time>2026-04-29T08:13:36.841Z</time></trkpt><trkpt lat="37.9420367" lon="12.6894683"><ele>159.66666666666666</ele><time>2026-04-29T08:13:37.84Z</time></trkpt><trkpt lat="37.9419917" lon="12.6896867"><ele>158.33333333333334</ele><time>2026-04-29T08:13:38.84Z</time></trkpt><trkpt lat="37.9419567" lon="12.68992"><ele>157.0</ele><time>2026-04-29T08:13:39.841Z</time></trkpt><trkpt lat="37.9419333" lon="12.6901717"><ele>156.0</ele><time>2026-04-29T08:13:40.837Z</time></trkpt><trkpt lat="37.94192" lon="12.6904433"><ele>155.0</ele><time>2026-04-29T08:13:41.841Z</time></trkpt><trkpt lat="37.94191" lon="12.6907167"><ele>154.0</ele><time>2026-04-29T08:13:42.85Z</time></trkpt><trkpt lat="37.9419033" lon="12.6909767"><ele>154.66666666666669</ele><time>2026-04-29T08:13:43.839Z</time></trkpt><trkpt lat="37.941895" lon="12.691215"><ele>155.33333333333334</ele><time>2026-04-29T08:13:44.84Z</time></trkpt><trkpt lat="37.9418933" lon="12.691425"><ele>156.0</ele><time>2026-04-29T08:13:45.839Z</time></trkpt><trkpt lat="37.9419017" lon="12.69161"><ele>156.0</ele><time>2026-04-29T08:13:46.839Z</time></trkpt><trkpt lat="37.9419283" lon="12.69178"><ele>156.0</ele><time>2026-04-29T08:13:47.84Z</time></trkpt><trkpt lat="37.9419817" lon="12.6919483"><ele>156.0</ele><time>2026-04-29T08:13:48.846Z</time></trkpt><trkpt lat="37.94206" lon="12.6921183"><ele>156.0</ele><time>2026-04-29T08:13:49.841Z</time></trkpt><trkpt lat="37.9421633" lon="12.6922783"><ele>156.66666666666666</ele><time>2026-04-29T08:13:50.84Z</time></trkpt><trkpt lat="37.9422917" lon="12.692425"><ele>157.33333333333331</ele><time>2026-04-29T08:13:51.841Z</time></trkpt><trkpt lat="37.9424383" lon="12.69256"><ele>158.0</ele><time>2026-04-29T08:13:52.838Z</time></trkpt><trkpt lat="37.94259" lon="12.69269"><ele>158.0</ele><time>2026-04-29T08:13:53.835Z</time></trkpt><trkpt lat="37.94273" lon="12.6928133"><ele>158.0</ele><time>2026-04-29T08:13:54.842Z</time></trkpt><trkpt lat="37.942865" lon="12.6929383"><ele>158.0</ele><time>2026-04-29T08:13:55.842Z</time></trkpt><trkpt lat="37.9429883" lon="12.6930733"><ele>158.0</ele><time>2026-04-29T08:13:56.839Z</time></trkpt><trkpt lat="37.9431" lon="12.6932317"><ele>158.0</ele><time>2026-04-29T08:13:57.839Z</time></trkpt><trkpt lat="37.9431983" lon="12.6934317"><ele>158.0</ele><time>2026-04-29T08:13:58.839Z</time></trkpt><trkpt lat="37.9432883" lon="12.69366"><ele>157.0</ele><time>2026-04-29T08:13:59.841Z</time></trkpt><trkpt lat="37.9433783" lon="12.693915"><ele>156.0</ele><time>2026-04-29T08:14:00.841Z</time></trkpt><trkpt lat="37.9434767" lon="12.6941917"><ele>155.5</ele><time>2026-04-29T08:14:01.844Z</time></trkpt><trkpt lat="37.9435817" lon="12.694475"><ele>155.0</ele><time>2026-04-29T08:14:02.842Z</time></trkpt><trkpt lat="37.9436767" lon="12.6947433"><ele>155.0</ele><time>2026-04-29T08:14:03.841Z</time></trkpt><trkpt lat="37.9437633" lon="12.694985"><ele>155.0</ele><time>2026-04-29T08:14:04.839Z</time></trkpt><trkpt lat="37.94384" lon="12.6952"><ele>155.0</ele><time>2026-04-29T08:14:05.843Z</time></trkpt><trkpt lat="37.9439117" lon="12.695385"><ele>156.0</ele><time>2026-04-29T08:14:06.846Z</time></trkpt><trkpt lat="37.943975" lon="12.695545"><ele>157.0</ele><time>2026-04-29T08:14:07.842Z</time></trkpt><trkpt lat="37.9440317" lon="12.6956883"><ele>158.0</ele><time>2026-04-29T08:14:08.84Z</time></trkpt><trkpt lat="37.9440967" lon="12.695835"><ele>159.0</ele><time>2026-04-29T08:14:09.839Z</time></trkpt><trkpt lat="37.944175" lon="12.6959817"><ele>160.2</ele><time>2026-04-29T08:14:10.844Z</time></trkpt><trkpt lat="37.9442617" lon="12.6961133"><ele>161.4</ele><time>2026-04-29T08:14:11.84Z</time></trkpt><trkpt lat="37.9443483" lon="12.6962233"><ele>162.6</ele><time>2026-04-29T08:14:12.839Z</time></trkpt><trkpt lat="37.9444267" lon="12.6963117"><ele>163.8</ele><time>2026-04-29T08:14:13.848Z</time></trkpt><trkpt lat="37.9444867" lon="12.6963833"><ele>165.0</ele><time>2026-04-29T08:14:14.84Z</time></trkpt><trkpt lat="37.9445583" lon="12.6964683"><ele>165.0</ele><time>2026-04-29T08:14:16.848Z</time></trkpt><trkpt lat="37.9446367" lon="12.6964783"><ele>165.0</ele><time>2026-04-29T08:14:22.841Z</time></trkpt><trkpt lat="37.9447067" lon="12.69641"><ele>165.0</ele><time>2026-04-29T08:14:23.843Z</time></trkpt><trkpt lat="37.944795" lon="12.6962883"><ele>165.0</ele><time>2026-04-29T08:14:24.839Z</time></trkpt><trkpt lat="37.94491" lon="12.696135"><ele>165.33333333333334</ele><time>2026-04-29T08:14:25.841Z</time></trkpt><trkpt lat="37.9450367" lon="12.6959583"><ele>165.66666666666669</ele><time>2026-04-29T08:14:26.842Z</time></trkpt><trkpt lat="37.9451733" lon="12.6957667"><ele>166.0</ele><time>2026-04-29T08:14:27.837Z</time></trkpt><trkpt lat="37.9453233" lon="12.6955583"><ele>166.0</ele><time>2026-04-29T08:14:28.84Z</time></trkpt><trkpt lat="37.9454917" lon="12.695345"><ele>166.0</ele><time>2026-04-29T08:14:29.841Z</time></trkpt><trkpt lat="37.94567" lon="12.695115"><ele>165.0</ele><time>2026-04-29T08:14:30.84Z</time></trkpt><trkpt lat="37.94585" lon="12.6948817"><ele>164.0</ele><time>2026-04-29T08:14:31.84Z</time></trkpt><trkpt lat="37.946025" lon="12.6946533"><ele>164.0</ele><time>2026-04-29T08:14:32.844Z</time></trkpt><trkpt lat="37.946185" lon="12.6944383"><ele>164.0</ele><time>2026-04-29T08:14:33.84Z</time></trkpt><trkpt lat="37.94634" lon="12.6942317"><ele>162.66666666666666</ele><time>2026-04-29T08:14:34.84Z</time></trkpt><trkpt lat="37.94649" lon="12.6940317"><ele>161.33333333333334</ele><time>2026-04-29T08:14:35.843Z</time></trkpt><trkpt lat="37.9466383" lon="12.6938333"><ele>160.0</ele><time>2026-04-29T08:14:36.841Z</time></trkpt><trkpt lat="37.9467883" lon="12.69363"><ele>157.66666666666669</ele><time>2026-04-29T08:14:37.84Z</time></trkpt><trkpt lat="37.9469383" lon="12.6934267"><ele>155.33333333333334</ele><time>2026-04-29T08:14:38.841Z</time></trkpt><trkpt lat="37.9470867" lon="12.6932283"><ele>153.0</ele><time>2026-04-29T08:14:39.84Z</time></trkpt><trkpt lat="37.94723" lon="12.6930383"><ele>153.0</ele><time>2026-04-29T08:14:40.844Z</time></trkpt><trkpt lat="37.9473633" lon="12.6928583"><ele>153.0</ele><time>2026-04-29T08:14:41.839Z</time></trkpt><trkpt lat="37.94749" lon="12.692685"><ele>153.0</ele><time>2026-04-29T08:14:42.838Z</time></trkpt><trkpt lat="37.9476117" lon="12.692515"><ele>153.66666666666666</ele><time>2026-04-29T08:14:43.839Z</time></trkpt><trkpt lat="37.9477333" lon="12.6923533"><ele>154.33333333333331</ele><time>2026-04-29T08:14:44.843Z</time></trkpt><trkpt lat="37.9478517" lon="12.692195"><ele>155.0</ele><time>2026-04-29T08:14:45.84Z</time></trkpt><trkpt lat="37.9479683" lon="12.69204"><ele>154.0</ele><time>2026-04-29T08:14:46.839Z</time></trkpt><trkpt lat="37.948075" lon="12.6918933"><ele>153.0</ele><time>2026-04-29T08:14:47.84Z</time></trkpt><trkpt lat="37.9481733" lon="12.691765"><ele>152.0</ele><time>2026-04-29T08:14:48.846Z</time></trkpt><trkpt lat="37.94826" lon="12.69165"><ele>151.0</ele><time>2026-04-29T08:14:49.84Z</time></trkpt><trkpt lat="37.9483383" lon="12.6915433"><ele>150.8</ele><time>2026-04-29T08:14:50.844Z</time></trkpt><trkpt lat="37.9484133" lon="12.691445"><ele>150.6</ele><time>2026-04-29T08:14:51.842Z</time></trkpt><trkpt lat="37.94849" lon="12.6913467"><ele>150.4</ele><time>2026-04-29T08:14:52.842Z</time></trkpt><trkpt lat="37.9485633" lon="12.6912467"><ele>150.2</ele><time>2026-04-29T08:14:53.85Z</time></trkpt><trkpt lat="37.948635" lon="12.6911383"><ele>150.0</ele><time>2026-04-29T08:14:54.841Z</time></trkpt><trkpt lat="37.9487167" lon="12.69101"><ele>150.66666666666666</ele><time>2026-04-29T08:14:55.841Z</time></trkpt><trkpt lat="37.9488233" lon="12.69087"><ele>151.33333333333331</ele><time>2026-04-29T08:14:56.845Z</time></trkpt><trkpt lat="37.9489533" lon="12.6907133"><ele>152.0</ele><time>2026-04-29T08:14:57.841Z</time></trkpt><trkpt lat="37.949095" lon="12.69054"><ele>152.0</ele><time>2026-04-29T08:14:58.839Z</time></trkpt><trkpt lat="37.9492433" lon="12.690345"><ele>152.0</ele><time>2026-04-29T08:14:59.841Z</time></trkpt><trkpt lat="37.9493983" lon="12.6901367"><ele>152.0</ele><time>2026-04-29T08:15:00.84Z</time></trkpt><trkpt lat="37.9495517" lon="12.6899267"><ele>152.0</ele><time>2026-04-29T08:15:01.841Z</time></trkpt><trkpt lat="37.9497033" lon="12.68972"><ele>152.0</ele><time>2026-04-29T08:15:02.838Z</time></trkpt><trkpt lat="37.9498483" lon="12.6895217"><ele>152.0</ele><time>2026-04-29T08:15:03.839Z</time></trkpt><trkpt lat="37.94999" lon="12.6893283"><ele>152.0</ele><time>2026-04-29T08:15:04.843Z</time></trkpt><trkpt lat="37.9501367" lon="12.6891317"><ele>152.0</ele><time>2026-04-29T08:15:05.845Z</time></trkpt><trkpt lat="37.9502917" lon="12.6889267"><ele>152.0</ele><time>2026-04-29T08:15:06.84Z</time></trkpt><trkpt lat="37.9504567" lon="12.6887117"><ele>151.5</ele><time>2026-04-29T08:15:07.843Z</time></trkpt><trkpt lat="37.9506267" lon="12.68849"><ele>151.0</ele><time>2026-04-29T08:15:08.84Z</time></trkpt><trkpt lat="37.9508033" lon="12.688265"><ele>152.5</ele><time>2026-04-29T08:15:09.84Z</time></trkpt><trkpt lat="37.9509883" lon="12.688025"><ele>154.0</ele><time>2026-04-29T08:15:10.839Z</time></trkpt><trkpt lat="37.9511817" lon="12.687775"><ele>154.0</ele><time>2026-04-29T08:15:11.84Z</time></trkpt><trkpt lat="37.9513833" lon="12.6875117"><ele>154.0</ele><time>2026-04-29T08:15:12.844Z</time></trkpt><trkpt lat="37.9515883" lon="12.6872383"><ele>154.0</ele><time>2026-04-29T08:15:13.841Z</time></trkpt><trkpt lat="37.9517917" lon="12.686965"><ele>154.0</ele><time>2026-04-29T08:15:14.844Z</time></trkpt><trkpt lat="37.95199" lon="12.6866983"><ele>155.0</ele><time>2026-04-29T08:15:15.843Z</time></trkpt><trkpt lat="37.9521817" lon="12.6864383"><ele>156.0</ele><time>2026-04-29T08:15:16.84Z</time></trkpt><trkpt lat="37.9523683" lon="12.6861817"><ele>157.0</ele><time>2026-04-29T08:15:17.838Z</time></trkpt><trkpt lat="37.9525517" lon="12.6859317"><ele>158.0</ele><time>2026-04-29T08:15:18.84Z</time></trkpt><trkpt lat="37.95273" lon="12.6856883"><ele>158.0</ele><time>2026-04-29T08:15:19.84Z</time></trkpt><trkpt lat="37.9529033" lon="12.6854533"><ele>158.0</ele><time>2026-04-29T08:15:20.843Z</time></trkpt><trkpt lat="37.9530717" lon="12.685225"><ele>158.5</ele><time>2026-04-29T08:15:21.842Z</time></trkpt><trkpt lat="37.9532383" lon="12.6850033"><ele>159.0</ele><time>2026-04-29T08:15:22.841Z</time></trkpt><trkpt lat="37.953405" lon="12.6847783"><ele>161.0</ele><time>2026-04-29T08:15:23.84Z</time></trkpt><trkpt lat="37.9535733" lon="12.6845517"><ele>163.0</ele><time>2026-04-29T08:15:24.837Z</time></trkpt><trkpt lat="37.9537417" lon="12.68433"><ele>163.66666666666669</ele><time>2026-04-29T08:15:25.84Z</time></trkpt><trkpt lat="37.953905" lon="12.6841217"><ele>164.33333333333334</ele><time>2026-04-29T08:15:26.84Z</time></trkpt><trkpt lat="37.9540617" lon="12.6839333"><ele>165.0</ele><time>2026-04-29T08:15:27.843Z</time></trkpt><trkpt lat="37.9542167" lon="12.6837633"><ele>165.33333333333334</ele><time>2026-04-29T08:15:28.844Z</time></trkpt><trkpt lat="37.9543717" lon="12.6836083"><ele>165.66666666666669</ele><time>2026-04-29T08:15:29.84Z</time></trkpt><trkpt lat="37.9545333" lon="12.6834567"><ele>166.0</ele><time>2026-04-29T08:15:30.841Z</time></trkpt><trkpt lat="37.9547083" lon="12.6833033"><ele>166.5</ele><time>2026-04-29T08:15:31.843Z</time></trkpt><trkpt lat="37.9548983" lon="12.68315"><ele>167.0</ele><time>2026-04-29T08:15:32.842Z</time></trkpt><trkpt lat="37.9551033" lon="12.6829867"><ele>167.0</ele><time>2026-04-29T08:15:33.841Z</time></trkpt><trkpt lat="37.9553133" lon="12.68282"><ele>167.0</ele><time>2026-04-29T08:15:34.839Z</time></trkpt><trkpt lat="37.955525" lon="12.6826533"><ele>165.0</ele><time>2026-04-29T08:15:35.84Z</time></trkpt><trkpt lat="37.95574" lon="12.6824817"><ele>163.0</ele><time>2026-04-29T08:15:36.843Z</time></trkpt><trkpt lat="37.955965" lon="12.6823033"><ele>163.0</ele><time>2026-04-29T08:15:37.84Z</time></trkpt><trkpt lat="37.9561933" lon="12.6821217"><ele>163.0</ele><time>2026-04-29T08:15:38.841Z</time></trkpt><trkpt lat="37.9564267" lon="12.6819417"><ele>164.0</ele><time>2026-04-29T08:15:39.837Z</time></trkpt><trkpt lat="37.95666" lon="12.68176"><ele>165.0</ele><time>2026-04-29T08:15:40.84Z</time></trkpt><trkpt lat="37.95689" lon="12.6815783"><ele>165.0</ele><time>2026-04-29T08:15:41.839Z</time></trkpt><trkpt lat="37.9571133" lon="12.6814"><ele>165.0</ele><time>2026-04-29T08:15:42.84Z</time></trkpt><trkpt lat="37.9573283" lon="12.6812267"><ele>169.0</ele><time>2026-04-29T08:15:43.841Z</time></trkpt><trkpt lat="37.9575383" lon="12.6810583"><ele>173.0</ele><time>2026-04-29T08:15:44.842Z</time></trkpt><trkpt lat="37.9577417" lon="12.6808933"><ele>173.0</ele><time>2026-04-29T08:15:45.84Z</time></trkpt><trkpt lat="37.9579333" lon="12.680735"><ele>173.0</ele><time>2026-04-29T08:15:46.84Z</time></trkpt><trkpt lat="37.9581183" lon="12.6805817"><ele>173.0</ele><time>2026-04-29T08:15:47.842Z</time></trkpt><trkpt lat="37.9583067" lon="12.6804217"><ele>173.0</ele><time>2026-04-29T08:15:48.843Z</time></trkpt><trkpt lat="37.958495" lon="12.6802533"><ele>174.0</ele><time>2026-04-29T08:15:49.846Z</time></trkpt><trkpt lat="37.9586817" lon="12.6800817"><ele>175.0</ele><time>2026-04-29T08:15:50.839Z</time></trkpt><trkpt lat="37.9588633" lon="12.6799067"><ele>175.0</ele><time>2026-04-29T08:15:51.845Z</time></trkpt><trkpt lat="37.959035" lon="12.679735"><ele>175.0</ele><time>2026-04-29T08:15:52.84Z</time></trkpt><trkpt lat="37.9591933" lon="12.6795683"><ele>175.0</ele><time>2026-04-29T08:15:53.85Z</time></trkpt><trkpt lat="37.9593383" lon="12.6793967"><ele>176.66666666666669</ele><time>2026-04-29T08:15:54.847Z</time></trkpt><trkpt lat="37.959465" lon="12.679215"><ele>178.33333333333334</ele><time>2026-04-29T08:15:55.846Z</time></trkpt><trkpt lat="37.95957" lon="12.6790283"><ele>180.0</ele><time>2026-04-29T08:15:56.846Z</time></trkpt><trkpt lat="37.95965" lon="12.6788433"><ele>180.0</ele><time>2026-04-29T08:15:57.849Z</time></trkpt><trkpt lat="37.9597083" lon="12.678675"><ele>180.0</ele><time>2026-04-29T08:15:58.837Z</time></trkpt><trkpt lat="37.9597583" lon="12.6785317"><ele>180.0</ele><time>2026-04-29T08:15:59.844Z</time></trkpt><trkpt lat="37.959805" lon="12.678425"><ele>180.0</ele><time>2026-04-29T08:16:00.843Z</time></trkpt><trkpt lat="37.9598533" lon="12.6783517"><ele>180.0</ele><time>2026-04-29T08:16:01.844Z</time></trkpt><trkpt lat="37.959905" lon="12.678305"><ele>181.0</ele><time>2026-04-29T08:16:02.842Z</time></trkpt><trkpt lat="37.96004" lon="12.678295"><ele>182.0</ele><time>2026-04-29T08:16:04.841Z</time></trkpt><trkpt lat="37.9601383" lon="12.6783233"><ele>183.0</ele><time>2026-04-29T08:16:05.843Z</time></trkpt><trkpt lat="37.96027" lon="12.67839"><ele>184.0</ele><time>2026-04-29T08:16:06.847Z</time></trkpt><trkpt lat="37.9604217" lon="12.67848"><ele>184.0</ele><time>2026-04-29T08:16:07.842Z</time></trkpt><trkpt lat="37.9605883" lon="12.6785967"><ele>184.0</ele><time>2026-04-29T08:16:08.844Z</time></trkpt><trkpt lat="37.9607717" lon="12.6787233"><ele>184.0</ele><time>2026-04-29T08:16:09.839Z</time></trkpt><trkpt lat="37.9609533" lon="12.6788417"><ele>183.0</ele><time>2026-04-29T08:16:10.841Z</time></trkpt><trkpt lat="37.96113" lon="12.6789533"><ele>182.0</ele><time>2026-04-29T08:16:11.84Z</time></trkpt><trkpt lat="37.961295" lon="12.6790533"><ele>181.0</ele><time>2026-04-29T08:16:12.84Z</time></trkpt><trkpt lat="37.9614567" lon="12.6791517"><ele>181.0</ele><time>2026-04-29T08:16:13.84Z</time></trkpt><trkpt lat="37.9616217" lon="12.6792533"><ele>181.0</ele><time>2026-04-29T08:16:14.848Z</time></trkpt><trkpt lat="37.96179" lon="12.6793567"><ele>181.0</ele><time>2026-04-29T08:16:15.84Z</time></trkpt><trkpt lat="37.9619567" lon="12.67946"><ele>180.0</ele><time>2026-04-29T08:16:16.84Z</time></trkpt><trkpt lat="37.9621183" lon="12.6795617"><ele>179.0</ele><time>2026-04-29T08:16:17.841Z</time></trkpt><trkpt lat="37.9622717" lon="12.6796567"><ele>178.0</ele><time>2026-04-29T08:16:18.851Z</time></trkpt><trkpt lat="37.96242" lon="12.6797467"><ele>178.33333333333334</ele><time>2026-04-29T08:16:19.841Z</time></trkpt><trkpt lat="37.9625683" lon="12.6798317"><ele>178.66666666666666</ele><time>2026-04-29T08:16:20.842Z</time></trkpt><trkpt lat="37.9627233" lon="12.6799117"><ele>179.0</ele><time>2026-04-29T08:16:21.84Z</time></trkpt><trkpt lat="37.9628867" lon="12.6799833"><ele>179.0</ele><time>2026-04-29T08:16:22.841Z</time></trkpt><trkpt lat="37.96306" lon="12.68005"><ele>179.0</ele><time>2026-04-29T08:16:23.841Z</time></trkpt><trkpt lat="37.96324" lon="12.6801167"><ele>179.0</ele><time>2026-04-29T08:16:24.845Z</time></trkpt><trkpt lat="37.9634267" lon="12.6801833"><ele>178.66666666666666</ele><time>2026-04-29T08:16:25.844Z</time></trkpt><trkpt lat="37.963615" lon="12.68025"><ele>178.33333333333334</ele><time>2026-04-29T08:16:26.846Z</time></trkpt><trkpt lat="37.963805" lon="12.6803133"><ele>178.0</ele><time>2026-04-29T08:16:27.847Z</time></trkpt><trkpt lat="37.964" lon="12.6803783"><ele>180.0</ele><time>2026-04-29T08:16:28.839Z</time></trkpt><trkpt lat="37.9642017" lon="12.6804433"><ele>182.0</ele><time>2026-04-29T08:16:29.838Z</time></trkpt><trkpt lat="37.9644067" lon="12.6805117"><ele>184.0</ele><time>2026-04-29T08:16:30.838Z</time></trkpt><trkpt lat="37.9646083" lon="12.6805783"><ele>184.0</ele><time>2026-04-29T08:16:31.842Z</time></trkpt><trkpt lat="37.9647967" lon="12.6806417"><ele>184.0</ele><time>2026-04-29T08:16:32.843Z</time></trkpt><trkpt lat="37.964965" lon="12.6807017"><ele>184.0</ele><time>2026-04-29T08:16:33.843Z</time></trkpt><trkpt lat="37.9651267" lon="12.6807467"><ele>185.33333333333334</ele><time>2026-04-29T08:16:34.84Z</time></trkpt><trkpt lat="37.9652933" lon="12.680775"><ele>186.66666666666666</ele><time>2026-04-29T08:16:35.841Z</time></trkpt><trkpt lat="37.9654683" lon="12.680785"><ele>188.0</ele><time>2026-04-29T08:16:36.843Z</time></trkpt><trkpt lat="37.9656583" lon="12.6807867"><ele>188.0</ele><time>2026-04-29T08:16:37.841Z</time></trkpt><trkpt lat="37.9658517" lon="12.6807833"><ele>188.0</ele><time>2026-04-29T08:16:38.841Z</time></trkpt><trkpt lat="37.96603" lon="12.6807783"><ele>188.0</ele><time>2026-04-29T08:16:39.841Z</time></trkpt><trkpt lat="37.9661867" lon="12.6807717"><ele>189.75</ele><time>2026-04-29T08:16:40.849Z</time></trkpt><trkpt lat="37.96633" lon="12.6807567"><ele>191.5</ele><time>2026-04-29T08:16:41.84Z</time></trkpt><trkpt lat="37.9664617" lon="12.68072"><ele>193.25</ele><time>2026-04-29T08:16:42.84Z</time></trkpt><trkpt lat="37.9665967" lon="12.6806533"><ele>195.0</ele><time>2026-04-29T08:16:43.838Z</time></trkpt><trkpt lat="37.9667367" lon="12.6805683"><ele>196.0</ele><time>2026-04-29T08:16:44.841Z</time></trkpt><trkpt lat="37.966885" lon="12.68047"><ele>197.0</ele><time>2026-04-29T08:16:45.84Z</time></trkpt><trkpt lat="37.9670367" lon="12.6803633"><ele>198.0</ele><time>2026-04-29T08:16:46.84Z</time></trkpt><trkpt lat="37.967195" lon="12.6802617"><ele>198.0</ele><time>2026-04-29T08:16:47.842Z</time></trkpt><trkpt lat="37.96736" lon="12.6801633"><ele>198.0</ele><time>2026-04-29T08:16:48.841Z</time></trkpt><trkpt lat="37.96752" lon="12.68007"><ele>198.0</ele><time>2026-04-29T08:16:49.841Z</time></trkpt><trkpt lat="37.9676617" lon="12.6799867"><ele>199.5</ele><time>2026-04-29T08:16:50.844Z</time></trkpt><trkpt lat="37.9677867" lon="12.6799083"><ele>201.0</ele><time>2026-04-29T08:16:51.84Z</time></trkpt><trkpt lat="37.9679" lon="12.67985"><ele>202.5</ele><time>2026-04-29T08:16:52.84Z</time></trkpt><trkpt lat="37.9680033" lon="12.6798117"><ele>204.0</ele><time>2026-04-29T08:16:53.842Z</time></trkpt><trkpt lat="37.9681067" lon="12.6797983"><ele>204.0</ele><time>2026-04-29T08:16:54.842Z</time></trkpt><trkpt lat="37.9682267" lon="12.6798083"><ele>204.0</ele><time>2026-04-29T08:16:55.845Z</time></trkpt><trkpt lat="37.9683717" lon="12.6798333"><ele>204.0</ele><time>2026-04-29T08:16:56.849Z</time></trkpt><trkpt lat="37.9685267" lon="12.6798633"><ele>204.0</ele><time>2026-04-29T08:16:57.84Z</time></trkpt><trkpt lat="37.96867" lon="12.6798933"><ele>204.0</ele><time>2026-04-29T08:16:58.842Z</time></trkpt><trkpt lat="37.9687917" lon="12.679925"><ele>204.0</ele><time>2026-04-29T08:16:59.839Z</time></trkpt><trkpt lat="37.9688983" lon="12.6799717"><ele>204.0</ele><time>2026-04-29T08:17:00.841Z</time></trkpt><trkpt lat="37.96899" lon="12.6800383"><ele>204.0</ele><time>2026-04-29T08:17:01.842Z</time></trkpt><trkpt lat="37.9690633" lon="12.6801233"><ele>204.0</ele><time>2026-04-29T08:17:02.842Z</time></trkpt><trkpt lat="37.969115" lon="12.6802283"><ele>204.75</ele><time>2026-04-29T08:17:03.839Z</time></trkpt><trkpt lat="37.9691467" lon="12.6803533"><ele>205.5</ele><time>2026-04-29T08:17:04.838Z</time></trkpt><trkpt lat="37.9691583" lon="12.68051"><ele>206.25</ele><time>2026-04-29T08:17:05.837Z</time></trkpt><trkpt lat="37.9691533" lon="12.6806917"><ele>207.0</ele><time>2026-04-29T08:17:06.84Z</time></trkpt><trkpt lat="37.9691383" lon="12.6808833"><ele>207.0</ele><time>2026-04-29T08:17:07.841Z</time></trkpt><trkpt lat="37.969115" lon="12.6810667"><ele>207.0</ele><time>2026-04-29T08:17:08.841Z</time></trkpt><trkpt lat="37.9690867" lon="12.681245"><ele>207.0</ele><time>2026-04-29T08:17:09.842Z</time></trkpt><trkpt lat="37.9690583" lon="12.6814133"><ele>207.0</ele><time>2026-04-29T08:17:10.841Z</time></trkpt><trkpt lat="37.9690433" lon="12.6815617"><ele>207.2</ele><time>2026-04-29T08:17:11.838Z</time></trkpt><trkpt lat="37.9690467" lon="12.681695"><ele>207.39999999999998</ele><time>2026-04-29T08:17:12.837Z</time></trkpt><trkpt lat="37.96907" lon="12.681815"><ele>207.60000000000002</ele><time>2026-04-29T08:17:13.838Z</time></trkpt><trkpt lat="37.9691167" lon="12.68193"><ele>207.8</ele><time>2026-04-29T08:17:14.843Z</time></trkpt><trkpt lat="37.9691833" lon="12.682045"><ele>208.0</ele><time>2026-04-29T08:17:15.84Z</time></trkpt><trkpt lat="37.969265" lon="12.682155"><ele>208.0</ele><time>2026-04-29T08:17:16.842Z</time></trkpt><trkpt lat="37.9693567" lon="12.6822567"><ele>208.0</ele><time>2026-04-29T08:17:17.842Z</time></trkpt><trkpt lat="37.9694467" lon="12.68235"><ele>208.0</ele><time>2026-04-29T08:17:18.841Z</time></trkpt><trkpt lat="37.969525" lon="12.6824333"><ele>208.0</ele><time>2026-04-29T08:17:19.839Z</time></trkpt><trkpt lat="37.9695933" lon="12.6825117"><ele>208.0</ele><time>2026-04-29T08:17:20.846Z</time></trkpt><trkpt lat="37.9696567" lon="12.6825933"><ele>208.0</ele><time>2026-04-29T08:17:21.844Z</time></trkpt><trkpt lat="37.9697083" lon="12.6826867"><ele>208.0</ele><time>2026-04-29T08:17:22.842Z</time></trkpt><trkpt lat="37.96975" lon="12.6827967"><ele>208.0</ele><time>2026-04-29T08:17:23.838Z</time></trkpt><trkpt lat="37.9697883" lon="12.6829317"><ele>208.0</ele><time>2026-04-29T08:17:24.841Z</time></trkpt><trkpt lat="37.9698283" lon="12.68309"><ele>208.0</ele><time>2026-04-29T08:17:25.843Z</time></trkpt><trkpt lat="37.969865" lon="12.6832467"><ele>208.5</ele><time>2026-04-29T08:17:26.841Z</time></trkpt><trkpt lat="37.9699017" lon="12.683395"><ele>209.0</ele><time>2026-04-29T08:17:27.837Z</time></trkpt><trkpt lat="37.9699483" lon="12.6835633"><ele>209.5</ele><time>2026-04-29T08:17:28.84Z</time></trkpt><trkpt lat="37.9699983" lon="12.683755"><ele>210.0</ele><time>2026-04-29T08:17:29.841Z</time></trkpt><trkpt lat="37.9700467" lon="12.683955"><ele>210.0</ele><time>2026-04-29T08:17:30.842Z</time></trkpt><trkpt lat="37.9700933" lon="12.68416"><ele>210.0</ele><time>2026-04-29T08:17:31.842Z</time></trkpt><trkpt lat="37.9701467" lon="12.68437"><ele>210.0</ele><time>2026-04-29T08:17:32.841Z</time></trkpt><trkpt lat="37.9702067" lon="12.68458"><ele>213.66666666666669</ele><time>2026-04-29T08:17:33.835Z</time></trkpt><trkpt lat="37.9702733" lon="12.6847917"><ele>217.33333333333334</ele><time>2026-04-29T08:17:34.84Z</time></trkpt><trkpt lat="37.9703417" lon="12.6850033"><ele>221.0</ele><time>2026-04-29T08:17:35.839Z</time></trkpt><trkpt lat="37.9704133" lon="12.6852233"><ele>223.33333333333334</ele><time>2026-04-29T08:17:36.841Z</time></trkpt><trkpt lat="37.970485" lon="12.6854483"><ele>225.66666666666669</ele><time>2026-04-29T08:17:37.845Z</time></trkpt><trkpt lat="37.9705567" lon="12.6856767"><ele>228.0</ele><time>2026-04-29T08:17:38.844Z</time></trkpt><trkpt lat="37.9706283" lon="12.6859083"><ele>230.0</ele><time>2026-04-29T08:17:39.842Z</time></trkpt><trkpt lat="37.970705" lon="12.6861417"><ele>232.0</ele><time>2026-04-29T08:17:40.84Z</time></trkpt><trkpt lat="37.9707817" lon="12.686375"><ele>234.0</ele><time>2026-04-29T08:17:41.839Z</time></trkpt><trkpt lat="37.97085" lon="12.6865917"><ele>232.66666666666669</ele><time>2026-04-29T08:17:42.84Z</time></trkpt><trkpt lat="37.9709117" lon="12.6867917"><ele>231.33333333333334</ele><time>2026-04-29T08:17:43.84Z</time></trkpt><trkpt lat="37.97097" lon="12.6869833"><ele>230.0</ele><time>2026-04-29T08:17:44.842Z</time></trkpt><trkpt lat="37.9710267" lon="12.6871733"><ele>230.0</ele><time>2026-04-29T08:17:45.842Z</time></trkpt><trkpt lat="37.9710883" lon="12.6873533"><ele>230.0</ele><time>2026-04-29T08:17:46.842Z</time></trkpt><trkpt lat="37.9711617" lon="12.6875233"><ele>230.0</ele><time>2026-04-29T08:17:47.839Z</time></trkpt><trkpt lat="37.9712433" lon="12.687685"><ele>232.25</ele><time>2026-04-29T08:17:48.841Z</time></trkpt><trkpt lat="37.9713267" lon="12.6878283"><ele>234.5</ele><time>2026-04-29T08:17:49.841Z</time></trkpt><trkpt lat="37.9714033" lon="12.6879567"><ele>236.75</ele><time>2026-04-29T08:17:50.843Z</time></trkpt><trkpt lat="37.9714783" lon="12.6880667"><ele>239.0</ele><time>2026-04-29T08:17:51.842Z</time></trkpt><trkpt lat="37.9715567" lon="12.688155"><ele>239.00000000000003</ele><time>2026-04-29T08:17:52.842Z</time></trkpt><trkpt lat="37.9716383" lon="12.68822"><ele>239.0</ele><time>2026-04-29T08:17:53.843Z</time></trkpt><trkpt lat="37.9717217" lon="12.68826"><ele>239.0</ele><time>2026-04-29T08:17:54.839Z</time></trkpt><trkpt lat="37.9718033" lon="12.6882883"><ele>239.0</ele><time>2026-04-29T08:17:55.839Z</time></trkpt><trkpt lat="37.971885" lon="12.6883167"><ele>239.00000000000003</ele><time>2026-04-29T08:17:56.839Z</time></trkpt><trkpt lat="37.97196" lon="12.6883617"><ele>239.0</ele><time>2026-04-29T08:17:57.839Z</time></trkpt><trkpt lat="37.97202" lon="12.6884233"><ele>237.39999999999998</ele><time>2026-04-29T08:17:58.84Z</time></trkpt><trkpt lat="37.9720633" lon="12.6885033"><ele>235.79999999999998</ele><time>2026-04-29T08:17:59.84Z</time></trkpt><trkpt lat="37.97208" lon="12.6886"><ele>234.20000000000002</ele><time>2026-04-29T08:18:00.844Z</time></trkpt><trkpt lat="37.972075" lon="12.6887133"><ele>232.60000000000002</ele><time>2026-04-29T08:18:01.839Z</time></trkpt><trkpt lat="37.97204" lon="12.6888417"><ele>231.0</ele><time>2026-04-29T08:18:02.84Z</time></trkpt><trkpt lat="37.9719883" lon="12.68899"><ele>231.0</ele><time>2026-04-29T08:18:03.84Z</time></trkpt><trkpt lat="37.9719183" lon="12.6891583"><ele>231.0</ele><time>2026-04-29T08:18:04.842Z</time></trkpt><trkpt lat="37.97184" lon="12.68934"><ele>231.0</ele><time>2026-04-29T08:18:05.841Z</time></trkpt><trkpt lat="37.9717683" lon="12.6895133"><ele>231.60000000000002</ele><time>2026-04-29T08:18:06.842Z</time></trkpt><trkpt lat="37.9717083" lon="12.6896683"><ele>232.20000000000002</ele><time>2026-04-29T08:18:07.841Z</time></trkpt><trkpt lat="37.9716583" lon="12.6898017"><ele>232.79999999999998</ele><time>2026-04-29T08:18:08.851Z</time></trkpt><trkpt lat="37.971625" lon="12.6899217"><ele>233.39999999999998</ele><time>2026-04-29T08:18:09.839Z</time></trkpt><trkpt lat="37.9716133" lon="12.690035"><ele>234.0</ele><time>2026-04-29T08:18:10.839Z</time></trkpt><trkpt lat="37.97162" lon="12.6901417"><ele>234.5</ele><time>2026-04-29T08:18:11.841Z</time></trkpt><trkpt lat="37.9716483" lon="12.6902317"><ele>235.0</ele><time>2026-04-29T08:18:12.843Z</time></trkpt><trkpt lat="37.9716933" lon="12.6903033"><ele>235.5</ele><time>2026-04-29T08:18:13.843Z</time></trkpt><trkpt lat="37.9717467" lon="12.6903567"><ele>236.0</ele><time>2026-04-29T08:18:14.846Z</time></trkpt><trkpt lat="37.9718117" lon="12.690405"><ele>236.5</ele><time>2026-04-29T08:18:15.839Z</time></trkpt><trkpt lat="37.9718933" lon="12.69044"><ele>237.0</ele><time>2026-04-29T08:18:16.84Z</time></trkpt><trkpt lat="37.9719967" lon="12.690465"><ele>239.66666666666669</ele><time>2026-04-29T08:18:17.84Z</time></trkpt><trkpt lat="37.9721267" lon="12.690475"><ele>242.33333333333334</ele><time>2026-04-29T08:18:18.838Z</time></trkpt><trkpt lat="37.9722783" lon="12.6904767"><ele>245.0</ele><time>2026-04-29T08:18:19.843Z</time></trkpt><trkpt lat="37.97245" lon="12.6904733"><ele>246.33333333333334</ele><time>2026-04-29T08:18:20.842Z</time></trkpt><trkpt lat="37.9726383" lon="12.69047"><ele>247.66666666666669</ele><time>2026-04-29T08:18:21.841Z</time></trkpt><trkpt lat="37.9728167" lon="12.690465"><ele>249.0</ele><time>2026-04-29T08:18:22.845Z</time></trkpt><trkpt lat="37.9729667" lon="12.6904617"><ele>249.0</ele><time>2026-04-29T08:18:23.841Z</time></trkpt><trkpt lat="37.9730883" lon="12.69046"><ele>248.99999999999997</ele><time>2026-04-29T08:18:24.838Z</time></trkpt><trkpt lat="37.973185" lon="12.6904633"><ele>248.99999999999997</ele><time>2026-04-29T08:18:25.84Z</time></trkpt><trkpt lat="37.9732767" lon="12.6904883"><ele>249.0</ele><time>2026-04-29T08:18:26.843Z</time></trkpt><trkpt lat="37.9733617" lon="12.6905383"><ele>249.0</ele><time>2026-04-29T08:18:27.843Z</time></trkpt><trkpt lat="37.9734467" lon="12.6906067"><ele>248.0</ele><time>2026-04-29T08:18:28.84Z</time></trkpt><trkpt lat="37.973535" lon="12.6907033"><ele>247.0</ele><time>2026-04-29T08:18:29.843Z</time></trkpt><trkpt lat="37.9736333" lon="12.6908267"><ele>246.0</ele><time>2026-04-29T08:18:30.84Z</time></trkpt><trkpt lat="37.9737333" lon="12.690955"><ele>245.0</ele><time>2026-04-29T08:18:31.838Z</time></trkpt><trkpt lat="37.9738283" lon="12.691065"><ele>248.25</ele><time>2026-04-29T08:18:32.838Z</time></trkpt><trkpt lat="37.9739183" lon="12.6911483"><ele>251.5</ele><time>2026-04-29T08:18:33.84Z</time></trkpt><trkpt lat="37.974015" lon="12.691205"><ele>254.75</ele><time>2026-04-29T08:18:34.84Z</time></trkpt><trkpt lat="37.9741267" lon="12.69124"><ele>258.0</ele><time>2026-04-29T08:18:35.841Z</time></trkpt><trkpt lat="37.9742567" lon="12.691255"><ele>258.5</ele><time>2026-04-29T08:18:36.837Z</time></trkpt><trkpt lat="37.974405" lon="12.6912617"><ele>259.0</ele><time>2026-04-29T08:18:37.84Z</time></trkpt><trkpt lat="37.974555" lon="12.69127"><ele>259.5</ele><time>2026-04-29T08:18:38.839Z</time></trkpt><trkpt lat="37.97469" lon="12.6912967"><ele>260.0</ele><time>2026-04-29T08:18:39.844Z</time></trkpt><trkpt lat="37.97482" lon="12.69133"><ele>260.0</ele><time>2026-04-29T08:18:40.841Z</time></trkpt><trkpt lat="37.9749533" lon="12.6913683"><ele>260.0</ele><time>2026-04-29T08:18:41.84Z</time></trkpt><trkpt lat="37.9750883" lon="12.69141"><ele>260.0</ele><time>2026-04-29T08:18:42.84Z</time></trkpt><trkpt lat="37.975215" lon="12.6914533"><ele>260.0</ele><time>2026-04-29T08:18:43.846Z</time></trkpt><trkpt lat="37.9753333" lon="12.691495"><ele>258.5</ele><time>2026-04-29T08:18:44.843Z</time></trkpt><trkpt lat="37.9754467" lon="12.6915383"><ele>257.0</ele><time>2026-04-29T08:18:45.839Z</time></trkpt><trkpt lat="37.97556" lon="12.691595"><ele>255.5</ele><time>2026-04-29T08:18:46.84Z</time></trkpt><trkpt lat="37.9756767" lon="12.691675"><ele>254.0</ele><time>2026-04-29T08:18:47.839Z</time></trkpt><trkpt lat="37.9757967" lon="12.6917783"><ele>256.33333333333337</ele><time>2026-04-29T08:18:48.841Z</time></trkpt><trkpt lat="37.975935" lon="12.6918917"><ele>258.6666666666667</ele><time>2026-04-29T08:18:49.842Z</time></trkpt><trkpt lat="37.9760883" lon="12.692"><ele>261.0</ele><time>2026-04-29T08:18:50.844Z</time></trkpt><trkpt lat="37.9762417" lon="12.69209"><ele>261.0</ele><time>2026-04-29T08:18:51.84Z</time></trkpt><trkpt lat="37.9763833" lon="12.6921717"><ele>261.0</ele><time>2026-04-29T08:18:52.84Z</time></trkpt><trkpt lat="37.976515" lon="12.6922467"><ele>261.0</ele><time>2026-04-29T08:18:53.838Z</time></trkpt><trkpt lat="37.976635" lon="12.6923217"><ele>261.0</ele><time>2026-04-29T08:18:54.84Z</time></trkpt><trkpt lat="37.97674" lon="12.6923983"><ele>259.6</ele><time>2026-04-29T08:18:55.84Z</time></trkpt><trkpt lat="37.97684" lon="12.69247"><ele>258.20000000000005</ele><time>2026-04-29T08:18:56.842Z</time></trkpt><trkpt lat="37.9769333" lon="12.6925333"><ele>256.79999999999995</ele><time>2026-04-29T08:18:57.845Z</time></trkpt><trkpt lat="37.9770267" lon="12.692585"><ele>255.39999999999998</ele><time>2026-04-29T08:18:58.839Z</time></trkpt><trkpt lat="37.9771267" lon="12.6926233"><ele>254.0</ele><time>2026-04-29T08:18:59.838Z</time></trkpt><trkpt lat="37.9772417" lon="12.6926483"><ele>254.0</ele><time>2026-04-29T08:19:00.843Z</time></trkpt><trkpt lat="37.97736" lon="12.692665"><ele>253.99999999999997</ele><time>2026-04-29T08:19:01.839Z</time></trkpt><trkpt lat="37.9774733" lon="12.69268"><ele>253.99999999999997</ele><time>2026-04-29T08:19:02.848Z</time></trkpt><trkpt lat="37.9775717" lon="12.692695"><ele>254.0</ele><time>2026-04-29T08:19:03.837Z</time></trkpt><trkpt lat="37.9776583" lon="12.69272"><ele>254.0</ele><time>2026-04-29T08:19:04.843Z</time></trkpt><trkpt lat="37.9777333" lon="12.69275"><ele>252.83333333333334</ele><time>2026-04-29T08:19:05.841Z</time></trkpt><trkpt lat="37.9777933" lon="12.6927917"><ele>251.66666666666669</ele><time>2026-04-29T08:19:06.841Z</time></trkpt><trkpt lat="37.97784" lon="12.69285"><ele>250.5</ele><time>2026-04-29T08:19:07.838Z</time></trkpt><trkpt lat="37.977875" lon="12.69294"><ele>249.33333333333331</ele><time>2026-04-29T08:19:08.842Z</time></trkpt><trkpt lat="37.9779067" lon="12.6930583"><ele>248.16666666666666</ele><time>2026-04-29T08:19:09.845Z</time></trkpt><trkpt lat="37.9779267" lon="12.6931833"><ele>247.0</ele><time>2026-04-29T08:19:10.842Z</time></trkpt><trkpt lat="37.97795" lon="12.6933083"><ele>247.0</ele><time>2026-04-29T08:19:11.844Z</time></trkpt><trkpt lat="37.9779783" lon="12.6934283"><ele>247.0</ele><time>2026-04-29T08:19:12.845Z</time></trkpt><trkpt lat="37.978015" lon="12.6935367"><ele>247.0</ele><time>2026-04-29T08:19:13.841Z</time></trkpt><trkpt lat="37.978075" lon="12.6936183"><ele>247.0</ele><time>2026-04-29T08:19:14.845Z</time></trkpt><trkpt lat="37.978155" lon="12.6936817"><ele>247.0</ele><time>2026-04-29T08:19:15.841Z</time></trkpt><trkpt lat="37.9782433" lon="12.693735"><ele>248.5</ele><time>2026-04-29T08:19:16.841Z</time></trkpt><trkpt lat="37.9783467" lon="12.693765"><ele>250.0</ele><time>2026-04-29T08:19:17.842Z</time></trkpt><trkpt lat="37.9784533" lon="12.6937683"><ele>251.5</ele><time>2026-04-29T08:19:18.843Z</time></trkpt><trkpt lat="37.97857" lon="12.6937467"><ele>253.0</ele><time>2026-04-29T08:19:19.85Z</time></trkpt><trkpt lat="37.97869" lon="12.6937133"><ele>252.99999999999997</ele><time>2026-04-29T08:19:20.84Z</time></trkpt><trkpt lat="37.9788" lon="12.693675"><ele>253.0</ele><time>2026-04-29T08:19:21.841Z</time></trkpt><trkpt lat="37.978895" lon="12.6936367"><ele>253.0</ele><time>2026-04-29T08:19:22.839Z</time></trkpt><trkpt lat="37.978975" lon="12.6935967"><ele>253.0</ele><time>2026-04-29T08:19:23.839Z</time></trkpt><trkpt lat="37.9790383" lon="12.6935533"><ele>252.99999999999997</ele><time>2026-04-29T08:19:24.84Z</time></trkpt><trkpt lat="37.9790917" lon="12.6934917"><ele>253.0</ele><time>2026-04-29T08:19:25.842Z</time></trkpt><trkpt lat="37.9791417" lon="12.6934133"><ele>251.66666666666666</ele><time>2026-04-29T08:19:26.844Z</time></trkpt><trkpt lat="37.9791867" lon="12.6933133"><ele>250.33333333333331</ele><time>2026-04-29T08:19:27.839Z</time></trkpt><trkpt lat="37.9792283" lon="12.6932217"><ele>249.0</ele><time>2026-04-29T08:19:28.839Z</time></trkpt><trkpt lat="37.97928" lon="12.6931467"><ele>247.66666666666669</ele><time>2026-04-29T08:19:29.839Z</time></trkpt><trkpt lat="37.9793483" lon="12.69309"><ele>246.33333333333334</ele><time>2026-04-29T08:19:30.842Z</time></trkpt><trkpt lat="37.9794367" lon="12.693045"><ele>245.0</ele><time>2026-04-29T08:19:31.843Z</time></trkpt><trkpt lat="37.9795433" lon="12.69301"><ele>245.0</ele><time>2026-04-29T08:19:32.842Z</time></trkpt><trkpt lat="37.9796683" lon="12.6929783"><ele>245.0</ele><time>2026-04-29T08:19:33.841Z</time></trkpt><trkpt lat="37.9798133" lon="12.6929583"><ele>245.0</ele><time>2026-04-29T08:19:34.84Z</time></trkpt><trkpt lat="37.9799717" lon="12.6929533"><ele>245.0</ele><time>2026-04-29T08:19:35.838Z</time></trkpt><trkpt lat="37.9801367" lon="12.6929667"><ele>245.33333333333334</ele><time>2026-04-29T08:19:36.838Z</time></trkpt><trkpt lat="37.9803117" lon="12.692995"><ele>245.66666666666669</ele><time>2026-04-29T08:19:37.842Z</time></trkpt><trkpt lat="37.98049" lon="12.69304"><ele>246.0</ele><time>2026-04-29T08:19:38.843Z</time></trkpt><trkpt lat="37.9806717" lon="12.693095"><ele>246.0</ele><time>2026-04-29T08:19:39.835Z</time></trkpt><trkpt lat="37.9808433" lon="12.6931467"><ele>246.0</ele><time>2026-04-29T08:19:40.835Z</time></trkpt><trkpt lat="37.9809933" lon="12.6931917"><ele>246.0</ele><time>2026-04-29T08:19:41.837Z</time></trkpt><trkpt lat="37.981125" lon="12.6932283"><ele>246.5</ele><time>2026-04-29T08:19:42.842Z</time></trkpt><trkpt lat="37.9812383" lon="12.6932683"><ele>247.0</ele><time>2026-04-29T08:19:43.847Z</time></trkpt><trkpt lat="37.9813383" lon="12.6933167"><ele>247.5</ele><time>2026-04-29T08:19:44.841Z</time></trkpt><trkpt lat="37.981435" lon="12.693385"><ele>248.0</ele><time>2026-04-29T08:19:45.843Z</time></trkpt><trkpt lat="37.981535" lon="12.693475"><ele>249.0</ele><time>2026-04-29T08:19:46.846Z</time></trkpt><trkpt lat="37.9816483" lon="12.6935983"><ele>250.0</ele><time>2026-04-29T08:19:47.844Z</time></trkpt><trkpt lat="37.9817717" lon="12.6937433"><ele>251.0</ele><time>2026-04-29T08:19:48.842Z</time></trkpt><trkpt lat="37.9818983" lon="12.6938983"><ele>253.33333333333334</ele><time>2026-04-29T08:19:49.84Z</time></trkpt><trkpt lat="37.9820283" lon="12.694065"><ele>255.66666666666669</ele><time>2026-04-29T08:19:50.838Z</time></trkpt><trkpt lat="37.982145" lon="12.6942217"><ele>258.0</ele><time>2026-04-29T08:19:51.839Z</time></trkpt><trkpt lat="37.9822433" lon="12.6943667"><ele>257.5</ele><time>2026-04-29T08:19:52.841Z</time></trkpt><trkpt lat="37.9823333" lon="12.6944983"><ele>257.0</ele><time>2026-04-29T08:19:53.84Z</time></trkpt><trkpt lat="37.982425" lon="12.694605"><ele>256.5</ele><time>2026-04-29T08:19:54.843Z</time></trkpt><trkpt lat="37.982525" lon="12.6946883"><ele>256.0</ele><time>2026-04-29T08:19:55.841Z</time></trkpt><trkpt lat="37.9826433" lon="12.6947583"><ele>257.25</ele><time>2026-04-29T08:19:56.842Z</time></trkpt><trkpt lat="37.9827817" lon="12.69482"><ele>258.5</ele><time>2026-04-29T08:19:57.835Z</time></trkpt><trkpt lat="37.982925" lon="12.6948883"><ele>259.75</ele><time>2026-04-29T08:19:58.838Z</time></trkpt><trkpt lat="37.98306" lon="12.6949667"><ele>261.0</ele><time>2026-04-29T08:19:59.85Z</time></trkpt><trkpt lat="37.9831883" lon="12.6950633"><ele>261.0</ele><time>2026-04-29T08:20:00.84Z</time></trkpt><trkpt lat="37.98331" lon="12.695175"><ele>261.0</ele><time>2026-04-29T08:20:01.844Z</time></trkpt><trkpt lat="37.9834283" lon="12.6952883"><ele>261.0</ele><time>2026-04-29T08:20:02.841Z</time></trkpt><trkpt lat="37.9835467" lon="12.6953767"><ele>261.0</ele><time>2026-04-29T08:20:03.84Z</time></trkpt><trkpt lat="37.9836783" lon="12.695445"><ele>261.0</ele><time>2026-04-29T08:20:04.839Z</time></trkpt><trkpt lat="37.9838317" lon="12.695505"><ele>261.0</ele><time>2026-04-29T08:20:05.84Z</time></trkpt><trkpt lat="37.9840017" lon="12.69556"><ele>261.0</ele><time>2026-04-29T08:20:06.84Z</time></trkpt><trkpt lat="37.9841817" lon="12.69561"><ele>262.0</ele><time>2026-04-29T08:20:07.842Z</time></trkpt><trkpt lat="37.9843667" lon="12.6956583"><ele>263.0</ele><time>2026-04-29T08:20:08.844Z</time></trkpt><trkpt lat="37.984555" lon="12.6957117"><ele>264.0</ele><time>2026-04-29T08:20:09.842Z</time></trkpt><trkpt lat="37.984735" lon="12.695775"><ele>264.0</ele><time>2026-04-29T08:20:10.844Z</time></trkpt><trkpt lat="37.9849" lon="12.6958467"><ele>264.0</ele><time>2026-04-29T08:20:11.841Z</time></trkpt><trkpt lat="37.9850583" lon="12.695925"><ele>264.0</ele><time>2026-04-29T08:20:12.84Z</time></trkpt><trkpt lat="37.9852083" lon="12.696005"><ele>265.0</ele><time>2026-04-29T08:20:13.84Z</time></trkpt><trkpt lat="37.985345" lon="12.6960817"><ele>266.0</ele><time>2026-04-29T08:20:14.843Z</time></trkpt><trkpt lat="37.985465" lon="12.6961467"><ele>267.0</ele><time>2026-04-29T08:20:15.842Z</time></trkpt><trkpt lat="37.9855633" lon="12.696205"><ele>268.0</ele><time>2026-04-29T08:20:16.842Z</time></trkpt><trkpt lat="37.9856367" lon="12.6962617"><ele>268.0</ele><time>2026-04-29T08:20:17.84Z</time></trkpt><trkpt lat="37.98569" lon="12.6963317"><ele>268.0</ele><time>2026-04-29T08:20:18.841Z</time></trkpt><trkpt lat="37.9857317" lon="12.6964133"><ele>268.0</ele><time>2026-04-29T08:20:19.84Z</time></trkpt><trkpt lat="37.98576" lon="12.69651"><ele>268.0</ele><time>2026-04-29T08:20:20.84Z</time></trkpt><trkpt lat="37.98578" lon="12.696615"><ele>268.0</ele><time>2026-04-29T08:20:21.841Z</time></trkpt><trkpt lat="37.985785" lon="12.6967133"><ele>268.0</ele><time>2026-04-29T08:20:22.84Z</time></trkpt><trkpt lat="37.98577" lon="12.696805"><ele>268.0</ele><time>2026-04-29T08:20:23.848Z</time></trkpt><trkpt lat="37.9857367" lon="12.69688"><ele>268.0</ele><time>2026-04-29T08:20:24.842Z</time></trkpt><trkpt lat="37.9856833" lon="12.6969367"><ele>268.0</ele><time>2026-04-29T08:20:25.839Z</time></trkpt><trkpt lat="37.9856117" lon="12.6969833"><ele>268.0</ele><time>2026-04-29T08:20:26.84Z</time></trkpt><trkpt lat="37.9855233" lon="12.6970183"><ele>268.0</ele><time>2026-04-29T08:20:27.838Z</time></trkpt><trkpt lat="37.98541" lon="12.6970483"><ele>268.0</ele><time>2026-04-29T08:20:28.84Z</time></trkpt><trkpt lat="37.985275" lon="12.6970683"><ele>269.2</ele><time>2026-04-29T08:20:29.841Z</time></trkpt><trkpt lat="37.9851367" lon="12.69707"><ele>270.4</ele><time>2026-04-29T08:20:30.842Z</time></trkpt><trkpt lat="37.985015" lon="12.6970683"><ele>271.59999999999997</ele><time>2026-04-29T08:20:31.842Z</time></trkpt><trkpt lat="37.984915" lon="12.6970767"><ele>272.8</ele><time>2026-04-29T08:20:32.839Z</time></trkpt><trkpt lat="37.984835" lon="12.6971083"><ele>274.0</ele><time>2026-04-29T08:20:33.838Z</time></trkpt><trkpt lat="37.98477" lon="12.69716"><ele>274.0</ele><time>2026-04-29T08:20:34.839Z</time></trkpt><trkpt lat="37.984725" lon="12.6972333"><ele>274.0</ele><time>2026-04-29T08:20:35.839Z</time></trkpt><trkpt lat="37.9847067" lon="12.6973233"><ele>274.0</ele><time>2026-04-29T08:20:36.842Z</time></trkpt><trkpt lat="37.9847233" lon="12.69742"><ele>274.0</ele><time>2026-04-29T08:20:37.842Z</time></trkpt><trkpt lat="37.9847783" lon="12.69752"><ele>274.0</ele><time>2026-04-29T08:20:38.842Z</time></trkpt><trkpt lat="37.9848567" lon="12.6976133"><ele>274.0</ele><time>2026-04-29T08:20:39.84Z</time></trkpt><trkpt lat="37.98496" lon="12.6977033"><ele>275.75</ele><time>2026-04-29T08:20:40.84Z</time></trkpt><trkpt lat="37.98508" lon="12.697795"><ele>277.5</ele><time>2026-04-29T08:20:41.84Z</time></trkpt><trkpt lat="37.985215" lon="12.6978917"><ele>279.25</ele><time>2026-04-29T08:20:42.839Z</time></trkpt><trkpt lat="37.985345" lon="12.6979833"><ele>281.0</ele><time>2026-04-29T08:20:43.842Z</time></trkpt><trkpt lat="37.9854517" lon="12.6980633"><ele>281.0</ele><time>2026-04-29T08:20:44.842Z</time></trkpt><trkpt lat="37.9855333" lon="12.6981433"><ele>281.0</ele><time>2026-04-29T08:20:45.841Z</time></trkpt><trkpt lat="37.9855917" lon="12.69823"><ele>281.0</ele><time>2026-04-29T08:20:46.841Z</time></trkpt><trkpt lat="37.9856267" lon="12.6983317"><ele>281.0</ele><time>2026-04-29T08:20:47.84Z</time></trkpt><trkpt lat="37.985635" lon="12.6984417"><ele>281.0</ele><time>2026-04-29T08:20:48.837Z</time></trkpt><trkpt lat="37.98562" lon="12.6985533"><ele>281.6666666666667</ele><time>2026-04-29T08:20:49.84Z</time></trkpt><trkpt lat="37.9855867" lon="12.69867"><ele>282.33333333333337</ele><time>2026-04-29T08:20:50.842Z</time></trkpt><trkpt lat="37.9855483" lon="12.6987917"><ele>283.0</ele><time>2026-04-29T08:20:51.84Z</time></trkpt><trkpt lat="37.9855167" lon="12.6989067"><ele>283.6666666666667</ele><time>2026-04-29T08:20:52.841Z</time></trkpt><trkpt lat="37.9855033" lon="12.69901"><ele>284.3333333333333</ele><time>2026-04-29T08:20:53.84Z</time></trkpt><trkpt lat="37.9855133" lon="12.6990917"><ele>285.0</ele><time>2026-04-29T08:20:54.839Z</time></trkpt><trkpt lat="37.9855917" lon="12.6991833"><ele>285.0</ele><time>2026-04-29T08:20:56.841Z</time></trkpt><trkpt lat="37.9856567" lon="12.6991833"><ele>285.0</ele><time>2026-04-29T08:20:57.843Z</time></trkpt><trkpt lat="37.9857333" lon="12.6991567"><ele>285.0</ele><time>2026-04-29T08:20:58.841Z</time></trkpt><trkpt lat="37.9858267" lon="12.699105"><ele>285.0</ele><time>2026-04-29T08:20:59.841Z</time></trkpt><trkpt lat="37.98594" lon="12.6990367"><ele>285.0</ele><time>2026-04-29T08:21:00.841Z</time></trkpt><trkpt lat="37.9860717" lon="12.6989617"><ele>288.0</ele><time>2026-04-29T08:21:01.841Z</time></trkpt><trkpt lat="37.9862183" lon="12.6988717"><ele>291.0</ele><time>2026-04-29T08:21:02.849Z</time></trkpt><trkpt lat="37.9863667" lon="12.6987817"><ele>294.0</ele><time>2026-04-29T08:21:03.841Z</time></trkpt><trkpt lat="37.9865033" lon="12.6987033"><ele>294.0</ele><time>2026-04-29T08:21:04.842Z</time></trkpt><trkpt lat="37.986625" lon="12.6986433"><ele>294.0</ele><time>2026-04-29T08:21:05.842Z</time></trkpt><trkpt lat="37.9867283" lon="12.6986067"><ele>294.0</ele><time>2026-04-29T08:21:06.843Z</time></trkpt><trkpt lat="37.9868233" lon="12.698575"><ele>294.0</ele><time>2026-04-29T08:21:07.841Z</time></trkpt><trkpt lat="37.98693" lon="12.69854"><ele>294.0</ele><time>2026-04-29T08:21:08.843Z</time></trkpt><trkpt lat="37.9870517" lon="12.6985033"><ele>294.0</ele><time>2026-04-29T08:21:09.841Z</time></trkpt><trkpt lat="37.9871767" lon="12.698465"><ele>294.0</ele><time>2026-04-29T08:21:10.839Z</time></trkpt><trkpt lat="37.9872967" lon="12.698435"><ele>294.0</ele><time>2026-04-29T08:21:11.841Z</time></trkpt><trkpt lat="37.98741" lon="12.69841"><ele>294.0</ele><time>2026-04-29T08:21:12.845Z</time></trkpt><trkpt lat="37.9875183" lon="12.6983967"><ele>295.5</ele><time>2026-04-29T08:21:13.843Z</time></trkpt><trkpt lat="37.9876283" lon="12.6984083"><ele>297.0</ele><time>2026-04-29T08:21:14.843Z</time></trkpt><trkpt lat="37.98774" lon="12.69845"><ele>298.5</ele><time>2026-04-29T08:21:15.84Z</time></trkpt><trkpt lat="37.98785" lon="12.6985217"><ele>300.0</ele><time>2026-04-29T08:21:16.84Z</time></trkpt><trkpt lat="37.9879633" lon="12.6986217"><ele>301.3333333333333</ele><time>2026-04-29T08:21:17.839Z</time></trkpt><trkpt lat="37.988085" lon="12.6987417"><ele>302.66666666666663</ele><time>2026-04-29T08:21:18.841Z</time></trkpt><trkpt lat="37.9882117" lon="12.6988683"><ele>304.0</ele><time>2026-04-29T08:21:19.841Z</time></trkpt><trkpt lat="37.9883367" lon="12.6989983"><ele>305.0</ele><time>2026-04-29T08:21:20.843Z</time></trkpt><trkpt lat="37.988455" lon="12.6991467"><ele>306.0</ele><time>2026-04-29T08:21:21.843Z</time></trkpt><trkpt lat="37.9885633" lon="12.6993183"><ele>307.0</ele><time>2026-04-29T08:21:22.84Z</time></trkpt><trkpt lat="37.988665" lon="12.6995067"><ele>308.25</ele><time>2026-04-29T08:21:23.841Z</time></trkpt><trkpt lat="37.988755" lon="12.69968"><ele>309.5</ele><time>2026-04-29T08:21:24.836Z</time></trkpt><trkpt lat="37.9888367" lon="12.699825"><ele>310.75</ele><time>2026-04-29T08:21:25.838Z</time></trkpt><trkpt lat="37.9889117" lon="12.6999517"><ele>312.0</ele><time>2026-04-29T08:21:26.842Z</time></trkpt><trkpt lat="37.9889883" lon="12.700055"><ele>312.0</ele><time>2026-04-29T08:21:27.845Z</time></trkpt><trkpt lat="37.9890683" lon="12.7001283"><ele>312.0</ele><time>2026-04-29T08:21:28.843Z</time></trkpt><trkpt lat="37.9891617" lon="12.7001767"><ele>312.0</ele><time>2026-04-29T08:21:29.84Z</time></trkpt><trkpt lat="37.9892567" lon="12.7001883"><ele>312.0</ele><time>2026-04-29T08:21:30.841Z</time></trkpt><trkpt lat="37.9893517" lon="12.7001717"><ele>312.0</ele><time>2026-04-29T08:21:31.839Z</time></trkpt><trkpt lat="37.9894483" lon="12.7001233"><ele>313.75</ele><time>2026-04-29T08:21:32.839Z</time></trkpt><trkpt lat="37.9895533" lon="12.700065"><ele>315.5</ele><time>2026-04-29T08:21:33.842Z</time></trkpt><trkpt lat="37.989665" lon="12.7000133"><ele>317.25</ele><time>2026-04-29T08:21:34.84Z</time></trkpt><trkpt lat="37.9897867" lon="12.6999783"><ele>319.0</ele><time>2026-04-29T08:21:35.843Z</time></trkpt><trkpt lat="37.9899217" lon="12.6999633"><ele>321.25</ele><time>2026-04-29T08:21:36.844Z</time></trkpt><trkpt lat="37.9900683" lon="12.699965"><ele>323.5</ele><time>2026-04-29T08:21:37.843Z</time></trkpt><trkpt lat="37.990215" lon="12.6999667"><ele>325.75</ele><time>2026-04-29T08:21:38.841Z</time></trkpt><trkpt lat="37.9903483" lon="12.69995"><ele>328.0</ele><time>2026-04-29T08:21:39.845Z</time></trkpt><trkpt lat="37.9904617" lon="12.69991"><ele>328.0</ele><time>2026-04-29T08:21:40.839Z</time></trkpt><trkpt lat="37.99057" lon="12.69985"><ele>328.0</ele><time>2026-04-29T08:21:41.842Z</time></trkpt><trkpt lat="37.99068" lon="12.69977"><ele>328.0</ele><time>2026-04-29T08:21:42.841Z</time></trkpt><trkpt lat="37.9907867" lon="12.6996667"><ele>328.0</ele><time>2026-04-29T08:21:43.842Z</time></trkpt><trkpt lat="37.99088" lon="12.6995517"><ele>328.5</ele><time>2026-04-29T08:21:44.849Z</time></trkpt><trkpt lat="37.990955" lon="12.699445"><ele>329.0</ele><time>2026-04-29T08:21:45.84Z</time></trkpt><trkpt lat="37.9910167" lon="12.699365"><ele>329.5</ele><time>2026-04-29T08:21:46.838Z</time></trkpt><trkpt lat="37.99108" lon="12.6993167"><ele>330.0</ele><time>2026-04-29T08:21:47.84Z</time></trkpt><trkpt lat="37.9911533" lon="12.6992867"><ele>330.5</ele><time>2026-04-29T08:21:48.843Z</time></trkpt><trkpt lat="37.9912283" lon="12.6992883"><ele>331.0</ele><time>2026-04-29T08:21:49.842Z</time></trkpt><trkpt lat="37.9913017" lon="12.69931"><ele>331.0</ele><time>2026-04-29T08:21:50.842Z</time></trkpt><trkpt lat="37.9913683" lon="12.6993667"><ele>331.0</ele><time>2026-04-29T08:21:51.842Z</time></trkpt><trkpt lat="37.9914333" lon="12.6994567"><ele>331.0</ele><time>2026-04-29T08:21:52.842Z</time></trkpt><trkpt lat="37.9915017" lon="12.69954"><ele>331.0</ele><time>2026-04-29T08:21:53.84Z</time></trkpt><trkpt lat="37.991575" lon="12.6996017"><ele>331.0</ele><time>2026-04-29T08:21:54.839Z</time></trkpt><trkpt lat="37.9916517" lon="12.6996283"><ele>331.0</ele><time>2026-04-29T08:21:55.843Z</time></trkpt><trkpt lat="37.9917283" lon="12.69962"><ele>332.4</ele><time>2026-04-29T08:21:56.838Z</time></trkpt><trkpt lat="37.991805" lon="12.69958"><ele>333.8</ele><time>2026-04-29T08:21:57.844Z</time></trkpt><trkpt lat="37.99189" lon="12.699505"><ele>335.2</ele><time>2026-04-29T08:21:58.837Z</time></trkpt><trkpt lat="37.9919883" lon="12.6994017"><ele>336.59999999999997</ele><time>2026-04-29T08:21:59.838Z</time></trkpt><trkpt lat="37.9920783" lon="12.6993133"><ele>338.0</ele><time>2026-04-29T08:22:00.841Z</time></trkpt><trkpt lat="37.992155" lon="12.699255"><ele>338.0</ele><time>2026-04-29T08:22:01.839Z</time></trkpt><trkpt lat="37.9922283" lon="12.6992317"><ele>338.0</ele><time>2026-04-29T08:22:02.845Z</time></trkpt><trkpt lat="37.9923083" lon="12.6992333"><ele>338.0</ele><time>2026-04-29T08:22:03.842Z</time></trkpt><trkpt lat="37.9923917" lon="12.6992683"><ele>338.0</ele><time>2026-04-29T08:22:04.844Z</time></trkpt><trkpt lat="37.9924817" lon="12.69933"><ele>338.0</ele><time>2026-04-29T08:22:05.841Z</time></trkpt><trkpt lat="37.992585" lon="12.6994183"><ele>341.75</ele><time>2026-04-29T08:22:06.843Z</time></trkpt><trkpt lat="37.9927" lon="12.69952"><ele>345.5</ele><time>2026-04-29T08:22:07.838Z</time></trkpt><trkpt lat="37.992825" lon="12.699615"><ele>349.25</ele><time>2026-04-29T08:22:08.841Z</time></trkpt><trkpt lat="37.9929533" lon="12.6996933"><ele>353.0</ele><time>2026-04-29T08:22:09.84Z</time></trkpt><trkpt lat="37.9930817" lon="12.6997433"><ele>353.0</ele><time>2026-04-29T08:22:10.843Z</time></trkpt><trkpt lat="37.9932133" lon="12.699765"><ele>353.0</ele><time>2026-04-29T08:22:11.84Z</time></trkpt><trkpt lat="37.9933533" lon="12.6997633"><ele>353.0</ele><time>2026-04-29T08:22:12.84Z</time></trkpt><trkpt lat="37.9935067" lon="12.6997417"><ele>353.0</ele><time>2026-04-29T08:22:13.84Z</time></trkpt><trkpt lat="37.9936567" lon="12.6997133"><ele>352.5</ele><time>2026-04-29T08:22:14.84Z</time></trkpt><trkpt lat="37.9937917" lon="12.6996933"><ele>352.0</ele><time>2026-04-29T08:22:15.838Z</time></trkpt><trkpt lat="37.9939117" lon="12.6996867"><ele>351.5</ele><time>2026-04-29T08:22:16.839Z</time></trkpt><trkpt lat="37.9940267" lon="12.6997017"><ele>351.0</ele><time>2026-04-29T08:22:17.841Z</time></trkpt><trkpt lat="37.9942183" lon="12.6997983"><ele>351.0</ele><time>2026-04-29T08:22:19.846Z</time></trkpt><trkpt lat="37.9942767" lon="12.6998883"><ele>351.0</ele><time>2026-04-29T08:22:20.839Z</time></trkpt><trkpt lat="37.994315" lon="12.6999983"><ele>351.0</ele><time>2026-04-29T08:22:21.842Z</time></trkpt><trkpt lat="37.9943317" lon="12.7001267"><ele>351.0</ele><time>2026-04-29T08:22:22.842Z</time></trkpt><trkpt lat="37.9943333" lon="12.7002783"><ele>351.0</ele><time>2026-04-29T08:22:23.839Z</time></trkpt><trkpt lat="37.9943267" lon="12.7004417"><ele>354.20000000000005</ele><time>2026-04-29T08:22:24.854Z</time></trkpt><trkpt lat="37.994325" lon="12.700595"><ele>357.40000000000003</ele><time>2026-04-29T08:22:25.843Z</time></trkpt><trkpt lat="37.994335" lon="12.7007283"><ele>360.6</ele><time>2026-04-29T08:22:26.841Z</time></trkpt><trkpt lat="37.9943633" lon="12.7008417"><ele>363.8</ele><time>2026-04-29T08:22:27.841Z</time></trkpt><trkpt lat="37.994415" lon="12.7009333"><ele>367.0</ele><time>2026-04-29T08:22:28.839Z</time></trkpt><trkpt lat="37.9944783" lon="12.7009983"><ele>367.0</ele><time>2026-04-29T08:22:29.838Z</time></trkpt><trkpt lat="37.9945567" lon="12.7010283"><ele>367.0</ele><time>2026-04-29T08:22:30.84Z</time></trkpt><trkpt lat="37.9946417" lon="12.7010233"><ele>367.0</ele><time>2026-04-29T08:22:31.843Z</time></trkpt><trkpt lat="37.99474" lon="12.700985"><ele>367.0</ele><time>2026-04-29T08:22:32.842Z</time></trkpt><trkpt lat="37.9948433" lon="12.7009317"><ele>367.0</ele><time>2026-04-29T08:22:33.841Z</time></trkpt><trkpt lat="37.9949583" lon="12.700885"><ele>367.5</ele><time>2026-04-29T08:22:34.847Z</time></trkpt><trkpt lat="37.99508" lon="12.7008567"><ele>368.0</ele><time>2026-04-29T08:22:35.839Z</time></trkpt><trkpt lat="37.995205" lon="12.7008533"><ele>368.5</ele><time>2026-04-29T08:22:36.84Z</time></trkpt><trkpt lat="37.9953317" lon="12.7008767"><ele>369.0</ele><time>2026-04-29T08:22:37.837Z</time></trkpt><trkpt lat="37.995465" lon="12.700925"><ele>369.0</ele><time>2026-04-29T08:22:38.843Z</time></trkpt><trkpt lat="37.9955983" lon="12.7009933"><ele>369.0</ele><time>2026-04-29T08:22:39.842Z</time></trkpt><trkpt lat="37.995735" lon="12.7010733"><ele>369.0</ele><time>2026-04-29T08:22:40.846Z</time></trkpt><trkpt lat="37.9958683" lon="12.7011717"><ele>369.0</ele><time>2026-04-29T08:22:41.846Z</time></trkpt><trkpt lat="37.996" lon="12.7012883"><ele>371.3333333333333</ele><time>2026-04-29T08:22:42.839Z</time></trkpt><trkpt lat="37.9961367" lon="12.7014283"><ele>373.66666666666663</ele><time>2026-04-29T08:22:43.838Z</time></trkpt><trkpt lat="37.99628" lon="12.7015717"><ele>376.0</ele><time>2026-04-29T08:22:44.837Z</time></trkpt><trkpt lat="37.99641" lon="12.7017033"><ele>376.0</ele><time>2026-04-29T08:22:45.839Z</time></trkpt><trkpt lat="37.9965317" lon="12.70181"><ele>376.0</ele><time>2026-04-29T08:22:46.842Z</time></trkpt><trkpt lat="37.99665" lon="12.7018883"><ele>376.0</ele><time>2026-04-29T08:22:47.843Z</time></trkpt><trkpt lat="37.9967767" lon="12.7019317"><ele>376.0</ele><time>2026-04-29T08:22:48.844Z</time></trkpt><trkpt lat="37.996915" lon="12.7019517"><ele>377.25</ele><time>2026-04-29T08:22:49.84Z</time></trkpt><trkpt lat="37.9970617" lon="12.7019533"><ele>378.5</ele><time>2026-04-29T08:22:50.84Z</time></trkpt><trkpt lat="37.997205" lon="12.701945"><ele>379.75</ele><time>2026-04-29T08:22:51.841Z</time></trkpt><trkpt lat="37.997345" lon="12.7019167"><ele>381.0</ele><time>2026-04-29T08:22:52.84Z</time></trkpt><trkpt lat="37.9974767" lon="12.701855"><ele>384.0</ele><time>2026-04-29T08:22:53.843Z</time></trkpt><trkpt lat="37.997595" lon="12.7017667"><ele>387.0</ele><time>2026-04-29T08:22:54.843Z</time></trkpt><trkpt lat="37.997705" lon="12.701645"><ele>390.0</ele><time>2026-04-29T08:22:55.844Z</time></trkpt><trkpt lat="37.9978083" lon="12.7015067"><ele>393.0</ele><time>2026-04-29T08:22:56.841Z</time></trkpt><trkpt lat="37.9979033" lon="12.7013783"><ele>393.0</ele><time>2026-04-29T08:22:57.839Z</time></trkpt><trkpt lat="37.9979917" lon="12.7012783"><ele>393.0</ele><time>2026-04-29T08:22:58.839Z</time></trkpt><trkpt lat="37.9980817" lon="12.7012083"><ele>393.0</ele><time>2026-04-29T08:22:59.844Z</time></trkpt><trkpt lat="37.9981667" lon="12.70117"><ele>393.0</ele><time>2026-04-29T08:23:00.841Z</time></trkpt><trkpt lat="37.9982417" lon="12.7011617"><ele>393.0</ele><time>2026-04-29T08:23:01.843Z</time></trkpt><trkpt lat="37.9983567" lon="12.701255"><ele>393.25</ele><time>2026-04-29T08:23:03.84Z</time></trkpt><trkpt lat="37.9984217" lon="12.7013517"><ele>393.5</ele><time>2026-04-29T08:23:04.837Z</time></trkpt><trkpt lat="37.9985133" lon="12.7014983"><ele>393.75</ele><time>2026-04-29T08:23:05.837Z</time></trkpt><trkpt lat="37.9986233" lon="12.701665"><ele>394.0</ele><time>2026-04-29T08:23:06.837Z</time></trkpt><trkpt lat="37.9987467" lon="12.70184"><ele>397.6666666666667</ele><time>2026-04-29T08:23:07.838Z</time></trkpt><trkpt lat="37.9988683" lon="12.7020117"><ele>401.33333333333337</ele><time>2026-04-29T08:23:08.842Z</time></trkpt><trkpt lat="37.9989817" lon="12.7021667"><ele>405.0</ele><time>2026-04-29T08:23:09.836Z</time></trkpt><trkpt lat="37.9990767" lon="12.7023017"><ele>405.0</ele><time>2026-04-29T08:23:10.836Z</time></trkpt><trkpt lat="37.9991583" lon="12.7024117"><ele>405.0</ele><time>2026-04-29T08:23:11.839Z</time></trkpt><trkpt lat="37.99923" lon="12.7024783"><ele>405.0</ele><time>2026-04-29T08:23:12.839Z</time></trkpt><trkpt lat="37.99931" lon="12.70251"><ele>405.0</ele><time>2026-04-29T08:23:13.841Z</time></trkpt><trkpt lat="37.9993967" lon="12.7025083"><ele>405.0</ele><time>2026-04-29T08:23:14.844Z</time></trkpt><trkpt lat="37.9994967" lon="12.70248"><ele>405.5</ele><time>2026-04-29T08:23:15.837Z</time></trkpt><trkpt lat="37.999605" lon="12.7024417"><ele>406.0</ele><time>2026-04-29T08:23:16.846Z</time></trkpt><trkpt lat="37.9997067" lon="12.70242"><ele>406.5</ele><time>2026-04-29T08:23:17.84Z</time></trkpt><trkpt lat="37.9998033" lon="12.7024283"><ele>407.0</ele><time>2026-04-29T08:23:18.839Z</time></trkpt><trkpt lat="38.000025" lon="12.7025233"><ele>407.0</ele><time>2026-04-29T08:23:20.843Z</time></trkpt><trkpt lat="38.0001367" lon="12.7026017"><ele>407.0</ele><time>2026-04-29T08:23:21.844Z</time></trkpt><trkpt lat="38.0002317" lon="12.7026933"><ele>407.0</ele><time>2026-04-29T08:23:22.842Z</time></trkpt><trkpt lat="38.0003033" lon="12.7027917"><ele>407.0</ele><time>2026-04-29T08:23:23.844Z</time></trkpt><trkpt lat="38.0003633" lon="12.7028983"><ele>408.20000000000005</ele><time>2026-04-29T08:23:24.841Z</time></trkpt><trkpt lat="38.0004117" lon="12.7030133"><ele>409.4</ele><time>2026-04-29T08:23:25.84Z</time></trkpt><trkpt lat="38.0004367" lon="12.7031317"><ele>410.6</ele><time>2026-04-29T08:23:26.843Z</time></trkpt><trkpt lat="38.0004367" lon="12.7032433"><ele>411.79999999999995</ele><time>2026-04-29T08:23:27.84Z</time></trkpt><trkpt lat="38.00041" lon="12.7033583"><ele>413.0</ele><time>2026-04-29T08:23:28.841Z</time></trkpt><trkpt lat="38.00036" lon="12.7034867"><ele>413.0</ele><time>2026-04-29T08:23:29.84Z</time></trkpt><trkpt lat="38.0003067" lon="12.703625"><ele>413.0</ele><time>2026-04-29T08:23:30.841Z</time></trkpt><trkpt lat="38.00026" lon="12.7037733"><ele>413.0</ele><time>2026-04-29T08:23:31.847Z</time></trkpt><trkpt lat="38.0002233" lon="12.70393"><ele>413.0</ele><time>2026-04-29T08:23:32.841Z</time></trkpt><trkpt lat="38.000205" lon="12.7040833"><ele>413.0</ele><time>2026-04-29T08:23:33.838Z</time></trkpt><trkpt lat="38.0002067" lon="12.7042417"><ele>413.0</ele><time>2026-04-29T08:23:34.84Z</time></trkpt><trkpt lat="38.00023" lon="12.70442"><ele>413.0</ele><time>2026-04-29T08:23:35.838Z</time></trkpt><trkpt lat="38.00026" lon="12.7046083"><ele>413.0</ele><time>2026-04-29T08:23:36.84Z</time></trkpt><trkpt lat="38.0002833" lon="12.70479"><ele>413.5</ele><time>2026-04-29T08:23:37.841Z</time></trkpt><trkpt lat="38.0002917" lon="12.7049717"><ele>414.0</ele><time>2026-04-29T08:23:38.841Z</time></trkpt><trkpt lat="38.000285" lon="12.705155"><ele>414.5</ele><time>2026-04-29T08:23:39.84Z</time></trkpt><trkpt lat="38.0002667" lon="12.705345"><ele>415.0</ele><time>2026-04-29T08:23:40.839Z</time></trkpt><trkpt lat="38.0002283" lon="12.7055367"><ele>413.5</ele><time>2026-04-29T08:23:41.842Z</time></trkpt><trkpt lat="38.0001767" lon="12.7057217"><ele>412.0</ele><time>2026-04-29T08:23:42.841Z</time></trkpt><trkpt lat="38.000125" lon="12.705885"><ele>410.5</ele><time>2026-04-29T08:23:43.841Z</time></trkpt><trkpt lat="38.0000833" lon="12.7060417"><ele>409.0</ele><time>2026-04-29T08:23:44.842Z</time></trkpt><trkpt lat="38.0000633" lon="12.7062033"><ele>408.0</ele><time>2026-04-29T08:23:45.849Z</time></trkpt><trkpt lat="38.00006" lon="12.70637"><ele>407.0</ele><time>2026-04-29T08:23:46.841Z</time></trkpt><trkpt lat="38.0000767" lon="12.7065367"><ele>406.0</ele><time>2026-04-29T08:23:47.84Z</time></trkpt><trkpt lat="38.0001067" lon="12.7066917"><ele>405.0</ele><time>2026-04-29T08:23:48.838Z</time></trkpt><trkpt lat="38.00016" lon="12.7068233"><ele>406.5</ele><time>2026-04-29T08:23:49.839Z</time></trkpt><trkpt lat="38.00023" lon="12.706945"><ele>408.0</ele><time>2026-04-29T08:23:50.836Z</time></trkpt><trkpt lat="38.00033" lon="12.70706"><ele>409.5</ele><time>2026-04-29T08:23:51.84Z</time></trkpt><trkpt lat="38.0004467" lon="12.7071667"><ele>411.0</ele><time>2026-04-29T08:23:52.836Z</time></trkpt><trkpt lat="38.000555" lon="12.70727"><ele>411.0</ele><time>2026-04-29T08:23:53.838Z</time></trkpt><trkpt lat="38.0006417" lon="12.7073767"><ele>411.0</ele><time>2026-04-29T08:23:54.836Z</time></trkpt><trkpt lat="38.0007167" lon="12.7074983"><ele>411.0</ele><time>2026-04-29T08:23:55.839Z</time></trkpt><trkpt lat="38.00079" lon="12.7076383"><ele>411.0</ele><time>2026-04-29T08:23:56.84Z</time></trkpt><trkpt lat="38.0008617" lon="12.7077833"><ele>409.25</ele><time>2026-04-29T08:23:57.84Z</time></trkpt><trkpt lat="38.0009333" lon="12.7079133"><ele>407.5</ele><time>2026-04-29T08:23:58.842Z</time></trkpt><trkpt lat="38.0010117" lon="12.70803"><ele>405.75</ele><time>2026-04-29T08:23:59.842Z</time></trkpt><trkpt lat="38.0010967" lon="12.7081217"><ele>404.0</ele><time>2026-04-29T08:24:00.84Z</time></trkpt><trkpt lat="38.00119" lon="12.7081867"><ele>404.0</ele><time>2026-04-29T08:24:01.84Z</time></trkpt><trkpt lat="38.0012983" lon="12.70822"><ele>404.0</ele><time>2026-04-29T08:24:02.842Z</time></trkpt><trkpt lat="38.0014233" lon="12.708225"><ele>404.0</ele><time>2026-04-29T08:24:03.841Z</time></trkpt><trkpt lat="38.00156" lon="12.7082167"><ele>404.0</ele><time>2026-04-29T08:24:04.843Z</time></trkpt><trkpt lat="38.0016967" lon="12.7082167"><ele>401.0</ele><time>2026-04-29T08:24:05.844Z</time></trkpt><trkpt lat="38.0018267" lon="12.7082283"><ele>398.0</ele><time>2026-04-29T08:24:06.843Z</time></trkpt><trkpt lat="38.0019483" lon="12.7082517"><ele>395.0</ele><time>2026-04-29T08:24:07.85Z</time></trkpt><trkpt lat="38.0020733" lon="12.7082917"><ele>392.0</ele><time>2026-04-29T08:24:08.84Z</time></trkpt><trkpt lat="38.0022" lon="12.7083533"><ele>392.0</ele><time>2026-04-29T08:24:09.842Z</time></trkpt><trkpt lat="38.0023317" lon="12.7084317"><ele>392.0</ele><time>2026-04-29T08:24:10.839Z</time></trkpt><trkpt lat="38.0024633" lon="12.7085067"><ele>392.0</ele><time>2026-04-29T08:24:11.841Z</time></trkpt><trkpt lat="38.0025967" lon="12.708565"><ele>392.0</ele><time>2026-04-29T08:24:12.842Z</time></trkpt><trkpt lat="38.0027467" lon="12.7086017"><ele>391.75</ele><time>2026-04-29T08:24:13.845Z</time></trkpt><trkpt lat="38.0029033" lon="12.7086283"><ele>391.5</ele><time>2026-04-29T08:24:14.843Z</time></trkpt><trkpt lat="38.0030483" lon="12.70865"><ele>391.25</ele><time>2026-04-29T08:24:15.84Z</time></trkpt><trkpt lat="38.0031767" lon="12.7086683"><ele>391.0</ele><time>2026-04-29T08:24:16.842Z</time></trkpt><trkpt lat="38.00329" lon="12.7086933"><ele>388.8</ele><time>2026-04-29T08:24:17.84Z</time></trkpt><trkpt lat="38.0033867" lon="12.708735"><ele>386.6</ele><time>2026-04-29T08:24:18.836Z</time></trkpt><trkpt lat="38.0034683" lon="12.708795"><ele>384.4</ele><time>2026-04-29T08:24:19.837Z</time></trkpt><trkpt lat="38.0035317" lon="12.7088817"><ele>382.2</ele><time>2026-04-29T08:24:20.837Z</time></trkpt><trkpt lat="38.0035867" lon="12.70899"><ele>380.0</ele><time>2026-04-29T08:24:21.837Z</time></trkpt><trkpt lat="38.0036317" lon="12.7091117"><ele>380.0</ele><time>2026-04-29T08:24:22.838Z</time></trkpt><trkpt lat="38.0036583" lon="12.7092533"><ele>380.0</ele><time>2026-04-29T08:24:23.839Z</time></trkpt><trkpt lat="38.0036633" lon="12.7094183"><ele>380.0</ele><time>2026-04-29T08:24:24.839Z</time></trkpt><trkpt lat="38.0036567" lon="12.7096033"><ele>380.0</ele><time>2026-04-29T08:24:25.84Z</time></trkpt><trkpt lat="38.0036533" lon="12.7097967"><ele>379.0</ele><time>2026-04-29T08:24:26.841Z</time></trkpt><trkpt lat="38.00367" lon="12.7099817"><ele>378.0</ele><time>2026-04-29T08:24:27.842Z</time></trkpt><trkpt lat="38.003705" lon="12.7101533"><ele>377.0</ele><time>2026-04-29T08:24:28.841Z</time></trkpt><trkpt lat="38.003755" lon="12.710315"><ele>376.0</ele><time>2026-04-29T08:24:29.841Z</time></trkpt><trkpt lat="38.0038067" lon="12.7104667"><ele>375.75</ele><time>2026-04-29T08:24:30.839Z</time></trkpt><trkpt lat="38.0038483" lon="12.7106133"><ele>375.5</ele><time>2026-04-29T08:24:31.839Z</time></trkpt><trkpt lat="38.003875" lon="12.71076"><ele>375.25</ele><time>2026-04-29T08:24:32.835Z</time></trkpt><trkpt lat="38.0038883" lon="12.7109017"><ele>375.0</ele><time>2026-04-29T08:24:33.837Z</time></trkpt><trkpt lat="38.003885" lon="12.7110317"><ele>374.0</ele><time>2026-04-29T08:24:34.837Z</time></trkpt><trkpt lat="38.0038667" lon="12.7111517"><ele>373.0</ele><time>2026-04-29T08:24:35.843Z</time></trkpt><trkpt lat="38.0038317" lon="12.7112767"><ele>372.0</ele><time>2026-04-29T08:24:36.837Z</time></trkpt><trkpt lat="38.003785" lon="12.7114133"><ele>371.0</ele><time>2026-04-29T08:24:37.837Z</time></trkpt><trkpt lat="38.003735" lon="12.7115683"><ele>371.0</ele><time>2026-04-29T08:24:38.839Z</time></trkpt><trkpt lat="38.0036967" lon="12.7117383"><ele>371.0</ele><time>2026-04-29T08:24:39.837Z</time></trkpt><trkpt lat="38.0036817" lon="12.71193"><ele>371.0</ele><time>2026-04-29T08:24:40.838Z</time></trkpt><trkpt lat="38.0036767" lon="12.71214"><ele>370.33333333333337</ele><time>2026-04-29T08:24:41.839Z</time></trkpt><trkpt lat="38.0036767" lon="12.71235"><ele>369.6666666666667</ele><time>2026-04-29T08:24:42.84Z</time></trkpt><trkpt lat="38.003685" lon="12.7125483"><ele>369.0</ele><time>2026-04-29T08:24:43.839Z</time></trkpt><trkpt lat="38.0036967" lon="12.71274"><ele>368.0</ele><time>2026-04-29T08:24:44.841Z</time></trkpt><trkpt lat="38.003715" lon="12.7129267"><ele>367.0</ele><time>2026-04-29T08:24:45.838Z</time></trkpt><trkpt lat="38.003745" lon="12.7131017"><ele>366.0</ele><time>2026-04-29T08:24:46.839Z</time></trkpt><trkpt lat="38.0037733" lon="12.7132667"><ele>365.0</ele><time>2026-04-29T08:24:47.836Z</time></trkpt><trkpt lat="38.0037867" lon="12.7134283"><ele>363.5</ele><time>2026-04-29T08:24:48.838Z</time></trkpt><trkpt lat="38.0037817" lon="12.7135867"><ele>362.0</ele><time>2026-04-29T08:24:49.848Z</time></trkpt><trkpt lat="38.0037583" lon="12.7137467"><ele>360.5</ele><time>2026-04-29T08:24:50.838Z</time></trkpt><trkpt lat="38.0037217" lon="12.71391"><ele>359.0</ele><time>2026-04-29T08:24:51.842Z</time></trkpt><trkpt lat="38.00367" lon="12.7140783"><ele>359.0</ele><time>2026-04-29T08:24:52.837Z</time></trkpt><trkpt lat="38.0036117" lon="12.7142417"><ele>359.0</ele><time>2026-04-29T08:24:53.836Z</time></trkpt><trkpt lat="38.0035533" lon="12.7143967"><ele>359.0</ele><time>2026-04-29T08:24:54.836Z</time></trkpt><trkpt lat="38.0035033" lon="12.7145483"><ele>359.0</ele><time>2026-04-29T08:24:55.838Z</time></trkpt><trkpt lat="38.0034667" lon="12.714715"><ele>357.33333333333337</ele><time>2026-04-29T08:24:56.838Z</time></trkpt><trkpt lat="38.0034367" lon="12.7148967"><ele>355.6666666666667</ele><time>2026-04-29T08:24:57.839Z</time></trkpt><trkpt lat="38.003415" lon="12.7150967"><ele>354.0</ele><time>2026-04-29T08:24:58.836Z</time></trkpt><trkpt lat="38.0034" lon="12.7153133"><ele>353.0</ele><time>2026-04-29T08:24:59.837Z</time></trkpt><trkpt lat="38.00339" lon="12.715525"><ele>352.0</ele><time>2026-04-29T08:25:00.838Z</time></trkpt><trkpt lat="38.003385" lon="12.715715"><ele>351.0</ele><time>2026-04-29T08:25:01.84Z</time></trkpt><trkpt lat="38.0033783" lon="12.715885"><ele>351.0</ele><time>2026-04-29T08:25:02.837Z</time></trkpt><trkpt lat="38.00337" lon="12.7160317"><ele>351.0</ele><time>2026-04-29T08:25:03.837Z</time></trkpt><trkpt lat="38.0033533" lon="12.7161483"><ele>351.0</ele><time>2026-04-29T08:25:04.84Z</time></trkpt><trkpt lat="38.0033333" lon="12.7162317"><ele>351.0</ele><time>2026-04-29T08:25:05.837Z</time></trkpt><trkpt lat="38.0033017" lon="12.7163283"><ele>351.0</ele><time>2026-04-29T08:25:07.837Z</time></trkpt><trkpt lat="38.0033583" lon="12.7163683"><ele>351.0</ele><time>2026-04-29T08:25:10.843Z</time></trkpt><trkpt lat="38.003445" lon="12.7162667"><ele>351.0</ele><time>2026-04-29T08:25:12.842Z</time></trkpt><trkpt lat="38.0035017" lon="12.71616"><ele>351.0</ele><time>2026-04-29T08:25:13.839Z</time></trkpt><trkpt lat="38.00357" lon="12.71601"><ele>351.0</ele><time>2026-04-29T08:25:14.842Z</time></trkpt><trkpt lat="38.003645" lon="12.7158283"><ele>351.0</ele><time>2026-04-29T08:25:15.867Z</time></trkpt><trkpt lat="38.003725" lon="12.7156267"><ele>351.0</ele><time>2026-04-29T08:25:16.836Z</time></trkpt><trkpt lat="38.0038117" lon="12.7154133"><ele>351.0</ele><time>2026-04-29T08:25:17.836Z</time></trkpt><trkpt lat="38.0038983" lon="12.7151867"><ele>351.0</ele><time>2026-04-29T08:25:18.836Z</time></trkpt><trkpt lat="38.0039917" lon="12.7149517"><ele>352.0</ele><time>2026-04-29T08:25:19.837Z</time></trkpt><trkpt lat="38.0040867" lon="12.7147083"><ele>353.0</ele><time>2026-04-29T08:25:20.836Z</time></trkpt><trkpt lat="38.0041733" lon="12.7144717"><ele>354.0</ele><time>2026-04-29T08:25:21.837Z</time></trkpt><trkpt lat="38.004255" lon="12.71425"><ele>352.0</ele><time>2026-04-29T08:25:22.84Z</time></trkpt><trkpt lat="38.004335" lon="12.714035"><ele>350.0</ele><time>2026-04-29T08:25:23.838Z</time></trkpt><trkpt lat="38.0044117" lon="12.7138267"><ele>348.0</ele><time>2026-04-29T08:25:24.844Z</time></trkpt><trkpt lat="38.00448" lon="12.71362"><ele>348.6666666666667</ele><time>2026-04-29T08:25:25.842Z</time></trkpt><trkpt lat="38.0045467" lon="12.713405"><ele>349.33333333333337</ele><time>2026-04-29T08:25:26.844Z</time></trkpt><trkpt lat="38.00461" lon="12.7131817"><ele>350.0</ele><time>2026-04-29T08:25:27.84Z</time></trkpt><trkpt lat="38.0046683" lon="12.7129483"><ele>351.33333333333337</ele><time>2026-04-29T08:25:28.848Z</time></trkpt><trkpt lat="38.0047233" lon="12.712705"><ele>352.6666666666667</ele><time>2026-04-29T08:25:29.841Z</time></trkpt><trkpt lat="38.0047817" lon="12.712465"><ele>354.0</ele><time>2026-04-29T08:25:30.84Z</time></trkpt><trkpt lat="38.0048417" lon="12.7122433"><ele>354.0</ele><time>2026-04-29T08:25:31.842Z</time></trkpt><trkpt lat="38.0049033" lon="12.712035"><ele>354.0</ele><time>2026-04-29T08:25:32.844Z</time></trkpt><trkpt lat="38.004965" lon="12.7118367"><ele>354.0</ele><time>2026-04-29T08:25:33.84Z</time></trkpt><trkpt lat="38.0050233" lon="12.7116533"><ele>354.25</ele><time>2026-04-29T08:25:34.84Z</time></trkpt><trkpt lat="38.0050767" lon="12.7114867"><ele>354.5</ele><time>2026-04-29T08:25:35.857Z</time></trkpt><trkpt lat="38.00512" lon="12.7113383"><ele>354.75</ele><time>2026-04-29T08:25:36.838Z</time></trkpt><trkpt lat="38.00515" lon="12.7112017"><ele>355.0</ele><time>2026-04-29T08:25:37.842Z</time></trkpt><trkpt lat="38.00517" lon="12.711055"><ele>355.0</ele><time>2026-04-29T08:25:38.841Z</time></trkpt><trkpt lat="38.0051817" lon="12.71088"><ele>355.0</ele><time>2026-04-29T08:25:39.843Z</time></trkpt><trkpt lat="38.0051883" lon="12.710675"><ele>355.0</ele><time>2026-04-29T08:25:40.852Z</time></trkpt><trkpt lat="38.0051917" lon="12.7104483"><ele>354.0</ele><time>2026-04-29T08:25:41.838Z</time></trkpt><trkpt lat="38.0052017" lon="12.7102067"><ele>353.0</ele><time>2026-04-29T08:25:42.839Z</time></trkpt><trkpt lat="38.0052133" lon="12.7099517"><ele>352.0</ele><time>2026-04-29T08:25:43.838Z</time></trkpt><trkpt lat="38.0052283" lon="12.7096933"><ele>352.0</ele><time>2026-04-29T08:25:44.839Z</time></trkpt><trkpt lat="38.0052433" lon="12.7094433"><ele>352.0</ele><time>2026-04-29T08:25:45.845Z</time></trkpt><trkpt lat="38.0052583" lon="12.7092067"><ele>352.0</ele><time>2026-04-29T08:25:46.841Z</time></trkpt><trkpt lat="38.005275" lon="12.70898"><ele>351.3333333333333</ele><time>2026-04-29T08:25:47.843Z</time></trkpt><trkpt lat="38.0052933" lon="12.7087633"><ele>350.6666666666667</ele><time>2026-04-29T08:25:48.842Z</time></trkpt><trkpt lat="38.0053067" lon="12.7085533"><ele>350.0</ele><time>2026-04-29T08:25:49.839Z</time></trkpt><trkpt lat="38.0053167" lon="12.7083483"><ele>349.33333333333337</ele><time>2026-04-29T08:25:50.842Z</time></trkpt><trkpt lat="38.005325" lon="12.7081467"><ele>348.6666666666667</ele><time>2026-04-29T08:25:51.841Z</time></trkpt><trkpt lat="38.0053333" lon="12.7079383"><ele>348.0</ele><time>2026-04-29T08:25:52.846Z</time></trkpt><trkpt lat="38.0053367" lon="12.7077183"><ele>346.0</ele><time>2026-04-29T08:25:53.841Z</time></trkpt><trkpt lat="38.00534" lon="12.707485"><ele>344.0</ele><time>2026-04-29T08:25:54.841Z</time></trkpt><trkpt lat="38.0053417" lon="12.7072433"><ele>342.0</ele><time>2026-04-29T08:25:55.841Z</time></trkpt><trkpt lat="38.0053433" lon="12.707005"><ele>339.6666666666667</ele><time>2026-04-29T08:25:56.839Z</time></trkpt><trkpt lat="38.005345" lon="12.7067717"><ele>337.33333333333337</ele><time>2026-04-29T08:25:57.836Z</time></trkpt><trkpt lat="38.0053433" lon="12.706545"><ele>335.0</ele><time>2026-04-29T08:25:58.843Z</time></trkpt><trkpt lat="38.0053367" lon="12.7063283"><ele>335.0</ele><time>2026-04-29T08:25:59.841Z</time></trkpt><trkpt lat="38.00533" lon="12.7061217"><ele>335.0</ele><time>2026-04-29T08:26:00.842Z</time></trkpt><trkpt lat="38.005325" lon="12.705925"><ele>335.0</ele><time>2026-04-29T08:26:01.84Z</time></trkpt><trkpt lat="38.0053217" lon="12.7057483"><ele>333.75</ele><time>2026-04-29T08:26:02.842Z</time></trkpt><trkpt lat="38.0053183" lon="12.705585"><ele>332.5</ele><time>2026-04-29T08:26:03.837Z</time></trkpt><trkpt lat="38.0053167" lon="12.705425"><ele>331.25</ele><time>2026-04-29T08:26:04.84Z</time></trkpt><trkpt lat="38.0053133" lon="12.7052733"><ele>330.0</ele><time>2026-04-29T08:26:05.838Z</time></trkpt><trkpt lat="38.0053083" lon="12.7051367"><ele>329.2</ele><time>2026-04-29T08:26:06.841Z</time></trkpt><trkpt lat="38.005305" lon="12.705025"><ele>328.4</ele><time>2026-04-29T08:26:07.84Z</time></trkpt><trkpt lat="38.0053167" lon="12.7049067"><ele>327.6</ele><time>2026-04-29T08:26:09.841Z</time></trkpt><trkpt lat="38.0054083" lon="12.7049617"><ele>326.8</ele><time>2026-04-29T08:26:12.838Z</time></trkpt><trkpt lat="38.0054583" lon="12.7050583"><ele>326.0</ele><time>2026-04-29T08:26:13.839Z</time></trkpt><trkpt lat="38.0055267" lon="12.7052083"><ele>327.33333333333337</ele><time>2026-04-29T08:26:14.844Z</time></trkpt><trkpt lat="38.005615" lon="12.70539"><ele>328.6666666666667</ele><time>2026-04-29T08:26:15.842Z</time></trkpt><trkpt lat="38.005715" lon="12.7055867"><ele>330.0</ele><time>2026-04-29T08:26:16.842Z</time></trkpt><trkpt lat="38.0058133" lon="12.7057783"><ele>327.5</ele><time>2026-04-29T08:26:17.841Z</time></trkpt><trkpt lat="38.0058983" lon="12.7059433"><ele>325.0</ele><time>2026-04-29T08:26:18.838Z</time></trkpt><trkpt lat="38.0059733" lon="12.7060867"><ele>322.5</ele><time>2026-04-29T08:26:19.84Z</time></trkpt><trkpt lat="38.006045" lon="12.7062117"><ele>320.0</ele><time>2026-04-29T08:26:20.841Z</time></trkpt><trkpt lat="38.0061283" lon="12.7063217"><ele>320.0</ele><time>2026-04-29T08:26:21.841Z</time></trkpt><trkpt lat="38.0062317" lon="12.706425"><ele>320.0</ele><time>2026-04-29T08:26:22.841Z</time></trkpt><trkpt lat="38.0063533" lon="12.706535"><ele>320.0</ele><time>2026-04-29T08:26:23.839Z</time></trkpt><trkpt lat="38.0064917" lon="12.70666"><ele>320.0</ele><time>2026-04-29T08:26:24.841Z</time></trkpt><trkpt lat="38.0066333" lon="12.7067933"><ele>320.0</ele><time>2026-04-29T08:26:25.84Z</time></trkpt><trkpt lat="38.00677" lon="12.70692"><ele>320.0</ele><time>2026-04-29T08:26:26.845Z</time></trkpt><trkpt lat="38.0069" lon="12.7070433"><ele>316.33333333333337</ele><time>2026-04-29T08:26:27.838Z</time></trkpt><trkpt lat="38.0070283" lon="12.7071667"><ele>312.6666666666667</ele><time>2026-04-29T08:26:28.843Z</time></trkpt><trkpt lat="38.0071583" lon="12.7072867"><ele>309.0</ele><time>2026-04-29T08:26:29.84Z</time></trkpt><trkpt lat="38.0072867" lon="12.7073983"><ele>309.0</ele><time>2026-04-29T08:26:30.84Z</time></trkpt><trkpt lat="38.0074167" lon="12.7074967"><ele>309.0</ele><time>2026-04-29T08:26:31.839Z</time></trkpt><trkpt lat="38.007565" lon="12.7075833"><ele>309.0</ele><time>2026-04-29T08:26:32.841Z</time></trkpt><trkpt lat="38.0077317" lon="12.7076633"><ele>306.6666666666667</ele><time>2026-04-29T08:26:33.838Z</time></trkpt><trkpt lat="38.0079167" lon="12.7077433"><ele>304.33333333333337</ele><time>2026-04-29T08:26:34.837Z</time></trkpt><trkpt lat="38.008105" lon="12.70782"><ele>302.0</ele><time>2026-04-29T08:26:35.846Z</time></trkpt><trkpt lat="38.0082883" lon="12.7078917"><ele>299.33333333333337</ele><time>2026-04-29T08:26:36.842Z</time></trkpt><trkpt lat="38.0084583" lon="12.7079583"><ele>296.6666666666667</ele><time>2026-04-29T08:26:37.841Z</time></trkpt><trkpt lat="38.0086167" lon="12.7080183"><ele>294.0</ele><time>2026-04-29T08:26:38.841Z</time></trkpt><trkpt lat="38.008765" lon="12.7080833"><ele>294.0</ele><time>2026-04-29T08:26:39.84Z</time></trkpt><trkpt lat="38.0089017" lon="12.7081567"><ele>294.0</ele><time>2026-04-29T08:26:40.838Z</time></trkpt><trkpt lat="38.0090317" lon="12.7082417"><ele>294.0</ele><time>2026-04-29T08:26:41.838Z</time></trkpt><trkpt lat="38.00916" lon="12.70834"><ele>294.0</ele><time>2026-04-29T08:26:42.843Z</time></trkpt><trkpt lat="38.00929" lon="12.708445"><ele>294.0</ele><time>2026-04-29T08:26:43.842Z</time></trkpt><trkpt lat="38.0094133" lon="12.7085633"><ele>294.0</ele><time>2026-04-29T08:26:44.844Z</time></trkpt><trkpt lat="38.0095283" lon="12.7086867"><ele>294.0</ele><time>2026-04-29T08:26:45.842Z</time></trkpt><trkpt lat="38.0096367" lon="12.70881"><ele>294.0</ele><time>2026-04-29T08:26:46.84Z</time></trkpt><trkpt lat="38.0097317" lon="12.708925"><ele>294.0</ele><time>2026-04-29T08:26:47.839Z</time></trkpt><trkpt lat="38.009815" lon="12.7090367"><ele>294.0</ele><time>2026-04-29T08:26:48.838Z</time></trkpt><trkpt lat="38.0098867" lon="12.709155"><ele>294.0</ele><time>2026-04-29T08:26:49.842Z</time></trkpt><trkpt lat="38.0099483" lon="12.7092933"><ele>290.75</ele><time>2026-04-29T08:26:50.842Z</time></trkpt><trkpt lat="38.010005" lon="12.7094567"><ele>287.5</ele><time>2026-04-29T08:26:51.843Z</time></trkpt><trkpt lat="38.0100633" lon="12.7096283"><ele>284.25</ele><time>2026-04-29T08:26:52.841Z</time></trkpt><trkpt lat="38.0101267" lon="12.7097917"><ele>281.0</ele><time>2026-04-29T08:26:53.843Z</time></trkpt><trkpt lat="38.0102083" lon="12.7099383"><ele>281.0</ele><time>2026-04-29T08:26:54.84Z</time></trkpt><trkpt lat="38.0103" lon="12.71007"><ele>281.0</ele><time>2026-04-29T08:26:55.838Z</time></trkpt><trkpt lat="38.0104" lon="12.71019"><ele>281.0</ele><time>2026-04-29T08:26:56.839Z</time></trkpt><trkpt lat="38.010515" lon="12.7103"><ele>281.0</ele><time>2026-04-29T08:26:57.839Z</time></trkpt><trkpt lat="38.0106333" lon="12.710395"><ele>281.0</ele><time>2026-04-29T08:26:58.84Z</time></trkpt><trkpt lat="38.0107517" lon="12.710475"><ele>281.0</ele><time>2026-04-29T08:26:59.841Z</time></trkpt><trkpt lat="38.01087" lon="12.7105367"><ele>281.0</ele><time>2026-04-29T08:27:00.842Z</time></trkpt><trkpt lat="38.0110017" lon="12.71058"><ele>281.0</ele><time>2026-04-29T08:27:01.839Z</time></trkpt><trkpt lat="38.0111517" lon="12.7106083"><ele>278.25</ele><time>2026-04-29T08:27:02.839Z</time></trkpt><trkpt lat="38.0113083" lon="12.7106283"><ele>275.5</ele><time>2026-04-29T08:27:03.838Z</time></trkpt><trkpt lat="38.0114567" lon="12.7106483"><ele>272.75</ele><time>2026-04-29T08:27:04.841Z</time></trkpt><trkpt lat="38.0115883" lon="12.710675"><ele>270.0</ele><time>2026-04-29T08:27:05.842Z</time></trkpt><trkpt lat="38.011705" lon="12.71071"><ele>269.0</ele><time>2026-04-29T08:27:06.842Z</time></trkpt><trkpt lat="38.011805" lon="12.710765"><ele>268.0</ele><time>2026-04-29T08:27:07.84Z</time></trkpt><trkpt lat="38.0118917" lon="12.7108467"><ele>267.0</ele><time>2026-04-29T08:27:08.84Z</time></trkpt><trkpt lat="38.0119617" lon="12.7109517"><ele>266.0</ele><time>2026-04-29T08:27:09.839Z</time></trkpt><trkpt lat="38.0120217" lon="12.711065"><ele>265.0</ele><time>2026-04-29T08:27:10.84Z</time></trkpt><trkpt lat="38.0120717" lon="12.7111717"><ele>265.0</ele><time>2026-04-29T08:27:11.841Z</time></trkpt><trkpt lat="38.0121167" lon="12.7112617"><ele>265.0</ele><time>2026-04-29T08:27:12.841Z</time></trkpt><trkpt lat="38.0121583" lon="12.71133"><ele>265.0</ele><time>2026-04-29T08:27:13.842Z</time></trkpt><trkpt lat="38.0122567" lon="12.71138"><ele>265.0</ele><time>2026-04-29T08:27:15.839Z</time></trkpt><trkpt lat="38.0123233" lon="12.7113483"><ele>265.0</ele><time>2026-04-29T08:27:16.838Z</time></trkpt><trkpt lat="38.0123867" lon="12.71131"><ele>265.0</ele><time>2026-04-29T08:27:17.838Z</time></trkpt><trkpt lat="38.0125" lon="12.7112983"><ele>263.0</ele><time>2026-04-29T08:27:19.842Z</time></trkpt><trkpt lat="38.012555" lon="12.7113467"><ele>261.0</ele><time>2026-04-29T08:27:20.844Z</time></trkpt><trkpt lat="38.0126133" lon="12.7114333"><ele>259.0</ele><time>2026-04-29T08:27:21.84Z</time></trkpt><trkpt lat="38.012675" lon="12.711545"><ele>257.0</ele><time>2026-04-29T08:27:22.843Z</time></trkpt><trkpt lat="38.01276" lon="12.711665"><ele>255.0</ele><time>2026-04-29T08:27:23.841Z</time></trkpt><trkpt lat="38.01287" lon="12.7117767"><ele>255.0</ele><time>2026-04-29T08:27:24.84Z</time></trkpt><trkpt lat="38.0129833" lon="12.711875"><ele>255.0</ele><time>2026-04-29T08:27:25.84Z</time></trkpt><trkpt lat="38.01309" lon="12.711965"><ele>255.0</ele><time>2026-04-29T08:27:26.842Z</time></trkpt><trkpt lat="38.0131833" lon="12.7120617"><ele>255.0</ele><time>2026-04-29T08:27:27.842Z</time></trkpt><trkpt lat="38.013255" lon="12.7121783"><ele>256.25</ele><time>2026-04-29T08:27:28.84Z</time></trkpt><trkpt lat="38.0133117" lon="12.71232"><ele>257.5</ele><time>2026-04-29T08:27:29.842Z</time></trkpt><trkpt lat="38.0133633" lon="12.712485"><ele>258.75</ele><time>2026-04-29T08:27:30.84Z</time></trkpt><trkpt lat="38.0134083" lon="12.71267"><ele>260.0</ele><time>2026-04-29T08:27:31.841Z</time></trkpt><trkpt lat="38.0134417" lon="12.7128667"><ele>255.33333333333334</ele><time>2026-04-29T08:27:32.842Z</time></trkpt><trkpt lat="38.0134567" lon="12.7130667"><ele>250.66666666666669</ele><time>2026-04-29T08:27:33.842Z</time></trkpt><trkpt lat="38.0134667" lon="12.71326"><ele>246.0</ele><time>2026-04-29T08:27:34.843Z</time></trkpt><trkpt lat="38.013485" lon="12.7134517"><ele>246.0</ele><time>2026-04-29T08:27:35.84Z</time></trkpt><trkpt lat="38.013525" lon="12.7136533"><ele>246.0</ele><time>2026-04-29T08:27:36.842Z</time></trkpt><trkpt lat="38.01358" lon="12.7138533"><ele>246.0</ele><time>2026-04-29T08:27:37.849Z</time></trkpt><trkpt lat="38.0136367" lon="12.7140333"><ele>246.0</ele><time>2026-04-29T08:27:38.839Z</time></trkpt><trkpt lat="38.0136883" lon="12.714195"><ele>246.0</ele><time>2026-04-29T08:27:39.837Z</time></trkpt><trkpt lat="38.013735" lon="12.71434"><ele>246.0</ele><time>2026-04-29T08:27:40.839Z</time></trkpt><trkpt lat="38.0137783" lon="12.7144717"><ele>246.0</ele><time>2026-04-29T08:27:41.839Z</time></trkpt><trkpt lat="38.0138017" lon="12.7146017"><ele>243.75</ele><time>2026-04-29T08:27:42.838Z</time></trkpt><trkpt lat="38.0138083" lon="12.714735"><ele>241.5</ele><time>2026-04-29T08:27:43.84Z</time></trkpt><trkpt lat="38.013795" lon="12.7148833"><ele>239.25</ele><time>2026-04-29T08:27:44.841Z</time></trkpt><trkpt lat="38.0137633" lon="12.7150533"><ele>237.0</ele><time>2026-04-29T08:27:45.842Z</time></trkpt><trkpt lat="38.0137167" lon="12.7152433"><ele>234.66666666666669</ele><time>2026-04-29T08:27:46.838Z</time></trkpt><trkpt lat="38.0136683" lon="12.7154533"><ele>232.33333333333334</ele><time>2026-04-29T08:27:47.84Z</time></trkpt><trkpt lat="38.0136117" lon="12.7156833"><ele>230.0</ele><time>2026-04-29T08:27:48.84Z</time></trkpt><trkpt lat="38.0135533" lon="12.7159233"><ele>228.33333333333334</ele><time>2026-04-29T08:27:49.842Z</time></trkpt><trkpt lat="38.0134933" lon="12.716165"><ele>226.66666666666669</ele><time>2026-04-29T08:27:50.841Z</time></trkpt><trkpt lat="38.013435" lon="12.7163983"><ele>225.0</ele><time>2026-04-29T08:27:51.845Z</time></trkpt><trkpt lat="38.013375" lon="12.716615"><ele>224.66666666666669</ele><time>2026-04-29T08:27:52.838Z</time></trkpt><trkpt lat="38.0133183" lon="12.7168217"><ele>224.33333333333334</ele><time>2026-04-29T08:27:53.839Z</time></trkpt><trkpt lat="38.013265" lon="12.7170267"><ele>224.0</ele><time>2026-04-29T08:27:54.844Z</time></trkpt><trkpt lat="38.013215" lon="12.7172333"><ele>224.0</ele><time>2026-04-29T08:27:55.845Z</time></trkpt><trkpt lat="38.0131733" lon="12.717445"><ele>224.0</ele><time>2026-04-29T08:27:56.844Z</time></trkpt><trkpt lat="38.0131367" lon="12.7176567"><ele>224.0</ele><time>2026-04-29T08:27:57.84Z</time></trkpt><trkpt lat="38.0131033" lon="12.71786"><ele>223.25</ele><time>2026-04-29T08:27:58.84Z</time></trkpt><trkpt lat="38.01307" lon="12.7180467"><ele>222.5</ele><time>2026-04-29T08:27:59.838Z</time></trkpt><trkpt lat="38.0130417" lon="12.7182167"><ele>221.75</ele><time>2026-04-29T08:28:00.841Z</time></trkpt><trkpt lat="38.0130183" lon="12.7183667"><ele>221.0</ele><time>2026-04-29T08:28:01.844Z</time></trkpt><trkpt lat="38.0130067" lon="12.7184983"><ele>220.00000000000003</ele><time>2026-04-29T08:28:02.843Z</time></trkpt><trkpt lat="38.013" lon="12.718615"><ele>219.0</ele><time>2026-04-29T08:28:03.843Z</time></trkpt><trkpt lat="38.0129967" lon="12.718715"><ele>218.0</ele><time>2026-04-29T08:28:04.841Z</time></trkpt><trkpt lat="38.0129967" lon="12.7188"><ele>217.0</ele><time>2026-04-29T08:28:05.843Z</time></trkpt><trkpt lat="38.01304" lon="12.7189"><ele>216.00000000000003</ele><time>2026-04-29T08:28:07.838Z</time></trkpt><trkpt lat="38.0131467" lon="12.7188817"><ele>215.0</ele><time>2026-04-29T08:28:09.84Z</time></trkpt><trkpt lat="38.0132117" lon="12.71886"><ele>215.00000000000003</ele><time>2026-04-29T08:28:10.841Z</time></trkpt><trkpt lat="38.0132817" lon="12.7188667"><ele>215.0</ele><time>2026-04-29T08:28:11.842Z</time></trkpt><trkpt lat="38.0133583" lon="12.71891"><ele>215.0</ele><time>2026-04-29T08:28:12.84Z</time></trkpt><trkpt lat="38.01343" lon="12.7189783"><ele>215.0</ele><time>2026-04-29T08:28:13.84Z</time></trkpt><trkpt lat="38.013495" lon="12.71905"><ele>215.00000000000003</ele><time>2026-04-29T08:28:14.839Z</time></trkpt><trkpt lat="38.0135617" lon="12.7191167"><ele>215.0</ele><time>2026-04-29T08:28:15.842Z</time></trkpt><trkpt lat="38.0136417" lon="12.719185"><ele>213.25</ele><time>2026-04-29T08:28:16.841Z</time></trkpt><trkpt lat="38.0137367" lon="12.7192617"><ele>211.5</ele><time>2026-04-29T08:28:17.841Z</time></trkpt><trkpt lat="38.013835" lon="12.719345"><ele>209.75</ele><time>2026-04-29T08:28:18.842Z</time></trkpt><trkpt lat="38.0139267" lon="12.7194317"><ele>208.0</ele><time>2026-04-29T08:28:19.84Z</time></trkpt><trkpt lat="38.0140133" lon="12.7195117"><ele>206.99999999999997</ele><time>2026-04-29T08:28:20.841Z</time></trkpt><trkpt lat="38.0140917" lon="12.7195833"><ele>206.0</ele><time>2026-04-29T08:28:21.84Z</time></trkpt><trkpt lat="38.0141583" lon="12.71964"><ele>205.0</ele><time>2026-04-29T08:28:22.84Z</time></trkpt><trkpt lat="38.0142483" lon="12.7196983"><ele>204.0</ele><time>2026-04-29T08:28:24.845Z</time></trkpt><trkpt lat="38.014305" lon="12.7196433"><ele>202.99999999999997</ele><time>2026-04-29T08:28:26.847Z</time></trkpt><trkpt lat="38.0143367" lon="12.7195717"><ele>202.0</ele><time>2026-04-29T08:28:27.839Z</time></trkpt><trkpt lat="38.0143733" lon="12.7194583"><ele>202.0</ele><time>2026-04-29T08:28:28.84Z</time></trkpt><trkpt lat="38.014415" lon="12.71929"><ele>202.0</ele><time>2026-04-29T08:28:29.84Z</time></trkpt><trkpt lat="38.0144683" lon="12.7190983"><ele>202.0</ele><time>2026-04-29T08:28:30.842Z</time></trkpt><trkpt lat="38.01453" lon="12.7188833"><ele>202.0</ele><time>2026-04-29T08:28:31.84Z</time></trkpt><trkpt lat="38.01459" lon="12.7186533"><ele>202.0</ele><time>2026-04-29T08:28:32.843Z</time></trkpt><trkpt lat="38.014645" lon="12.7184217"><ele>202.0</ele><time>2026-04-29T08:28:33.84Z</time></trkpt><trkpt lat="38.0146933" lon="12.7182167"><ele>203.0</ele><time>2026-04-29T08:28:34.839Z</time></trkpt><trkpt lat="38.0147367" lon="12.7180483"><ele>204.0</ele><time>2026-04-29T08:28:35.838Z</time></trkpt><trkpt lat="38.0147767" lon="12.717915"><ele>205.0</ele><time>2026-04-29T08:28:36.838Z</time></trkpt><trkpt lat="38.01481" lon="12.7178167"><ele>206.0</ele><time>2026-04-29T08:28:37.838Z</time></trkpt><trkpt lat="38.01485" lon="12.7177117"><ele>207.0</ele><time>2026-04-29T08:28:38.842Z</time></trkpt><trkpt lat="38.0149133" lon="12.717575"><ele>205.33333333333331</ele><time>2026-04-29T08:28:39.843Z</time></trkpt><trkpt lat="38.014995" lon="12.7174117"><ele>203.66666666666666</ele><time>2026-04-29T08:28:40.839Z</time></trkpt><trkpt lat="38.0150767" lon="12.717245"><ele>202.0</ele><time>2026-04-29T08:28:41.843Z</time></trkpt><trkpt lat="38.0151517" lon="12.71709"><ele>202.75</ele><time>2026-04-29T08:28:42.842Z</time></trkpt><trkpt lat="38.015275" lon="12.716835"><ele>203.5</ele><time>2026-04-29T08:28:44.844Z</time></trkpt><trkpt lat="38.01534" lon="12.71673"><ele>204.25</ele><time>2026-04-29T08:28:45.84Z</time></trkpt><trkpt lat="38.0154133" lon="12.716645"><ele>205.0</ele><time>2026-04-29T08:28:46.842Z</time></trkpt><trkpt lat="38.015495" lon="12.7165817"><ele>205.0</ele><time>2026-04-29T08:28:47.841Z</time></trkpt><trkpt lat="38.015585" lon="12.7165333"><ele>205.0</ele><time>2026-04-29T08:28:48.845Z</time></trkpt><trkpt lat="38.0156917" lon="12.7165067"><ele>205.0</ele><time>2026-04-29T08:28:49.84Z</time></trkpt><trkpt lat="38.0158117" lon="12.7165133"><ele>205.0</ele><time>2026-04-29T08:28:50.84Z</time></trkpt><trkpt lat="38.0159317" lon="12.7165483"><ele>203.0</ele><time>2026-04-29T08:28:51.844Z</time></trkpt><trkpt lat="38.016045" lon="12.7166133"><ele>201.0</ele><time>2026-04-29T08:28:52.842Z</time></trkpt><trkpt lat="38.016155" lon="12.716705"><ele>199.0</ele><time>2026-04-29T08:28:53.84Z</time></trkpt><trkpt lat="38.0162667" lon="12.7168317"><ele>197.0</ele><time>2026-04-29T08:28:54.841Z</time></trkpt><trkpt lat="38.0163783" lon="12.7169767"><ele>196.66666666666669</ele><time>2026-04-29T08:28:55.84Z</time></trkpt><trkpt lat="38.0164967" lon="12.717125"><ele>196.33333333333331</ele><time>2026-04-29T08:28:56.84Z</time></trkpt><trkpt lat="38.01663" lon="12.7172717"><ele>196.0</ele><time>2026-04-29T08:28:57.839Z</time></trkpt><trkpt lat="38.01677" lon="12.7174167"><ele>195.33333333333331</ele><time>2026-04-29T08:28:58.84Z</time></trkpt><trkpt lat="38.0169083" lon="12.7175567"><ele>194.66666666666669</ele><time>2026-04-29T08:28:59.842Z</time></trkpt><trkpt lat="38.01704" lon="12.7176883"><ele>194.0</ele><time>2026-04-29T08:29:00.844Z</time></trkpt><trkpt lat="38.01716" lon="12.7178067"><ele>193.0</ele><time>2026-04-29T08:29:01.841Z</time></trkpt><trkpt lat="38.017275" lon="12.71791"><ele>192.0</ele><time>2026-04-29T08:29:02.84Z</time></trkpt><trkpt lat="38.01739" lon="12.7179883"><ele>191.0</ele><time>2026-04-29T08:29:03.839Z</time></trkpt><trkpt lat="38.0175117" lon="12.7180433"><ele>190.0</ele><time>2026-04-29T08:29:04.839Z</time></trkpt><trkpt lat="38.0176483" lon="12.7180833"><ele>190.0</ele><time>2026-04-29T08:29:05.839Z</time></trkpt><trkpt lat="38.0178067" lon="12.7181083"><ele>190.0</ele><time>2026-04-29T08:29:06.843Z</time></trkpt><trkpt lat="38.0179767" lon="12.71813"><ele>190.0</ele><time>2026-04-29T08:29:07.843Z</time></trkpt><trkpt lat="38.018155" lon="12.7181417"><ele>188.0</ele><time>2026-04-29T08:29:08.843Z</time></trkpt><trkpt lat="38.0183283" lon="12.718155"><ele>186.0</ele><time>2026-04-29T08:29:09.841Z</time></trkpt><trkpt lat="38.018495" lon="12.7181783"><ele>184.0</ele><time>2026-04-29T08:29:10.84Z</time></trkpt><trkpt lat="38.018655" lon="12.718225"><ele>184.0</ele><time>2026-04-29T08:29:11.848Z</time></trkpt><trkpt lat="38.0188083" lon="12.7183"><ele>184.0</ele><time>2026-04-29T08:29:12.841Z</time></trkpt><trkpt lat="38.0189433" lon="12.718395"><ele>184.0</ele><time>2026-04-29T08:29:13.839Z</time></trkpt><trkpt lat="38.0190683" lon="12.7184933"><ele>182.0</ele><time>2026-04-29T08:29:14.843Z</time></trkpt><trkpt lat="38.019195" lon="12.718575"><ele>180.0</ele><time>2026-04-29T08:29:15.84Z</time></trkpt><trkpt lat="38.0193267" lon="12.7186317"><ele>178.0</ele><time>2026-04-29T08:29:16.838Z</time></trkpt><trkpt lat="38.0194667" lon="12.7186633"><ele>176.0</ele><time>2026-04-29T08:29:17.849Z</time></trkpt><trkpt lat="38.0196217" lon="12.7186717"><ele>176.0</ele><time>2026-04-29T08:29:18.839Z</time></trkpt><trkpt lat="38.0197917" lon="12.7186567"><ele>176.0</ele><time>2026-04-29T08:29:19.855Z</time></trkpt><trkpt lat="38.0199783" lon="12.7186233"><ele>176.0</ele><time>2026-04-29T08:29:20.851Z</time></trkpt><trkpt lat="38.02018" lon="12.71857"><ele>178.5</ele><time>2026-04-29T08:29:21.838Z</time></trkpt><trkpt lat="38.0203917" lon="12.7185033"><ele>181.0</ele><time>2026-04-29T08:29:22.844Z</time></trkpt><trkpt lat="38.02062" lon="12.718425"><ele>180.0</ele><time>2026-04-29T08:29:23.841Z</time></trkpt><trkpt lat="38.0208467" lon="12.71835"><ele>179.0</ele><time>2026-04-29T08:29:24.845Z</time></trkpt><trkpt lat="38.0210617" lon="12.718285"><ele>179.0</ele><time>2026-04-29T08:29:25.84Z</time></trkpt><trkpt lat="38.0212583" lon="12.7182283"><ele>179.0</ele><time>2026-04-29T08:29:26.849Z</time></trkpt><trkpt lat="38.0214417" lon="12.7181783"><ele>179.0</ele><time>2026-04-29T08:29:27.839Z</time></trkpt><trkpt lat="38.0216167" lon="12.7181317"><ele>177.33333333333331</ele><time>2026-04-29T08:29:28.842Z</time></trkpt><trkpt lat="38.0217833" lon="12.7180833"><ele>175.66666666666666</ele><time>2026-04-29T08:29:29.842Z</time></trkpt><trkpt lat="38.02194" lon="12.7180383"><ele>174.0</ele><time>2026-04-29T08:29:30.842Z</time></trkpt><trkpt lat="38.0220883" lon="12.7179983"><ele>174.0</ele><time>2026-04-29T08:29:31.839Z</time></trkpt><trkpt lat="38.0222267" lon="12.7179567"><ele>174.0</ele><time>2026-04-29T08:29:32.839Z</time></trkpt><trkpt lat="38.02236" lon="12.71792"><ele>174.0</ele><time>2026-04-29T08:29:33.844Z</time></trkpt><trkpt lat="38.0224867" lon="12.7178867"><ele>174.0</ele><time>2026-04-29T08:29:34.839Z</time></trkpt><trkpt lat="38.0226083" lon="12.7178567"><ele>173.0</ele><time>2026-04-29T08:29:35.839Z</time></trkpt><trkpt lat="38.022725" lon="12.71783"><ele>172.0</ele><time>2026-04-29T08:29:36.852Z</time></trkpt><trkpt lat="38.0228417" lon="12.717805"><ele>171.0</ele><time>2026-04-29T08:29:37.842Z</time></trkpt><trkpt lat="38.0229583" lon="12.71778"><ele>170.0</ele><time>2026-04-29T08:29:38.843Z</time></trkpt><trkpt lat="38.02308" lon="12.7177567"><ele>170.0</ele><time>2026-04-29T08:29:39.838Z</time></trkpt><trkpt lat="38.0232117" lon="12.71774"><ele>170.0</ele><time>2026-04-29T08:29:40.836Z</time></trkpt><trkpt lat="38.0233517" lon="12.7177317"><ele>170.0</ele><time>2026-04-29T08:29:41.841Z</time></trkpt><trkpt lat="38.0234933" lon="12.71773"><ele>170.0</ele><time>2026-04-29T08:29:42.839Z</time></trkpt><trkpt lat="38.0236283" lon="12.71773"><ele>170.75</ele><time>2026-04-29T08:29:43.836Z</time></trkpt><trkpt lat="38.023755" lon="12.7177283"><ele>171.5</ele><time>2026-04-29T08:29:44.836Z</time></trkpt><trkpt lat="38.0238767" lon="12.7177283"><ele>172.25</ele><time>2026-04-29T08:29:45.837Z</time></trkpt><trkpt lat="38.0239917" lon="12.7177267"><ele>173.0</ele><time>2026-04-29T08:29:46.837Z</time></trkpt><trkpt lat="38.0241067" lon="12.7177267"><ele>172.75</ele><time>2026-04-29T08:29:47.838Z</time></trkpt><trkpt lat="38.0242233" lon="12.717725"><ele>172.5</ele><time>2026-04-29T08:29:48.837Z</time></trkpt><trkpt lat="38.0243433" lon="12.7177233"><ele>172.25</ele><time>2026-04-29T08:29:49.839Z</time></trkpt><trkpt lat="38.02447" lon="12.7177217"><ele>172.0</ele><time>2026-04-29T08:29:50.847Z</time></trkpt><trkpt lat="38.0245933" lon="12.7177183"><ele>172.0</ele><time>2026-04-29T08:29:51.843Z</time></trkpt><trkpt lat="38.0247083" lon="12.71772"><ele>172.0</ele><time>2026-04-29T08:29:52.842Z</time></trkpt><trkpt lat="38.0248167" lon="12.71773"><ele>172.0</ele><time>2026-04-29T08:29:53.84Z</time></trkpt><trkpt lat="38.0249167" lon="12.7177467"><ele>172.0</ele><time>2026-04-29T08:29:54.839Z</time></trkpt><trkpt lat="38.0250133" lon="12.7177733"><ele>172.0</ele><time>2026-04-29T08:29:55.839Z</time></trkpt><trkpt lat="38.0251033" lon="12.71781"><ele>171.0</ele><time>2026-04-29T08:29:56.844Z</time></trkpt><trkpt lat="38.0251883" lon="12.71785"><ele>170.0</ele><time>2026-04-29T08:29:57.84Z</time></trkpt><trkpt lat="38.02527" lon="12.7178983"><ele>169.0</ele><time>2026-04-29T08:29:58.842Z</time></trkpt><trkpt lat="38.025355" lon="12.71796"><ele>168.0</ele><time>2026-04-29T08:29:59.841Z</time></trkpt><trkpt lat="38.025445" lon="12.7180317"><ele>167.0</ele><time>2026-04-29T08:30:00.841Z</time></trkpt><trkpt lat="38.025555" lon="12.7181117"><ele>167.0</ele><time>2026-04-29T08:30:01.841Z</time></trkpt><trkpt lat="38.0256767" lon="12.7181833"><ele>167.0</ele><time>2026-04-29T08:30:02.842Z</time></trkpt><trkpt lat="38.0257983" lon="12.7182383"><ele>167.0</ele><time>2026-04-29T08:30:03.841Z</time></trkpt><trkpt lat="38.025925" lon="12.7182733"><ele>167.0</ele><time>2026-04-29T08:30:04.842Z</time></trkpt><trkpt lat="38.0260567" lon="12.718285"><ele>167.0</ele><time>2026-04-29T08:30:05.843Z</time></trkpt><trkpt lat="38.0261983" lon="12.718275"><ele>167.0</ele><time>2026-04-29T08:30:06.842Z</time></trkpt><trkpt lat="38.0263433" lon="12.7182483"><ele>167.0</ele><time>2026-04-29T08:30:07.837Z</time></trkpt><trkpt lat="38.0264883" lon="12.7182133"><ele>167.0</ele><time>2026-04-29T08:30:08.847Z</time></trkpt><trkpt lat="38.0266267" lon="12.7181783"><ele>166.5</ele><time>2026-04-29T08:30:09.839Z</time></trkpt><trkpt lat="38.0267583" lon="12.7181433"><ele>166.0</ele><time>2026-04-29T08:30:10.845Z</time></trkpt><trkpt lat="38.0268867" lon="12.71811"><ele>165.5</ele><time>2026-04-29T08:30:11.841Z</time></trkpt><trkpt lat="38.0270083" lon="12.7180717"><ele>165.0</ele><time>2026-04-29T08:30:12.841Z</time></trkpt><trkpt lat="38.0271183" lon="12.7180317"><ele>165.0</ele><time>2026-04-29T08:30:13.841Z</time></trkpt><trkpt lat="38.0272167" lon="12.717995"><ele>165.0</ele><time>2026-04-29T08:30:14.842Z</time></trkpt><trkpt lat="38.02732" lon="12.71796"><ele>165.0</ele><time>2026-04-29T08:30:15.84Z</time></trkpt><trkpt lat="38.02744" lon="12.7179167"><ele>165.0</ele><time>2026-04-29T08:30:16.838Z</time></trkpt><trkpt lat="38.0275783" lon="12.717865"><ele>165.0</ele><time>2026-04-29T08:30:17.838Z</time></trkpt><trkpt lat="38.0277383" lon="12.7178133"><ele>165.0</ele><time>2026-04-29T08:30:18.841Z</time></trkpt><trkpt lat="38.0279083" lon="12.7177617"><ele>165.0</ele><time>2026-04-29T08:30:19.843Z</time></trkpt><trkpt lat="38.02808" lon="12.7177117"><ele>165.0</ele><time>2026-04-29T08:30:20.84Z</time></trkpt><trkpt lat="38.0282433" lon="12.7176633"><ele>165.0</ele><time>2026-04-29T08:30:21.84Z</time></trkpt><trkpt lat="38.0284" lon="12.717615"><ele>165.0</ele><time>2026-04-29T08:30:22.841Z</time></trkpt><trkpt lat="38.028555" lon="12.7175683"><ele>163.75</ele><time>2026-04-29T08:30:23.839Z</time></trkpt><trkpt lat="38.0287067" lon="12.71752"><ele>162.5</ele><time>2026-04-29T08:30:24.839Z</time></trkpt><trkpt lat="38.0288483" lon="12.71747"><ele>161.25</ele><time>2026-04-29T08:30:25.841Z</time></trkpt><trkpt lat="38.0289867" lon="12.717425"><ele>160.0</ele><time>2026-04-29T08:30:26.845Z</time></trkpt><trkpt lat="38.0291233" lon="12.71739"><ele>158.75</ele><time>2026-04-29T08:30:27.842Z</time></trkpt><trkpt lat="38.029265" lon="12.71737"><ele>157.5</ele><time>2026-04-29T08:30:28.84Z</time></trkpt><trkpt lat="38.02941" lon="12.7173633"><ele>156.25</ele><time>2026-04-29T08:30:29.838Z</time></trkpt><trkpt lat="38.0295517" lon="12.7173667"><ele>155.0</ele><time>2026-04-29T08:30:30.847Z</time></trkpt><trkpt lat="38.0296867" lon="12.7173683"><ele>155.0</ele><time>2026-04-29T08:30:31.839Z</time></trkpt><trkpt lat="38.0298167" lon="12.7173667"><ele>155.0</ele><time>2026-04-29T08:30:32.841Z</time></trkpt><trkpt lat="38.0299433" lon="12.7173567"><ele>155.0</ele><time>2026-04-29T08:30:33.84Z</time></trkpt><trkpt lat="38.03007" lon="12.7173317"><ele>155.0</ele><time>2026-04-29T08:30:34.842Z</time></trkpt><trkpt lat="38.030205" lon="12.7172867"><ele>154.0</ele><time>2026-04-29T08:30:35.841Z</time></trkpt><trkpt lat="38.030355" lon="12.717215"><ele>153.0</ele><time>2026-04-29T08:30:36.84Z</time></trkpt><trkpt lat="38.0305217" lon="12.71713"><ele>152.0</ele><time>2026-04-29T08:30:37.839Z</time></trkpt><trkpt lat="38.030705" lon="12.71704"><ele>151.5</ele><time>2026-04-29T08:30:38.84Z</time></trkpt><trkpt lat="38.0309167" lon="12.716945"><ele>151.0</ele><time>2026-04-29T08:30:39.843Z</time></trkpt><trkpt lat="38.0311367" lon="12.7168483"><ele>151.0</ele><time>2026-04-29T08:30:40.84Z</time></trkpt><trkpt lat="38.031345" lon="12.7167517"><ele>151.0</ele><time>2026-04-29T08:30:41.841Z</time></trkpt><trkpt lat="38.031545" lon="12.71666"><ele>151.0</ele><time>2026-04-29T08:30:42.846Z</time></trkpt><trkpt lat="38.0317317" lon="12.7165717"><ele>151.0</ele><time>2026-04-29T08:30:43.84Z</time></trkpt><trkpt lat="38.0319133" lon="12.716495"><ele>151.0</ele><time>2026-04-29T08:30:44.842Z</time></trkpt><trkpt lat="38.0320983" lon="12.716425"><ele>151.0</ele><time>2026-04-29T08:30:45.838Z</time></trkpt><trkpt lat="38.0322933" lon="12.7163617"><ele>150.0</ele><time>2026-04-29T08:30:46.839Z</time></trkpt><trkpt lat="38.0324933" lon="12.71631"><ele>149.0</ele><time>2026-04-29T08:30:47.841Z</time></trkpt><trkpt lat="38.0326833" lon="12.7162633"><ele>148.0</ele><time>2026-04-29T08:30:48.839Z</time></trkpt><trkpt lat="38.032865" lon="12.7162217"><ele>148.0</ele><time>2026-04-29T08:30:49.841Z</time></trkpt><trkpt lat="38.0330383" lon="12.7161783"><ele>148.0</ele><time>2026-04-29T08:30:50.841Z</time></trkpt><trkpt lat="38.0333517" lon="12.7161"><ele>146.75</ele><time>2026-04-29T08:30:52.842Z</time></trkpt><trkpt lat="38.033485" lon="12.7160683"><ele>145.5</ele><time>2026-04-29T08:30:53.836Z</time></trkpt><trkpt lat="38.0336017" lon="12.7160383"><ele>144.25</ele><time>2026-04-29T08:30:54.839Z</time></trkpt><trkpt lat="38.033705" lon="12.71601"><ele>143.0</ele><time>2026-04-29T08:30:55.842Z</time></trkpt><trkpt lat="38.0337967" lon="12.7159867"><ele>143.0</ele><time>2026-04-29T08:30:56.842Z</time></trkpt><trkpt lat="38.03387" lon="12.7159717"><ele>143.0</ele><time>2026-04-29T08:30:57.842Z</time></trkpt><trkpt lat="38.0339817" lon="12.7159433"><ele>143.0</ele><time>2026-04-29T08:30:59.839Z</time></trkpt><trkpt lat="38.0340633" lon="12.7159233"><ele>143.0</ele><time>2026-04-29T08:31:01.841Z</time></trkpt><trkpt lat="38.034155" lon="12.7159083"><ele>143.0</ele><time>2026-04-29T08:31:37.846Z</time></trkpt><trkpt lat="38.0342833" lon="12.715895"><ele>142.8</ele><time>2026-04-29T08:31:39.841Z</time></trkpt><trkpt lat="38.03435" lon="12.7158617"><ele>142.60000000000002</ele><time>2026-04-29T08:31:40.843Z</time></trkpt><trkpt lat="38.03442" lon="12.7158117"><ele>142.39999999999998</ele><time>2026-04-29T08:31:41.85Z</time></trkpt><trkpt lat="38.0344933" lon="12.7157383"><ele>142.2</ele><time>2026-04-29T08:31:42.838Z</time></trkpt><trkpt lat="38.0345667" lon="12.7156467"><ele>142.0</ele><time>2026-04-29T08:31:43.84Z</time></trkpt><trkpt lat="38.0346367" lon="12.7155417"><ele>142.0</ele><time>2026-04-29T08:31:44.843Z</time></trkpt><trkpt lat="38.0347067" lon="12.715425"><ele>142.0</ele><time>2026-04-29T08:31:45.842Z</time></trkpt><trkpt lat="38.0347767" lon="12.715305"><ele>142.0</ele><time>2026-04-29T08:31:46.843Z</time></trkpt><trkpt lat="38.034845" lon="12.71518"><ele>142.0</ele><time>2026-04-29T08:31:47.84Z</time></trkpt><trkpt lat="38.03492" lon="12.715055"><ele>141.5</ele><time>2026-04-29T08:31:48.84Z</time></trkpt><trkpt lat="38.0349933" lon="12.7149283"><ele>141.0</ele><time>2026-04-29T08:31:49.843Z</time></trkpt><trkpt lat="38.0350667" lon="12.7148033"><ele>140.5</ele><time>2026-04-29T08:31:50.84Z</time></trkpt><trkpt lat="38.0351417" lon="12.7146783"><ele>140.0</ele><time>2026-04-29T08:31:51.841Z</time></trkpt><trkpt lat="38.035215" lon="12.7145567"><ele>140.0</ele><time>2026-04-29T08:31:52.846Z</time></trkpt><trkpt lat="38.035285" lon="12.7144383"><ele>140.0</ele><time>2026-04-29T08:31:53.84Z</time></trkpt><trkpt lat="38.0353517" lon="12.7143283"><ele>140.0</ele><time>2026-04-29T08:31:54.842Z</time></trkpt><trkpt lat="38.0354183" lon="12.714225"><ele>140.0</ele><time>2026-04-29T08:31:55.84Z</time></trkpt><trkpt lat="38.0354833" lon="12.7141183"><ele>140.0</ele><time>2026-04-29T08:31:56.839Z</time></trkpt><trkpt lat="38.0355483" lon="12.71401"><ele>139.6</ele><time>2026-04-29T08:31:57.839Z</time></trkpt><trkpt lat="38.0356167" lon="12.7138983"><ele>139.2</ele><time>2026-04-29T08:31:58.852Z</time></trkpt><trkpt lat="38.0356833" lon="12.7137867"><ele>138.8</ele><time>2026-04-29T08:31:59.841Z</time></trkpt><trkpt lat="38.0357483" lon="12.713675"><ele>138.4</ele><time>2026-04-29T08:32:00.841Z</time></trkpt><trkpt lat="38.0358117" lon="12.7135633"><ele>138.0</ele><time>2026-04-29T08:32:01.842Z</time></trkpt><trkpt lat="38.0358733" lon="12.7134533"><ele>137.75</ele><time>2026-04-29T08:32:02.842Z</time></trkpt><trkpt lat="38.0359367" lon="12.7133383"><ele>137.5</ele><time>2026-04-29T08:32:03.844Z</time></trkpt><trkpt lat="38.0360067" lon="12.7132167"><ele>137.25</ele><time>2026-04-29T08:32:04.842Z</time></trkpt><trkpt lat="38.0360783" lon="12.7130917"><ele>137.0</ele><time>2026-04-29T08:32:05.84Z</time></trkpt><trkpt lat="38.0361517" lon="12.712965"><ele>137.0</ele><time>2026-04-29T08:32:06.844Z</time></trkpt><trkpt lat="38.036225" lon="12.7128417"><ele>137.0</ele><time>2026-04-29T08:32:07.842Z</time></trkpt><trkpt lat="38.0362933" lon="12.7127233"><ele>137.0</ele><time>2026-04-29T08:32:08.843Z</time></trkpt><trkpt lat="38.0363567" lon="12.71261"><ele>137.0</ele><time>2026-04-29T08:32:09.841Z</time></trkpt><trkpt lat="38.03642" lon="12.7124983"><ele>136.25</ele><time>2026-04-29T08:32:10.838Z</time></trkpt><trkpt lat="38.0364833" lon="12.7123817"><ele>135.5</ele><time>2026-04-29T08:32:11.838Z</time></trkpt><trkpt lat="38.03655" lon="12.7122617"><ele>134.75</ele><time>2026-04-29T08:32:12.839Z</time></trkpt><trkpt lat="38.03662" lon="12.7121417"><ele>134.0</ele><time>2026-04-29T08:32:13.841Z</time></trkpt><trkpt lat="38.0366933" lon="12.7120133"><ele>133.0</ele><time>2026-04-29T08:32:14.841Z</time></trkpt><trkpt lat="38.0367667" lon="12.7118833"><ele>132.0</ele><time>2026-04-29T08:32:15.843Z</time></trkpt><trkpt lat="38.0368433" lon="12.7117483"><ele>131.0</ele><time>2026-04-29T08:32:16.838Z</time></trkpt><trkpt lat="38.0369217" lon="12.7116083"><ele>130.0</ele><time>2026-04-29T08:32:17.84Z</time></trkpt><trkpt lat="38.037005" lon="12.7114567"><ele>130.0</ele><time>2026-04-29T08:32:18.84Z</time></trkpt><trkpt lat="38.0370967" lon="12.7112917"><ele>130.0</ele><time>2026-04-29T08:32:19.839Z</time></trkpt><trkpt lat="38.037195" lon="12.71111"><ele>130.0</ele><time>2026-04-29T08:32:20.841Z</time></trkpt><trkpt lat="38.0373017" lon="12.710915"><ele>130.33333333333334</ele><time>2026-04-29T08:32:21.843Z</time></trkpt><trkpt lat="38.0374083" lon="12.71071"><ele>130.66666666666666</ele><time>2026-04-29T08:32:22.841Z</time></trkpt><trkpt lat="38.0375167" lon="12.71049"><ele>131.0</ele><time>2026-04-29T08:32:23.842Z</time></trkpt><trkpt lat="38.0376217" lon="12.7102583"><ele>131.66666666666666</ele><time>2026-04-29T08:32:24.84Z</time></trkpt><trkpt lat="38.0377267" lon="12.7100133"><ele>132.33333333333334</ele><time>2026-04-29T08:32:25.84Z</time></trkpt><trkpt lat="38.0378267" lon="12.7097567"><ele>133.0</ele><time>2026-04-29T08:32:26.841Z</time></trkpt><trkpt lat="38.0379217" lon="12.709485"><ele>134.0</ele><time>2026-04-29T08:32:27.843Z</time></trkpt><trkpt lat="38.0380183" lon="12.7092"><ele>135.0</ele><time>2026-04-29T08:32:28.844Z</time></trkpt><trkpt lat="38.038115" lon="12.7089067"><ele>135.0</ele><time>2026-04-29T08:32:29.842Z</time></trkpt><trkpt lat="38.038215" lon="12.70861"><ele>135.0</ele><time>2026-04-29T08:32:30.841Z</time></trkpt><trkpt lat="38.0383133" lon="12.7083133"><ele>132.0</ele><time>2026-04-29T08:32:31.84Z</time></trkpt><trkpt lat="38.038415" lon="12.708015"><ele>129.0</ele><time>2026-04-29T08:32:32.845Z</time></trkpt><trkpt lat="38.0385167" lon="12.707715"><ele>128.5</ele><time>2026-04-29T08:32:33.84Z</time></trkpt><trkpt lat="38.0386167" lon="12.707415"><ele>128.0</ele><time>2026-04-29T08:32:34.842Z</time></trkpt><trkpt lat="38.0387167" lon="12.7071133"><ele>128.5</ele><time>2026-04-29T08:32:35.852Z</time></trkpt><trkpt lat="38.0388167" lon="12.70681"><ele>129.0</ele><time>2026-04-29T08:32:36.837Z</time></trkpt><trkpt lat="38.038915" lon="12.7065033"><ele>129.0</ele><time>2026-04-29T08:32:37.846Z</time></trkpt><trkpt lat="38.0390133" lon="12.7061967"><ele>129.0</ele><time>2026-04-29T08:32:38.842Z</time></trkpt><trkpt lat="38.0391133" lon="12.7058883"><ele>127.0</ele><time>2026-04-29T08:32:39.84Z</time></trkpt><trkpt lat="38.0392167" lon="12.7055817"><ele>125.0</ele><time>2026-04-29T08:32:40.84Z</time></trkpt><trkpt lat="38.0393183" lon="12.705275"><ele>125.0</ele><time>2026-04-29T08:32:41.842Z</time></trkpt><trkpt lat="38.0394217" lon="12.704965"><ele>125.0</ele><time>2026-04-29T08:32:42.844Z</time></trkpt><trkpt lat="38.0395233" lon="12.704655"><ele>126.0</ele><time>2026-04-29T08:32:43.842Z</time></trkpt><trkpt lat="38.0396267" lon="12.704345"><ele>127.0</ele><time>2026-04-29T08:32:44.842Z</time></trkpt><trkpt lat="38.03973" lon="12.7040383"><ele>127.0</ele><time>2026-04-29T08:32:45.84Z</time></trkpt><trkpt lat="38.0398317" lon="12.703735"><ele>127.0</ele><time>2026-04-29T08:32:46.849Z</time></trkpt><trkpt lat="38.0399317" lon="12.70343"><ele>126.5</ele><time>2026-04-29T08:32:47.839Z</time></trkpt><trkpt lat="38.040025" lon="12.7031233"><ele>126.0</ele><time>2026-04-29T08:32:48.841Z</time></trkpt><trkpt lat="38.040115" lon="12.7028167"><ele>128.5</ele><time>2026-04-29T08:32:49.845Z</time></trkpt><trkpt lat="38.0402" lon="12.7025133"><ele>131.0</ele><time>2026-04-29T08:32:50.849Z</time></trkpt><trkpt lat="38.04028" lon="12.7022167"><ele>131.0</ele><time>2026-04-29T08:32:51.845Z</time></trkpt><trkpt lat="38.0403567" lon="12.701935"><ele>131.0</ele><time>2026-04-29T08:32:52.84Z</time></trkpt><trkpt lat="38.0404283" lon="12.7016667"><ele>131.33333333333331</ele><time>2026-04-29T08:32:53.845Z</time></trkpt><trkpt lat="38.0404933" lon="12.701415"><ele>131.66666666666666</ele><time>2026-04-29T08:32:54.839Z</time></trkpt><trkpt lat="38.0405567" lon="12.7011767"><ele>132.0</ele><time>2026-04-29T08:32:55.842Z</time></trkpt><trkpt lat="38.0406183" lon="12.7009433"><ele>131.0</ele><time>2026-04-29T08:32:56.846Z</time></trkpt><trkpt lat="38.04068" lon="12.7007133"><ele>130.0</ele><time>2026-04-29T08:32:57.842Z</time></trkpt><trkpt lat="38.0407367" lon="12.7004883"><ele>129.0</ele><time>2026-04-29T08:32:58.841Z</time></trkpt><trkpt lat="38.04079" lon="12.70027"><ele>126.66666666666666</ele><time>2026-04-29T08:32:59.841Z</time></trkpt><trkpt lat="38.04085" lon="12.7000717"><ele>124.33333333333333</ele><time>2026-04-29T08:33:00.84Z</time></trkpt><trkpt lat="38.040905" lon="12.6999017"><ele>122.0</ele><time>2026-04-29T08:33:01.841Z</time></trkpt><trkpt lat="38.04102" lon="12.6995983"><ele>122.0</ele><time>2026-04-29T08:33:03.84Z</time></trkpt><trkpt lat="38.0410783" lon="12.6994583"><ele>122.0</ele><time>2026-04-29T08:33:04.842Z</time></trkpt><trkpt lat="38.0411383" lon="12.6993233"><ele>122.0</ele><time>2026-04-29T08:33:05.841Z</time></trkpt><trkpt lat="38.0411933" lon="12.6991983"><ele>122.0</ele><time>2026-04-29T08:33:06.842Z</time></trkpt><trkpt lat="38.041245" lon="12.6990833"><ele>122.33333333333333</ele><time>2026-04-29T08:33:07.841Z</time></trkpt><trkpt lat="38.0412917" lon="12.6989767"><ele>122.66666666666666</ele><time>2026-04-29T08:33:08.839Z</time></trkpt><trkpt lat="38.04133" lon="12.698885"><ele>123.0</ele><time>2026-04-29T08:33:09.842Z</time></trkpt><trkpt lat="38.04136" lon="12.6987983"><ele>123.33333333333334</ele><time>2026-04-29T08:33:10.84Z</time></trkpt><trkpt lat="38.0413917" lon="12.6987117"><ele>123.66666666666667</ele><time>2026-04-29T08:33:11.844Z</time></trkpt><trkpt lat="38.0414267" lon="12.6986267"><ele>124.0</ele><time>2026-04-29T08:33:12.842Z</time></trkpt><trkpt lat="38.04146" lon="12.698545"><ele>124.16666666666667</ele><time>2026-04-29T08:33:13.842Z</time></trkpt><trkpt lat="38.0414917" lon="12.69846"><ele>124.33333333333334</ele><time>2026-04-29T08:33:14.84Z</time></trkpt><trkpt lat="38.041525" lon="12.6983683"><ele>124.5</ele><time>2026-04-29T08:33:15.842Z</time></trkpt><trkpt lat="38.0415617" lon="12.6982683"><ele>124.66666666666666</ele><time>2026-04-29T08:33:16.841Z</time></trkpt><trkpt lat="38.0416" lon="12.6981717"><ele>124.83333333333333</ele><time>2026-04-29T08:33:17.842Z</time></trkpt><trkpt lat="38.0416333" lon="12.698085"><ele>125.0</ele><time>2026-04-29T08:33:18.842Z</time></trkpt><trkpt lat="38.04166" lon="12.6980033"><ele>124.33333333333333</ele><time>2026-04-29T08:33:19.842Z</time></trkpt><trkpt lat="38.0416867" lon="12.6979133"><ele>123.66666666666666</ele><time>2026-04-29T08:33:20.843Z</time></trkpt><trkpt lat="38.0417117" lon="12.6978233"><ele>123.0</ele><time>2026-04-29T08:33:21.842Z</time></trkpt><trkpt lat="38.0417367" lon="12.6977317"><ele>122.33333333333334</ele><time>2026-04-29T08:33:22.846Z</time></trkpt><trkpt lat="38.0417567" lon="12.6976467"><ele>121.66666666666667</ele><time>2026-04-29T08:33:23.84Z</time></trkpt><trkpt lat="38.041775" lon="12.6975533"><ele>121.0</ele><time>2026-04-29T08:33:24.839Z</time></trkpt><trkpt lat="38.0417917" lon="12.6974483"><ele>121.0</ele><time>2026-04-29T08:33:25.843Z</time></trkpt><trkpt lat="38.041805" lon="12.6973267"><ele>121.0</ele><time>2026-04-29T08:33:26.845Z</time></trkpt><trkpt lat="38.0418217" lon="12.69717"><ele>121.0</ele><time>2026-04-29T08:33:27.845Z</time></trkpt><trkpt lat="38.041855" lon="12.6969933"><ele>121.0</ele><time>2026-04-29T08:33:28.842Z</time></trkpt><trkpt lat="38.0418967" lon="12.69681"><ele>121.0</ele><time>2026-04-29T08:33:29.845Z</time></trkpt><trkpt lat="38.04193" lon="12.6966267"><ele>121.0</ele><time>2026-04-29T08:33:30.839Z</time></trkpt><trkpt lat="38.04197" lon="12.6964217"><ele>121.0</ele><time>2026-04-29T08:33:31.839Z</time></trkpt><trkpt lat="38.0420133" lon="12.696215"><ele>121.66666666666667</ele><time>2026-04-29T08:33:32.842Z</time></trkpt><trkpt lat="38.0420517" lon="12.696015"><ele>122.33333333333334</ele><time>2026-04-29T08:33:33.841Z</time></trkpt><trkpt lat="38.0420867" lon="12.695815"><ele>123.0</ele><time>2026-04-29T08:33:34.846Z</time></trkpt><trkpt lat="38.042125" lon="12.6956117"><ele>123.0</ele><time>2026-04-29T08:33:35.841Z</time></trkpt><trkpt lat="38.04216" lon="12.69541"><ele>123.0</ele><time>2026-04-29T08:33:36.84Z</time></trkpt><trkpt lat="38.0421983" lon="12.6952183"><ele>123.0</ele><time>2026-04-29T08:33:37.838Z</time></trkpt><trkpt lat="38.04223" lon="12.6950433"><ele>123.0</ele><time>2026-04-29T08:33:38.841Z</time></trkpt><trkpt lat="38.04225" lon="12.6948683"><ele>123.0</ele><time>2026-04-29T08:33:39.841Z</time></trkpt><trkpt lat="38.0422733" lon="12.6946717"><ele>123.0</ele><time>2026-04-29T08:33:40.842Z</time></trkpt><trkpt lat="38.0423017" lon="12.6944467"><ele>123.66666666666666</ele><time>2026-04-29T08:33:41.843Z</time></trkpt><trkpt lat="38.04234" lon="12.6941933"><ele>124.33333333333333</ele><time>2026-04-29T08:33:42.844Z</time></trkpt><trkpt lat="38.0423867" lon="12.693915"><ele>125.0</ele><time>2026-04-29T08:33:43.839Z</time></trkpt><trkpt lat="38.0424317" lon="12.693615"><ele>121.0</ele><time>2026-04-29T08:33:44.843Z</time></trkpt><trkpt lat="38.042475" lon="12.6932867"><ele>117.0</ele><time>2026-04-29T08:33:45.839Z</time></trkpt><trkpt lat="38.0425233" lon="12.692945"><ele>117.0</ele><time>2026-04-29T08:33:46.841Z</time></trkpt><trkpt lat="38.0425733" lon="12.6926017"><ele>117.0</ele><time>2026-04-29T08:33:47.838Z</time></trkpt><trkpt lat="38.04262" lon="12.6922617"><ele>116.5</ele><time>2026-04-29T08:33:48.846Z</time></trkpt><trkpt lat="38.0426683" lon="12.6919167"><ele>116.0</ele><time>2026-04-29T08:33:49.842Z</time></trkpt><trkpt lat="38.04272" lon="12.691575"><ele>116.0</ele><time>2026-04-29T08:33:50.841Z</time></trkpt><trkpt lat="38.0427717" lon="12.69123"><ele>116.0</ele><time>2026-04-29T08:33:51.846Z</time></trkpt><trkpt lat="38.0428183" lon="12.6908883"><ele>117.0</ele><time>2026-04-29T08:33:52.841Z</time></trkpt><trkpt lat="38.0428683" lon="12.69055"><ele>118.0</ele><time>2026-04-29T08:33:53.845Z</time></trkpt><trkpt lat="38.042915" lon="12.6902133"><ele>118.5</ele><time>2026-04-29T08:33:54.843Z</time></trkpt><trkpt lat="38.04296" lon="12.6898833"><ele>119.0</ele><time>2026-04-29T08:33:55.841Z</time></trkpt><trkpt lat="38.0430033" lon="12.6895633"><ele>119.0</ele><time>2026-04-29T08:33:56.841Z</time></trkpt><trkpt lat="38.0430483" lon="12.68926"><ele>119.0</ele><time>2026-04-29T08:33:57.839Z</time></trkpt><trkpt lat="38.0430883" lon="12.6889733"><ele>119.0</ele><time>2026-04-29T08:33:58.84Z</time></trkpt><trkpt lat="38.043125" lon="12.6887033"><ele>119.0</ele><time>2026-04-29T08:33:59.839Z</time></trkpt><trkpt lat="38.0431583" lon="12.6884467"><ele>119.0</ele><time>2026-04-29T08:34:00.849Z</time></trkpt><trkpt lat="38.0431767" lon="12.688195"><ele>121.0</ele><time>2026-04-29T08:34:01.842Z</time></trkpt><trkpt lat="38.043185" lon="12.6879517"><ele>123.0</ele><time>2026-04-29T08:34:02.843Z</time></trkpt><trkpt lat="38.0431767" lon="12.6877217"><ele>125.0</ele><time>2026-04-29T08:34:03.84Z</time></trkpt><trkpt lat="38.0431617" lon="12.6875117"><ele>125.0</ele><time>2026-04-29T08:34:04.84Z</time></trkpt><trkpt lat="38.043145" lon="12.6873217"><ele>125.0</ele><time>2026-04-29T08:34:05.838Z</time></trkpt><trkpt lat="38.043125" lon="12.687155"><ele>125.0</ele><time>2026-04-29T08:34:06.841Z</time></trkpt><trkpt lat="38.0431067" lon="12.6870033"><ele>125.0</ele><time>2026-04-29T08:34:07.842Z</time></trkpt><trkpt lat="38.0431033" lon="12.686875"><ele>124.99999999999999</ele><time>2026-04-29T08:34:08.844Z</time></trkpt><trkpt lat="38.04312" lon="12.686765"><ele>125.0</ele><time>2026-04-29T08:34:09.841Z</time></trkpt><trkpt lat="38.043155" lon="12.68667"><ele>125.0</ele><time>2026-04-29T08:34:10.844Z</time></trkpt><trkpt lat="38.043205" lon="12.6865867"><ele>125.0</ele><time>2026-04-29T08:34:11.84Z</time></trkpt><trkpt lat="38.04327" lon="12.68653"><ele>124.99999999999999</ele><time>2026-04-29T08:34:12.841Z</time></trkpt><trkpt lat="38.0433433" lon="12.6864967"><ele>125.0</ele><time>2026-04-29T08:34:13.837Z</time></trkpt><trkpt lat="38.0434283" lon="12.6864783"><ele>122.5</ele><time>2026-04-29T08:34:14.841Z</time></trkpt><trkpt lat="38.0435333" lon="12.6864717"><ele>120.0</ele><time>2026-04-29T08:34:15.837Z</time></trkpt><trkpt lat="38.04366" lon="12.6864817"><ele>117.5</ele><time>2026-04-29T08:34:16.842Z</time></trkpt><trkpt lat="38.0438033" lon="12.6865033"><ele>115.0</ele><time>2026-04-29T08:34:17.844Z</time></trkpt><trkpt lat="38.0439583" lon="12.6865267"><ele>115.0</ele><time>2026-04-29T08:34:18.842Z</time></trkpt><trkpt lat="38.0441283" lon="12.6865517"><ele>115.0</ele><time>2026-04-29T08:34:19.841Z</time></trkpt><trkpt lat="38.044305" lon="12.68657"><ele>115.0</ele><time>2026-04-29T08:34:20.841Z</time></trkpt><trkpt lat="38.0444983" lon="12.68658"><ele>112.33333333333334</ele><time>2026-04-29T08:34:21.84Z</time></trkpt><trkpt lat="38.0447083" lon="12.686595"><ele>109.66666666666666</ele><time>2026-04-29T08:34:22.84Z</time></trkpt><trkpt lat="38.0449317" lon="12.6866283"><ele>107.0</ele><time>2026-04-29T08:34:23.842Z</time></trkpt><trkpt lat="38.0451617" lon="12.6866733"><ele>106.5</ele><time>2026-04-29T08:34:24.843Z</time></trkpt><trkpt lat="38.0454017" lon="12.6867233"><ele>106.0</ele><time>2026-04-29T08:34:25.841Z</time></trkpt><trkpt lat="38.0456517" lon="12.6867683"><ele>103.5</ele><time>2026-04-29T08:34:26.841Z</time></trkpt><trkpt lat="38.0459083" lon="12.68681"><ele>101.0</ele><time>2026-04-29T08:34:27.837Z</time></trkpt><trkpt lat="38.0461683" lon="12.68685"><ele>101.0</ele><time>2026-04-29T08:34:28.84Z</time></trkpt><trkpt lat="38.0464333" lon="12.686885"><ele>101.0</ele><time>2026-04-29T08:34:29.84Z</time></trkpt><trkpt lat="38.046705" lon="12.6869183"><ele>102.0</ele><time>2026-04-29T08:34:30.837Z</time></trkpt><trkpt lat="38.0469783" lon="12.6869567"><ele>103.0</ele><time>2026-04-29T08:34:31.838Z</time></trkpt><trkpt lat="38.04725" lon="12.6869983"><ele>104.5</ele><time>2026-04-29T08:34:32.837Z</time></trkpt><trkpt lat="38.047525" lon="12.6870383"><ele>106.0</ele><time>2026-04-29T08:34:33.841Z</time></trkpt><trkpt lat="38.0478033" lon="12.68708"><ele>106.0</ele><time>2026-04-29T08:34:34.842Z</time></trkpt><trkpt lat="38.0480817" lon="12.6871183"><ele>106.0</ele><time>2026-04-29T08:34:35.837Z</time></trkpt><trkpt lat="38.0483617" lon="12.6871567"><ele>106.0</ele><time>2026-04-29T08:34:36.838Z</time></trkpt><trkpt lat="38.0486433" lon="12.687195"><ele>106.0</ele><time>2026-04-29T08:34:37.837Z</time></trkpt><trkpt lat="38.048925" lon="12.6872317"><ele>105.5</ele><time>2026-04-29T08:34:38.845Z</time></trkpt><trkpt lat="38.0492083" lon="12.6872683"><ele>105.0</ele><time>2026-04-29T08:34:39.841Z</time></trkpt><trkpt lat="38.0494933" lon="12.68731"><ele>105.0</ele><time>2026-04-29T08:34:40.841Z</time></trkpt><trkpt lat="38.0497817" lon="12.68735"><ele>105.0</ele><time>2026-04-29T08:34:41.84Z</time></trkpt><trkpt lat="38.0500683" lon="12.6873933"><ele>106.0</ele><time>2026-04-29T08:34:42.841Z</time></trkpt><trkpt lat="38.050355" lon="12.68743"><ele>107.0</ele><time>2026-04-29T08:34:43.84Z</time></trkpt><trkpt lat="38.0506433" lon="12.68747"><ele>106.5</ele><time>2026-04-29T08:34:44.84Z</time></trkpt><trkpt lat="38.0509283" lon="12.6875117"><ele>106.0</ele><time>2026-04-29T08:34:45.841Z</time></trkpt><trkpt lat="38.05121" lon="12.6875583"><ele>106.0</ele><time>2026-04-29T08:34:46.842Z</time></trkpt><trkpt lat="38.05147" lon="12.6875983"><ele>106.0</ele><time>2026-04-29T08:34:47.842Z</time></trkpt><trkpt lat="38.051715" lon="12.6876383"><ele>106.0</ele><time>2026-04-29T08:34:48.842Z</time></trkpt><trkpt lat="38.0519433" lon="12.6876733"><ele>106.0</ele><time>2026-04-29T08:34:49.841Z</time></trkpt><trkpt lat="38.05216" lon="12.6877017"><ele>106.0</ele><time>2026-04-29T08:34:50.842Z</time></trkpt><trkpt lat="38.0523767" lon="12.6877217"><ele>108.5</ele><time>2026-04-29T08:34:51.843Z</time></trkpt><trkpt lat="38.0526" lon="12.68774"><ele>111.0</ele><time>2026-04-29T08:34:52.842Z</time></trkpt><trkpt lat="38.0528333" lon="12.68776"><ele>110.5</ele><time>2026-04-29T08:34:53.845Z</time></trkpt><trkpt lat="38.0530733" lon="12.6877817"><ele>110.0</ele><time>2026-04-29T08:34:54.845Z</time></trkpt><trkpt lat="38.0533217" lon="12.687815"><ele>111.0</ele><time>2026-04-29T08:34:55.84Z</time></trkpt><trkpt lat="38.0535717" lon="12.68786"><ele>112.0</ele><time>2026-04-29T08:34:56.842Z</time></trkpt><trkpt lat="38.0538233" lon="12.6879083"><ele>112.0</ele><time>2026-04-29T08:34:57.84Z</time></trkpt><trkpt lat="38.0540733" lon="12.68796"><ele>112.0</ele><time>2026-04-29T08:34:58.84Z</time></trkpt><trkpt lat="38.0543283" lon="12.6880017"><ele>114.0</ele><time>2026-04-29T08:34:59.841Z</time></trkpt><trkpt lat="38.0545883" lon="12.6880367"><ele>116.0</ele><time>2026-04-29T08:35:00.842Z</time></trkpt><trkpt lat="38.0548433" lon="12.6880717"><ele>118.0</ele><time>2026-04-29T08:35:01.841Z</time></trkpt><trkpt lat="38.055095" lon="12.68811"><ele>120.0</ele><time>2026-04-29T08:35:02.842Z</time></trkpt><trkpt lat="38.0553417" lon="12.6881467"><ele>120.0</ele><time>2026-04-29T08:35:03.838Z</time></trkpt><trkpt lat="38.0555733" lon="12.6881833"><ele>120.0</ele><time>2026-04-29T08:35:04.84Z</time></trkpt><trkpt lat="38.0557933" lon="12.6882167"><ele>121.33333333333334</ele><time>2026-04-29T08:35:05.841Z</time></trkpt><trkpt lat="38.0559967" lon="12.6882517"><ele>122.66666666666667</ele><time>2026-04-29T08:35:06.846Z</time></trkpt><trkpt lat="38.0561867" lon="12.6882783"><ele>124.0</ele><time>2026-04-29T08:35:07.844Z</time></trkpt><trkpt lat="38.05637" lon="12.6883017"><ele>124.0</ele><time>2026-04-29T08:35:08.842Z</time></trkpt><trkpt lat="38.056555" lon="12.6883267"><ele>124.0</ele><time>2026-04-29T08:35:09.84Z</time></trkpt><trkpt lat="38.056735" lon="12.6883517"><ele>124.0</ele><time>2026-04-29T08:35:10.839Z</time></trkpt><trkpt lat="38.05691" lon="12.688375"><ele>126.0</ele><time>2026-04-29T08:35:11.837Z</time></trkpt><trkpt lat="38.0570767" lon="12.688395"><ele>128.0</ele><time>2026-04-29T08:35:12.844Z</time></trkpt><trkpt lat="38.0572383" lon="12.68841"><ele>130.0</ele><time>2026-04-29T08:35:13.843Z</time></trkpt><trkpt lat="38.0573917" lon="12.68842"><ele>131.5</ele><time>2026-04-29T08:35:14.864Z</time></trkpt><trkpt lat="38.0575383" lon="12.688425"><ele>133.0</ele><time>2026-04-29T08:35:15.841Z</time></trkpt><trkpt lat="38.05767" lon="12.688415"><ele>134.5</ele><time>2026-04-29T08:35:16.844Z</time></trkpt><trkpt lat="38.0577883" lon="12.6883967"><ele>136.0</ele><time>2026-04-29T08:35:17.841Z</time></trkpt><trkpt lat="38.0578967" lon="12.688365"><ele>136.0</ele><time>2026-04-29T08:35:18.843Z</time></trkpt><trkpt lat="38.0580017" lon="12.6883233"><ele>136.0</ele><time>2026-04-29T08:35:19.841Z</time></trkpt><trkpt lat="38.0581133" lon="12.688275"><ele>136.0</ele><time>2026-04-29T08:35:20.846Z</time></trkpt><trkpt lat="38.0582283" lon="12.688215"><ele>136.0</ele><time>2026-04-29T08:35:21.842Z</time></trkpt><trkpt lat="38.0583467" lon="12.6881467"><ele>138.25</ele><time>2026-04-29T08:35:22.84Z</time></trkpt><trkpt lat="38.058465" lon="12.6880683"><ele>140.5</ele><time>2026-04-29T08:35:23.841Z</time></trkpt><trkpt lat="38.058585" lon="12.6879833"><ele>142.75</ele><time>2026-04-29T08:35:24.842Z</time></trkpt><trkpt lat="38.0586983" lon="12.6878917"><ele>145.0</ele><time>2026-04-29T08:35:25.839Z</time></trkpt><trkpt lat="38.05881" lon="12.6877867"><ele>144.0</ele><time>2026-04-29T08:35:26.84Z</time></trkpt><trkpt lat="38.0589183" lon="12.68767"><ele>143.0</ele><time>2026-04-29T08:35:27.842Z</time></trkpt><trkpt lat="38.059025" lon="12.6875383"><ele>142.0</ele><time>2026-04-29T08:35:28.84Z</time></trkpt><trkpt lat="38.05913" lon="12.68739"><ele>141.0</ele><time>2026-04-29T08:35:29.841Z</time></trkpt><trkpt lat="38.0592367" lon="12.6872283"><ele>142.33333333333334</ele><time>2026-04-29T08:35:30.84Z</time></trkpt><trkpt lat="38.0593483" lon="12.6870583"><ele>143.66666666666669</ele><time>2026-04-29T08:35:31.839Z</time></trkpt><trkpt lat="38.0594683" lon="12.6868733"><ele>145.0</ele><time>2026-04-29T08:35:32.838Z</time></trkpt><trkpt lat="38.0596033" lon="12.6866667"><ele>145.0</ele><time>2026-04-29T08:35:33.841Z</time></trkpt><trkpt lat="38.0597583" lon="12.6864583"><ele>145.0</ele><time>2026-04-29T08:35:34.84Z</time></trkpt><trkpt lat="38.0599133" lon="12.6862517"><ele>149.0</ele><time>2026-04-29T08:35:35.841Z</time></trkpt><trkpt lat="38.0600733" lon="12.686045"><ele>153.0</ele><time>2026-04-29T08:35:36.844Z</time></trkpt><trkpt lat="38.0602283" lon="12.685835"><ele>153.0</ele><time>2026-04-29T08:35:37.843Z</time></trkpt><trkpt lat="38.06037" lon="12.685615"><ele>153.0</ele><time>2026-04-29T08:35:38.84Z</time></trkpt><trkpt lat="38.0605017" lon="12.6853817"><ele>149.5</ele><time>2026-04-29T08:35:39.84Z</time></trkpt><trkpt lat="38.060625" lon="12.68514"><ele>146.0</ele><time>2026-04-29T08:35:40.846Z</time></trkpt><trkpt lat="38.0607333" lon="12.6848867"><ele>146.33333333333331</ele><time>2026-04-29T08:35:41.843Z</time></trkpt><trkpt lat="38.0608317" lon="12.6846283"><ele>146.66666666666666</ele><time>2026-04-29T08:35:42.842Z</time></trkpt><trkpt lat="38.060925" lon="12.6843733"><ele>147.0</ele><time>2026-04-29T08:35:43.843Z</time></trkpt><trkpt lat="38.0610133" lon="12.68413"><ele>147.0</ele><time>2026-04-29T08:35:44.843Z</time></trkpt><trkpt lat="38.0611017" lon="12.6839067"><ele>147.0</ele><time>2026-04-29T08:35:45.841Z</time></trkpt><trkpt lat="38.06119" lon="12.6837017"><ele>147.0</ele><time>2026-04-29T08:35:46.844Z</time></trkpt><trkpt lat="38.06128" lon="12.6835167"><ele>147.0</ele><time>2026-04-29T08:35:47.841Z</time></trkpt><trkpt lat="38.0613717" lon="12.6833583"><ele>147.0</ele><time>2026-04-29T08:35:48.842Z</time></trkpt><trkpt lat="38.0614633" lon="12.6832183"><ele>147.0</ele><time>2026-04-29T08:35:49.843Z</time></trkpt><trkpt lat="38.0615533" lon="12.68311"><ele>147.0</ele><time>2026-04-29T08:35:50.843Z</time></trkpt><trkpt lat="38.0616417" lon="12.6830283"><ele>150.2</ele><time>2026-04-29T08:35:51.844Z</time></trkpt><trkpt lat="38.0617283" lon="12.682975"><ele>153.39999999999998</ele><time>2026-04-29T08:35:52.84Z</time></trkpt><trkpt lat="38.0618067" lon="12.6829233"><ele>156.60000000000002</ele><time>2026-04-29T08:35:53.837Z</time></trkpt><trkpt lat="38.0618767" lon="12.682855"><ele>159.8</ele><time>2026-04-29T08:35:54.84Z</time></trkpt><trkpt lat="38.0619367" lon="12.6827667"><ele>163.0</ele><time>2026-04-29T08:35:55.838Z</time></trkpt><trkpt lat="38.061995" lon="12.6826883"><ele>163.57142857142858</ele><time>2026-04-29T08:35:56.84Z</time></trkpt><trkpt lat="38.0620533" lon="12.6826267"><ele>164.14285714285714</ele><time>2026-04-29T08:35:57.843Z</time></trkpt><trkpt lat="38.0621117" lon="12.6825767"><ele>164.71428571428572</ele><time>2026-04-29T08:35:58.842Z</time></trkpt><trkpt lat="38.06217" lon="12.682535"><ele>165.28571428571428</ele><time>2026-04-29T08:35:59.841Z</time></trkpt><trkpt lat="38.0622333" lon="12.6824933"><ele>165.85714285714286</ele><time>2026-04-29T08:36:00.839Z</time></trkpt><trkpt lat="38.0623033" lon="12.6824533"><ele>166.42857142857142</ele><time>2026-04-29T08:36:01.839Z</time></trkpt><trkpt lat="38.0623767" lon="12.682415"><ele>167.0</ele><time>2026-04-29T08:36:02.844Z</time></trkpt><trkpt lat="38.0624533" lon="12.6823783"><ele>167.5</ele><time>2026-04-29T08:36:03.842Z</time></trkpt><trkpt lat="38.0625333" lon="12.682345"><ele>168.0</ele><time>2026-04-29T08:36:04.841Z</time></trkpt><trkpt lat="38.0626183" lon="12.682315"><ele>168.5</ele><time>2026-04-29T08:36:05.843Z</time></trkpt><trkpt lat="38.0627067" lon="12.6822917"><ele>169.0</ele><time>2026-04-29T08:36:06.843Z</time></trkpt><trkpt lat="38.062795" lon="12.682275"><ele>169.5</ele><time>2026-04-29T08:36:07.839Z</time></trkpt><trkpt lat="38.0628883" lon="12.68226"><ele>170.0</ele><time>2026-04-29T08:36:08.846Z</time></trkpt><trkpt lat="38.062985" lon="12.6822533"><ele>170.0</ele><time>2026-04-29T08:36:09.84Z</time></trkpt><trkpt lat="38.063085" lon="12.6822483"><ele>170.0</ele><time>2026-04-29T08:36:10.843Z</time></trkpt><trkpt lat="38.0631917" lon="12.6822467"><ele>170.0</ele><time>2026-04-29T08:36:11.842Z</time></trkpt><trkpt lat="38.063295" lon="12.6822533"><ele>170.0</ele><time>2026-04-29T08:36:12.843Z</time></trkpt><trkpt lat="38.0633933" lon="12.6822633"><ele>170.0</ele><time>2026-04-29T08:36:13.841Z</time></trkpt><trkpt lat="38.0634867" lon="12.68228"><ele>170.66666666666666</ele><time>2026-04-29T08:36:14.84Z</time></trkpt><trkpt lat="38.0635783" lon="12.6823017"><ele>171.33333333333331</ele><time>2026-04-29T08:36:15.841Z</time></trkpt><trkpt lat="38.063665" lon="12.6823267"><ele>172.0</ele><time>2026-04-29T08:36:16.839Z</time></trkpt><trkpt lat="38.06374" lon="12.682355"><ele>172.66666666666666</ele><time>2026-04-29T08:36:17.847Z</time></trkpt><trkpt lat="38.0638083" lon="12.68238"><ele>173.33333333333334</ele><time>2026-04-29T08:36:18.84Z</time></trkpt><trkpt lat="38.0638733" lon="12.6824083"><ele>174.0</ele><time>2026-04-29T08:36:19.842Z</time></trkpt><trkpt lat="38.0639467" lon="12.682445"><ele>174.0</ele><time>2026-04-29T08:36:20.842Z</time></trkpt><trkpt lat="38.064045" lon="12.682495"><ele>174.0</ele><time>2026-04-29T08:36:21.843Z</time></trkpt><trkpt lat="38.06417" lon="12.6825667"><ele>174.0</ele><time>2026-04-29T08:36:22.839Z</time></trkpt><trkpt lat="38.0643117" lon="12.6826667"><ele>174.0</ele><time>2026-04-29T08:36:23.837Z</time></trkpt><trkpt lat="38.06447" lon="12.6827983"><ele>176.0</ele><time>2026-04-29T08:36:24.845Z</time></trkpt><trkpt lat="38.0646433" lon="12.682965"><ele>178.0</ele><time>2026-04-29T08:36:25.845Z</time></trkpt><trkpt lat="38.064825" lon="12.6831583"><ele>178.5</ele><time>2026-04-29T08:36:26.848Z</time></trkpt><trkpt lat="38.0650217" lon="12.6833783"><ele>179.0</ele><time>2026-04-29T08:36:27.844Z</time></trkpt><trkpt lat="38.0652267" lon="12.683605"><ele>179.0</ele><time>2026-04-29T08:36:28.842Z</time></trkpt><trkpt lat="38.0654183" lon="12.6838167"><ele>179.0</ele><time>2026-04-29T08:36:29.845Z</time></trkpt><trkpt lat="38.0655917" lon="12.6840083"><ele>179.0</ele><time>2026-04-29T08:36:30.846Z</time></trkpt><trkpt lat="38.0657467" lon="12.6841817"><ele>179.0</ele><time>2026-04-29T08:36:31.841Z</time></trkpt><trkpt lat="38.06589" lon="12.6843383"><ele>179.0</ele><time>2026-04-29T08:36:32.846Z</time></trkpt><trkpt lat="38.0660217" lon="12.6844767"><ele>180.79999999999998</ele><time>2026-04-29T08:36:33.842Z</time></trkpt><trkpt lat="38.0661333" lon="12.6845883"><ele>182.6</ele><time>2026-04-29T08:36:34.842Z</time></trkpt><trkpt lat="38.0662267" lon="12.68467"><ele>184.4</ele><time>2026-04-29T08:36:35.842Z</time></trkpt><trkpt lat="38.066305" lon="12.6847333"><ele>186.2</ele><time>2026-04-29T08:36:36.841Z</time></trkpt><trkpt lat="38.066375" lon="12.684785"><ele>188.0</ele><time>2026-04-29T08:36:37.848Z</time></trkpt><trkpt lat="38.0664383" lon="12.6848283"><ele>188.0</ele><time>2026-04-29T08:36:38.848Z</time></trkpt><trkpt lat="38.0664983" lon="12.6848633"><ele>188.0</ele><time>2026-04-29T08:36:39.843Z</time></trkpt><trkpt lat="38.066585" lon="12.6849067"><ele>188.0</ele><time>2026-04-29T08:36:41.842Z</time></trkpt><trkpt lat="38.0666683" lon="12.6849467"><ele>188.0</ele><time>2026-04-29T08:36:43.844Z</time></trkpt><trkpt lat="38.0667317" lon="12.684975"><ele>188.0</ele><time>2026-04-29T08:36:44.84Z</time></trkpt><trkpt lat="38.06681" lon="12.6849967"><ele>188.0</ele><time>2026-04-29T08:36:45.84Z</time></trkpt><trkpt lat="38.0669067" lon="12.6850133"><ele>190.0</ele><time>2026-04-29T08:36:46.843Z</time></trkpt><trkpt lat="38.0670133" lon="12.6850333"><ele>192.0</ele><time>2026-04-29T08:36:47.842Z</time></trkpt><trkpt lat="38.0671283" lon="12.6850517"><ele>194.0</ele><time>2026-04-29T08:36:48.841Z</time></trkpt><trkpt lat="38.0672483" lon="12.6850667"><ele>196.0</ele><time>2026-04-29T08:36:49.836Z</time></trkpt><trkpt lat="38.0673717" lon="12.6850717"><ele>197.5</ele><time>2026-04-29T08:36:50.845Z</time></trkpt><trkpt lat="38.0675033" lon="12.6850667"><ele>199.0</ele><time>2026-04-29T08:36:51.847Z</time></trkpt><trkpt lat="38.0676433" lon="12.685055"><ele>200.5</ele><time>2026-04-29T08:36:52.838Z</time></trkpt><trkpt lat="38.0677933" lon="12.6850417"><ele>202.0</ele><time>2026-04-29T08:36:53.843Z</time></trkpt><trkpt lat="38.06794" lon="12.6850267"><ele>202.0</ele><time>2026-04-29T08:36:54.84Z</time></trkpt><trkpt lat="38.0680833" lon="12.68501"><ele>202.0</ele><time>2026-04-29T08:36:55.841Z</time></trkpt><trkpt lat="38.068225" lon="12.68499"><ele>202.0</ele><time>2026-04-29T08:36:56.845Z</time></trkpt><trkpt lat="38.0683683" lon="12.6849733"><ele>202.0</ele><time>2026-04-29T08:36:57.839Z</time></trkpt><trkpt lat="38.0685133" lon="12.6849583"><ele>203.66666666666666</ele><time>2026-04-29T08:36:58.839Z</time></trkpt><trkpt lat="38.0686617" lon="12.6849467"><ele>205.33333333333331</ele><time>2026-04-29T08:36:59.838Z</time></trkpt><trkpt lat="38.0688217" lon="12.684935"><ele>207.0</ele><time>2026-04-29T08:37:00.842Z</time></trkpt><trkpt lat="38.0690067" lon="12.6849333"><ele>208.33333333333331</ele><time>2026-04-29T08:37:01.842Z</time></trkpt><trkpt lat="38.0692117" lon="12.68495"><ele>209.66666666666666</ele><time>2026-04-29T08:37:02.852Z</time></trkpt><trkpt lat="38.0694333" lon="12.6849817"><ele>211.0</ele><time>2026-04-29T08:37:03.843Z</time></trkpt><trkpt lat="38.06966" lon="12.6850217"><ele>211.0</ele><time>2026-04-29T08:37:04.841Z</time></trkpt><trkpt lat="38.06988" lon="12.6850583"><ele>211.0</ele><time>2026-04-29T08:37:05.843Z</time></trkpt><trkpt lat="38.0700867" lon="12.6850917"><ele>211.0</ele><time>2026-04-29T08:37:06.842Z</time></trkpt><trkpt lat="38.07028" lon="12.6851217"><ele>211.33333333333331</ele><time>2026-04-29T08:37:07.844Z</time></trkpt><trkpt lat="38.070465" lon="12.6851483"><ele>211.66666666666669</ele><time>2026-04-29T08:37:08.842Z</time></trkpt><trkpt lat="38.0706417" lon="12.6851733"><ele>212.0</ele><time>2026-04-29T08:37:09.841Z</time></trkpt><trkpt lat="38.0708083" lon="12.6851933"><ele>212.0</ele><time>2026-04-29T08:37:10.843Z</time></trkpt><trkpt lat="38.0709633" lon="12.685215"><ele>212.0</ele><time>2026-04-29T08:37:11.842Z</time></trkpt><trkpt lat="38.07111" lon="12.6852417"><ele>212.0</ele><time>2026-04-29T08:37:12.841Z</time></trkpt><trkpt lat="38.07125" lon="12.68528"><ele>212.0</ele><time>2026-04-29T08:37:13.84Z</time></trkpt><trkpt lat="38.07138" lon="12.6853367"><ele>211.0</ele><time>2026-04-29T08:37:14.843Z</time></trkpt><trkpt lat="38.071505" lon="12.68542"><ele>210.0</ele><time>2026-04-29T08:37:15.842Z</time></trkpt><trkpt lat="38.071625" lon="12.6855333"><ele>209.0</ele><time>2026-04-29T08:37:16.844Z</time></trkpt><trkpt lat="38.0717383" lon="12.6856833"><ele>209.0</ele><time>2026-04-29T08:37:17.844Z</time></trkpt><trkpt lat="38.0718433" lon="12.685865"><ele>209.0</ele><time>2026-04-29T08:37:18.843Z</time></trkpt><trkpt lat="38.071945" lon="12.6860767"><ele>209.0</ele><time>2026-04-29T08:37:19.85Z</time></trkpt><trkpt lat="38.0720383" lon="12.6863117"><ele>208.5</ele><time>2026-04-29T08:37:20.84Z</time></trkpt><trkpt lat="38.072135" lon="12.68656"><ele>208.0</ele><time>2026-04-29T08:37:21.843Z</time></trkpt><trkpt lat="38.0722417" lon="12.6868283"><ele>207.5</ele><time>2026-04-29T08:37:22.841Z</time></trkpt><trkpt lat="38.072355" lon="12.687105"><ele>207.0</ele><time>2026-04-29T08:37:23.842Z</time></trkpt><trkpt lat="38.07247" lon="12.6873783"><ele>207.0</ele><time>2026-04-29T08:37:24.845Z</time></trkpt><trkpt lat="38.072595" lon="12.687645"><ele>207.0</ele><time>2026-04-29T08:37:25.842Z</time></trkpt><trkpt lat="38.0727317" lon="12.6879017"><ele>211.5</ele><time>2026-04-29T08:37:26.84Z</time></trkpt><trkpt lat="38.0728817" lon="12.688155"><ele>216.0</ele><time>2026-04-29T08:37:27.84Z</time></trkpt><trkpt lat="38.0730417" lon="12.6883933"><ele>219.5</ele><time>2026-04-29T08:37:28.838Z</time></trkpt><trkpt lat="38.0732" lon="12.6886133"><ele>223.0</ele><time>2026-04-29T08:37:29.845Z</time></trkpt><trkpt lat="38.07335" lon="12.68882"><ele>223.0</ele><time>2026-04-29T08:37:30.844Z</time></trkpt><trkpt lat="38.0734917" lon="12.689025"><ele>223.0</ele><time>2026-04-29T08:37:31.842Z</time></trkpt><trkpt lat="38.073635" lon="12.6892317"><ele>223.0</ele><time>2026-04-29T08:37:32.847Z</time></trkpt><trkpt lat="38.0737767" lon="12.68944"><ele>222.66666666666666</ele><time>2026-04-29T08:37:33.84Z</time></trkpt><trkpt lat="38.0739167" lon="12.6896433"><ele>222.33333333333331</ele><time>2026-04-29T08:37:34.842Z</time></trkpt><trkpt lat="38.0740467" lon="12.68984"><ele>222.0</ele><time>2026-04-29T08:37:35.838Z</time></trkpt><trkpt lat="38.0741717" lon="12.69003"><ele>222.0</ele><time>2026-04-29T08:37:36.838Z</time></trkpt><trkpt lat="38.0742933" lon="12.6902133"><ele>222.0</ele><time>2026-04-29T08:37:37.838Z</time></trkpt><trkpt lat="38.0744133" lon="12.6903917"><ele>222.0</ele><time>2026-04-29T08:37:38.838Z</time></trkpt><trkpt lat="38.07453" lon="12.6905683"><ele>223.66666666666669</ele><time>2026-04-29T08:37:39.843Z</time></trkpt><trkpt lat="38.0746417" lon="12.6907417"><ele>225.33333333333334</ele><time>2026-04-29T08:37:40.843Z</time></trkpt><trkpt lat="38.0747517" lon="12.6909117"><ele>227.0</ele><time>2026-04-29T08:37:41.84Z</time></trkpt><trkpt lat="38.0748633" lon="12.6910717"><ele>228.75</ele><time>2026-04-29T08:37:42.839Z</time></trkpt><trkpt lat="38.0749717" lon="12.6912183"><ele>230.5</ele><time>2026-04-29T08:37:43.84Z</time></trkpt><trkpt lat="38.075075" lon="12.6913483"><ele>232.25</ele><time>2026-04-29T08:37:44.844Z</time></trkpt><trkpt lat="38.0751717" lon="12.6914583"><ele>234.0</ele><time>2026-04-29T08:37:45.844Z</time></trkpt><trkpt lat="38.075265" lon="12.691565"><ele>234.0</ele><time>2026-04-29T08:37:46.842Z</time></trkpt><trkpt lat="38.07536" lon="12.6916717"><ele>234.0</ele><time>2026-04-29T08:37:47.84Z</time></trkpt><trkpt lat="38.075455" lon="12.6917817"><ele>234.0</ele><time>2026-04-29T08:37:48.84Z</time></trkpt><trkpt lat="38.07555" lon="12.6918833"><ele>234.0</ele><time>2026-04-29T08:37:49.841Z</time></trkpt><trkpt lat="38.0756383" lon="12.6919783"><ele>234.6</ele><time>2026-04-29T08:37:50.844Z</time></trkpt><trkpt lat="38.0757217" lon="12.6920633"><ele>235.2</ele><time>2026-04-29T08:37:51.843Z</time></trkpt><trkpt lat="38.0757983" lon="12.6921417"><ele>235.79999999999998</ele><time>2026-04-29T08:37:52.843Z</time></trkpt><trkpt lat="38.075865" lon="12.6922233"><ele>236.39999999999998</ele><time>2026-04-29T08:37:53.841Z</time></trkpt><trkpt lat="38.0759267" lon="12.6923017"><ele>237.0</ele><time>2026-04-29T08:37:54.839Z</time></trkpt><trkpt lat="38.0759817" lon="12.6923733"><ele>237.5</ele><time>2026-04-29T08:37:55.842Z</time></trkpt><trkpt lat="38.076035" lon="12.6924333"><ele>238.0</ele><time>2026-04-29T08:37:56.841Z</time></trkpt><trkpt lat="38.0760883" lon="12.692495"><ele>238.5</ele><time>2026-04-29T08:37:57.847Z</time></trkpt><trkpt lat="38.0761383" lon="12.6925533"><ele>239.0</ele><time>2026-04-29T08:37:58.842Z</time></trkpt><trkpt lat="38.0761883" lon="12.692605"><ele>239.5</ele><time>2026-04-29T08:37:59.841Z</time></trkpt><trkpt lat="38.0762717" lon="12.6927167"><ele>240.0</ele><time>2026-04-29T08:38:01.844Z</time></trkpt><trkpt lat="38.0763017" lon="12.6927917"><ele>240.8</ele><time>2026-04-29T08:38:02.841Z</time></trkpt><trkpt lat="38.0763217" lon="12.69289"><ele>241.6</ele><time>2026-04-29T08:38:03.839Z</time></trkpt><trkpt lat="38.0763383" lon="12.69301"><ele>242.39999999999998</ele><time>2026-04-29T08:38:04.839Z</time></trkpt><trkpt lat="38.0763483" lon="12.693145"><ele>243.2</ele><time>2026-04-29T08:38:05.842Z</time></trkpt><trkpt lat="38.0763617" lon="12.6932833"><ele>244.0</ele><time>2026-04-29T08:38:06.842Z</time></trkpt><trkpt lat="38.07638" lon="12.6934333"><ele>246.0</ele><time>2026-04-29T08:38:07.844Z</time></trkpt><trkpt lat="38.0763967" lon="12.6936067"><ele>248.0</ele><time>2026-04-29T08:38:08.843Z</time></trkpt><trkpt lat="38.0764133" lon="12.6938033"><ele>250.0</ele><time>2026-04-29T08:38:09.839Z</time></trkpt><trkpt lat="38.0764383" lon="12.6940183"><ele>250.0</ele><time>2026-04-29T08:38:10.848Z</time></trkpt><trkpt lat="38.0764617" lon="12.69425"><ele>250.0</ele><time>2026-04-29T08:38:11.84Z</time></trkpt><trkpt lat="38.0764867" lon="12.6945167"><ele>250.0</ele><time>2026-04-29T08:38:12.845Z</time></trkpt><trkpt lat="38.0765167" lon="12.6948133"><ele>253.5</ele><time>2026-04-29T08:38:13.846Z</time></trkpt><trkpt lat="38.076555" lon="12.6951317"><ele>257.0</ele><time>2026-04-29T08:38:14.843Z</time></trkpt><trkpt lat="38.0765967" lon="12.6954583"><ele>258.0</ele><time>2026-04-29T08:38:15.844Z</time></trkpt><trkpt lat="38.07664" lon="12.6957817"><ele>259.0</ele><time>2026-04-29T08:38:16.84Z</time></trkpt><trkpt lat="38.0766817" lon="12.69608"><ele>259.66666666666663</ele><time>2026-04-29T08:38:17.839Z</time></trkpt><trkpt lat="38.0767183" lon="12.696355"><ele>260.3333333333333</ele><time>2026-04-29T08:38:18.841Z</time></trkpt><trkpt lat="38.0767517" lon="12.6966083"><ele>261.0</ele><time>2026-04-29T08:38:19.841Z</time></trkpt><trkpt lat="38.0767867" lon="12.6968383"><ele>263.5</ele><time>2026-04-29T08:38:20.844Z</time></trkpt><trkpt lat="38.07683" lon="12.6970517"><ele>266.0</ele><time>2026-04-29T08:38:21.843Z</time></trkpt><trkpt lat="38.0769867" lon="12.6974733"><ele>266.0</ele><time>2026-04-29T08:38:23.838Z</time></trkpt><trkpt lat="38.0771033" lon="12.6976867"><ele>266.0</ele><time>2026-04-29T08:38:24.838Z</time></trkpt><trkpt lat="38.077245" lon="12.6979"><ele>266.0</ele><time>2026-04-29T08:38:25.838Z</time></trkpt><trkpt lat="38.0774067" lon="12.6981133"><ele>265.5</ele><time>2026-04-29T08:38:26.842Z</time></trkpt><trkpt lat="38.0775733" lon="12.6983233"><ele>265.0</ele><time>2026-04-29T08:38:27.84Z</time></trkpt><trkpt lat="38.07774" lon="12.6985317"><ele>267.0</ele><time>2026-04-29T08:38:28.838Z</time></trkpt><trkpt lat="38.0779067" lon="12.6987383"><ele>269.0</ele><time>2026-04-29T08:38:29.842Z</time></trkpt><trkpt lat="38.0780667" lon="12.6989367"><ele>269.0</ele><time>2026-04-29T08:38:30.849Z</time></trkpt><trkpt lat="38.078215" lon="12.6991267"><ele>269.0</ele><time>2026-04-29T08:38:31.84Z</time></trkpt><trkpt lat="38.0783483" lon="12.6993083"><ele>269.0</ele><time>2026-04-29T08:38:32.84Z</time></trkpt><trkpt lat="38.0784683" lon="12.69949"><ele>268.33333333333337</ele><time>2026-04-29T08:38:33.841Z</time></trkpt><trkpt lat="38.0785683" lon="12.69968"><ele>267.6666666666667</ele><time>2026-04-29T08:38:34.841Z</time></trkpt><trkpt lat="38.0786517" lon="12.69989"><ele>267.0</ele><time>2026-04-29T08:38:35.844Z</time></trkpt><trkpt lat="38.0787267" lon="12.7001233"><ele>266.6666666666667</ele><time>2026-04-29T08:38:36.848Z</time></trkpt><trkpt lat="38.0787983" lon="12.7003767"><ele>266.33333333333337</ele><time>2026-04-29T08:38:37.841Z</time></trkpt><trkpt lat="38.07887" lon="12.700645"><ele>266.0</ele><time>2026-04-29T08:38:38.843Z</time></trkpt><trkpt lat="38.078945" lon="12.7009183"><ele>266.5</ele><time>2026-04-29T08:38:39.84Z</time></trkpt><trkpt lat="38.0790183" lon="12.7011917"><ele>267.0</ele><time>2026-04-29T08:38:40.838Z</time></trkpt><trkpt lat="38.07909" lon="12.7014617"><ele>266.6666666666667</ele><time>2026-04-29T08:38:41.842Z</time></trkpt><trkpt lat="38.0791583" lon="12.70173"><ele>266.33333333333337</ele><time>2026-04-29T08:38:42.843Z</time></trkpt><trkpt lat="38.0792283" lon="12.7019883"><ele>266.0</ele><time>2026-04-29T08:38:43.843Z</time></trkpt><trkpt lat="38.0792933" lon="12.70223"><ele>266.0</ele><time>2026-04-29T08:38:44.842Z</time></trkpt><trkpt lat="38.079355" lon="12.7024583"><ele>266.0</ele><time>2026-04-29T08:38:45.842Z</time></trkpt><trkpt lat="38.07941" lon="12.7026733"><ele>266.0</ele><time>2026-04-29T08:38:46.841Z</time></trkpt><trkpt lat="38.0794633" lon="12.70288"><ele>267.0</ele><time>2026-04-29T08:38:47.84Z</time></trkpt><trkpt lat="38.07951" lon="12.703075"><ele>268.0</ele><time>2026-04-29T08:38:48.84Z</time></trkpt><trkpt lat="38.0795517" lon="12.7032633"><ele>269.0</ele><time>2026-04-29T08:38:49.842Z</time></trkpt><trkpt lat="38.0795867" lon="12.7034533"><ele>269.0</ele><time>2026-04-29T08:38:50.841Z</time></trkpt><trkpt lat="38.07962" lon="12.7036467"><ele>269.0</ele><time>2026-04-29T08:38:51.843Z</time></trkpt><trkpt lat="38.07965" lon="12.7038433"><ele>269.0</ele><time>2026-04-29T08:38:52.84Z</time></trkpt><trkpt lat="38.0796783" lon="12.70404"><ele>269.0</ele><time>2026-04-29T08:38:53.839Z</time></trkpt><trkpt lat="38.0797117" lon="12.70425"><ele>269.0</ele><time>2026-04-29T08:38:54.841Z</time></trkpt><trkpt lat="38.079755" lon="12.7044883"><ele>269.0</ele><time>2026-04-29T08:38:55.841Z</time></trkpt><trkpt lat="38.0798" lon="12.7047567"><ele>269.5</ele><time>2026-04-29T08:38:56.843Z</time></trkpt><trkpt lat="38.079845" lon="12.70504"><ele>270.0</ele><time>2026-04-29T08:38:57.842Z</time></trkpt><trkpt lat="38.0798883" lon="12.7053167"><ele>270.0</ele><time>2026-04-29T08:38:58.841Z</time></trkpt><trkpt lat="38.079925" lon="12.7055767"><ele>270.0</ele><time>2026-04-29T08:38:59.841Z</time></trkpt><trkpt lat="38.0799567" lon="12.705815"><ele>270.0</ele><time>2026-04-29T08:39:00.845Z</time></trkpt><trkpt lat="38.079985" lon="12.7060267"><ele>269.5</ele><time>2026-04-29T08:39:01.846Z</time></trkpt><trkpt lat="38.08001" lon="12.7062217"><ele>269.0</ele><time>2026-04-29T08:39:02.842Z</time></trkpt><trkpt lat="38.080035" lon="12.7064017"><ele>268.5</ele><time>2026-04-29T08:39:03.842Z</time></trkpt><trkpt lat="38.0800567" lon="12.70657"><ele>268.0</ele><time>2026-04-29T08:39:04.865Z</time></trkpt><trkpt lat="38.0800767" lon="12.7067283"><ele>268.0</ele><time>2026-04-29T08:39:05.845Z</time></trkpt><trkpt lat="38.0800967" lon="12.7068883"><ele>268.0</ele><time>2026-04-29T08:39:06.841Z</time></trkpt><trkpt lat="38.080115" lon="12.707055"><ele>268.0</ele><time>2026-04-29T08:39:07.84Z</time></trkpt><trkpt lat="38.0801233" lon="12.7072267"><ele>268.0</ele><time>2026-04-29T08:39:08.841Z</time></trkpt><trkpt lat="38.0801217" lon="12.7073983"><ele>268.25</ele><time>2026-04-29T08:39:09.847Z</time></trkpt><trkpt lat="38.0801033" lon="12.7075667"><ele>268.5</ele><time>2026-04-29T08:39:10.843Z</time></trkpt><trkpt lat="38.0800783" lon="12.7077333"><ele>268.75</ele><time>2026-04-29T08:39:11.844Z</time></trkpt><trkpt lat="38.08005" lon="12.7078933"><ele>269.0</ele><time>2026-04-29T08:39:12.845Z</time></trkpt><trkpt lat="38.08002" lon="12.7080483"><ele>268.5</ele><time>2026-04-29T08:39:13.843Z</time></trkpt><trkpt lat="38.0799883" lon="12.7082033"><ele>268.0</ele><time>2026-04-29T08:39:14.842Z</time></trkpt><trkpt lat="38.0799567" lon="12.708355"><ele>267.5</ele><time>2026-04-29T08:39:15.839Z</time></trkpt><trkpt lat="38.0799333" lon="12.7085067"><ele>267.0</ele><time>2026-04-29T08:39:16.848Z</time></trkpt><trkpt lat="38.079915" lon="12.7086717"><ele>267.0</ele><time>2026-04-29T08:39:17.842Z</time></trkpt><trkpt lat="38.0798983" lon="12.7088617"><ele>267.0</ele><time>2026-04-29T08:39:18.843Z</time></trkpt><trkpt lat="38.0798817" lon="12.7090833"><ele>267.0</ele><time>2026-04-29T08:39:19.841Z</time></trkpt><trkpt lat="38.0798667" lon="12.709325"><ele>266.0</ele><time>2026-04-29T08:39:20.841Z</time></trkpt><trkpt lat="38.079845" lon="12.7095917"><ele>265.0</ele><time>2026-04-29T08:39:21.841Z</time></trkpt><trkpt lat="38.0798183" lon="12.7098817"><ele>264.0</ele><time>2026-04-29T08:39:22.84Z</time></trkpt><trkpt lat="38.0797833" lon="12.7101667"><ele>263.5</ele><time>2026-04-29T08:39:23.842Z</time></trkpt><trkpt lat="38.0797583" lon="12.7104333"><ele>263.0</ele><time>2026-04-29T08:39:24.841Z</time></trkpt><trkpt lat="38.0797183" lon="12.7109067"><ele>263.5</ele><time>2026-04-29T08:39:26.846Z</time></trkpt><trkpt lat="38.079705" lon="12.7110983"><ele>264.0</ele><time>2026-04-29T08:39:27.843Z</time></trkpt><trkpt lat="38.079695" lon="12.7112617"><ele>264.5</ele><time>2026-04-29T08:39:28.842Z</time></trkpt><trkpt lat="38.0796883" lon="12.71141"><ele>265.0</ele><time>2026-04-29T08:39:29.84Z</time></trkpt><trkpt lat="38.0796867" lon="12.711555"><ele>265.0</ele><time>2026-04-29T08:39:30.843Z</time></trkpt><trkpt lat="38.0796933" lon="12.711705"><ele>265.0</ele><time>2026-04-29T08:39:31.84Z</time></trkpt><trkpt lat="38.0797067" lon="12.7118517"><ele>265.0</ele><time>2026-04-29T08:39:32.84Z</time></trkpt><trkpt lat="38.0797283" lon="12.7119983"><ele>265.0</ele><time>2026-04-29T08:39:33.842Z</time></trkpt><trkpt lat="38.079755" lon="12.7121417"><ele>265.75</ele><time>2026-04-29T08:39:34.843Z</time></trkpt><trkpt lat="38.07979" lon="12.712285"><ele>266.5</ele><time>2026-04-29T08:39:35.839Z</time></trkpt><trkpt lat="38.0798217" lon="12.712425"><ele>267.25</ele><time>2026-04-29T08:39:36.841Z</time></trkpt><trkpt lat="38.0798567" lon="12.7125633"><ele>268.0</ele><time>2026-04-29T08:39:37.841Z</time></trkpt><trkpt lat="38.0798933" lon="12.7127"><ele>268.25</ele><time>2026-04-29T08:39:38.846Z</time></trkpt><trkpt lat="38.0799283" lon="12.7128367"><ele>268.5</ele><time>2026-04-29T08:39:39.846Z</time></trkpt><trkpt lat="38.0799633" lon="12.7129717"><ele>268.75</ele><time>2026-04-29T08:39:40.843Z</time></trkpt><trkpt lat="38.08" lon="12.7131067"><ele>269.0</ele><time>2026-04-29T08:39:41.845Z</time></trkpt><trkpt lat="38.0800383" lon="12.7132417"><ele>268.5</ele><time>2026-04-29T08:39:42.841Z</time></trkpt><trkpt lat="38.080075" lon="12.7133783"><ele>268.0</ele><time>2026-04-29T08:39:43.841Z</time></trkpt><trkpt lat="38.0801133" lon="12.713515"><ele>267.5</ele><time>2026-04-29T08:39:44.836Z</time></trkpt><trkpt lat="38.0801533" lon="12.71365"><ele>267.0</ele><time>2026-04-29T08:39:45.84Z</time></trkpt><trkpt lat="38.0801933" lon="12.713785"><ele>267.0</ele><time>2026-04-29T08:39:46.841Z</time></trkpt><trkpt lat="38.0802317" lon="12.7139217"><ele>267.0</ele><time>2026-04-29T08:39:47.836Z</time></trkpt><trkpt lat="38.08027" lon="12.7140583"><ele>267.0</ele><time>2026-04-29T08:39:48.837Z</time></trkpt><trkpt lat="38.0803083" lon="12.714195"><ele>267.0</ele><time>2026-04-29T08:39:49.837Z</time></trkpt><trkpt lat="38.0803483" lon="12.7143333"><ele>267.5</ele><time>2026-04-29T08:39:50.838Z</time></trkpt><trkpt lat="38.0803883" lon="12.71447"><ele>268.0</ele><time>2026-04-29T08:39:51.841Z</time></trkpt><trkpt lat="38.0804283" lon="12.7146083"><ele>268.5</ele><time>2026-04-29T08:39:52.842Z</time></trkpt><trkpt lat="38.0804667" lon="12.714745"><ele>269.0</ele><time>2026-04-29T08:39:53.847Z</time></trkpt><trkpt lat="38.0805033" lon="12.714885"><ele>269.0</ele><time>2026-04-29T08:39:54.844Z</time></trkpt><trkpt lat="38.0805333" lon="12.7150317"><ele>269.0</ele><time>2026-04-29T08:39:55.845Z</time></trkpt><trkpt lat="38.0805567" lon="12.7151917"><ele>269.0</ele><time>2026-04-29T08:39:56.844Z</time></trkpt><trkpt lat="38.080565" lon="12.7153633"><ele>269.0</ele><time>2026-04-29T08:39:57.845Z</time></trkpt><trkpt lat="38.0805567" lon="12.71554"><ele>269.0</ele><time>2026-04-29T08:39:58.84Z</time></trkpt><trkpt lat="38.0805267" lon="12.7157117"><ele>269.0</ele><time>2026-04-29T08:39:59.839Z</time></trkpt><trkpt lat="38.0804767" lon="12.7158917"><ele>269.0</ele><time>2026-04-29T08:40:00.845Z</time></trkpt><trkpt lat="38.0804117" lon="12.716075"><ele>269.0</ele><time>2026-04-29T08:40:01.848Z</time></trkpt><trkpt lat="38.0803383" lon="12.7162583"><ele>269.0</ele><time>2026-04-29T08:40:02.843Z</time></trkpt><trkpt lat="38.0802583" lon="12.7164483"><ele>269.0</ele><time>2026-04-29T08:40:03.842Z</time></trkpt><trkpt lat="38.08016" lon="12.7166383"><ele>269.0</ele><time>2026-04-29T08:40:04.84Z</time></trkpt><trkpt lat="38.080055" lon="12.716825"><ele>268.33333333333337</ele><time>2026-04-29T08:40:05.838Z</time></trkpt><trkpt lat="38.0799433" lon="12.7170117"><ele>267.6666666666667</ele><time>2026-04-29T08:40:06.84Z</time></trkpt><trkpt lat="38.0798317" lon="12.7171983"><ele>267.0</ele><time>2026-04-29T08:40:07.844Z</time></trkpt><trkpt lat="38.0797217" lon="12.7173933"><ele>268.0</ele><time>2026-04-29T08:40:08.844Z</time></trkpt><trkpt lat="38.079625" lon="12.7175967"><ele>269.0</ele><time>2026-04-29T08:40:09.842Z</time></trkpt><trkpt lat="38.0795483" lon="12.7178033"><ele>270.0</ele><time>2026-04-29T08:40:10.844Z</time></trkpt><trkpt lat="38.0794917" lon="12.7180183"><ele>270.0</ele><time>2026-04-29T08:40:11.84Z</time></trkpt><trkpt lat="38.0794483" lon="12.7182467"><ele>270.0</ele><time>2026-04-29T08:40:12.839Z</time></trkpt><trkpt lat="38.0794117" lon="12.71849"><ele>270.0</ele><time>2026-04-29T08:40:13.842Z</time></trkpt><trkpt lat="38.0793833" lon="12.7187317"><ele>269.6666666666667</ele><time>2026-04-29T08:40:14.842Z</time></trkpt><trkpt lat="38.0793567" lon="12.7189583"><ele>269.33333333333337</ele><time>2026-04-29T08:40:15.843Z</time></trkpt><trkpt lat="38.0793267" lon="12.71918"><ele>269.0</ele><time>2026-04-29T08:40:16.843Z</time></trkpt><trkpt lat="38.0792967" lon="12.7193967"><ele>269.0</ele><time>2026-04-29T08:40:17.843Z</time></trkpt><trkpt lat="38.0792717" lon="12.7196017"><ele>269.0</ele><time>2026-04-29T08:40:18.843Z</time></trkpt><trkpt lat="38.0792417" lon="12.7197933"><ele>269.0</ele><time>2026-04-29T08:40:19.85Z</time></trkpt><trkpt lat="38.079205" lon="12.7199783"><ele>269.0</ele><time>2026-04-29T08:40:20.848Z</time></trkpt><trkpt lat="38.0791533" lon="12.7201617"><ele>269.0</ele><time>2026-04-29T08:40:21.842Z</time></trkpt><trkpt lat="38.0790933" lon="12.7203417"><ele>269.0</ele><time>2026-04-29T08:40:22.847Z</time></trkpt><trkpt lat="38.07903" lon="12.7204983"><ele>269.0</ele><time>2026-04-29T08:40:23.844Z</time></trkpt><trkpt lat="38.0789683" lon="12.7206317"><ele>270.75</ele><time>2026-04-29T08:40:24.844Z</time></trkpt><trkpt lat="38.0789067" lon="12.72076"><ele>272.5</ele><time>2026-04-29T08:40:25.841Z</time></trkpt><trkpt lat="38.0788417" lon="12.7208883"><ele>274.25</ele><time>2026-04-29T08:40:26.84Z</time></trkpt><trkpt lat="38.0787783" lon="12.7210167"><ele>276.0</ele><time>2026-04-29T08:40:27.841Z</time></trkpt><trkpt lat="38.0787167" lon="12.7211517"><ele>276.0</ele><time>2026-04-29T08:40:28.842Z</time></trkpt><trkpt lat="38.0786567" lon="12.7212883"><ele>276.0</ele><time>2026-04-29T08:40:29.842Z</time></trkpt><trkpt lat="38.078605" lon="12.7214367"><ele>276.0</ele><time>2026-04-29T08:40:30.845Z</time></trkpt><trkpt lat="38.078565" lon="12.721595"><ele>276.0</ele><time>2026-04-29T08:40:31.841Z</time></trkpt><trkpt lat="38.0785367" lon="12.7217733"><ele>276.6666666666667</ele><time>2026-04-29T08:40:32.842Z</time></trkpt><trkpt lat="38.07852" lon="12.72197"><ele>277.33333333333337</ele><time>2026-04-29T08:40:33.841Z</time></trkpt><trkpt lat="38.0785117" lon="12.722175"><ele>278.0</ele><time>2026-04-29T08:40:34.838Z</time></trkpt><trkpt lat="38.0785067" lon="12.7223867"><ele>278.0</ele><time>2026-04-29T08:40:35.84Z</time></trkpt><trkpt lat="38.0785" lon="12.7226"><ele>278.0</ele><time>2026-04-29T08:40:36.84Z</time></trkpt><trkpt lat="38.078495" lon="12.7228083"><ele>278.0</ele><time>2026-04-29T08:40:37.843Z</time></trkpt><trkpt lat="38.0784883" lon="12.723"><ele>279.0</ele><time>2026-04-29T08:40:38.85Z</time></trkpt><trkpt lat="38.0784833" lon="12.72318"><ele>280.0</ele><time>2026-04-29T08:40:39.844Z</time></trkpt><trkpt lat="38.0784783" lon="12.7233617"><ele>281.0</ele><time>2026-04-29T08:40:40.84Z</time></trkpt><trkpt lat="38.0784733" lon="12.7235483"><ele>282.0</ele><time>2026-04-29T08:40:41.838Z</time></trkpt><trkpt lat="38.0784683" lon="12.7237483"><ele>282.6666666666667</ele><time>2026-04-29T08:40:42.841Z</time></trkpt><trkpt lat="38.0784567" lon="12.7239667"><ele>283.33333333333337</ele><time>2026-04-29T08:40:43.841Z</time></trkpt><trkpt lat="38.0784417" lon="12.724195"><ele>284.0</ele><time>2026-04-29T08:40:44.843Z</time></trkpt><trkpt lat="38.0784183" lon="12.72442"><ele>284.0</ele><time>2026-04-29T08:40:45.848Z</time></trkpt><trkpt lat="38.0783867" lon="12.72464"><ele>284.0</ele><time>2026-04-29T08:40:46.843Z</time></trkpt><trkpt lat="38.07835" lon="12.7248483"><ele>284.0</ele><time>2026-04-29T08:40:47.845Z</time></trkpt><trkpt lat="38.0783067" lon="12.72504"><ele>284.5</ele><time>2026-04-29T08:40:48.841Z</time></trkpt><trkpt lat="38.0782583" lon="12.7252183"><ele>285.0</ele><time>2026-04-29T08:40:49.842Z</time></trkpt><trkpt lat="38.0782067" lon="12.7253967"><ele>285.5</ele><time>2026-04-29T08:40:50.843Z</time></trkpt><trkpt lat="38.0781517" lon="12.7255717"><ele>286.0</ele><time>2026-04-29T08:40:51.843Z</time></trkpt><trkpt lat="38.0781017" lon="12.7257417"><ele>286.0</ele><time>2026-04-29T08:40:52.843Z</time></trkpt><trkpt lat="38.0780533" lon="12.72591"><ele>286.0</ele><time>2026-04-29T08:40:53.844Z</time></trkpt><trkpt lat="38.0779983" lon="12.726075"><ele>286.0</ele><time>2026-04-29T08:40:54.843Z</time></trkpt><trkpt lat="38.0779383" lon="12.7262417"><ele>286.0</ele><time>2026-04-29T08:40:55.845Z</time></trkpt><trkpt lat="38.0778783" lon="12.7264117"><ele>286.66666666666663</ele><time>2026-04-29T08:40:56.842Z</time></trkpt><trkpt lat="38.0778183" lon="12.7265867"><ele>287.3333333333333</ele><time>2026-04-29T08:40:57.848Z</time></trkpt><trkpt lat="38.0777583" lon="12.7267617"><ele>288.0</ele><time>2026-04-29T08:40:58.843Z</time></trkpt><trkpt lat="38.0776967" lon="12.72694"><ele>288.0</ele><time>2026-04-29T08:40:59.843Z</time></trkpt><trkpt lat="38.077635" lon="12.72712"><ele>288.0</ele><time>2026-04-29T08:41:00.842Z</time></trkpt><trkpt lat="38.0775767" lon="12.7273033"><ele>288.0</ele><time>2026-04-29T08:41:01.841Z</time></trkpt><trkpt lat="38.0775167" lon="12.72748"><ele>288.0</ele><time>2026-04-29T08:41:02.84Z</time></trkpt><trkpt lat="38.0774567" lon="12.72765"><ele>288.0</ele><time>2026-04-29T08:41:03.843Z</time></trkpt><trkpt lat="38.077395" lon="12.7278217"><ele>288.0</ele><time>2026-04-29T08:41:04.841Z</time></trkpt><trkpt lat="38.077335" lon="12.727995"><ele>288.0</ele><time>2026-04-29T08:41:05.841Z</time></trkpt><trkpt lat="38.0772717" lon="12.7281733"><ele>289.0</ele><time>2026-04-29T08:41:06.846Z</time></trkpt><trkpt lat="38.07721" lon="12.728355"><ele>290.0</ele><time>2026-04-29T08:41:07.843Z</time></trkpt><trkpt lat="38.0771483" lon="12.72854"><ele>291.0</ele><time>2026-04-29T08:41:08.841Z</time></trkpt><trkpt lat="38.0770817" lon="12.7287333"><ele>291.0</ele><time>2026-04-29T08:41:09.84Z</time></trkpt><trkpt lat="38.0770117" lon="12.7289283"><ele>291.0</ele><time>2026-04-29T08:41:10.84Z</time></trkpt><trkpt lat="38.0769383" lon="12.7291283"><ele>291.0</ele><time>2026-04-29T08:41:11.842Z</time></trkpt><trkpt lat="38.076865" lon="12.729335"><ele>290.6666666666667</ele><time>2026-04-29T08:41:12.856Z</time></trkpt><trkpt lat="38.07679" lon="12.72955"><ele>290.33333333333337</ele><time>2026-04-29T08:41:13.843Z</time></trkpt><trkpt lat="38.0767133" lon="12.7297717"><ele>290.0</ele><time>2026-04-29T08:41:14.842Z</time></trkpt><trkpt lat="38.07664" lon="12.73"><ele>290.6666666666667</ele><time>2026-04-29T08:41:15.841Z</time></trkpt><trkpt lat="38.0765683" lon="12.7302367"><ele>291.3333333333333</ele><time>2026-04-29T08:41:16.848Z</time></trkpt><trkpt lat="38.0764983" lon="12.73048"><ele>292.0</ele><time>2026-04-29T08:41:17.84Z</time></trkpt><trkpt lat="38.0764317" lon="12.7307283"><ele>292.0</ele><time>2026-04-29T08:41:18.842Z</time></trkpt><trkpt lat="38.076365" lon="12.7309783"><ele>292.0</ele><time>2026-04-29T08:41:19.845Z</time></trkpt><trkpt lat="38.0763033" lon="12.7312283"><ele>292.0</ele><time>2026-04-29T08:41:20.85Z</time></trkpt><trkpt lat="38.0762467" lon="12.7314783"><ele>291.66666666666663</ele><time>2026-04-29T08:41:21.846Z</time></trkpt><trkpt lat="38.0761933" lon="12.7317283"><ele>291.3333333333333</ele><time>2026-04-29T08:41:22.842Z</time></trkpt><trkpt lat="38.076145" lon="12.7319733"><ele>291.0</ele><time>2026-04-29T08:41:23.84Z</time></trkpt><trkpt lat="38.0760983" lon="12.7322183"><ele>291.0</ele><time>2026-04-29T08:41:24.841Z</time></trkpt><trkpt lat="38.076055" lon="12.7324633"><ele>291.0</ele><time>2026-04-29T08:41:25.84Z</time></trkpt><trkpt lat="38.0760133" lon="12.7327083"><ele>291.0</ele><time>2026-04-29T08:41:26.843Z</time></trkpt><trkpt lat="38.0759733" lon="12.732955"><ele>291.0</ele><time>2026-04-29T08:41:27.841Z</time></trkpt><trkpt lat="38.0759317" lon="12.7332"><ele>291.0</ele><time>2026-04-29T08:41:28.841Z</time></trkpt><trkpt lat="38.07589" lon="12.7334483"><ele>291.0</ele><time>2026-04-29T08:41:29.844Z</time></trkpt><trkpt lat="38.07585" lon="12.7337083"><ele>290.5</ele><time>2026-04-29T08:41:30.842Z</time></trkpt><trkpt lat="38.07581" lon="12.7339833"><ele>290.0</ele><time>2026-04-29T08:41:31.84Z</time></trkpt><trkpt lat="38.0757667" lon="12.7342717"><ele>292.0</ele><time>2026-04-29T08:41:32.842Z</time></trkpt><trkpt lat="38.0757183" lon="12.7345633"><ele>294.0</ele><time>2026-04-29T08:41:33.841Z</time></trkpt><trkpt lat="38.07567" lon="12.73485"><ele>294.0</ele><time>2026-04-29T08:41:34.842Z</time></trkpt><trkpt lat="38.0756233" lon="12.7351233"><ele>294.0</ele><time>2026-04-29T08:41:35.842Z</time></trkpt><trkpt lat="38.07558" lon="12.7353783"><ele>294.0</ele><time>2026-04-29T08:41:36.842Z</time></trkpt><trkpt lat="38.0755383" lon="12.7356217"><ele>294.6666666666667</ele><time>2026-04-29T08:41:37.845Z</time></trkpt><trkpt lat="38.0754983" lon="12.73586"><ele>295.33333333333337</ele><time>2026-04-29T08:41:38.839Z</time></trkpt><trkpt lat="38.07546" lon="12.73611"><ele>296.0</ele><time>2026-04-29T08:41:39.841Z</time></trkpt><trkpt lat="38.0754233" lon="12.7363867"><ele>297.0</ele><time>2026-04-29T08:41:40.84Z</time></trkpt><trkpt lat="38.0753733" lon="12.7366867"><ele>298.0</ele><time>2026-04-29T08:41:41.847Z</time></trkpt><trkpt lat="38.075315" lon="12.7370067"><ele>298.0</ele><time>2026-04-29T08:41:42.841Z</time></trkpt><trkpt lat="38.075255" lon="12.7373383"><ele>298.0</ele><time>2026-04-29T08:41:43.839Z</time></trkpt><trkpt lat="38.075195" lon="12.737675"><ele>299.0</ele><time>2026-04-29T08:41:44.841Z</time></trkpt><trkpt lat="38.0751383" lon="12.7380133"><ele>300.0</ele><time>2026-04-29T08:41:45.84Z</time></trkpt><trkpt lat="38.0750817" lon="12.7383467"><ele>300.0</ele><time>2026-04-29T08:41:46.853Z</time></trkpt><trkpt lat="38.075025" lon="12.73868"><ele>300.0</ele><time>2026-04-29T08:41:47.841Z</time></trkpt><trkpt lat="38.0749683" lon="12.73901"><ele>304.5</ele><time>2026-04-29T08:41:48.841Z</time></trkpt><trkpt lat="38.074915" lon="12.7393417"><ele>309.0</ele><time>2026-04-29T08:41:49.845Z</time></trkpt><trkpt lat="38.0748633" lon="12.7396733"><ele>309.0</ele><time>2026-04-29T08:41:50.838Z</time></trkpt><trkpt lat="38.0748133" lon="12.7400067"><ele>309.0</ele><time>2026-04-29T08:41:51.842Z</time></trkpt><trkpt lat="38.0747617" lon="12.74034"><ele>309.0</ele><time>2026-04-29T08:41:52.841Z</time></trkpt><trkpt lat="38.0747083" lon="12.7406733"><ele>309.0</ele><time>2026-04-29T08:41:53.838Z</time></trkpt><trkpt lat="38.0746533" lon="12.7410083"><ele>307.0</ele><time>2026-04-29T08:41:54.843Z</time></trkpt><trkpt lat="38.0746" lon="12.7413433"><ele>305.0</ele><time>2026-04-29T08:41:55.842Z</time></trkpt><trkpt lat="38.0745433" lon="12.7416817"><ele>304.0</ele><time>2026-04-29T08:41:56.843Z</time></trkpt><trkpt lat="38.0744883" lon="12.74202"><ele>303.0</ele><time>2026-04-29T08:41:57.845Z</time></trkpt><trkpt lat="38.0744367" lon="12.7423533"><ele>303.0</ele><time>2026-04-29T08:41:58.842Z</time></trkpt><trkpt lat="38.0743883" lon="12.7426767"><ele>303.0</ele><time>2026-04-29T08:41:59.841Z</time></trkpt><trkpt lat="38.07435" lon="12.7429933"><ele>302.0</ele><time>2026-04-29T08:42:00.84Z</time></trkpt><trkpt lat="38.0743233" lon="12.743305"><ele>301.0</ele><time>2026-04-29T08:42:01.843Z</time></trkpt><trkpt lat="38.0743083" lon="12.743615"><ele>299.0</ele><time>2026-04-29T08:42:02.841Z</time></trkpt><trkpt lat="38.07431" lon="12.7439267"><ele>297.0</ele><time>2026-04-29T08:42:03.841Z</time></trkpt><trkpt lat="38.0743233" lon="12.744245"><ele>296.0</ele><time>2026-04-29T08:42:04.844Z</time></trkpt><trkpt lat="38.0743517" lon="12.7445733"><ele>295.0</ele><time>2026-04-29T08:42:05.845Z</time></trkpt><trkpt lat="38.07439" lon="12.7449133"><ele>294.5</ele><time>2026-04-29T08:42:06.841Z</time></trkpt><trkpt lat="38.0744333" lon="12.7452633"><ele>294.0</ele><time>2026-04-29T08:42:07.841Z</time></trkpt><trkpt lat="38.0744817" lon="12.74562"><ele>294.0</ele><time>2026-04-29T08:42:08.841Z</time></trkpt><trkpt lat="38.0745333" lon="12.7459833"><ele>294.0</ele><time>2026-04-29T08:42:09.843Z</time></trkpt><trkpt lat="38.074585" lon="12.74635"><ele>293.5</ele><time>2026-04-29T08:42:10.842Z</time></trkpt><trkpt lat="38.0746383" lon="12.7467217"><ele>293.0</ele><time>2026-04-29T08:42:11.846Z</time></trkpt><trkpt lat="38.0746917" lon="12.7470967"><ele>293.0</ele><time>2026-04-29T08:42:12.841Z</time></trkpt><trkpt lat="38.0747417" lon="12.7474667"><ele>293.0</ele><time>2026-04-29T08:42:13.841Z</time></trkpt><trkpt lat="38.0747917" lon="12.747825"><ele>291.5</ele><time>2026-04-29T08:42:14.841Z</time></trkpt><trkpt lat="38.07484" lon="12.7481667"><ele>290.0</ele><time>2026-04-29T08:42:15.844Z</time></trkpt><trkpt lat="38.0748867" lon="12.7485017"><ele>287.5</ele><time>2026-04-29T08:42:16.843Z</time></trkpt><trkpt lat="38.0749333" lon="12.7488367"><ele>285.0</ele><time>2026-04-29T08:42:17.841Z</time></trkpt><trkpt lat="38.0749783" lon="12.749175"><ele>275.5</ele><time>2026-04-29T08:42:18.843Z</time></trkpt><trkpt lat="38.0750167" lon="12.7495117"><ele>266.0</ele><time>2026-04-29T08:42:19.842Z</time></trkpt><trkpt lat="38.075055" lon="12.7498417"><ele>266.0</ele><time>2026-04-29T08:42:20.841Z</time></trkpt><trkpt lat="38.075095" lon="12.750165"><ele>266.0</ele><time>2026-04-29T08:42:21.84Z</time></trkpt><trkpt lat="38.0751417" lon="12.750485"><ele>262.0</ele><time>2026-04-29T08:42:22.839Z</time></trkpt><trkpt lat="38.075195" lon="12.7508117"><ele>258.0</ele><time>2026-04-29T08:42:23.839Z</time></trkpt><trkpt lat="38.0752533" lon="12.7511433"><ele>255.5</ele><time>2026-04-29T08:42:24.842Z</time></trkpt><trkpt lat="38.07532" lon="12.75148"><ele>253.0</ele><time>2026-04-29T08:42:25.838Z</time></trkpt><trkpt lat="38.07539" lon="12.75181"><ele>252.0</ele><time>2026-04-29T08:42:26.842Z</time></trkpt><trkpt lat="38.07546" lon="12.7521333"><ele>251.0</ele><time>2026-04-29T08:42:27.842Z</time></trkpt><trkpt lat="38.0755283" lon="12.7524433"><ele>253.0</ele><time>2026-04-29T08:42:28.841Z</time></trkpt><trkpt lat="38.0755933" lon="12.7527417"><ele>255.0</ele><time>2026-04-29T08:42:29.84Z</time></trkpt><trkpt lat="38.0756533" lon="12.7530283"><ele>255.0</ele><time>2026-04-29T08:42:30.84Z</time></trkpt><trkpt lat="38.0757117" lon="12.7533033"><ele>255.0</ele><time>2026-04-29T08:42:31.843Z</time></trkpt><trkpt lat="38.0757733" lon="12.7535683"><ele>255.0</ele><time>2026-04-29T08:42:32.843Z</time></trkpt><trkpt lat="38.075845" lon="12.7538283"><ele>248.66666666666669</ele><time>2026-04-29T08:42:33.846Z</time></trkpt><trkpt lat="38.0759267" lon="12.75408"><ele>242.33333333333334</ele><time>2026-04-29T08:42:34.842Z</time></trkpt><trkpt lat="38.07602" lon="12.7543183"><ele>236.0</ele><time>2026-04-29T08:42:35.842Z</time></trkpt><trkpt lat="38.0761233" lon="12.754545"><ele>235.33333333333334</ele><time>2026-04-29T08:42:36.84Z</time></trkpt><trkpt lat="38.0762317" lon="12.7547617"><ele>234.66666666666669</ele><time>2026-04-29T08:42:37.842Z</time></trkpt><trkpt lat="38.07635" lon="12.75497"><ele>234.0</ele><time>2026-04-29T08:42:38.836Z</time></trkpt><trkpt lat="38.0764833" lon="12.7551683"><ele>228.33333333333331</ele><time>2026-04-29T08:42:39.841Z</time></trkpt><trkpt lat="38.076635" lon="12.7553617"><ele>222.66666666666666</ele><time>2026-04-29T08:42:40.846Z</time></trkpt><trkpt lat="38.076805" lon="12.7555483"><ele>217.0</ele><time>2026-04-29T08:42:41.842Z</time></trkpt><trkpt lat="38.07718" lon="12.7558967"><ele>214.5</ele><time>2026-04-29T08:42:43.841Z</time></trkpt><trkpt lat="38.0773833" lon="12.75605"><ele>212.0</ele><time>2026-04-29T08:42:44.841Z</time></trkpt><trkpt lat="38.0775933" lon="12.7561867"><ele>207.5</ele><time>2026-04-29T08:42:45.839Z</time></trkpt><trkpt lat="38.0778067" lon="12.7563033"><ele>203.0</ele><time>2026-04-29T08:42:46.844Z</time></trkpt><trkpt lat="38.0780233" lon="12.756405"><ele>203.0</ele><time>2026-04-29T08:42:47.844Z</time></trkpt><trkpt lat="38.078245" lon="12.756485"><ele>203.0</ele><time>2026-04-29T08:42:48.844Z</time></trkpt><trkpt lat="38.0784633" lon="12.7565483"><ele>202.33333333333334</ele><time>2026-04-29T08:42:49.84Z</time></trkpt><trkpt lat="38.0786817" lon="12.7565967"><ele>201.66666666666669</ele><time>2026-04-29T08:42:50.839Z</time></trkpt><trkpt lat="38.0789033" lon="12.7566267"><ele>201.0</ele><time>2026-04-29T08:42:51.838Z</time></trkpt><trkpt lat="38.0791267" lon="12.756635"><ele>201.0</ele><time>2026-04-29T08:42:52.838Z</time></trkpt><trkpt lat="38.0793483" lon="12.7566133"><ele>201.0</ele><time>2026-04-29T08:42:53.842Z</time></trkpt><trkpt lat="38.0795717" lon="12.7565683"><ele>201.0</ele><time>2026-04-29T08:42:54.842Z</time></trkpt><trkpt lat="38.0798" lon="12.7565117"><ele>205.0</ele><time>2026-04-29T08:42:55.842Z</time></trkpt><trkpt lat="38.0800317" lon="12.7564467"><ele>209.0</ele><time>2026-04-29T08:42:56.845Z</time></trkpt><trkpt lat="38.0807183" lon="12.7562617"><ele>212.5</ele><time>2026-04-29T08:42:59.843Z</time></trkpt><trkpt lat="38.0809533" lon="12.7561983"><ele>216.0</ele><time>2026-04-29T08:43:00.842Z</time></trkpt><trkpt lat="38.0811883" lon="12.7561383"><ele>216.0</ele><time>2026-04-29T08:43:01.842Z</time></trkpt><trkpt lat="38.0814167" lon="12.75608"><ele>216.0</ele><time>2026-04-29T08:43:02.844Z</time></trkpt><trkpt lat="38.0816333" lon="12.75602"><ele>207.0</ele><time>2026-04-29T08:43:03.841Z</time></trkpt><trkpt lat="38.081845" lon="12.7559583"><ele>198.0</ele><time>2026-04-29T08:43:04.839Z</time></trkpt><trkpt lat="38.0820533" lon="12.7559017"><ele>189.0</ele><time>2026-04-29T08:43:05.84Z</time></trkpt><trkpt lat="38.0822617" lon="12.7558417"><ele>190.0</ele><time>2026-04-29T08:43:06.84Z</time></trkpt><trkpt lat="38.0824633" lon="12.7557817"><ele>191.0</ele><time>2026-04-29T08:43:07.842Z</time></trkpt><trkpt lat="38.0826583" lon="12.7557217"><ele>192.0</ele><time>2026-04-29T08:43:08.847Z</time></trkpt><trkpt lat="38.0828483" lon="12.7556583"><ele>192.0</ele><time>2026-04-29T08:43:09.843Z</time></trkpt><trkpt lat="38.0830217" lon="12.7556033"><ele>192.0</ele><time>2026-04-29T08:43:10.845Z</time></trkpt><trkpt lat="38.08319" lon="12.755545"><ele>192.0</ele><time>2026-04-29T08:43:11.841Z</time></trkpt><trkpt lat="38.0833533" lon="12.7554917"><ele>193.0</ele><time>2026-04-29T08:43:12.84Z</time></trkpt><trkpt lat="38.083525" lon="12.7554317"><ele>194.0</ele><time>2026-04-29T08:43:13.839Z</time></trkpt><trkpt lat="38.083705" lon="12.7553667"><ele>195.0</ele><time>2026-04-29T08:43:14.85Z</time></trkpt><trkpt lat="38.0839" lon="12.7553017"><ele>194.66666666666669</ele><time>2026-04-29T08:43:15.841Z</time></trkpt><trkpt lat="38.084105" lon="12.7552317"><ele>194.33333333333334</ele><time>2026-04-29T08:43:16.842Z</time></trkpt><trkpt lat="38.08431" lon="12.7551617"><ele>194.0</ele><time>2026-04-29T08:43:17.841Z</time></trkpt><trkpt lat="38.0845167" lon="12.75509"><ele>189.0</ele><time>2026-04-29T08:43:18.84Z</time></trkpt><trkpt lat="38.0847133" lon="12.7550183"><ele>184.0</ele><time>2026-04-29T08:43:19.839Z</time></trkpt><trkpt lat="38.0849033" lon="12.7549483"><ele>179.0</ele><time>2026-04-29T08:43:20.84Z</time></trkpt><trkpt lat="38.0850917" lon="12.75488"><ele>179.0</ele><time>2026-04-29T08:43:21.842Z</time></trkpt><trkpt lat="38.0852767" lon="12.754815"><ele>179.0</ele><time>2026-04-29T08:43:22.842Z</time></trkpt><trkpt lat="38.0854617" lon="12.7547533"><ele>179.0</ele><time>2026-04-29T08:43:23.842Z</time></trkpt><trkpt lat="38.08564" lon="12.7546933"><ele>180.66666666666666</ele><time>2026-04-29T08:43:24.843Z</time></trkpt><trkpt lat="38.085815" lon="12.7546367"><ele>182.33333333333334</ele><time>2026-04-29T08:43:25.841Z</time></trkpt><trkpt lat="38.0859833" lon="12.75458"><ele>184.0</ele><time>2026-04-29T08:43:26.845Z</time></trkpt><trkpt lat="38.0861533" lon="12.75452"><ele>184.0</ele><time>2026-04-29T08:43:27.839Z</time></trkpt><trkpt lat="38.0863233" lon="12.7544567"><ele>184.0</ele><time>2026-04-29T08:43:28.841Z</time></trkpt><trkpt lat="38.08649" lon="12.7543867"><ele>184.0</ele><time>2026-04-29T08:43:29.843Z</time></trkpt><trkpt lat="38.0866567" lon="12.75431"><ele>181.33333333333334</ele><time>2026-04-29T08:43:30.843Z</time></trkpt><trkpt lat="38.0868233" lon="12.7542267"><ele>178.66666666666666</ele><time>2026-04-29T08:43:31.844Z</time></trkpt><trkpt lat="38.0869867" lon="12.7541417"><ele>176.0</ele><time>2026-04-29T08:43:32.848Z</time></trkpt><trkpt lat="38.0871483" lon="12.7540517"><ele>176.0</ele><time>2026-04-29T08:43:33.843Z</time></trkpt><trkpt lat="38.0873067" lon="12.7539583"><ele>176.0</ele><time>2026-04-29T08:43:34.839Z</time></trkpt><trkpt lat="38.0874617" lon="12.7538617"><ele>176.0</ele><time>2026-04-29T08:43:35.84Z</time></trkpt><trkpt lat="38.08761" lon="12.7537633"><ele>179.33333333333331</ele><time>2026-04-29T08:43:36.844Z</time></trkpt><trkpt lat="38.0877533" lon="12.7536617"><ele>182.66666666666666</ele><time>2026-04-29T08:43:37.845Z</time></trkpt><trkpt lat="38.0878933" lon="12.7535583"><ele>186.0</ele><time>2026-04-29T08:43:38.847Z</time></trkpt><trkpt lat="38.0880317" lon="12.7534517"><ele>183.66666666666666</ele><time>2026-04-29T08:43:39.845Z</time></trkpt><trkpt lat="38.0881733" lon="12.7533367"><ele>181.33333333333331</ele><time>2026-04-29T08:43:40.839Z</time></trkpt><trkpt lat="38.0883167" lon="12.7532167"><ele>179.0</ele><time>2026-04-29T08:43:41.843Z</time></trkpt><trkpt lat="38.08846" lon="12.7530917"><ele>179.0</ele><time>2026-04-29T08:43:42.84Z</time></trkpt><trkpt lat="38.0886067" lon="12.7529583"><ele>179.0</ele><time>2026-04-29T08:43:43.841Z</time></trkpt><trkpt lat="38.0888933" lon="12.7526767"><ele>176.0</ele><time>2026-04-29T08:43:45.845Z</time></trkpt><trkpt lat="38.089035" lon="12.7525383"><ele>173.0</ele><time>2026-04-29T08:43:46.842Z</time></trkpt><trkpt lat="38.089175" lon="12.752405"><ele>170.0</ele><time>2026-04-29T08:43:47.84Z</time></trkpt><trkpt lat="38.0893183" lon="12.7522733"><ele>170.0</ele><time>2026-04-29T08:43:48.844Z</time></trkpt><trkpt lat="38.0894583" lon="12.7521433"><ele>170.0</ele><time>2026-04-29T08:43:49.839Z</time></trkpt><trkpt lat="38.0895933" lon="12.7520167"><ele>170.0</ele><time>2026-04-29T08:43:50.846Z</time></trkpt><trkpt lat="38.0897283" lon="12.7518917"><ele>165.33333333333331</ele><time>2026-04-29T08:43:51.842Z</time></trkpt><trkpt lat="38.08986" lon="12.7517717"><ele>160.66666666666666</ele><time>2026-04-29T08:43:52.841Z</time></trkpt><trkpt lat="38.0899883" lon="12.75165"><ele>156.0</ele><time>2026-04-29T08:43:53.841Z</time></trkpt><trkpt lat="38.0901133" lon="12.7515217"><ele>156.0</ele><time>2026-04-29T08:43:54.841Z</time></trkpt><trkpt lat="38.0902367" lon="12.751385"><ele>156.0</ele><time>2026-04-29T08:43:55.841Z</time></trkpt><trkpt lat="38.090355" lon="12.751235"><ele>156.0</ele><time>2026-04-29T08:43:56.84Z</time></trkpt><trkpt lat="38.0904667" lon="12.7510683"><ele>151.0</ele><time>2026-04-29T08:43:57.841Z</time></trkpt><trkpt lat="38.09057" lon="12.75089"><ele>146.0</ele><time>2026-04-29T08:43:58.841Z</time></trkpt><trkpt lat="38.0906617" lon="12.7506967"><ele>141.0</ele><time>2026-04-29T08:43:59.841Z</time></trkpt><trkpt lat="38.0907433" lon="12.7504933"><ele>141.0</ele><time>2026-04-29T08:44:00.843Z</time></trkpt><trkpt lat="38.0908183" lon="12.75029"><ele>141.0</ele><time>2026-04-29T08:44:01.841Z</time></trkpt><trkpt lat="38.0908917" lon="12.75009"><ele>141.0</ele><time>2026-04-29T08:44:02.843Z</time></trkpt><trkpt lat="38.0909617" lon="12.7498917"><ele>141.0</ele><time>2026-04-29T08:44:03.84Z</time></trkpt><trkpt lat="38.09103" lon="12.749695"><ele>141.0</ele><time>2026-04-29T08:44:04.843Z</time></trkpt><trkpt lat="38.0910967" lon="12.7495017"><ele>141.0</ele><time>2026-04-29T08:44:05.844Z</time></trkpt><trkpt lat="38.0911617" lon="12.7493133"><ele>139.0</ele><time>2026-04-29T08:44:06.843Z</time></trkpt><trkpt lat="38.091225" lon="12.7491333"><ele>137.0</ele><time>2026-04-29T08:44:07.846Z</time></trkpt><trkpt lat="38.091285" lon="12.74896"><ele>135.0</ele><time>2026-04-29T08:44:08.841Z</time></trkpt><trkpt lat="38.0913417" lon="12.7487983"><ele>133.0</ele><time>2026-04-29T08:44:09.841Z</time></trkpt><trkpt lat="38.0913933" lon="12.74866"><ele>133.0</ele><time>2026-04-29T08:44:10.84Z</time></trkpt><trkpt lat="38.0914383" lon="12.7485467"><ele>133.0</ele><time>2026-04-29T08:44:11.839Z</time></trkpt><trkpt lat="38.0914767" lon="12.74846"><ele>133.0</ele><time>2026-04-29T08:44:12.839Z</time></trkpt><trkpt lat="38.0915417" lon="12.7483317"><ele>133.0</ele><time>2026-04-29T08:44:14.847Z</time></trkpt><trkpt lat="38.091575" lon="12.7482633"><ele>133.0</ele><time>2026-04-29T08:44:15.84Z</time></trkpt><trkpt lat="38.091625" lon="12.7481583"><ele>133.4</ele><time>2026-04-29T08:44:17.84Z</time></trkpt><trkpt lat="38.0916683" lon="12.748075"><ele>133.8</ele><time>2026-04-29T08:44:19.844Z</time></trkpt><trkpt lat="38.0917067" lon="12.7480067"><ele>134.2</ele><time>2026-04-29T08:44:21.843Z</time></trkpt><trkpt lat="38.0917483" lon="12.747905"><ele>134.6</ele><time>2026-04-29T08:44:23.846Z</time></trkpt><trkpt lat="38.091805" lon="12.7477817"><ele>135.0</ele><time>2026-04-29T08:44:25.839Z</time></trkpt><trkpt lat="38.0918717" lon="12.7476533"><ele>133.71428571428572</ele><time>2026-04-29T08:44:27.841Z</time></trkpt><trkpt lat="38.0919067" lon="12.747585"><ele>132.42857142857142</ele><time>2026-04-29T08:44:28.842Z</time></trkpt><trkpt lat="38.09194" lon="12.7475167"><ele>131.14285714285714</ele><time>2026-04-29T08:44:29.842Z</time></trkpt><trkpt lat="38.0919717" lon="12.7474417"><ele>129.85714285714286</ele><time>2026-04-29T08:44:30.844Z</time></trkpt><trkpt lat="38.0920067" lon="12.7473683"><ele>128.57142857142856</ele><time>2026-04-29T08:44:31.843Z</time></trkpt><trkpt lat="38.09204" lon="12.7472933"><ele>127.28571428571428</ele><time>2026-04-29T08:44:32.841Z</time></trkpt><trkpt lat="38.0920967" lon="12.7471683"><ele>126.0</ele><time>2026-04-29T08:44:34.846Z</time></trkpt><trkpt lat="38.092135" lon="12.7470867"><ele>126.0</ele><time>2026-04-29T08:44:36.842Z</time></trkpt><trkpt lat="38.0921833" lon="12.7469783"><ele>126.0</ele><time>2026-04-29T08:44:38.84Z</time></trkpt><trkpt lat="38.0922217" lon="12.7468917"><ele>126.0</ele><time>2026-04-29T08:44:39.847Z</time></trkpt><trkpt lat="38.0922733" lon="12.7467717"><ele>126.0</ele><time>2026-04-29T08:44:40.842Z</time></trkpt><trkpt lat="38.09234" lon="12.7466283"><ele>126.0</ele><time>2026-04-29T08:44:41.841Z</time></trkpt><trkpt lat="38.0924067" lon="12.7464917"><ele>125.0</ele><time>2026-04-29T08:44:42.842Z</time></trkpt><trkpt lat="38.0924667" lon="12.7463667"><ele>124.0</ele><time>2026-04-29T08:44:43.842Z</time></trkpt><trkpt lat="38.09252" lon="12.7462583"><ele>123.0</ele><time>2026-04-29T08:44:44.842Z</time></trkpt><trkpt lat="38.09257" lon="12.746165"><ele>122.0</ele><time>2026-04-29T08:44:45.84Z</time></trkpt><trkpt lat="38.0926217" lon="12.7460733"><ele>121.0</ele><time>2026-04-29T08:44:46.841Z</time></trkpt><trkpt lat="38.0926733" lon="12.74599"><ele>120.19999999999999</ele><time>2026-04-29T08:44:47.841Z</time></trkpt><trkpt lat="38.092725" lon="12.7459117"><ele>119.39999999999999</ele><time>2026-04-29T08:44:48.841Z</time></trkpt><trkpt lat="38.092785" lon="12.74583"><ele>118.6</ele><time>2026-04-29T08:44:49.842Z</time></trkpt><trkpt lat="38.09285" lon="12.7457433"><ele>117.8</ele><time>2026-04-29T08:44:50.842Z</time></trkpt><trkpt lat="38.0929167" lon="12.74566"><ele>117.0</ele><time>2026-04-29T08:44:51.841Z</time></trkpt><trkpt lat="38.0929917" lon="12.74557"><ele>117.0</ele><time>2026-04-29T08:44:52.84Z</time></trkpt><trkpt lat="38.09307" lon="12.745475"><ele>117.0</ele><time>2026-04-29T08:44:53.84Z</time></trkpt><trkpt lat="38.0931533" lon="12.7453717"><ele>117.0</ele><time>2026-04-29T08:44:54.842Z</time></trkpt><trkpt lat="38.0932417" lon="12.745265"><ele>117.0</ele><time>2026-04-29T08:44:55.84Z</time></trkpt><trkpt lat="38.093335" lon="12.7451533"><ele>115.75</ele><time>2026-04-29T08:44:56.842Z</time></trkpt><trkpt lat="38.093425" lon="12.745045"><ele>114.5</ele><time>2026-04-29T08:44:57.841Z</time></trkpt><trkpt lat="38.09351" lon="12.7449483"><ele>113.25</ele><time>2026-04-29T08:44:58.841Z</time></trkpt><trkpt lat="38.093595" lon="12.74485"><ele>112.0</ele><time>2026-04-29T08:44:59.852Z</time></trkpt><trkpt lat="38.0936817" lon="12.7447533"><ele>112.0</ele><time>2026-04-29T08:45:00.84Z</time></trkpt><trkpt lat="38.0937617" lon="12.7446633"><ele>111.99999999999999</ele><time>2026-04-29T08:45:01.84Z</time></trkpt><trkpt lat="38.0938333" lon="12.7445767"><ele>111.99999999999999</ele><time>2026-04-29T08:45:02.843Z</time></trkpt><trkpt lat="38.0938967" lon="12.7444983"><ele>112.0</ele><time>2026-04-29T08:45:03.844Z</time></trkpt><trkpt lat="38.0939567" lon="12.7444233"><ele>112.0</ele><time>2026-04-29T08:45:04.845Z</time></trkpt><trkpt lat="38.094015" lon="12.7443533"><ele>111.50000000000001</ele><time>2026-04-29T08:45:05.844Z</time></trkpt><trkpt lat="38.0940733" lon="12.7442867"><ele>111.0</ele><time>2026-04-29T08:45:06.84Z</time></trkpt><trkpt lat="38.0941333" lon="12.74422"><ele>110.5</ele><time>2026-04-29T08:45:07.839Z</time></trkpt><trkpt lat="38.0941967" lon="12.7441517"><ele>110.0</ele><time>2026-04-29T08:45:08.842Z</time></trkpt><trkpt lat="38.0942617" lon="12.7440767"><ele>109.50000000000001</ele><time>2026-04-29T08:45:09.839Z</time></trkpt><trkpt lat="38.0943317" lon="12.7439983"><ele>109.0</ele><time>2026-04-29T08:45:10.841Z</time></trkpt><trkpt lat="38.0944017" lon="12.743915"><ele>108.4</ele><time>2026-04-29T08:45:11.844Z</time></trkpt><trkpt lat="38.0944733" lon="12.7438267"><ele>107.80000000000001</ele><time>2026-04-29T08:45:12.845Z</time></trkpt><trkpt lat="38.0945483" lon="12.743735"><ele>107.19999999999999</ele><time>2026-04-29T08:45:13.84Z</time></trkpt><trkpt lat="38.0946233" lon="12.7436417"><ele>106.6</ele><time>2026-04-29T08:45:14.839Z</time></trkpt><trkpt lat="38.0947033" lon="12.7435517"><ele>106.0</ele><time>2026-04-29T08:45:15.84Z</time></trkpt><trkpt lat="38.0947817" lon="12.7434617"><ele>105.8</ele><time>2026-04-29T08:45:16.864Z</time></trkpt><trkpt lat="38.0948617" lon="12.74337"><ele>105.6</ele><time>2026-04-29T08:45:17.842Z</time></trkpt><trkpt lat="38.0949383" lon="12.74328"><ele>105.4</ele><time>2026-04-29T08:45:18.848Z</time></trkpt><trkpt lat="38.0950117" lon="12.7431933"><ele>105.2</ele><time>2026-04-29T08:45:19.841Z</time></trkpt><trkpt lat="38.09509" lon="12.7431033"><ele>105.0</ele><time>2026-04-29T08:45:20.842Z</time></trkpt><trkpt lat="38.0951683" lon="12.7430083"><ele>104.5</ele><time>2026-04-29T08:45:21.843Z</time></trkpt><trkpt lat="38.0952533" lon="12.7429083"><ele>104.0</ele><time>2026-04-29T08:45:22.841Z</time></trkpt><trkpt lat="38.0953433" lon="12.7428"><ele>103.5</ele><time>2026-04-29T08:45:23.841Z</time></trkpt><trkpt lat="38.0954417" lon="12.742685"><ele>103.0</ele><time>2026-04-29T08:45:24.842Z</time></trkpt><trkpt lat="38.0955383" lon="12.74257"><ele>102.25</ele><time>2026-04-29T08:45:25.841Z</time></trkpt><trkpt lat="38.0956317" lon="12.7424583"><ele>101.5</ele><time>2026-04-29T08:45:26.842Z</time></trkpt><trkpt lat="38.0957267" lon="12.742345"><ele>100.75</ele><time>2026-04-29T08:45:27.84Z</time></trkpt><trkpt lat="38.0958233" lon="12.7422333"><ele>100.0</ele><time>2026-04-29T08:45:28.84Z</time></trkpt><trkpt lat="38.0959217" lon="12.742115"><ele>99.5</ele><time>2026-04-29T08:45:29.841Z</time></trkpt><trkpt lat="38.09602" lon="12.7419933"><ele>99.0</ele><time>2026-04-29T08:45:30.84Z</time></trkpt><trkpt lat="38.09612" lon="12.74187"><ele>98.5</ele><time>2026-04-29T08:45:31.84Z</time></trkpt><trkpt lat="38.09622" lon="12.7417433"><ele>98.0</ele><time>2026-04-29T08:45:32.843Z</time></trkpt><trkpt lat="38.09632" lon="12.741615"><ele>97.5</ele><time>2026-04-29T08:45:33.844Z</time></trkpt><trkpt lat="38.09642" lon="12.74149"><ele>97.0</ele><time>2026-04-29T08:45:34.842Z</time></trkpt><trkpt lat="38.09652" lon="12.7413667"><ele>96.5</ele><time>2026-04-29T08:45:35.84Z</time></trkpt><trkpt lat="38.0966183" lon="12.7412483"><ele>96.0</ele><time>2026-04-29T08:45:36.838Z</time></trkpt><trkpt lat="38.096715" lon="12.7411333"><ele>95.0</ele><time>2026-04-29T08:45:37.839Z</time></trkpt><trkpt lat="38.0968067" lon="12.74102"><ele>94.0</ele><time>2026-04-29T08:45:38.843Z</time></trkpt><trkpt lat="38.096895" lon="12.7409117"><ele>93.0</ele><time>2026-04-29T08:45:39.844Z</time></trkpt><trkpt lat="38.0969783" lon="12.74081"><ele>92.0</ele><time>2026-04-29T08:45:40.842Z</time></trkpt><trkpt lat="38.09706" lon="12.7407183"><ele>92.0</ele><time>2026-04-29T08:45:41.843Z</time></trkpt><trkpt lat="38.0971367" lon="12.74063"><ele>92.0</ele><time>2026-04-29T08:45:42.841Z</time></trkpt><trkpt lat="38.09721" lon="12.7405417"><ele>92.0</ele><time>2026-04-29T08:45:43.845Z</time></trkpt><trkpt lat="38.0972817" lon="12.7404517"><ele>92.0</ele><time>2026-04-29T08:45:44.84Z</time></trkpt><trkpt lat="38.0973517" lon="12.740365"><ele>92.0</ele><time>2026-04-29T08:45:45.842Z</time></trkpt><trkpt lat="38.09742" lon="12.7402817"><ele>91.0</ele><time>2026-04-29T08:45:46.842Z</time></trkpt><trkpt lat="38.0974867" lon="12.7402017"><ele>90.0</ele><time>2026-04-29T08:45:47.841Z</time></trkpt><trkpt lat="38.0975517" lon="12.740125"><ele>89.0</ele><time>2026-04-29T08:45:48.843Z</time></trkpt><trkpt lat="38.097615" lon="12.7400483"><ele>88.0</ele><time>2026-04-29T08:45:49.842Z</time></trkpt><trkpt lat="38.0976833" lon="12.7399683"><ele>87.0</ele><time>2026-04-29T08:45:50.842Z</time></trkpt><trkpt lat="38.0977483" lon="12.7398933"><ele>86.0</ele><time>2026-04-29T08:45:51.841Z</time></trkpt><trkpt lat="38.0978067" lon="12.7398217"><ele>86.0</ele><time>2026-04-29T08:45:52.843Z</time></trkpt><trkpt lat="38.0978633" lon="12.73975"><ele>86.0</ele><time>2026-04-29T08:45:53.849Z</time></trkpt><trkpt lat="38.0979183" lon="12.7396783"><ele>86.0</ele><time>2026-04-29T08:45:54.844Z</time></trkpt><trkpt lat="38.09797" lon="12.739615"><ele>86.0</ele><time>2026-04-29T08:45:55.843Z</time></trkpt><trkpt lat="38.09802" lon="12.7395533"><ele>86.0</ele><time>2026-04-29T08:45:56.843Z</time></trkpt><trkpt lat="38.0981133" lon="12.7394433"><ele>86.0</ele><time>2026-04-29T08:45:58.847Z</time></trkpt><trkpt lat="38.0981683" lon="12.7393817"><ele>85.83333333333334</ele><time>2026-04-29T08:45:59.839Z</time></trkpt><trkpt lat="38.0982183" lon="12.7393217"><ele>85.66666666666667</ele><time>2026-04-29T08:46:00.84Z</time></trkpt><trkpt lat="38.0982633" lon="12.7392633"><ele>85.5</ele><time>2026-04-29T08:46:01.843Z</time></trkpt><trkpt lat="38.0983567" lon="12.7391567"><ele>85.33333333333333</ele><time>2026-04-29T08:46:03.841Z</time></trkpt><trkpt lat="38.09841" lon="12.7390967"><ele>85.16666666666666</ele><time>2026-04-29T08:46:04.841Z</time></trkpt><trkpt lat="38.098465" lon="12.7390267"><ele>85.0</ele><time>2026-04-29T08:46:05.839Z</time></trkpt><trkpt lat="38.0985267" lon="12.738945"><ele>84.2</ele><time>2026-04-29T08:46:06.84Z</time></trkpt><trkpt lat="38.0985917" lon="12.7388617"><ele>83.4</ele><time>2026-04-29T08:46:07.842Z</time></trkpt><trkpt lat="38.09867" lon="12.73877"><ele>82.6</ele><time>2026-04-29T08:46:08.843Z</time></trkpt><trkpt lat="38.098745" lon="12.7386767"><ele>81.8</ele><time>2026-04-29T08:46:09.842Z</time></trkpt><trkpt lat="38.098825" lon="12.738585"><ele>81.0</ele><time>2026-04-29T08:46:10.843Z</time></trkpt><trkpt lat="38.0989067" lon="12.7384867"><ele>80.5</ele><time>2026-04-29T08:46:11.84Z</time></trkpt><trkpt lat="38.0989933" lon="12.7383867"><ele>80.0</ele><time>2026-04-29T08:46:12.841Z</time></trkpt><trkpt lat="38.09908" lon="12.738285"><ele>79.5</ele><time>2026-04-29T08:46:13.839Z</time></trkpt><trkpt lat="38.0991683" lon="12.73818"><ele>79.0</ele><time>2026-04-29T08:46:14.842Z</time></trkpt><trkpt lat="38.0992517" lon="12.7380817"><ele>78.60000000000001</ele><time>2026-04-29T08:46:15.84Z</time></trkpt><trkpt lat="38.0993317" lon="12.7379817"><ele>78.2</ele><time>2026-04-29T08:46:16.842Z</time></trkpt><trkpt lat="38.0994117" lon="12.7378817"><ele>77.80000000000001</ele><time>2026-04-29T08:46:17.845Z</time></trkpt><trkpt lat="38.0994917" lon="12.7377833"><ele>77.4</ele><time>2026-04-29T08:46:18.842Z</time></trkpt><trkpt lat="38.0995717" lon="12.7376883"><ele>77.0</ele><time>2026-04-29T08:46:19.839Z</time></trkpt><trkpt lat="38.0996517" lon="12.7375917"><ele>76.8</ele><time>2026-04-29T08:46:20.841Z</time></trkpt><trkpt lat="38.09973" lon="12.737495"><ele>76.6</ele><time>2026-04-29T08:46:21.84Z</time></trkpt><trkpt lat="38.0998083" lon="12.7374017"><ele>76.39999999999999</ele><time>2026-04-29T08:46:22.844Z</time></trkpt><trkpt lat="38.0998883" lon="12.7373067"><ele>76.2</ele><time>2026-04-29T08:46:23.841Z</time></trkpt><trkpt lat="38.099965" lon="12.737215"><ele>76.0</ele><time>2026-04-29T08:46:24.842Z</time></trkpt><trkpt lat="38.1000417" lon="12.7371217"><ele>75.39999999999999</ele><time>2026-04-29T08:46:25.841Z</time></trkpt><trkpt lat="38.1001183" lon="12.73703"><ele>74.8</ele><time>2026-04-29T08:46:26.839Z</time></trkpt><trkpt lat="38.100195" lon="12.73694"><ele>74.19999999999999</ele><time>2026-04-29T08:46:27.839Z</time></trkpt><trkpt lat="38.1002733" lon="12.7368467"><ele>73.6</ele><time>2026-04-29T08:46:28.841Z</time></trkpt><trkpt lat="38.10035" lon="12.73675"><ele>73.0</ele><time>2026-04-29T08:46:29.841Z</time></trkpt><trkpt lat="38.1004317" lon="12.7366517"><ele>73.0</ele><time>2026-04-29T08:46:30.847Z</time></trkpt><trkpt lat="38.10051" lon="12.736555"><ele>73.0</ele><time>2026-04-29T08:46:31.84Z</time></trkpt><trkpt lat="38.1005867" lon="12.736465"><ele>73.0</ele><time>2026-04-29T08:46:32.841Z</time></trkpt><trkpt lat="38.10066" lon="12.7363783"><ele>73.0</ele><time>2026-04-29T08:46:33.839Z</time></trkpt><trkpt lat="38.1007333" lon="12.736295"><ele>73.0</ele><time>2026-04-29T08:46:34.839Z</time></trkpt><trkpt lat="38.1008033" lon="12.7362117"><ele>72.4</ele><time>2026-04-29T08:46:35.84Z</time></trkpt><trkpt lat="38.1008733" lon="12.7361217"><ele>71.8</ele><time>2026-04-29T08:46:36.84Z</time></trkpt><trkpt lat="38.100945" lon="12.7360317"><ele>71.2</ele><time>2026-04-29T08:46:37.843Z</time></trkpt><trkpt lat="38.1010183" lon="12.7359417"><ele>70.6</ele><time>2026-04-29T08:46:38.844Z</time></trkpt><trkpt lat="38.1010917" lon="12.7358517"><ele>70.0</ele><time>2026-04-29T08:46:39.841Z</time></trkpt><trkpt lat="38.10117" lon="12.7357667"><ele>70.0</ele><time>2026-04-29T08:46:40.841Z</time></trkpt><trkpt lat="38.10125" lon="12.7356967"><ele>70.0</ele><time>2026-04-29T08:46:41.841Z</time></trkpt><trkpt lat="38.1013317" lon="12.73564"><ele>70.0</ele><time>2026-04-29T08:46:42.842Z</time></trkpt><trkpt lat="38.1014167" lon="12.7355983"><ele>70.0</ele><time>2026-04-29T08:46:43.842Z</time></trkpt><trkpt lat="38.1015133" lon="12.7355617"><ele>70.0</ele><time>2026-04-29T08:46:44.84Z</time></trkpt><trkpt lat="38.1016217" lon="12.7355267"><ele>69.0</ele><time>2026-04-29T08:46:45.841Z</time></trkpt><trkpt lat="38.1017367" lon="12.735495"><ele>68.0</ele><time>2026-04-29T08:46:46.84Z</time></trkpt><trkpt lat="38.1018533" lon="12.7354733"><ele>67.0</ele><time>2026-04-29T08:46:47.847Z</time></trkpt><trkpt lat="38.1019783" lon="12.7354567"><ele>66.0</ele><time>2026-04-29T08:46:48.84Z</time></trkpt><trkpt lat="38.1021033" lon="12.73544"><ele>66.0</ele><time>2026-04-29T08:46:49.838Z</time></trkpt><trkpt lat="38.10223" lon="12.7354233"><ele>66.0</ele><time>2026-04-29T08:46:50.848Z</time></trkpt><trkpt lat="38.1023533" lon="12.7354067"><ele>66.0</ele><time>2026-04-29T08:46:51.842Z</time></trkpt><trkpt lat="38.1024633" lon="12.735395"><ele>66.0</ele><time>2026-04-29T08:46:52.842Z</time></trkpt><trkpt lat="38.102555" lon="12.735385"><ele>65.39999999999999</ele><time>2026-04-29T08:46:53.842Z</time></trkpt><trkpt lat="38.1026317" lon="12.7353733"><ele>64.8</ele><time>2026-04-29T08:46:54.844Z</time></trkpt><trkpt lat="38.1027183" lon="12.7353617"><ele>64.19999999999999</ele><time>2026-04-29T08:46:55.839Z</time></trkpt><trkpt lat="38.102815" lon="12.7353467"><ele>63.599999999999994</ele><time>2026-04-29T08:46:56.837Z</time></trkpt><trkpt lat="38.1029167" lon="12.7353317"><ele>63.0</ele><time>2026-04-29T08:46:57.84Z</time></trkpt><trkpt lat="38.1030267" lon="12.7353167"><ele>63.0</ele><time>2026-04-29T08:46:58.842Z</time></trkpt><trkpt lat="38.1031483" lon="12.735305"><ele>63.0</ele><time>2026-04-29T08:46:59.843Z</time></trkpt><trkpt lat="38.1032717" lon="12.7352917"><ele>63.0</ele><time>2026-04-29T08:47:00.841Z</time></trkpt><trkpt lat="38.103395" lon="12.7352783"><ele>63.0</ele><time>2026-04-29T08:47:01.84Z</time></trkpt><trkpt lat="38.1035233" lon="12.7352617"><ele>62.75</ele><time>2026-04-29T08:47:02.841Z</time></trkpt><trkpt lat="38.1036567" lon="12.735245"><ele>62.5</ele><time>2026-04-29T08:47:03.841Z</time></trkpt><trkpt lat="38.103785" lon="12.7352317"><ele>62.25</ele><time>2026-04-29T08:47:04.838Z</time></trkpt><trkpt lat="38.1039067" lon="12.7352183"><ele>62.0</ele><time>2026-04-29T08:47:05.846Z</time></trkpt><trkpt lat="38.10402" lon="12.7352067"><ele>61.16666666666667</ele><time>2026-04-29T08:47:06.842Z</time></trkpt><trkpt lat="38.1041167" lon="12.7351933"><ele>60.333333333333336</ele><time>2026-04-29T08:47:07.841Z</time></trkpt><trkpt lat="38.1041933" lon="12.7351817"><ele>59.5</ele><time>2026-04-29T08:47:08.841Z</time></trkpt><trkpt lat="38.1042683" lon="12.73517"><ele>58.66666666666667</ele><time>2026-04-29T08:47:09.844Z</time></trkpt><trkpt lat="38.1043467" lon="12.73516"><ele>57.833333333333336</ele><time>2026-04-29T08:47:10.841Z</time></trkpt><trkpt lat="38.1044317" lon="12.7351517"><ele>57.0</ele><time>2026-04-29T08:47:11.841Z</time></trkpt><trkpt lat="38.1045317" lon="12.7351417"><ele>57.0</ele><time>2026-04-29T08:47:12.85Z</time></trkpt><trkpt lat="38.1046433" lon="12.7351283"><ele>57.0</ele><time>2026-04-29T08:47:13.841Z</time></trkpt><trkpt lat="38.1047617" lon="12.7351167"><ele>57.0</ele><time>2026-04-29T08:47:14.842Z</time></trkpt><trkpt lat="38.1048867" lon="12.735105"><ele>57.0</ele><time>2026-04-29T08:47:15.839Z</time></trkpt><trkpt lat="38.1050167" lon="12.7350933"><ele>56.5</ele><time>2026-04-29T08:47:16.839Z</time></trkpt><trkpt lat="38.105155" lon="12.7350767"><ele>56.0</ele><time>2026-04-29T08:47:17.842Z</time></trkpt><trkpt lat="38.1052933" lon="12.73506"><ele>55.5</ele><time>2026-04-29T08:47:18.839Z</time></trkpt><trkpt lat="38.1054317" lon="12.7350417"><ele>55.0</ele><time>2026-04-29T08:47:19.844Z</time></trkpt><trkpt lat="38.1055583" lon="12.7350283"><ele>55.0</ele><time>2026-04-29T08:47:20.843Z</time></trkpt><trkpt lat="38.1056683" lon="12.7350167"><ele>55.0</ele><time>2026-04-29T08:47:21.843Z</time></trkpt><trkpt lat="38.1057667" lon="12.7350067"><ele>55.0</ele><time>2026-04-29T08:47:22.845Z</time></trkpt><trkpt lat="38.105855" lon="12.735"><ele>55.0</ele><time>2026-04-29T08:47:23.84Z</time></trkpt><trkpt lat="38.10595" lon="12.7349967"><ele>55.0</ele><time>2026-04-29T08:47:24.855Z</time></trkpt><trkpt lat="38.1060517" lon="12.734995"><ele>54.75</ele><time>2026-04-29T08:47:25.841Z</time></trkpt><trkpt lat="38.1061617" lon="12.7349983"><ele>54.5</ele><time>2026-04-29T08:47:26.84Z</time></trkpt><trkpt lat="38.106275" lon="12.7350033"><ele>54.25</ele><time>2026-04-29T08:47:27.84Z</time></trkpt><trkpt lat="38.1063883" lon="12.7350117"><ele>54.0</ele><time>2026-04-29T08:47:28.84Z</time></trkpt><trkpt lat="38.1065017" lon="12.7350217"><ele>53.800000000000004</ele><time>2026-04-29T08:47:29.847Z</time></trkpt><trkpt lat="38.1066033" lon="12.73503"><ele>53.60000000000001</ele><time>2026-04-29T08:47:30.84Z</time></trkpt><trkpt lat="38.1066967" lon="12.7350367"><ele>53.4</ele><time>2026-04-29T08:47:31.843Z</time></trkpt><trkpt lat="38.1067783" lon="12.7350467"><ele>53.2</ele><time>2026-04-29T08:47:32.852Z</time></trkpt><trkpt lat="38.1068617" lon="12.73506"><ele>53.0</ele><time>2026-04-29T08:47:33.84Z</time></trkpt><trkpt lat="38.106955" lon="12.7350733"><ele>53.0</ele><time>2026-04-29T08:47:34.84Z</time></trkpt><trkpt lat="38.107055" lon="12.735085"><ele>53.0</ele><time>2026-04-29T08:47:35.841Z</time></trkpt><trkpt lat="38.1071683" lon="12.7351"><ele>53.0</ele><time>2026-04-29T08:47:36.842Z</time></trkpt><trkpt lat="38.1072883" lon="12.7351183"><ele>53.0</ele><time>2026-04-29T08:47:37.842Z</time></trkpt><trkpt lat="38.10741" lon="12.735135"><ele>52.0</ele><time>2026-04-29T08:47:38.838Z</time></trkpt><trkpt lat="38.1075383" lon="12.73515"><ele>51.0</ele><time>2026-04-29T08:47:39.839Z</time></trkpt><trkpt lat="38.10767" lon="12.73516"><ele>50.0</ele><time>2026-04-29T08:47:40.842Z</time></trkpt><trkpt lat="38.1078067" lon="12.7351683"><ele>49.0</ele><time>2026-04-29T08:47:41.844Z</time></trkpt><trkpt lat="38.1079483" lon="12.73517"><ele>49.0</ele><time>2026-04-29T08:47:42.845Z</time></trkpt><trkpt lat="38.1080967" lon="12.7351617"><ele>49.0</ele><time>2026-04-29T08:47:43.842Z</time></trkpt><trkpt lat="38.1082483" lon="12.7351467"><ele>49.0</ele><time>2026-04-29T08:47:44.844Z</time></trkpt><trkpt lat="38.1084" lon="12.73513"><ele>48.666666666666664</ele><time>2026-04-29T08:47:45.838Z</time></trkpt><trkpt lat="38.1085517" lon="12.735115"><ele>48.33333333333333</ele><time>2026-04-29T08:47:46.84Z</time></trkpt><trkpt lat="38.108705" lon="12.7350967"><ele>48.0</ele><time>2026-04-29T08:47:47.838Z</time></trkpt><trkpt lat="38.1088533" lon="12.7350817"><ele>48.0</ele><time>2026-04-29T08:47:48.838Z</time></trkpt><trkpt lat="38.1090017" lon="12.735065"><ele>48.0</ele><time>2026-04-29T08:47:49.84Z</time></trkpt><trkpt lat="38.1091433" lon="12.7350483"><ele>48.0</ele><time>2026-04-29T08:47:50.844Z</time></trkpt><trkpt lat="38.1092767" lon="12.7350333"><ele>48.0</ele><time>2026-04-29T08:47:51.84Z</time></trkpt><trkpt lat="38.1094" lon="12.73502"><ele>47.8</ele><time>2026-04-29T08:47:52.84Z</time></trkpt><trkpt lat="38.109515" lon="12.7350083"><ele>47.599999999999994</ele><time>2026-04-29T08:47:53.839Z</time></trkpt><trkpt lat="38.1096233" lon="12.7349917"><ele>47.400000000000006</ele><time>2026-04-29T08:47:54.838Z</time></trkpt><trkpt lat="38.1097233" lon="12.7349783"><ele>47.2</ele><time>2026-04-29T08:47:55.84Z</time></trkpt><trkpt lat="38.109825" lon="12.7349617"><ele>47.0</ele><time>2026-04-29T08:47:56.843Z</time></trkpt><trkpt lat="38.1099467" lon="12.7349383"><ele>47.0</ele><time>2026-04-29T08:47:57.841Z</time></trkpt><trkpt lat="38.1101067" lon="12.73491"><ele>47.0</ele><time>2026-04-29T08:47:58.841Z</time></trkpt><trkpt lat="38.1102983" lon="12.734885"><ele>47.0</ele><time>2026-04-29T08:47:59.838Z</time></trkpt><trkpt lat="38.110515" lon="12.734865"><ele>46.0</ele><time>2026-04-29T08:48:00.841Z</time></trkpt><trkpt lat="38.1107467" lon="12.734845"><ele>45.0</ele><time>2026-04-29T08:48:01.838Z</time></trkpt><trkpt lat="38.1109917" lon="12.7348183"><ele>45.0</ele><time>2026-04-29T08:48:02.846Z</time></trkpt><trkpt lat="38.1112317" lon="12.7347933"><ele>45.0</ele><time>2026-04-29T08:48:03.844Z</time></trkpt><trkpt lat="38.1114717" lon="12.734765"><ele>44.5</ele><time>2026-04-29T08:48:04.84Z</time></trkpt><trkpt lat="38.1117133" lon="12.7347333"><ele>44.0</ele><time>2026-04-29T08:48:05.841Z</time></trkpt><trkpt lat="38.1119633" lon="12.7347033"><ele>44.0</ele><time>2026-04-29T08:48:06.839Z</time></trkpt><trkpt lat="38.1122283" lon="12.73467"><ele>44.0</ele><time>2026-04-29T08:48:07.84Z</time></trkpt><trkpt lat="38.11251" lon="12.734635"><ele>44.0</ele><time>2026-04-29T08:48:08.839Z</time></trkpt><trkpt lat="38.1128017" lon="12.7345983"><ele>44.0</ele><time>2026-04-29T08:48:09.841Z</time></trkpt><trkpt lat="38.113075" lon="12.7345617"><ele>43.0</ele><time>2026-04-29T08:48:10.844Z</time></trkpt><trkpt lat="38.1133333" lon="12.7345267"><ele>42.0</ele><time>2026-04-29T08:48:11.842Z</time></trkpt><trkpt lat="38.1135783" lon="12.734495"><ele>42.0</ele><time>2026-04-29T08:48:12.849Z</time></trkpt><trkpt lat="38.11382" lon="12.7344633"><ele>42.0</ele><time>2026-04-29T08:48:13.84Z</time></trkpt><trkpt lat="38.1140617" lon="12.734435"><ele>41.0</ele><time>2026-04-29T08:48:14.84Z</time></trkpt><trkpt lat="38.1142983" lon="12.7344033"><ele>40.0</ele><time>2026-04-29T08:48:15.84Z</time></trkpt><trkpt lat="38.1145267" lon="12.734375"><ele>39.333333333333336</ele><time>2026-04-29T08:48:16.839Z</time></trkpt><trkpt lat="38.1147433" lon="12.7343467"><ele>38.666666666666664</ele><time>2026-04-29T08:48:17.842Z</time></trkpt><trkpt lat="38.1149483" lon="12.73432"><ele>38.0</ele><time>2026-04-29T08:48:18.842Z</time></trkpt><trkpt lat="38.1151433" lon="12.734295"><ele>38.0</ele><time>2026-04-29T08:48:19.841Z</time></trkpt><trkpt lat="38.1153317" lon="12.73427"><ele>38.0</ele><time>2026-04-29T08:48:20.842Z</time></trkpt><trkpt lat="38.1155083" lon="12.73425"><ele>38.0</ele><time>2026-04-29T08:48:21.84Z</time></trkpt><trkpt lat="38.115675" lon="12.734235"><ele>37.33333333333333</ele><time>2026-04-29T08:48:22.839Z</time></trkpt><trkpt lat="38.1158383" lon="12.7342183"><ele>36.666666666666664</ele><time>2026-04-29T08:48:23.839Z</time></trkpt><trkpt lat="38.1160067" lon="12.7341983"><ele>36.0</ele><time>2026-04-29T08:48:24.841Z</time></trkpt><trkpt lat="38.11618" lon="12.73418"><ele>36.0</ele><time>2026-04-29T08:48:25.84Z</time></trkpt><trkpt lat="38.1163567" lon="12.7341567"><ele>36.0</ele><time>2026-04-29T08:48:26.846Z</time></trkpt><trkpt lat="38.116545" lon="12.734125"><ele>36.0</ele><time>2026-04-29T08:48:27.84Z</time></trkpt><trkpt lat="38.11675" lon="12.7340933"><ele>36.0</ele><time>2026-04-29T08:48:28.84Z</time></trkpt><trkpt lat="38.1169767" lon="12.734065"><ele>36.0</ele><time>2026-04-29T08:48:29.838Z</time></trkpt><trkpt lat="38.1172117" lon="12.7340417"><ele>35.666666666666664</ele><time>2026-04-29T08:48:30.84Z</time></trkpt><trkpt lat="38.1174383" lon="12.7340167"><ele>35.33333333333333</ele><time>2026-04-29T08:48:31.84Z</time></trkpt><trkpt lat="38.1176517" lon="12.7339933"><ele>35.0</ele><time>2026-04-29T08:48:32.843Z</time></trkpt><trkpt lat="38.11785" lon="12.7339733"><ele>35.0</ele><time>2026-04-29T08:48:33.84Z</time></trkpt><trkpt lat="38.1180383" lon="12.7339533"><ele>35.0</ele><time>2026-04-29T08:48:34.842Z</time></trkpt><trkpt lat="38.118215" lon="12.7339333"><ele>35.0</ele><time>2026-04-29T08:48:35.839Z</time></trkpt><trkpt lat="38.1183817" lon="12.733915"><ele>34.0</ele><time>2026-04-29T08:48:36.838Z</time></trkpt><trkpt lat="38.11855" lon="12.733895"><ele>33.0</ele><time>2026-04-29T08:48:37.841Z</time></trkpt><trkpt lat="38.1187233" lon="12.7338733"><ele>32.0</ele><time>2026-04-29T08:48:38.838Z</time></trkpt><trkpt lat="38.1189" lon="12.73385"><ele>31.0</ele><time>2026-04-29T08:48:39.842Z</time></trkpt><trkpt lat="38.1190817" lon="12.7338267"><ele>30.0</ele><time>2026-04-29T08:48:40.841Z</time></trkpt><trkpt lat="38.119265" lon="12.733805"><ele>29.0</ele><time>2026-04-29T08:48:41.84Z</time></trkpt><trkpt lat="38.11946" lon="12.7337767"><ele>29.0</ele><time>2026-04-29T08:48:42.841Z</time></trkpt><trkpt lat="38.1196817" lon="12.7337417"><ele>29.0</ele><time>2026-04-29T08:48:43.838Z</time></trkpt><trkpt lat="38.1199383" lon="12.733705"><ele>28.5</ele><time>2026-04-29T08:48:44.841Z</time></trkpt><trkpt lat="38.1202267" lon="12.7336717"><ele>28.0</ele><time>2026-04-29T08:48:45.839Z</time></trkpt><trkpt lat="38.120535" lon="12.733645"><ele>26.5</ele><time>2026-04-29T08:48:46.841Z</time></trkpt><trkpt lat="38.1208433" lon="12.7336167"><ele>25.0</ele><time>2026-04-29T08:48:47.84Z</time></trkpt><trkpt lat="38.121145" lon="12.7335817"><ele>25.0</ele><time>2026-04-29T08:48:48.846Z</time></trkpt><trkpt lat="38.1214433" lon="12.7335417"><ele>25.0</ele><time>2026-04-29T08:48:49.842Z</time></trkpt><trkpt lat="38.1217433" lon="12.7335033"><ele>25.0</ele><time>2026-04-29T08:48:50.842Z</time></trkpt><trkpt lat="38.1220467" lon="12.7334667"><ele>25.0</ele><time>2026-04-29T08:48:51.838Z</time></trkpt><trkpt lat="38.12235" lon="12.73343"><ele>24.5</ele><time>2026-04-29T08:48:52.839Z</time></trkpt><trkpt lat="38.1226517" lon="12.7333933"><ele>24.0</ele><time>2026-04-29T08:48:53.837Z</time></trkpt><trkpt lat="38.1229517" lon="12.7333583"><ele>24.5</ele><time>2026-04-29T08:48:54.843Z</time></trkpt><trkpt lat="38.1232517" lon="12.7333233"><ele>25.0</ele><time>2026-04-29T08:48:55.841Z</time></trkpt><trkpt lat="38.12355" lon="12.7332883"><ele>25.0</ele><time>2026-04-29T08:48:56.841Z</time></trkpt><trkpt lat="38.1238483" lon="12.73325"><ele>25.0</ele><time>2026-04-29T08:48:57.844Z</time></trkpt><trkpt lat="38.12415" lon="12.7332117"><ele>24.5</ele><time>2026-04-29T08:48:58.837Z</time></trkpt><trkpt lat="38.1244517" lon="12.733175"><ele>24.0</ele><time>2026-04-29T08:48:59.84Z</time></trkpt><trkpt lat="38.1247533" lon="12.7331383"><ele>24.0</ele><time>2026-04-29T08:49:00.84Z</time></trkpt><trkpt lat="38.1250567" lon="12.7331017"><ele>24.0</ele><time>2026-04-29T08:49:01.839Z</time></trkpt><trkpt lat="38.12536" lon="12.733065"><ele>24.0</ele><time>2026-04-29T08:49:02.848Z</time></trkpt><trkpt lat="38.1256617" lon="12.7330283"><ele>24.0</ele><time>2026-04-29T08:49:03.841Z</time></trkpt><trkpt lat="38.12596" lon="12.7329917"><ele>24.0</ele><time>2026-04-29T08:49:04.839Z</time></trkpt><trkpt lat="38.12625" lon="12.7329583"><ele>24.0</ele><time>2026-04-29T08:49:05.841Z</time></trkpt><trkpt lat="38.1265317" lon="12.732925"><ele>23.5</ele><time>2026-04-29T08:49:06.843Z</time></trkpt><trkpt lat="38.1268117" lon="12.7328933"><ele>23.0</ele><time>2026-04-29T08:49:07.84Z</time></trkpt><trkpt lat="38.1270917" lon="12.73286"><ele>23.0</ele><time>2026-04-29T08:49:08.84Z</time></trkpt><trkpt lat="38.127375" lon="12.7328233"><ele>23.0</ele><time>2026-04-29T08:49:09.84Z</time></trkpt><trkpt lat="38.12766" lon="12.732785"><ele>22.5</ele><time>2026-04-29T08:49:10.84Z</time></trkpt><trkpt lat="38.1279533" lon="12.732745"><ele>22.0</ele><time>2026-04-29T08:49:11.839Z</time></trkpt><trkpt lat="38.1282467" lon="12.7327033"><ele>20.5</ele><time>2026-04-29T08:49:12.842Z</time></trkpt><trkpt lat="38.1285367" lon="12.732665"><ele>19.0</ele><time>2026-04-29T08:49:13.839Z</time></trkpt><trkpt lat="38.1288117" lon="12.7326283"><ele>20.0</ele><time>2026-04-29T08:49:14.842Z</time></trkpt><trkpt lat="38.1290717" lon="12.7325983"><ele>21.0</ele><time>2026-04-29T08:49:15.843Z</time></trkpt><trkpt lat="38.129325" lon="12.7325733"><ele>21.0</ele><time>2026-04-29T08:49:16.843Z</time></trkpt><trkpt lat="38.1295733" lon="12.7325583"><ele>21.0</ele><time>2026-04-29T08:49:17.839Z</time></trkpt><trkpt lat="38.12982" lon="12.7325617"><ele>22.0</ele><time>2026-04-29T08:49:18.839Z</time></trkpt><trkpt lat="38.1300683" lon="12.7325883"><ele>23.0</ele><time>2026-04-29T08:49:19.839Z</time></trkpt><trkpt lat="38.13032" lon="12.7326383"><ele>23.0</ele><time>2026-04-29T08:49:20.842Z</time></trkpt><trkpt lat="38.1305783" lon="12.7327067"><ele>23.0</ele><time>2026-04-29T08:49:21.842Z</time></trkpt><trkpt lat="38.1308367" lon="12.7327883"><ele>25.0</ele><time>2026-04-29T08:49:22.842Z</time></trkpt><trkpt lat="38.131095" lon="12.73288"><ele>27.0</ele><time>2026-04-29T08:49:23.843Z</time></trkpt><trkpt lat="38.1313517" lon="12.7329783"><ele>26.0</ele><time>2026-04-29T08:49:24.843Z</time></trkpt><trkpt lat="38.1316067" lon="12.73309"><ele>25.0</ele><time>2026-04-29T08:49:25.84Z</time></trkpt><trkpt lat="38.131865" lon="12.733225"><ele>25.0</ele><time>2026-04-29T08:49:26.838Z</time></trkpt><trkpt lat="38.1321267" lon="12.7333767"><ele>25.0</ele><time>2026-04-29T08:49:27.839Z</time></trkpt><trkpt lat="38.1323833" lon="12.7335283"><ele>26.0</ele><time>2026-04-29T08:49:28.84Z</time></trkpt><trkpt lat="38.1326233" lon="12.73367"><ele>27.0</ele><time>2026-04-29T08:49:29.842Z</time></trkpt><trkpt lat="38.1328517" lon="12.7338067"><ele>27.0</ele><time>2026-04-29T08:49:30.842Z</time></trkpt><trkpt lat="38.1330633" lon="12.7339417"><ele>27.0</ele><time>2026-04-29T08:49:31.841Z</time></trkpt><trkpt lat="38.1332667" lon="12.73409"><ele>26.5</ele><time>2026-04-29T08:49:32.842Z</time></trkpt><trkpt lat="38.1334717" lon="12.7342633"><ele>26.0</ele><time>2026-04-29T08:49:33.838Z</time></trkpt><trkpt lat="38.1336817" lon="12.7344667"><ele>26.0</ele><time>2026-04-29T08:49:34.84Z</time></trkpt><trkpt lat="38.1338967" lon="12.7346983"><ele>26.0</ele><time>2026-04-29T08:49:35.841Z</time></trkpt><trkpt lat="38.1341117" lon="12.73494"><ele>26.0</ele><time>2026-04-29T08:49:36.843Z</time></trkpt><trkpt lat="38.1343233" lon="12.735185"><ele>26.0</ele><time>2026-04-29T08:49:37.843Z</time></trkpt><trkpt lat="38.13453" lon="12.7354267"><ele>26.0</ele><time>2026-04-29T08:49:38.843Z</time></trkpt><trkpt lat="38.1347333" lon="12.73566"><ele>26.0</ele><time>2026-04-29T08:49:39.84Z</time></trkpt><trkpt lat="38.1349317" lon="12.7358883"><ele>25.5</ele><time>2026-04-29T08:49:40.839Z</time></trkpt><trkpt lat="38.1351283" lon="12.7361117"><ele>25.0</ele><time>2026-04-29T08:49:41.838Z</time></trkpt><trkpt lat="38.135325" lon="12.736335"><ele>25.0</ele><time>2026-04-29T08:49:42.841Z</time></trkpt><trkpt lat="38.1355283" lon="12.73656"><ele>25.0</ele><time>2026-04-29T08:49:43.841Z</time></trkpt><trkpt lat="38.135735" lon="12.7367967"><ele>23.5</ele><time>2026-04-29T08:49:44.841Z</time></trkpt><trkpt lat="38.13594" lon="12.7370383"><ele>22.0</ele><time>2026-04-29T08:49:45.842Z</time></trkpt><trkpt lat="38.1361383" lon="12.7372783"><ele>22.0</ele><time>2026-04-29T08:49:46.843Z</time></trkpt><trkpt lat="38.13633" lon="12.7375083"><ele>22.0</ele><time>2026-04-29T08:49:47.835Z</time></trkpt><trkpt lat="38.1365267" lon="12.737735"><ele>22.0</ele><time>2026-04-29T08:49:48.839Z</time></trkpt><trkpt lat="38.136725" lon="12.737965"><ele>22.0</ele><time>2026-04-29T08:49:49.838Z</time></trkpt><trkpt lat="38.1369233" lon="12.7382033"><ele>22.0</ele><time>2026-04-29T08:49:50.84Z</time></trkpt><trkpt lat="38.137115" lon="12.7384417"><ele>22.0</ele><time>2026-04-29T08:49:51.846Z</time></trkpt><trkpt lat="38.1372983" lon="12.7386633"><ele>23.5</ele><time>2026-04-29T08:49:52.836Z</time></trkpt><trkpt lat="38.1374767" lon="12.738865"><ele>25.0</ele><time>2026-04-29T08:49:53.836Z</time></trkpt><trkpt lat="38.1376483" lon="12.7390383"><ele>25.0</ele><time>2026-04-29T08:49:54.836Z</time></trkpt><trkpt lat="38.13782" lon="12.739185"><ele>25.0</ele><time>2026-04-29T08:49:55.837Z</time></trkpt><trkpt lat="38.1379933" lon="12.7393"><ele>25.0</ele><time>2026-04-29T08:49:56.838Z</time></trkpt><trkpt lat="38.1381783" lon="12.7393833"><ele>29.0</ele><time>2026-04-29T08:49:57.84Z</time></trkpt><trkpt lat="38.13838" lon="12.7394383"><ele>33.0</ele><time>2026-04-29T08:49:58.844Z</time></trkpt><trkpt lat="38.1385983" lon="12.739465"><ele>37.0</ele><time>2026-04-29T08:49:59.84Z</time></trkpt><trkpt lat="38.1388167" lon="12.73948"><ele>37.0</ele><time>2026-04-29T08:50:00.842Z</time></trkpt><trkpt lat="38.13902" lon="12.7394933"><ele>37.0</ele><time>2026-04-29T08:50:01.84Z</time></trkpt><trkpt lat="38.1392067" lon="12.7394967"><ele>37.0</ele><time>2026-04-29T08:50:02.839Z</time></trkpt><trkpt lat="38.1393817" lon="12.7394733"><ele>37.0</ele><time>2026-04-29T08:50:03.838Z</time></trkpt><trkpt lat="38.1395633" lon="12.73941"><ele>37.0</ele><time>2026-04-29T08:50:04.84Z</time></trkpt><trkpt lat="38.1397517" lon="12.7393067"><ele>37.0</ele><time>2026-04-29T08:50:05.837Z</time></trkpt><trkpt lat="38.13995" lon="12.7391717"><ele>36.333333333333336</ele><time>2026-04-29T08:50:06.842Z</time></trkpt><trkpt lat="38.140145" lon="12.7390267"><ele>35.666666666666664</ele><time>2026-04-29T08:50:07.837Z</time></trkpt><trkpt lat="38.14033" lon="12.7388917"><ele>35.0</ele><time>2026-04-29T08:50:08.841Z</time></trkpt><trkpt lat="38.1405" lon="12.738775"><ele>35.0</ele><time>2026-04-29T08:50:09.839Z</time></trkpt><trkpt lat="38.1406617" lon="12.738685"><ele>35.0</ele><time>2026-04-29T08:50:10.838Z</time></trkpt><trkpt lat="38.140815" lon="12.7386367"><ele>35.0</ele><time>2026-04-29T08:50:11.84Z</time></trkpt><trkpt lat="38.1409683" lon="12.7386317"><ele>42.0</ele><time>2026-04-29T08:50:12.84Z</time></trkpt><trkpt lat="38.1411267" lon="12.7386667"><ele>49.0</ele><time>2026-04-29T08:50:13.84Z</time></trkpt><trkpt lat="38.1412917" lon="12.7387417"><ele>56.0</ele><time>2026-04-29T08:50:14.841Z</time></trkpt><trkpt lat="38.1414733" lon="12.738845"><ele>56.0</ele><time>2026-04-29T08:50:15.842Z</time></trkpt><trkpt lat="38.141675" lon="12.7389683"><ele>56.0</ele><time>2026-04-29T08:50:16.839Z</time></trkpt><trkpt lat="38.1419" lon="12.739105"><ele>56.0</ele><time>2026-04-29T08:50:17.839Z</time></trkpt><trkpt lat="38.1421433" lon="12.7392467"><ele>56.0</ele><time>2026-04-29T08:50:18.839Z</time></trkpt><trkpt lat="38.1424083" lon="12.7393867"><ele>60.0</ele><time>2026-04-29T08:50:19.839Z</time></trkpt><trkpt lat="38.1427033" lon="12.7395167"><ele>64.0</ele><time>2026-04-29T08:50:20.841Z</time></trkpt><trkpt lat="38.1430083" lon="12.7396333"><ele>63.5</ele><time>2026-04-29T08:50:21.84Z</time></trkpt><trkpt lat="38.143295" lon="12.7397417"><ele>63.0</ele><time>2026-04-29T08:50:22.84Z</time></trkpt><trkpt lat="38.1435617" lon="12.73985"><ele>63.0</ele><time>2026-04-29T08:50:23.839Z</time></trkpt><trkpt lat="38.143815" lon="12.73997"><ele>63.0</ele><time>2026-04-29T08:50:24.841Z</time></trkpt><trkpt lat="38.144055" lon="12.7401033"><ele>70.0</ele><time>2026-04-29T08:50:25.839Z</time></trkpt><trkpt lat="38.1442717" lon="12.7402317"><ele>77.0</ele><time>2026-04-29T08:50:26.842Z</time></trkpt><trkpt lat="38.1444733" lon="12.7403483"><ele>77.0</ele><time>2026-04-29T08:50:27.844Z</time></trkpt><trkpt lat="38.1446633" lon="12.7404267"><ele>77.0</ele><time>2026-04-29T08:50:28.843Z</time></trkpt><trkpt lat="38.1448483" lon="12.7404683"><ele>77.0</ele><time>2026-04-29T08:50:29.842Z</time></trkpt><trkpt lat="38.14503" lon="12.7404767"><ele>78.33333333333334</ele><time>2026-04-29T08:50:30.845Z</time></trkpt><trkpt lat="38.1452167" lon="12.74045"><ele>79.66666666666667</ele><time>2026-04-29T08:50:31.84Z</time></trkpt><trkpt lat="38.1454233" lon="12.740385"><ele>81.0</ele><time>2026-04-29T08:50:32.846Z</time></trkpt><trkpt lat="38.14565" lon="12.7402867"><ele>79.5</ele><time>2026-04-29T08:50:33.84Z</time></trkpt><trkpt lat="38.1458983" lon="12.74016"><ele>78.0</ele><time>2026-04-29T08:50:34.844Z</time></trkpt><trkpt lat="38.1461717" lon="12.740015"><ele>78.0</ele><time>2026-04-29T08:50:35.841Z</time></trkpt><trkpt lat="38.146465" lon="12.7398667"><ele>78.0</ele><time>2026-04-29T08:50:36.842Z</time></trkpt><trkpt lat="38.1467617" lon="12.73972"><ele>81.0</ele><time>2026-04-29T08:50:37.843Z</time></trkpt><trkpt lat="38.147055" lon="12.7395867"><ele>84.0</ele><time>2026-04-29T08:50:38.844Z</time></trkpt><trkpt lat="38.147345" lon="12.73947"><ele>85.0</ele><time>2026-04-29T08:50:39.847Z</time></trkpt><trkpt lat="38.14764" lon="12.7393683"><ele>86.0</ele><time>2026-04-29T08:50:40.846Z</time></trkpt><trkpt lat="38.1479383" lon="12.73928"><ele>86.0</ele><time>2026-04-29T08:50:41.841Z</time></trkpt><trkpt lat="38.1482367" lon="12.739195"><ele>86.0</ele><time>2026-04-29T08:50:42.843Z</time></trkpt><trkpt lat="38.148525" lon="12.7391133"><ele>86.0</ele><time>2026-04-29T08:50:43.841Z</time></trkpt><trkpt lat="38.1488067" lon="12.739035"><ele>86.0</ele><time>2026-04-29T08:50:44.842Z</time></trkpt><trkpt lat="38.14908" lon="12.738955"><ele>86.0</ele><time>2026-04-29T08:50:45.84Z</time></trkpt><trkpt lat="38.1493517" lon="12.73887"><ele>86.0</ele><time>2026-04-29T08:50:46.839Z</time></trkpt><trkpt lat="38.1496183" lon="12.7387767"><ele>85.5</ele><time>2026-04-29T08:50:47.838Z</time></trkpt><trkpt lat="38.149885" lon="12.7386767"><ele>85.0</ele><time>2026-04-29T08:50:48.839Z</time></trkpt><trkpt lat="38.1501533" lon="12.7385717"><ele>85.5</ele><time>2026-04-29T08:50:49.84Z</time></trkpt><trkpt lat="38.1504267" lon="12.7384633"><ele>86.0</ele><time>2026-04-29T08:50:50.842Z</time></trkpt><trkpt lat="38.1507" lon="12.7383533"><ele>83.5</ele><time>2026-04-29T08:50:51.84Z</time></trkpt><trkpt lat="38.150975" lon="12.73824"><ele>81.0</ele><time>2026-04-29T08:50:52.846Z</time></trkpt><trkpt lat="38.15125" lon="12.738125"><ele>81.0</ele><time>2026-04-29T08:50:53.839Z</time></trkpt><trkpt lat="38.151525" lon="12.73801"><ele>81.0</ele><time>2026-04-29T08:50:54.838Z</time></trkpt><trkpt lat="38.1518017" lon="12.737895"><ele>81.0</ele><time>2026-04-29T08:50:55.84Z</time></trkpt><trkpt lat="38.1520733" lon="12.7377817"><ele>81.0</ele><time>2026-04-29T08:50:56.843Z</time></trkpt><trkpt lat="38.1523367" lon="12.7376783"><ele>80.0</ele><time>2026-04-29T08:50:57.851Z</time></trkpt><trkpt lat="38.1525983" lon="12.7375817"><ele>79.0</ele><time>2026-04-29T08:50:58.841Z</time></trkpt><trkpt lat="38.15286" lon="12.7375017"><ele>79.0</ele><time>2026-04-29T08:50:59.842Z</time></trkpt><trkpt lat="38.1531283" lon="12.73745"><ele>79.0</ele><time>2026-04-29T08:51:00.84Z</time></trkpt><trkpt lat="38.1534017" lon="12.73743"><ele>79.5</ele><time>2026-04-29T08:51:01.843Z</time></trkpt><trkpt lat="38.153675" lon="12.737435"><ele>80.0</ele><time>2026-04-29T08:51:02.841Z</time></trkpt><trkpt lat="38.1539417" lon="12.7374533"><ele>80.0</ele><time>2026-04-29T08:51:03.839Z</time></trkpt><trkpt lat="38.1542067" lon="12.737475"><ele>80.0</ele><time>2026-04-29T08:51:04.841Z</time></trkpt><trkpt lat="38.1544667" lon="12.737495"><ele>80.0</ele><time>2026-04-29T08:51:05.842Z</time></trkpt><trkpt lat="38.1547233" lon="12.737515"><ele>80.0</ele><time>2026-04-29T08:51:06.839Z</time></trkpt><trkpt lat="38.1549733" lon="12.7375333"><ele>78.0</ele><time>2026-04-29T08:51:07.837Z</time></trkpt><trkpt lat="38.1552083" lon="12.73755"><ele>76.0</ele><time>2026-04-29T08:51:08.841Z</time></trkpt><trkpt lat="38.1554317" lon="12.7375667"><ele>76.0</ele><time>2026-04-29T08:51:09.839Z</time></trkpt><trkpt lat="38.1556433" lon="12.7375833"><ele>76.0</ele><time>2026-04-29T08:51:10.844Z</time></trkpt><trkpt lat="38.1558517" lon="12.7376"><ele>76.0</ele><time>2026-04-29T08:51:11.838Z</time></trkpt><trkpt lat="38.1560583" lon="12.7376183"><ele>74.0</ele><time>2026-04-29T08:51:12.84Z</time></trkpt><trkpt lat="38.1562683" lon="12.737635"><ele>72.0</ele><time>2026-04-29T08:51:13.842Z</time></trkpt><trkpt lat="38.1564817" lon="12.73765"><ele>70.0</ele><time>2026-04-29T08:51:14.841Z</time></trkpt><trkpt lat="38.1567" lon="12.7376633"><ele>69.33333333333333</ele><time>2026-04-29T08:51:15.838Z</time></trkpt><trkpt lat="38.1569167" lon="12.7376767"><ele>68.66666666666667</ele><time>2026-04-29T08:51:16.842Z</time></trkpt><trkpt lat="38.157125" lon="12.7376867"><ele>68.0</ele><time>2026-04-29T08:51:17.843Z</time></trkpt><trkpt lat="38.1575183" lon="12.7377083"><ele>67.0</ele><time>2026-04-29T08:51:19.842Z</time></trkpt><trkpt lat="38.1577067" lon="12.73771"><ele>66.0</ele><time>2026-04-29T08:51:20.84Z</time></trkpt><trkpt lat="38.1578933" lon="12.7376983"><ele>65.0</ele><time>2026-04-29T08:51:21.841Z</time></trkpt><trkpt lat="38.1580733" lon="12.7376717"><ele>63.0</ele><time>2026-04-29T08:51:22.837Z</time></trkpt><trkpt lat="38.1582417" lon="12.7376383"><ele>61.0</ele><time>2026-04-29T08:51:23.849Z</time></trkpt><trkpt lat="38.1584" lon="12.7376017"><ele>59.0</ele><time>2026-04-29T08:51:24.843Z</time></trkpt><trkpt lat="38.1585517" lon="12.737565"><ele>59.0</ele><time>2026-04-29T08:51:25.842Z</time></trkpt><trkpt lat="38.1586967" lon="12.7375333"><ele>59.0</ele><time>2026-04-29T08:51:26.843Z</time></trkpt><trkpt lat="38.1588367" lon="12.7375033"><ele>59.0</ele><time>2026-04-29T08:51:27.84Z</time></trkpt><trkpt lat="38.1589733" lon="12.7374717"><ele>59.0</ele><time>2026-04-29T08:51:28.839Z</time></trkpt><trkpt lat="38.1591117" lon="12.73744"><ele>58.5</ele><time>2026-04-29T08:51:29.843Z</time></trkpt><trkpt lat="38.1592517" lon="12.7374067"><ele>58.0</ele><time>2026-04-29T08:51:30.84Z</time></trkpt><trkpt lat="38.159395" lon="12.73737"><ele>57.5</ele><time>2026-04-29T08:51:31.846Z</time></trkpt><trkpt lat="38.159545" lon="12.7373317"><ele>57.0</ele><time>2026-04-29T08:51:32.841Z</time></trkpt><trkpt lat="38.1596983" lon="12.7372933"><ele>57.0</ele><time>2026-04-29T08:51:33.839Z</time></trkpt><trkpt lat="38.1598533" lon="12.737255"><ele>57.0</ele><time>2026-04-29T08:51:34.84Z</time></trkpt><trkpt lat="38.160005" lon="12.737215"><ele>57.0</ele><time>2026-04-29T08:51:35.842Z</time></trkpt><trkpt lat="38.160145" lon="12.737175"><ele>55.75</ele><time>2026-04-29T08:51:36.839Z</time></trkpt><trkpt lat="38.16028" lon="12.737135"><ele>54.5</ele><time>2026-04-29T08:51:37.84Z</time></trkpt><trkpt lat="38.16041" lon="12.7370967"><ele>53.25</ele><time>2026-04-29T08:51:38.842Z</time></trkpt><trkpt lat="38.1605367" lon="12.7370617"><ele>52.0</ele><time>2026-04-29T08:51:39.85Z</time></trkpt><trkpt lat="38.1606617" lon="12.73703"><ele>51.0</ele><time>2026-04-29T08:51:40.84Z</time></trkpt><trkpt lat="38.1607817" lon="12.737"><ele>50.0</ele><time>2026-04-29T08:51:41.84Z</time></trkpt><trkpt lat="38.1609" lon="12.7369717"><ele>49.0</ele><time>2026-04-29T08:51:42.84Z</time></trkpt><trkpt lat="38.16102" lon="12.73694"><ele>48.0</ele><time>2026-04-29T08:51:43.841Z</time></trkpt><trkpt lat="38.1611433" lon="12.7369033"><ele>48.66666666666667</ele><time>2026-04-29T08:51:44.837Z</time></trkpt><trkpt lat="38.1612783" lon="12.7368633"><ele>49.333333333333336</ele><time>2026-04-29T08:51:45.839Z</time></trkpt><trkpt lat="38.16143" lon="12.736815"><ele>50.0</ele><time>2026-04-29T08:51:46.84Z</time></trkpt><trkpt lat="38.1616" lon="12.7367633"><ele>48.0</ele><time>2026-04-29T08:51:47.843Z</time></trkpt><trkpt lat="38.1617817" lon="12.736715"><ele>46.0</ele><time>2026-04-29T08:51:48.841Z</time></trkpt><trkpt lat="38.1619633" lon="12.736665"><ele>44.0</ele><time>2026-04-29T08:51:49.838Z</time></trkpt><trkpt lat="38.1621467" lon="12.7366117"><ele>44.0</ele><time>2026-04-29T08:51:50.844Z</time></trkpt><trkpt lat="38.1623367" lon="12.7365567"><ele>44.0</ele><time>2026-04-29T08:51:51.841Z</time></trkpt><trkpt lat="38.1625317" lon="12.7364983"><ele>44.0</ele><time>2026-04-29T08:51:52.842Z</time></trkpt><trkpt lat="38.162735" lon="12.7364417"><ele>43.33333333333333</ele><time>2026-04-29T08:51:53.842Z</time></trkpt><trkpt lat="38.1629333" lon="12.7363867"><ele>42.666666666666664</ele><time>2026-04-29T08:51:54.855Z</time></trkpt><trkpt lat="38.1631217" lon="12.7363333"><ele>42.0</ele><time>2026-04-29T08:51:55.84Z</time></trkpt><trkpt lat="38.1633017" lon="12.736285"><ele>41.0</ele><time>2026-04-29T08:51:56.84Z</time></trkpt><trkpt lat="38.16347" lon="12.7362383"><ele>40.0</ele><time>2026-04-29T08:51:57.841Z</time></trkpt><trkpt lat="38.1636317" lon="12.7361933"><ele>39.0</ele><time>2026-04-29T08:51:58.839Z</time></trkpt><trkpt lat="38.163785" lon="12.7361517"><ele>39.0</ele><time>2026-04-29T08:51:59.846Z</time></trkpt><trkpt lat="38.1639283" lon="12.7361117"><ele>39.0</ele><time>2026-04-29T08:52:00.839Z</time></trkpt><trkpt lat="38.1640617" lon="12.7360733"><ele>39.0</ele><time>2026-04-29T08:52:01.84Z</time></trkpt><trkpt lat="38.16418" lon="12.7360367"><ele>39.0</ele><time>2026-04-29T08:52:02.843Z</time></trkpt><trkpt lat="38.1642933" lon="12.736"><ele>38.4</ele><time>2026-04-29T08:52:03.84Z</time></trkpt><trkpt lat="38.164405" lon="12.7359633"><ele>37.8</ele><time>2026-04-29T08:52:04.84Z</time></trkpt><trkpt lat="38.1645183" lon="12.7359317"><ele>37.2</ele><time>2026-04-29T08:52:05.839Z</time></trkpt><trkpt lat="38.16462" lon="12.7359033"><ele>36.6</ele><time>2026-04-29T08:52:06.939Z</time></trkpt><trkpt lat="38.16471" lon="12.73588"><ele>36.0</ele><time>2026-04-29T08:52:07.842Z</time></trkpt><trkpt lat="38.1647883" lon="12.7358567"><ele>35.5</ele><time>2026-04-29T08:52:08.84Z</time></trkpt><trkpt lat="38.1648717" lon="12.73583"><ele>35.0</ele><time>2026-04-29T08:52:09.843Z</time></trkpt><trkpt lat="38.1649817" lon="12.7357917"><ele>34.5</ele><time>2026-04-29T08:52:10.841Z</time></trkpt><trkpt lat="38.1651167" lon="12.7357517"><ele>34.0</ele><time>2026-04-29T08:52:11.843Z</time></trkpt><trkpt lat="38.165275" lon="12.73571"><ele>34.0</ele><time>2026-04-29T08:52:12.838Z</time></trkpt><trkpt lat="38.165465" lon="12.7356667"><ele>34.0</ele><time>2026-04-29T08:52:13.838Z</time></trkpt><trkpt lat="38.1656833" lon="12.7356167"><ele>34.0</ele><time>2026-04-29T08:52:14.843Z</time></trkpt><trkpt lat="38.1659167" lon="12.7355617"><ele>33.0</ele><time>2026-04-29T08:52:15.841Z</time></trkpt><trkpt lat="38.1661533" lon="12.7354967"><ele>32.0</ele><time>2026-04-29T08:52:16.841Z</time></trkpt><trkpt lat="38.16637" lon="12.7354333"><ele>31.0</ele><time>2026-04-29T08:52:17.84Z</time></trkpt><trkpt lat="38.1665633" lon="12.7353767"><ele>30.0</ele><time>2026-04-29T08:52:18.847Z</time></trkpt><trkpt lat="38.1667383" lon="12.7353267"><ele>29.0</ele><time>2026-04-29T08:52:19.837Z</time></trkpt><trkpt lat="38.166895" lon="12.7352817"><ele>29.0</ele><time>2026-04-29T08:52:20.837Z</time></trkpt><trkpt lat="38.1670283" lon="12.7352417"><ele>29.0</ele><time>2026-04-29T08:52:21.841Z</time></trkpt><trkpt lat="38.167135" lon="12.7352133"><ele>29.0</ele><time>2026-04-29T08:52:22.85Z</time></trkpt><trkpt lat="38.1672183" lon="12.73519"><ele>29.0</ele><time>2026-04-29T08:52:23.838Z</time></trkpt><trkpt lat="38.1672817" lon="12.7351633"><ele>29.0</ele><time>2026-04-29T08:52:24.846Z</time></trkpt><trkpt lat="38.1673283" lon="12.7350733"><ele>29.2</ele><time>2026-04-29T08:52:26.848Z</time></trkpt><trkpt lat="38.1673233" lon="12.734985"><ele>29.4</ele><time>2026-04-29T08:52:27.839Z</time></trkpt><trkpt lat="38.167305" lon="12.7348667"><ele>29.6</ele><time>2026-04-29T08:52:28.837Z</time></trkpt><trkpt lat="38.1672633" lon="12.7347"><ele>29.8</ele><time>2026-04-29T08:52:29.844Z</time></trkpt><trkpt lat="38.1672167" lon="12.7345233"><ele>30.0</ele><time>2026-04-29T08:52:30.843Z</time></trkpt><trkpt lat="38.1671683" lon="12.73434"><ele>30.5</ele><time>2026-04-29T08:52:31.84Z</time></trkpt><trkpt lat="38.1671133" lon="12.7341533"><ele>31.0</ele><time>2026-04-29T08:52:32.84Z</time></trkpt><trkpt lat="38.16706" lon="12.7339833"><ele>31.5</ele><time>2026-04-29T08:52:33.841Z</time></trkpt><trkpt lat="38.1670133" lon="12.7338333"><ele>32.0</ele><time>2026-04-29T08:52:34.841Z</time></trkpt><trkpt lat="38.166975" lon="12.7337033"><ele>32.0</ele><time>2026-04-29T08:52:35.841Z</time></trkpt><trkpt lat="38.1669433" lon="12.7335883"><ele>32.0</ele><time>2026-04-29T08:52:36.839Z</time></trkpt><trkpt lat="38.1669267" lon="12.7334917"><ele>32.0</ele><time>2026-04-29T08:52:37.84Z</time></trkpt><trkpt lat="38.1669683" lon="12.7333683"><ele>32.0</ele><time>2026-04-29T08:52:39.848Z</time></trkpt><trkpt lat="38.1670367" lon="12.73334"><ele>32.0</ele><time>2026-04-29T08:52:40.838Z</time></trkpt><trkpt lat="38.1671483" lon="12.73332"><ele>32.0</ele><time>2026-04-29T08:52:41.842Z</time></trkpt><trkpt lat="38.16729" lon="12.7333083"><ele>32.0</ele><time>2026-04-29T08:52:42.835Z</time></trkpt><trkpt lat="38.16745" lon="12.7332933"><ele>32.0</ele><time>2026-04-29T08:52:43.836Z</time></trkpt><trkpt lat="38.1676067" lon="12.7332733"><ele>32.0</ele><time>2026-04-29T08:52:44.836Z</time></trkpt><trkpt lat="38.167755" lon="12.7332517"><ele>32.0</ele><time>2026-04-29T08:52:45.841Z</time></trkpt><trkpt lat="38.167895" lon="12.7332317"><ele>32.0</ele><time>2026-04-29T08:52:46.839Z</time></trkpt><trkpt lat="38.1680217" lon="12.733215"><ele>32.0</ele><time>2026-04-29T08:52:47.84Z</time></trkpt><trkpt lat="38.1681383" lon="12.7332033"><ele>31.400000000000002</ele><time>2026-04-29T08:52:48.852Z</time></trkpt><trkpt lat="38.1682467" lon="12.7331933"><ele>30.800000000000004</ele><time>2026-04-29T08:52:49.84Z</time></trkpt><trkpt lat="38.16835" lon="12.73318"><ele>30.2</ele><time>2026-04-29T08:52:50.844Z</time></trkpt><trkpt lat="38.168455" lon="12.7331617"><ele>29.6</ele><time>2026-04-29T08:52:51.851Z</time></trkpt><trkpt lat="38.1685633" lon="12.7331417"><ele>29.0</ele><time>2026-04-29T08:52:52.841Z</time></trkpt><trkpt lat="38.16868" lon="12.7331283"><ele>29.0</ele><time>2026-04-29T08:52:53.845Z</time></trkpt><trkpt lat="38.1688033" lon="12.7331167"><ele>29.0</ele><time>2026-04-29T08:52:54.842Z</time></trkpt><trkpt lat="38.1689417" lon="12.7331"><ele>29.0</ele><time>2026-04-29T08:52:55.839Z</time></trkpt><trkpt lat="38.1690867" lon="12.7330783"><ele>29.0</ele><time>2026-04-29T08:52:56.842Z</time></trkpt><trkpt lat="38.1692283" lon="12.7330583"><ele>28.0</ele><time>2026-04-29T08:52:57.843Z</time></trkpt><trkpt lat="38.1693667" lon="12.7330383"><ele>27.0</ele><time>2026-04-29T08:52:58.841Z</time></trkpt><trkpt lat="38.1695083" lon="12.7330183"><ele>26.0</ele><time>2026-04-29T08:52:59.844Z</time></trkpt><trkpt lat="38.169655" lon="12.733"><ele>25.0</ele><time>2026-04-29T08:53:00.841Z</time></trkpt><trkpt lat="38.1698067" lon="12.73298"><ele>24.25</ele><time>2026-04-29T08:53:01.836Z</time></trkpt><trkpt lat="38.169955" lon="12.7329617"><ele>23.5</ele><time>2026-04-29T08:53:02.837Z</time></trkpt><trkpt lat="38.1700933" lon="12.7329433"><ele>22.75</ele><time>2026-04-29T08:53:03.839Z</time></trkpt><trkpt lat="38.1702217" lon="12.732925"><ele>22.0</ele><time>2026-04-29T08:53:04.842Z</time></trkpt><trkpt lat="38.17034" lon="12.7329083"><ele>22.0</ele><time>2026-04-29T08:53:05.853Z</time></trkpt><trkpt lat="38.1704517" lon="12.732895"><ele>22.0</ele><time>2026-04-29T08:53:06.842Z</time></trkpt><trkpt lat="38.1705583" lon="12.7328817"><ele>22.0</ele><time>2026-04-29T08:53:07.842Z</time></trkpt><trkpt lat="38.1706567" lon="12.73287"><ele>22.0</ele><time>2026-04-29T08:53:08.84Z</time></trkpt><trkpt lat="38.1707517" lon="12.7328583"><ele>22.0</ele><time>2026-04-29T08:53:09.838Z</time></trkpt><trkpt lat="38.1708417" lon="12.7328483"><ele>21.666666666666664</ele><time>2026-04-29T08:53:10.839Z</time></trkpt><trkpt lat="38.1709267" lon="12.7328367"><ele>21.333333333333332</ele><time>2026-04-29T08:53:11.841Z</time></trkpt><trkpt lat="38.1710083" lon="12.732825"><ele>21.0</ele><time>2026-04-29T08:53:12.844Z</time></trkpt><trkpt lat="38.171085" lon="12.7328167"><ele>20.666666666666668</ele><time>2026-04-29T08:53:13.843Z</time></trkpt><trkpt lat="38.1711633" lon="12.7328067"><ele>20.333333333333336</ele><time>2026-04-29T08:53:14.849Z</time></trkpt><trkpt lat="38.17124" lon="12.7327967"><ele>20.0</ele><time>2026-04-29T08:53:15.839Z</time></trkpt><trkpt lat="38.1713167" lon="12.7327867"><ele>20.0</ele><time>2026-04-29T08:53:16.836Z</time></trkpt><trkpt lat="38.1713917" lon="12.7327783"><ele>20.0</ele><time>2026-04-29T08:53:17.84Z</time></trkpt><trkpt lat="38.1714667" lon="12.73277"><ele>20.0</ele><time>2026-04-29T08:53:18.845Z</time></trkpt><trkpt lat="38.1715483" lon="12.7327633"><ele>20.0</ele><time>2026-04-29T08:53:19.846Z</time></trkpt><trkpt lat="38.17163" lon="12.7327533"><ele>20.0</ele><time>2026-04-29T08:53:20.845Z</time></trkpt><trkpt lat="38.1717133" lon="12.73274"><ele>20.0</ele><time>2026-04-29T08:53:21.846Z</time></trkpt><trkpt lat="38.1718117" lon="12.7327167"><ele>20.0</ele><time>2026-04-29T08:53:22.849Z</time></trkpt><trkpt lat="38.1719283" lon="12.7326883"><ele>20.0</ele><time>2026-04-29T08:53:23.84Z</time></trkpt><trkpt lat="38.17206" lon="12.7326683"><ele>20.0</ele><time>2026-04-29T08:53:24.845Z</time></trkpt><trkpt lat="38.1721917" lon="12.7326583"><ele>20.0</ele><time>2026-04-29T08:53:25.84Z</time></trkpt><trkpt lat="38.1723233" lon="12.7326483"><ele>19.25</ele><time>2026-04-29T08:53:26.84Z</time></trkpt><trkpt lat="38.172445" lon="12.732635"><ele>18.5</ele><time>2026-04-29T08:53:27.838Z</time></trkpt><trkpt lat="38.1725667" lon="12.7326133"><ele>17.75</ele><time>2026-04-29T08:53:28.841Z</time></trkpt><trkpt lat="38.1727033" lon="12.7326017"><ele>17.0</ele><time>2026-04-29T08:53:29.84Z</time></trkpt><trkpt lat="38.1728583" lon="12.7325967"><ele>17.0</ele><time>2026-04-29T08:53:30.84Z</time></trkpt><trkpt lat="38.1730233" lon="12.7325883"><ele>17.0</ele><time>2026-04-29T08:53:31.837Z</time></trkpt><trkpt lat="38.1731917" lon="12.73257"><ele>17.0</ele><time>2026-04-29T08:53:32.838Z</time></trkpt><trkpt lat="38.1733517" lon="12.732545"><ele>17.0</ele><time>2026-04-29T08:53:33.84Z</time></trkpt><trkpt lat="38.17351" lon="12.73252"><ele>17.0</ele><time>2026-04-29T08:53:34.84Z</time></trkpt><trkpt lat="38.1736583" lon="12.7324983"><ele>17.0</ele><time>2026-04-29T08:53:35.841Z</time></trkpt><trkpt lat="38.1738" lon="12.73248"><ele>17.0</ele><time>2026-04-29T08:53:36.841Z</time></trkpt><trkpt lat="38.17395" lon="12.73246"><ele>17.0</ele><time>2026-04-29T08:53:37.844Z</time></trkpt><trkpt lat="38.1741033" lon="12.7324367"><ele>17.0</ele><time>2026-04-29T08:53:38.842Z</time></trkpt><trkpt lat="38.1742517" lon="12.7324167"><ele>16.5</ele><time>2026-04-29T08:53:39.838Z</time></trkpt><trkpt lat="38.1743883" lon="12.7323983"><ele>16.0</ele><time>2026-04-29T08:53:40.839Z</time></trkpt><trkpt lat="38.1745167" lon="12.7323817"><ele>15.5</ele><time>2026-04-29T08:53:41.842Z</time></trkpt><trkpt lat="38.174635" lon="12.7323683"><ele>15.0</ele><time>2026-04-29T08:53:42.851Z</time></trkpt><trkpt lat="38.174745" lon="12.732355"><ele>15.0</ele><time>2026-04-29T08:53:43.845Z</time></trkpt><trkpt lat="38.1748533" lon="12.7323417"><ele>15.0</ele><time>2026-04-29T08:53:44.841Z</time></trkpt><trkpt lat="38.17496" lon="12.7323283"><ele>15.0</ele><time>2026-04-29T08:53:45.839Z</time></trkpt><trkpt lat="38.1750683" lon="12.7323133"><ele>15.0</ele><time>2026-04-29T08:53:46.84Z</time></trkpt><trkpt lat="38.17517" lon="12.7323033"><ele>15.0</ele><time>2026-04-29T08:53:47.839Z</time></trkpt><trkpt lat="38.175265" lon="12.73229"><ele>14.5</ele><time>2026-04-29T08:53:48.842Z</time></trkpt><trkpt lat="38.1753367" lon="12.73227"><ele>14.0</ele><time>2026-04-29T08:53:49.843Z</time></trkpt><trkpt lat="38.1754767" lon="12.7322917"><ele>13.5</ele><time>2026-04-29T08:53:58.842Z</time></trkpt><trkpt lat="38.175545" lon="12.7322817"><ele>13.0</ele><time>2026-04-29T08:54:01.837Z</time></trkpt><trkpt lat="38.175625" lon="12.7322617"><ele>12.5</ele><time>2026-04-29T08:54:04.843Z</time></trkpt><trkpt lat="38.1756917" lon="12.7322467"><ele>12.0</ele><time>2026-04-29T08:54:06.846Z</time></trkpt><trkpt lat="38.175775" lon="12.7322367"><ele>11.666666666666666</ele><time>2026-04-29T08:54:08.842Z</time></trkpt><trkpt lat="38.1758483" lon="12.7322367"><ele>11.333333333333334</ele><time>2026-04-29T08:54:11.847Z</time></trkpt><trkpt lat="38.17594" lon="12.73222"><ele>11.0</ele><time>2026-04-29T08:54:18.841Z</time></trkpt><trkpt lat="38.1760233" lon="12.7322117"><ele>10.666666666666668</ele><time>2026-04-29T08:54:20.843Z</time></trkpt><trkpt lat="38.17611" lon="12.732195"><ele>10.333333333333334</ele><time>2026-04-29T08:54:22.837Z</time></trkpt><trkpt lat="38.1762017" lon="12.7321783"><ele>10.0</ele><time>2026-04-29T08:54:24.84Z</time></trkpt><trkpt lat="38.1762917" lon="12.7321683"><ele>10.0</ele><time>2026-04-29T08:54:26.842Z</time></trkpt><trkpt lat="38.17638" lon="12.73215"><ele>10.0</ele><time>2026-04-29T08:54:28.84Z</time></trkpt><trkpt lat="38.176475" lon="12.7321417"><ele>10.0</ele><time>2026-04-29T08:54:31.845Z</time></trkpt><trkpt lat="38.1765533" lon="12.7321333"><ele>10.0</ele><time>2026-04-29T08:54:33.844Z</time></trkpt><trkpt lat="38.17664" lon="12.7321167"><ele>10.0</ele><time>2026-04-29T08:54:35.843Z</time></trkpt><trkpt lat="38.176725" lon="12.7320967"><ele>10.0</ele><time>2026-04-29T08:54:37.839Z</time></trkpt><trkpt lat="38.176815" lon="12.7320717"><ele>10.0</ele><time>2026-04-29T08:54:39.843Z</time></trkpt><trkpt lat="38.1769467" lon="12.7320533"><ele>10.0</ele><time>2026-04-29T08:54:41.843Z</time></trkpt><trkpt lat="38.17702" lon="12.7320467"><ele>10.0</ele><time>2026-04-29T08:54:42.84Z</time></trkpt><trkpt lat="38.1771333" lon="12.73203"><ele>10.0</ele><time>2026-04-29T08:54:44.839Z</time></trkpt><trkpt lat="38.17722" lon="12.7319883"><ele>10.0</ele><time>2026-04-29T08:54:46.846Z</time></trkpt><trkpt lat="38.1772417" lon="12.73191"><ele>10.0</ele><time>2026-04-29T08:54:48.841Z</time></trkpt><trkpt lat="38.1772267" lon="12.7317883"><ele>11.0</ele><time>2026-04-29T08:54:50.843Z</time></trkpt><trkpt lat="38.1772117" lon="12.7317"><ele>11.0</ele><time>2026-04-29T08:54:52.84Z</time></trkpt></trkseg></trk></gpx>